
Distance (Route):
Temperature : 7.1°C
Humidity : 91.1%
Pressure : 803.8hPa| Receiver | Frames | First received | Last received |
|---|---|---|---|
| OE5MMP-10 | 399 | 2026-09-05 23:06:57 | 2026-09-06 01:06:40 |
| OE5DXL-15 | 356 | 2026-09-05 22:49:15 | 2026-09-06 01:47:52 |
| BAUMI2-15 | 350 | 2026-09-05 23:22:10 | 2026-09-06 00:54:17 |
| OE5DRO-10 | 301 | 2026-09-05 22:56:23 | 2026-09-06 01:09:16 |
| DG1MFX-10 | 288 | 2026-09-05 22:47:18 | 2026-09-06 01:08:54 |
| OE5WHR-10 | 226 | 2026-09-05 23:01:39 | 2026-09-06 00:56:42 |
| DO3MHA-11 | 170 | 2026-09-05 22:46:08 | 2026-09-06 00:45:05 |
| OE5HKT-10 | 164 | 2026-09-05 23:23:49 | 2026-09-06 01:01:58 |
| OE5FHM-15 | 156 | 2026-09-05 23:19:38 | 2026-09-06 01:05:00 |
| PG1ADW-2 | 149 | 2026-09-05 23:07:23 | 2026-09-06 01:10:23 |
| OE8JPQ-2 | 149 | 2026-09-05 23:39:39 | 2026-09-06 00:42:09 |
| OE3JTB-15 | 58 | 2026-09-05 22:59:21 | 2026-09-06 01:07:11 |
| DL6DJ-15 | 52 | 2026-09-05 22:52:26 | 2026-09-05 23:24:02 |
| DB0UT-7 | 42 | 2026-09-05 23:08:56 | 2026-09-06 00:41:35 |
| PETON7-10 | 39 | 2026-09-05 23:55:39 | 2026-09-06 00:08:05 |
| IN3HCDX | 25 | 2026-09-06 00:27:19 | 2026-09-06 00:38:28 |
| DF3TZ-5 | 9 | 2026-09-05 23:03:59 | 2026-09-05 23:21:03 |
| S52SK | 8 | 2026-09-05 23:35:52 | 2026-09-05 23:50:19 |
| DF7PN | 6 | 2026-09-05 23:59:29 | 2026-09-06 00:02:41 |
| DL1ZP-14 | 6 | 2026-09-06 00:17:51 | 2026-09-06 00:36:03 |
| DO7DH-14 | 5 | 2026-09-05 23:51:50 | 2026-09-06 00:41:30 |
| DB0ND-19 | 4 | 2026-09-05 23:10:15 | 2026-09-06 00:49:03 |
| IV3AMH | 2 | 2026-09-06 00:31:42 | 2026-09-06 00:34:11 |
| NBG1-10 | 1 | 2026-09-05 23:12:28 | 2026-09-05 23:12:28 |
| DH7VM-15 | 1 | 2026-09-06 00:40:09 | 2026-09-06 00:40:09 |
| Receiver | Date | Latitude | Longitude | Direction | Speed | Altitude | Climb | Temperature | Humidity | Pressure | Voltage | Killtimer | Uptime | BKT | XDATA |
|---|---|---|---|---|---|---|---|---|---|---|---|---|---|---|---|
| OE5DXL-15 | 2026-09-06 01:47:52 | 47.49084 | 13.29160 | 0° | 0km/h | 2089m | 0.0m/s | 7.1°C | 91.1% | 803.8hPa | 2.7V | 00:00:00 | 00:00:00 | 00:00:00 | |
| OE5DXL-15 | 2026-09-06 01:47:22 | 47.49084 | 13.29160 | 0° | 0km/h | 2090m | 0.0m/s | 6.8°C | 91.4% | 803.8hPa | 2.7V | 00:00:00 | 00:00:00 | 00:00:00 | |
| OE5DXL-15 | 2026-09-06 01:46:52 | 47.49084 | 13.29160 | 0° | 0km/h | 2090m | -0.0m/s | 7.1°C | 91.0% | 803.8hPa | 2.7V | 00:00:00 | 00:00:00 | 00:00:00 | |
| OE5DXL-15 | 2026-09-06 01:46:22 | 47.49084 | 13.29160 | 0° | 0km/h | 2090m | 0.0m/s | 7.5°C | 86.8% | 803.9hPa | 2.7V | 00:00:00 | 00:00:00 | 00:00:00 | |
| OE5DXL-15 | 2026-09-06 01:45:52 | 47.49084 | 13.29160 | 0° | 0km/h | 2091m | -0.0m/s | 7.2°C | 89.3% | 803.7hPa | 2.7V | 07:18:00 | 00:00:00 | 00:00:00 | |
| OE5DXL-15 | 2026-09-06 01:45:22 | 47.49084 | 13.29160 | 0° | 0km/h | 2091m | 0.0m/s | 7.3°C | 89.3% | 803.7hPa | 2.7V | 00:00:00 | 00:00:00 | 00:00:00 | |
| OE5DXL-15 | 2026-09-06 01:44:52 | 47.49084 | 13.29160 | 0° | 0km/h | 2091m | 0.0m/s | 7.0°C | 90.7% | 803.7hPa | 2.7V | 00:00:00 | 00:00:00 | 00:00:00 | |
| OE5DXL-15 | 2026-09-06 01:44:22 | 47.49084 | 13.29160 | 0° | 0km/h | 2090m | 0.0m/s | 7.7°C | 87.8% | 803.7hPa | 2.7V | 00:00:00 | 00:00:00 | 00:00:00 | |
| OE5DXL-15 | 2026-09-06 01:43:52 | 47.49084 | 13.29160 | 0° | 0km/h | 2090m | 0.1m/s | 7.8°C | 87.2% | 803.8hPa | 2.7V | 00:00:00 | 00:00:00 | 00:00:00 | |
| OE5DXL-15 | 2026-09-06 01:43:22 | 47.49084 | 13.29160 | 0° | 0km/h | 2090m | 0.0m/s | 7.4°C | 89.8% | 803.8hPa | 2.7V | 00:00:00 | 00:00:00 | 00:00:00 | |
| OE5DXL-15 | 2026-09-06 01:42:52 | 47.49084 | 13.29160 | 0° | 0km/h | 2089m | 0.0m/s | 7.5°C | 88.8% | 803.7hPa | 2.7V | 00:00:00 | 00:00:00 | 00:00:00 | |
| OE5DXL-15 | 2026-09-06 01:42:22 | 47.49084 | 13.29160 | 0° | 0km/h | 2090m | 0.0m/s | 8.0°C | 86.2% | 803.7hPa | 2.7V | 00:00:00 | 00:00:00 | 00:00:00 | |
| OE5DXL-15 | 2026-09-06 01:41:52 | 47.49084 | 13.29160 | 0° | 0km/h | 2090m | 0.0m/s | 7.5°C | 90.2% | 803.6hPa | 2.7V | 07:22:00 | 00:00:00 | 00:00:00 | |
| OE5DXL-15 | 2026-09-06 01:41:22 | 47.49084 | 13.29160 | 0° | 0km/h | 2090m | -0.1m/s | 7.5°C | 91.5% | 803.8hPa | 2.7V | 00:00:00 | 00:00:00 | 00:00:00 | |
| OE5DXL-15 | 2026-09-06 01:40:52 | 47.49084 | 13.29160 | 0° | 0km/h | 2089m | 0.1m/s | 7.0°C | 92.2% | 804.0hPa | 2.7V | 00:00:00 | 00:00:00 | 00:00:00 | |
| OE5DXL-15 | 2026-09-06 01:40:22 | 47.49084 | 13.29160 | 0° | 0km/h | 2089m | -0.0m/s | 7.6°C | 89.2% | 804.0hPa | 2.7V | 00:00:00 | 00:00:00 | 00:00:00 | |
| OE5DXL-15 | 2026-09-06 01:39:52 | 47.49084 | 13.29160 | 0° | 0km/h | 2089m | -0.0m/s | 6.5°C | 94.9% | 803.7hPa | 2.7V | 00:00:00 | 00:00:00 | 00:00:00 | |
| OE5DXL-15 | 2026-09-06 01:39:22 | 47.49084 | 13.29160 | 0° | 0km/h | 2089m | 0.0m/s | 6.9°C | 94.7% | 803.8hPa | 2.7V | 00:00:00 | 00:00:00 | 00:00:00 | |
| OE5DXL-15 | 2026-09-06 01:38:52 | 47.49084 | 13.29160 | 0° | 0km/h | 2089m | 0.1m/s | 7.3°C | 96.0% | 803.8hPa | 2.7V | 00:00:00 | 00:00:00 | 00:00:00 | |
| OE5DXL-15 | 2026-09-06 01:38:22 | 47.49084 | 13.29160 | 0° | 0km/h | 2089m | 0.0m/s | 7.0°C | 95.8% | 803.7hPa | 2.7V | 00:00:00 | 00:00:00 | 00:00:00 | |
| OE5DXL-15 | 2026-09-06 01:37:52 | 47.49084 | 13.29160 | 0° | 0km/h | 2089m | -0.0m/s | 7.2°C | 95.5% | 803.8hPa | 2.7V | 07:26:00 | 00:00:00 | 00:00:00 | |
| OE5DXL-15 | 2026-09-06 01:37:22 | 47.49084 | 13.29160 | 0° | 0km/h | 2089m | 0.0m/s | 7.8°C | 90.5% | 803.8hPa | 2.7V | 00:00:00 | 00:00:00 | 00:00:00 | |
| OE5DXL-15 | 2026-09-06 01:36:52 | 47.49084 | 13.29160 | 0° | 0km/h | 2089m | -0.0m/s | 7.5°C | 89.9% | 803.9hPa | 2.7V | 00:00:00 | 00:00:00 | 00:00:00 | |
| OE5DXL-15 | 2026-09-06 01:36:22 | 47.49084 | 13.29160 | 0° | 0km/h | 2089m | -0.1m/s | 7.5°C | 90.5% | 803.7hPa | 2.7V | 00:00:00 | 00:00:00 | 00:00:00 | |
| OE5DXL-15 | 2026-09-06 01:35:52 | 47.49084 | 13.29160 | 0° | 0km/h | 2089m | -0.0m/s | 7.6°C | 90.0% | 803.8hPa | 2.7V | 00:00:00 | 00:00:00 | 00:00:00 | |
| OE5DXL-15 | 2026-09-06 01:35:22 | 47.49084 | 13.29160 | 0° | 0km/h | 2089m | 0.0m/s | 7.5°C | 89.6% | 803.8hPa | 2.7V | 00:00:00 | 00:00:00 | 00:00:00 | |
| OE5DXL-15 | 2026-09-06 01:34:52 | 47.49084 | 13.29160 | 0° | 0km/h | 2090m | -0.0m/s | 7.0°C | 92.3% | 803.8hPa | 2.7V | 00:00:00 | 00:00:00 | 00:00:00 | |
| OE5DXL-15 | 2026-09-06 01:34:22 | 47.49084 | 13.29160 | 0° | 0km/h | 2089m | -0.1m/s | 7.1°C | 91.4% | 803.8hPa | 2.7V | 00:00:00 | 00:00:00 | 00:00:00 | |
| OE5DXL-15 | 2026-09-06 01:33:52 | 47.49084 | 13.29159 | 0° | 0km/h | 2088m | -0.0m/s | 6.7°C | 92.3% | 803.7hPa | 2.7V | 07:30:00 | 00:00:00 | 00:00:00 | |
| OE5DXL-15 | 2026-09-06 01:33:22 | 47.49084 | 13.29160 | 0° | 0km/h | 2089m | 0.0m/s | 6.4°C | 95.5% | 803.8hPa | 2.7V | 00:00:00 | 00:00:00 | 00:00:00 | |
| OE5DXL-15 | 2026-09-06 01:32:52 | 47.49084 | 13.29160 | 0° | 0km/h | 2089m | 0.1m/s | 6.8°C | 96.2% | 803.8hPa | 2.7V | 00:00:00 | 00:00:00 | 00:00:00 | |
| OE5DXL-15 | 2026-09-06 01:32:22 | 47.49084 | 13.29160 | 0° | 0km/h | 2089m | 0.1m/s | 7.0°C | 93.3% | 803.7hPa | 2.7V | 00:00:00 | 03:02:55 | 00:00:00 | |
| OE5DXL-15 | 2026-09-06 01:31:52 | 47.49084 | 13.29160 | 0° | 0km/h | 2089m | 0.0m/s | 7.1°C | 91.5% | 803.8hPa | 2.7V | 00:00:00 | 00:00:00 | 00:00:00 | |
| OE5DXL-15 | 2026-09-06 01:31:22 | 47.49084 | 13.29160 | 0° | 0km/h | 2088m | -0.0m/s | 7.6°C | 89.5% | 803.8hPa | 2.7V | 00:00:00 | 00:00:00 | 00:00:00 | |
| OE5DXL-15 | 2026-09-06 01:30:52 | 47.49084 | 13.29159 | 0° | 0km/h | 2089m | -0.0m/s | 7.3°C | 89.8% | 803.9hPa | 2.7V | 00:00:00 | 00:00:00 | 00:00:00 | |
| OE5DXL-15 | 2026-09-06 01:30:22 | 47.49084 | 13.29160 | 0° | 0km/h | 2089m | 0.0m/s | 7.3°C | 90.3% | 803.8hPa | 2.7V | 00:00:00 | 00:00:00 | 00:00:00 | |
| OE5DXL-15 | 2026-09-06 01:29:52 | 47.49084 | 13.29160 | 0° | 0km/h | 2090m | 0.0m/s | 7.4°C | 89.6% | 804.0hPa | 2.7V | 07:34:00 | 00:00:00 | 00:00:00 | |
| OE5DXL-15 | 2026-09-06 01:29:22 | 47.49084 | 13.29160 | 0° | 0km/h | 2089m | 0.0m/s | 7.2°C | 89.5% | 803.7hPa | 2.7V | 00:00:00 | 00:00:00 | 00:00:00 | |
| OE5DXL-15 | 2026-09-06 01:28:52 | 47.49084 | 13.29160 | 0° | 0km/h | 2089m | -0.0m/s | 7.8°C | 87.1% | 803.8hPa | 2.7V | 00:00:00 | 00:00:00 | 00:00:00 | |
| OE5DXL-15 | 2026-09-06 01:28:22 | 47.49084 | 13.29160 | 0° | 0km/h | 2090m | 0.1m/s | 7.5°C | 89.3% | 803.7hPa | 2.7V | 00:00:00 | 00:00:00 | 00:00:00 | |
| OE5DXL-15 | 2026-09-06 01:27:52 | 47.49084 | 13.29160 | 0° | 0km/h | 2090m | -0.0m/s | 6.9°C | 92.4% | 803.8hPa | 2.7V | 00:00:00 | 00:00:00 | 00:00:00 | |
| OE5DXL-15 | 2026-09-06 01:27:22 | 47.49084 | 13.29160 | 0° | 0km/h | 2090m | -0.0m/s | 7.5°C | 89.7% | 803.9hPa | 2.7V | 00:00:00 | 00:00:00 | 00:00:00 | |
| OE5DXL-15 | 2026-09-06 01:26:52 | 47.49084 | 13.29160 | 0° | 0km/h | 2091m | 0.1m/s | 6.6°C | 92.3% | 803.9hPa | 2.7V | 00:00:00 | 00:00:00 | 00:00:00 | |
| OE5DXL-15 | 2026-09-06 01:26:22 | 47.49084 | 13.29160 | 0° | 0km/h | 2089m | -0.0m/s | 7.0°C | 90.7% | 803.9hPa | 2.7V | 00:00:00 | 00:00:00 | 00:00:00 | |
| OE5DXL-15 | 2026-09-06 01:25:52 | 47.49085 | 13.29160 | 0° | 0km/h | 2090m | -0.0m/s | 7.1°C | 87.7% | 803.9hPa | 2.7V | 07:38:00 | 00:00:00 | 00:00:00 | |
| OE5DXL-15 | 2026-09-06 01:25:22 | 47.49084 | 13.29160 | 0° | 0km/h | 2089m | 0.0m/s | 6.6°C | 92.0% | 803.9hPa | 2.7V | 00:00:00 | 00:00:00 | 00:00:00 | |
| OE5DXL-15 | 2026-09-06 01:24:52 | 47.49084 | 13.29160 | 0° | 0km/h | 2089m | 0.0m/s | 7.0°C | 90.6% | 804.0hPa | 2.7V | 00:00:00 | 00:00:00 | 00:00:00 | |
| OE5DXL-15 | 2026-09-06 01:24:22 | 47.49084 | 13.29160 | 0° | 0km/h | 2089m | 0.0m/s | 7.1°C | 90.2% | 804.0hPa | 2.7V | 00:00:00 | 00:00:00 | 00:00:00 | |
| OE5DXL-15 | 2026-09-06 01:23:52 | 47.49084 | 13.29159 | 0° | 0km/h | 2088m | -0.0m/s | 6.9°C | 92.4% | 803.9hPa | 2.7V | 00:00:00 | 00:00:00 | 00:00:00 | |
| OE5DXL-15 | 2026-09-06 01:23:22 | 47.49084 | 13.29160 | 0° | 0km/h | 2088m | -0.0m/s | 6.9°C | 91.7% | 803.7hPa | 2.7V | 00:00:00 | 00:00:00 | 00:00:00 | |
| OE5DXL-15 | 2026-09-06 01:22:52 | 47.49084 | 13.29159 | 0° | 0km/h | 2087m | -0.1m/s | 6.8°C | 94.7% | 803.8hPa | 2.7V | 00:00:00 | 00:00:00 | 00:00:00 | |
| OE5DXL-15 | 2026-09-06 01:22:22 | 47.49084 | 13.29159 | 0° | 0km/h | 2087m | -0.0m/s | 6.6°C | 95.0% | 803.8hPa | 2.7V | 00:00:00 | 00:00:00 | 00:00:00 | |
| OE5DXL-15 | 2026-09-06 01:21:52 | 47.49084 | 13.29159 | 0° | 0km/h | 2087m | 0.0m/s | 6.6°C | 97.6% | 803.8hPa | 2.7V | 07:42:00 | 00:00:00 | 00:00:00 | |
| OE5DXL-15 | 2026-09-06 01:21:22 | 47.49084 | 13.29159 | 0° | 0km/h | 2088m | 0.0m/s | 6.5°C | 95.0% | 803.9hPa | 2.7V | 00:00:00 | 00:00:00 | 00:00:00 | |
| OE5DXL-15 | 2026-09-06 01:20:52 | 47.49085 | 13.29160 | 0° | 0km/h | 2088m | -0.1m/s | 7.2°C | 94.5% | 803.8hPa | 2.7V | 00:00:00 | 00:00:00 | 00:00:00 | |
| OE5DXL-15 | 2026-09-06 01:20:22 | 47.49085 | 13.29160 | 0° | 0km/h | 2089m | -0.0m/s | 6.9°C | 93.7% | 803.9hPa | 2.7V | 00:00:00 | 00:00:00 | 00:00:00 | |
| OE5DXL-15 | 2026-09-06 01:19:52 | 47.49085 | 13.29160 | 0° | 0km/h | 2089m | 0.1m/s | 6.9°C | 92.7% | 804.0hPa | 2.7V | 00:00:00 | 00:00:00 | 00:00:00 | |
| OE5DXL-15 | 2026-09-06 01:19:22 | 47.49085 | 13.29160 | 0° | 0km/h | 2088m | -0.0m/s | 7.0°C | 90.4% | 803.9hPa | 2.7V | 00:00:00 | 00:00:00 | 00:00:00 | |
| OE5DXL-15 | 2026-09-06 01:18:52 | 47.49085 | 13.29160 | 0° | 0km/h | 2088m | -0.0m/s | 7.8°C | 88.1% | 803.9hPa | 2.7V | 00:00:00 | 00:00:00 | 00:00:00 | |
| OE5DXL-15 | 2026-09-06 01:18:22 | 47.49085 | 13.29160 | 0° | 0km/h | 2088m | 0.1m/s | 8.4°C | 84.2% | 803.9hPa | 2.7V | 00:00:00 | 00:00:00 | 00:00:00 | |
| OE5DXL-15 | 2026-09-06 01:17:52 | 47.49084 | 13.29160 | 0° | 0km/h | 2087m | 0.0m/s | 7.7°C | 87.5% | 803.8hPa | 2.7V | 07:46:00 | 00:00:00 | 00:00:00 | |
| OE5DXL-15 | 2026-09-06 01:17:22 | 47.49084 | 13.29160 | 0° | 0km/h | 2087m | 0.0m/s | 6.9°C | 90.9% | 803.9hPa | 2.7V | 00:00:00 | 00:00:00 | 00:00:00 | |
| OE5DXL-15 | 2026-09-06 01:16:52 | 47.49085 | 13.29160 | 0° | 0km/h | 2087m | -0.1m/s | 7.1°C | 89.7% | 803.8hPa | 2.7V | 00:00:00 | 00:00:00 | 00:00:00 | |
| OE5DXL-15 | 2026-09-06 01:16:22 | 47.49084 | 13.29161 | 0° | 0km/h | 2090m | -0.1m/s | 7.7°C | 87.3% | 803.9hPa | 2.7V | 00:00:00 | 00:00:00 | 00:00:00 | |
| OE5DXL-15 | 2026-09-06 01:15:52 | 47.49084 | 13.29159 | 84° | 9km/h | 2099m | -3.1m/s | 8.6°C | 81.3% | 803.7hPa | 2.7V | 00:00:00 | 00:00:00 | 00:00:00 | |
| OE5DXL-15 | 2026-09-06 01:15:50 | 47.49082 | 13.29152 | 68° | 11km/h | 2106m | -3.1m/s | 8.9°C | 79.1% | 803.0hPa | 2.7V | 00:00:00 | 00:00:00 | 00:00:00 | |
| OE5DXL-15 | 2026-09-06 01:15:48 | 47.49080 | 13.29145 | 70° | 9km/h | 2113m | -3.9m/s | 8.9°C | 79.2% | 802.7hPa | 2.7V | 00:00:00 | 00:00:00 | 00:00:00 | |
| OE5DXL-15 | 2026-09-06 01:15:46 | 47.49078 | 13.29138 | 67° | 9km/h | 2122m | -4.4m/s | 8.6°C | 82.5% | 801.7hPa | 2.7V | 00:00:00 | 00:00:00 | 00:00:00 | |
| OE5DXL-15 | 2026-09-06 01:15:44 | 47.49077 | 13.29131 | 95° | 11km/h | 2132m | -3.9m/s | 8.4°C | 83.4% | 800.7hPa | 2.7V | 07:48:00 | 00:00:00 | 00:00:00 | |
| OE5DXL-15 | 2026-09-06 01:15:42 | 47.49077 | 13.29123 | 86° | 11km/h | 2139m | -3.2m/s | 8.2°C | 85.7% | 800.1hPa | 2.7V | 00:00:00 | 00:00:00 | 00:00:00 | |
| OE5DXL-15 | 2026-09-06 01:15:40 | 47.49076 | 13.29115 | 80° | 13km/h | 2145m | -0.8m/s | 8.2°C | 85.7% | 799.5hPa | 2.7V | 00:00:00 | 00:00:00 | 00:00:00 | |
| OE5DXL-15 | 2026-09-06 01:15:38 | 47.49077 | 13.29106 | 108° | 15km/h | 2147m | -0.4m/s | 8.2°C | 85.8% | 799.3hPa | 2.7V | 00:00:00 | 00:00:00 | 00:00:00 | |
| OE5DXL-15 | 2026-09-06 01:15:35 | 47.49082 | 13.29092 | 105° | 15km/h | 2149m | -0.4m/s | 8.2°C | 84.4% | 799.2hPa | 2.7V | 00:00:00 | 00:00:00 | 00:00:00 | |
| OE5DXL-15 | 2026-09-06 01:15:33 | 47.49085 | 13.29081 | 128° | 16km/h | 2150m | -0.6m/s | 8.0°C | 87.4% | 799.0hPa | 2.7V | 00:00:00 | 00:00:00 | 00:00:00 | |
| OE5DXL-15 | 2026-09-06 01:15:29 | 47.49095 | 13.29060 | 134° | 20km/h | 2154m | -1.0m/s | 8.1°C | 85.1% | 798.5hPa | 2.7V | 00:00:00 | 02:46:02 | 00:00:00 | |
| OE5DXL-15 | 2026-09-06 01:15:27 | 47.49101 | 13.29048 | 118° | 18km/h | 2157m | -0.9m/s | 8.1°C | 85.6% | 798.4hPa | 2.7V | 07:48:00 | 00:00:00 | 00:00:00 | |
| OE5DXL-15 | 2026-09-06 01:15:25 | 47.49104 | 13.29035 | 98° | 20km/h | 2163m | -3.2m/s | 8.2°C | 84.4% | 798.0hPa | 2.7V | 00:00:00 | 00:00:00 | 00:00:00 | |
| OE5DXL-15 | 2026-09-06 01:15:23 | 47.49105 | 13.29020 | 110° | 20km/h | 2168m | -1.0m/s | 8.1°C | 85.5% | 797.4hPa | 2.7V | 00:00:00 | 00:00:00 | 00:00:00 | |
| OE5DXL-15 | 2026-09-06 01:15:21 | 47.49109 | 13.29007 | 124° | 16km/h | 2171m | -1.9m/s | 8.1°C | 84.3% | 797.0hPa | 2.7V | 00:00:00 | 00:00:00 | 00:00:00 | |
| OE5DXL-15 | 2026-09-06 01:15:19 | 47.49113 | 13.28996 | 112° | 18km/h | 2175m | -1.4m/s | 8.0°C | 85.7% | 796.8hPa | 2.7V | 00:00:00 | 00:00:00 | 00:00:00 | |
| OE5DXL-15 | 2026-09-06 01:15:15 | 47.49118 | 13.28972 | 117° | 18km/h | 2180m | -0.9m/s | 8.1°C | 84.2% | 796.7hPa | 2.7V | 00:00:00 | 00:00:00 | 00:00:00 | |
| OE5DXL-15 | 2026-09-06 01:15:05 | 47.49138 | 13.28910 | 111° | 22km/h | 2182m | -0.4m/s | 8.1°C | 83.5% | 796.0hPa | 2.7V | 00:00:00 | 00:00:00 | 00:00:00 | |
| OE5DXL-15 | 2026-09-06 01:15:00 | 47.49143 | 13.28871 | 109° | 29km/h | 2187m | -1.4m/s | 8.0°C | 85.6% | 795.8hPa | 2.7V | 00:00:00 | 00:00:00 | 00:00:00 | |
| OE5DXL-15 | 2026-09-06 01:14:55 | 47.49159 | 13.28822 | 137° | 22km/h | 2192m | -0.5m/s | 7.7°C | 88.4% | 794.9hPa | 2.7V | 07:49:00 | 00:00:00 | 00:00:00 | |
| OE5DXL-15 | 2026-09-06 01:14:46 | 47.49188 | 13.28761 | 123° | 22km/h | 2202m | -0.4m/s | 7.6°C | 87.9% | 793.9hPa | 2.7V | 00:00:00 | 00:00:00 | 00:00:00 | |
| OE5DXL-15 | 2026-09-06 01:14:40 | 47.49203 | 13.28717 | 113° | 27km/h | 2210m | -2.0m/s | 7.5°C | 88.9% | 793.1hPa | 2.7V | 00:00:00 | 00:00:00 | 00:00:00 | |
| OE5DXL-15 | 2026-09-06 01:14:34 | 47.49221 | 13.28663 | 127° | 22km/h | 2215m | -1.0m/s | 7.3°C | 91.0% | 792.6hPa | 2.7V | 00:00:00 | 00:00:00 | 00:00:00 | |
| OE5DXL-15 | 2026-09-06 01:14:30 | 47.49232 | 13.28629 | 117° | 29km/h | 2220m | -2.5m/s | 8.0°C | 81.4% | 791.8hPa | 2.7V | 00:00:00 | 00:00:00 | 00:00:00 | |
| OE5DXL-15 | 2026-09-06 01:14:28 | 47.49238 | 13.28610 | 113° | 27km/h | 2226m | -2.7m/s | 8.0°C | 81.4% | 791.2hPa | 2.7V | 00:00:00 | 00:00:00 | 00:00:00 | |
| OE5DXL-15 | 2026-09-06 01:14:26 | 47.49243 | 13.28590 | 112° | 33km/h | 2231m | -2.3m/s | 7.9°C | 81.5% | 790.9hPa | 2.7V | 00:00:00 | 00:00:00 | 00:00:00 | |
| OE5DXL-15 | 2026-09-06 01:14:24 | 47.49250 | 13.28566 | 115° | 37km/h | 2235m | -1.4m/s | 7.9°C | 81.6% | 790.4hPa | 2.7V | 00:00:00 | 00:00:00 | 00:00:00 | |
| OE5DXL-15 | 2026-09-06 01:14:22 | 47.49259 | 13.28542 | 124° | 35km/h | 2238m | -0.8m/s | 7.9°C | 81.9% | 790.2hPa | 2.7V | 07:49:00 | 00:00:00 | 00:00:00 | |
| OE5DXL-15 | 2026-09-06 01:14:18 | 47.49274 | 13.28503 | 110° | 27km/h | 2243m | -1.6m/s | 7.7°C | 83.2% | 789.5hPa | 2.7V | 00:00:00 | 00:00:00 | 00:00:00 | |
| OE5DXL-15 | 2026-09-06 01:14:16 | 47.49278 | 13.28483 | 105° | 31km/h | 2246m | -1.2m/s | 7.8°C | 82.3% | 789.4hPa | 2.7V | 00:00:00 | 00:00:00 | 00:00:00 | |
| OE5DXL-15 | 2026-09-06 01:14:14 | 47.49282 | 13.28460 | 109° | 35km/h | 2249m | -1.2m/s | 7.7°C | 82.8% | 788.9hPa | 2.7V | 00:00:00 | 00:00:00 | 00:00:00 | |
| OE5DXL-15 | 2026-09-06 01:14:12 | 47.49289 | 13.28436 | 118° | 35km/h | 2252m | -1.8m/s | 7.6°C | 83.2% | 788.6hPa | 2.7V | 00:00:00 | 00:00:00 | 00:00:00 | |
| OE5DXL-15 | 2026-09-06 01:14:10 | 47.49298 | 13.28416 | 126° | 29km/h | 2256m | -1.8m/s | 7.6°C | 83.8% | 788.3hPa | 2.7V | 00:00:00 | 00:00:00 | 00:00:00 | |
| OE5DXL-15 | 2026-09-06 01:14:08 | 47.49306 | 13.28399 | 128° | 24km/h | 2259m | -1.4m/s | 7.6°C | 82.7% | 788.2hPa | 2.6V | 00:00:00 | 00:00:00 | 00:00:00 | |
| OE5DXL-15 | 2026-09-06 01:14:06 | 47.49312 | 13.28384 | 117° | 24km/h | 2263m | -1.5m/s | 7.6°C | 83.0% | 787.7hPa | 2.6V | 07:50:00 | 00:00:00 | 00:00:00 | |
| OE5DXL-15 | 2026-09-06 01:14:04 | 47.49317 | 13.28367 | 112° | 29km/h | 2266m | -1.5m/s | 7.6°C | 83.0% | 787.3hPa | 2.6V | 00:00:00 | 00:00:00 | 00:00:00 | |
| OE5DXL-15 | 2026-09-06 01:14:02 | 47.49324 | 13.28346 | 119° | 35km/h | 2270m | -1.5m/s | 7.6°C | 83.3% | 787.1hPa | 2.7V | 00:00:00 | 00:00:00 | 00:00:00 | |
| OE5DXL-15 | 2026-09-06 01:14:00 | 47.49333 | 13.28323 | 123° | 35km/h | 2274m | -1.7m/s | 7.5°C | 83.3% | 786.9hPa | 2.7V | 00:00:00 | 00:00:00 | 00:00:00 | |
| OE5DXL-15 | 2026-09-06 01:13:58 | 47.49342 | 13.28301 | 115° | 33km/h | 2278m | -2.3m/s | 7.5°C | 83.1% | 786.5hPa | 2.7V | 00:00:00 | 00:00:00 | 00:00:00 | |
| OE5DXL-15 | 2026-09-06 01:13:56 | 47.49347 | 13.28279 | 110° | 27km/h | 2282m | -2.0m/s | 7.5°C | 83.4% | 786.2hPa | 2.7V | 00:00:00 | 00:00:00 | 00:00:00 | |
| OE5DXL-15 | 2026-09-06 01:13:54 | 47.49352 | 13.28260 | 109° | 24km/h | 2286m | -1.8m/s | 7.5°C | 83.3% | 785.8hPa | 2.7V | 00:00:00 | 00:00:00 | 00:00:00 | |
| OE5DXL-15 | 2026-09-06 01:13:52 | 47.49356 | 13.28244 | 115° | 24km/h | 2289m | -2.6m/s | 7.4°C | 83.5% | 785.4hPa | 2.7V | 00:00:00 | 00:00:00 | 00:00:00 | |
| OE5DXL-15 | 2026-09-06 01:13:50 | 47.49361 | 13.28228 | 115° | 26km/h | 2295m | -2.6m/s | 7.3°C | 84.2% | 785.0hPa | 2.7V | 07:50:00 | 00:00:00 | 00:00:00 | |
| OE5DXL-15 | 2026-09-06 01:13:48 | 47.49367 | 13.28210 | 115° | 29km/h | 2300m | -1.5m/s | 7.3°C | 85.0% | 784.5hPa | 2.7V | 00:00:00 | 00:00:00 | 00:00:00 | |
| OE5DXL-15 | 2026-09-06 01:13:46 | 47.49373 | 13.28191 | 118° | 33km/h | 2304m | -1.4m/s | 7.2°C | 85.3% | 784.0hPa | 2.7V | 00:00:00 | 00:00:00 | 00:00:00 | |
| OE5DXL-15 | 2026-09-06 01:13:44 | 47.49381 | 13.28168 | 112° | 35km/h | 2308m | -0.9m/s | 7.2°C | 85.2% | 783.7hPa | 2.7V | 00:00:00 | 00:00:00 | 00:00:00 | |
| OE5DXL-15 | 2026-09-06 01:13:39 | 47.49393 | 13.28108 | 105° | 33km/h | 2316m | -1.8m/s | 7.2°C | 84.0% | 782.5hPa | 2.7V | 00:00:00 | 00:00:00 | 00:00:00 | |
| OE5DXL-15 | 2026-09-06 01:13:33 | 47.49406 | 13.28037 | 99° | 33km/h | 2323m | -1.1m/s | 7.2°C | 83.2% | 781.9hPa | 2.7V | 00:00:00 | 00:00:00 | 00:00:00 | |
| OE5DXL-15 | 2026-09-06 01:13:27 | 47.49415 | 13.27965 | 104° | 33km/h | 2332m | -1.7m/s | 7.2°C | 82.7% | 781.1hPa | 2.7V | 00:00:00 | 00:00:00 | 00:00:00 | |
| OE5DXL-15 | 2026-09-06 01:13:21 | 47.49427 | 13.27892 | 105° | 33km/h | 2341m | -2.2m/s | 7.2°C | 82.1% | 780.0hPa | 2.7V | 00:00:00 | 00:00:00 | 00:00:00 | |
| OE5DXL-15 | 2026-09-06 01:13:15 | 47.49439 | 13.27819 | 107° | 31km/h | 2357m | -3.0m/s | 7.3°C | 78.6% | 778.9hPa | 2.7V | 07:50:00 | 00:00:00 | 00:00:00 | |
| OE5DXL-15 | 2026-09-06 01:13:09 | 47.49451 | 13.27750 | 104° | 33km/h | 2373m | -3.4m/s | 7.3°C | 77.7% | 777.3hPa | 2.6V | 00:00:00 | 00:00:00 | 00:00:00 | |
| OE5DXL-15 | 2026-09-06 01:13:03 | 47.49462 | 13.27677 | 101° | 35km/h | 2392m | -3.0m/s | 7.1°C | 78.8% | 775.5hPa | 2.6V | 00:00:00 | 00:00:00 | 00:00:00 | |
| OE5DXL-15 | 2026-09-06 01:12:57 | 47.49474 | 13.27600 | 105° | 37km/h | 2410m | -2.9m/s | 6.9°C | 78.8% | 773.8hPa | 2.6V | 00:00:00 | 02:43:30 | 00:00:00 | |
| OE5DXL-15 | 2026-09-06 01:12:51 | 47.49490 | 13.27519 | 107° | 38km/h | 2429m | -3.6m/s | 6.7°C | 80.7% | 771.9hPa | 2.7V | 00:00:00 | 00:00:00 | 00:00:00 | |
| OE5DXL-15 | 2026-09-06 01:12:45 | 47.49503 | 13.27436 | 101° | 37km/h | 2451m | -3.7m/s | 6.5°C | 81.5% | 769.7hPa | 2.7V | 00:00:00 | 00:00:00 | 00:00:00 | |
| OE5DXL-15 | 2026-09-06 01:12:39 | 47.49512 | 13.27356 | 103° | 38km/h | 2471m | -2.6m/s | 6.3°C | 82.6% | 767.9hPa | 2.7V | 00:00:00 | 00:00:00 | 00:00:00 | |
| OE5DXL-15 | 2026-09-06 01:12:33 | 47.49527 | 13.27272 | 103° | 42km/h | 2488m | -3.0m/s | 6.1°C | 83.7% | 766.3hPa | 2.7V | 00:00:00 | 00:00:00 | 00:00:00 | |
| OE5DXL-15 | 2026-09-06 01:12:27 | 47.49542 | 13.27182 | 102° | 40km/h | 2506m | -2.8m/s | 6.2°C | 80.7% | 764.6hPa | 2.7V | 07:51:00 | 00:00:00 | 00:00:00 | |
| OE5DXL-15 | 2026-09-06 01:12:21 | 47.49555 | 13.27095 | 103° | 40km/h | 2526m | -3.5m/s | 6.0°C | 81.0% | 762.9hPa | 2.7V | 00:00:00 | 00:00:00 | 00:00:00 | |
| OE5DXL-15 | 2026-09-06 01:12:15 | 47.49569 | 13.27008 | 106° | 44km/h | 2547m | -3.5m/s | 5.8°C | 81.7% | 761.0hPa | 2.7V | 00:00:00 | 00:00:00 | 00:00:00 | |
| OE5DXL-15 | 2026-09-06 01:12:07 | 47.49589 | 13.26883 | 103° | 46km/h | 2576m | -3.8m/s | 5.5°C | 83.4% | 758.2hPa | 2.7V | 00:00:00 | 00:00:00 | 00:00:00 | |
| OE5DXL-15 | 2026-09-06 01:11:27 | 47.49689 | 13.26225 | 105° | 47km/h | 2733m | -4.0m/s | 4.3°C | 84.6% | 743.8hPa | 2.7V | 00:00:00 | 00:00:00 | 00:00:00 | |
| OE5DXL-15 | 2026-09-06 01:11:07 | 47.49749 | 13.25882 | 107° | 51km/h | 2815m | -3.8m/s | 3.6°C | 84.5% | 736.3hPa | 2.7V | 00:00:00 | 00:00:00 | 00:00:00 | |
| OE5DXL-15 | 2026-09-06 01:10:47 | 47.49813 | 13.25518 | 106° | 51km/h | 2896m | -4.1m/s | 3.0°C | 82.7% | 729.1hPa | 2.7V | 00:00:00 | 00:00:00 | 00:00:00 | |
| OE5DXL-15 | 2026-09-06 01:10:27 | 47.49883 | 13.25157 | 106° | 49km/h | 2969m | -3.9m/s | 2.4°C | 84.4% | 722.3hPa | 2.6V | 07:53:00 | 00:00:00 | 00:00:00 | |
| PG1ADW-2 | 2026-09-06 01:10:23 | 47.49896 | 13.25086 | 104° | 51km/h | 2985m | -3.8m/s | 2.2°C | 85.0% | 721.0hPa | 2.6V | 00:00:00 | 00:00:00 | 00:00:00 | |
| OE5DXL-15 | 2026-09-06 01:10:07 | 47.49955 | 13.24799 | 110° | 51km/h | 3047m | -3.7m/s | 1.6°C | 89.4% | 715.5hPa | 2.7V | 00:00:00 | 00:00:00 | 00:00:00 | |
| PG1ADW-2 | 2026-09-06 01:10:03 | 47.49972 | 13.24726 | 110° | 51km/h | 3064m | -4.0m/s | 1.5°C | 88.4% | 714.1hPa | 2.7V | 00:00:00 | 00:00:00 | 00:00:00 | |
| OE5DXL-15 | 2026-09-06 01:10:01 | 47.49981 | 13.24689 | 109° | 51km/h | 3072m | -4.3m/s | 1.5°C | 87.4% | 713.1hPa | 2.7V | 00:00:00 | 00:00:00 | 00:00:00 | |
| OE5DXL-15 | 2026-09-06 01:09:55 | 47.50004 | 13.24580 | 107° | 51km/h | 3098m | -4.1m/s | 1.3°C | 87.6% | 711.2hPa | 2.7V | 00:00:00 | 00:00:00 | 00:00:00 | |
| OE5DXL-15 | 2026-09-06 01:09:49 | 47.50027 | 13.24471 | 107° | 51km/h | 3122m | -4.0m/s | 1.1°C | 87.6% | 708.8hPa | 2.7V | 00:00:00 | 00:00:00 | 00:00:00 | |
| PG1ADW-2 | 2026-09-06 01:09:43 | 47.50051 | 13.24364 | 110° | 49km/h | 3145m | -3.8m/s | 0.9°C | 86.1% | 706.8hPa | 2.7V | 00:00:00 | 00:00:00 | 00:00:00 | |
| OE5DXL-15 | 2026-09-06 01:09:37 | 47.50075 | 13.24262 | 111° | 49km/h | 3170m | -3.7m/s | 0.7°C | 87.5% | 704.7hPa | 2.7V | 00:00:00 | 00:00:00 | 00:00:00 | |
| OE5DXL-15 | 2026-09-06 01:09:31 | 47.50101 | 13.24159 | 111° | 51km/h | 3196m | -3.9m/s | 0.5°C | 88.2% | 702.5hPa | 2.7V | 00:00:00 | 00:00:00 | 00:00:00 | |
| OE5DXL-15 | 2026-09-06 01:09:25 | 47.50127 | 13.24052 | 109° | 49km/h | 3221m | -4.1m/s | 0.3°C | 88.9% | 700.3hPa | 2.7V | 07:54:00 | 00:00:00 | 00:00:00 | |
| PG1ADW-2 | 2026-09-06 01:09:23 | 47.50135 | 13.24018 | 110° | 51km/h | 3228m | -3.8m/s | 0.2°C | 88.4% | 699.7hPa | 2.6V | 00:00:00 | 02:39:56 | 00:00:00 | |
| OE5DXL-15 | 2026-09-06 01:09:19 | 47.50150 | 13.23946 | 108° | 51km/h | 3243m | -3.5m/s | 0.0°C | 91.8% | 698.4hPa | 2.7V | 00:00:00 | 00:00:00 | 00:00:00 | |
| OE5DRO-10 | 2026-09-06 01:09:16 | 47.50161 | 13.23891 | 105° | 49km/h | 3254m | -3.6m/s | -0.1°C | 93.8% | 697.4hPa | 2.7V | 00:00:00 | 00:00:00 | 00:00:00 | |
| OE5DRO-10 | 2026-09-06 01:09:14 | 47.50168 | 13.23855 | 107° | 51km/h | 3262m | -3.5m/s | 0.0°C | 88.2% | 696.8hPa | 2.6V | 00:00:00 | 00:00:00 | 00:00:00 | |
| OE5DXL-15 | 2026-09-06 01:09:13 | 47.50171 | 13.23837 | 107° | 51km/h | 3266m | -3.8m/s | 0.0°C | 86.6% | 696.5hPa | 2.6V | 00:00:00 | 00:00:00 | 00:00:00 | |
| OE5DRO-10 | 2026-09-06 01:09:12 | 47.50175 | 13.23818 | 106° | 51km/h | 3269m | -3.6m/s | -0.0°C | 88.0% | 696.1hPa | 2.6V | 00:00:00 | 00:00:00 | 00:00:00 | |
| OE5DRO-10 | 2026-09-06 01:09:10 | 47.50182 | 13.23782 | 109° | 51km/h | 3277m | -3.5m/s | 0.0°C | 85.9% | 695.5hPa | 2.6V | 00:00:00 | 00:00:00 | 00:00:00 | |
| OE5DRO-10 | 2026-09-06 01:09:08 | 47.50190 | 13.23745 | 106° | 51km/h | 3284m | -3.3m/s | 0.0°C | 85.5% | 694.9hPa | 2.7V | 00:00:00 | 00:00:00 | 00:00:00 | |
| OE5DXL-15 | 2026-09-06 01:09:07 | 47.50193 | 13.23727 | 106° | 51km/h | 3287m | -3.2m/s | 0.0°C | 84.0% | 694.6hPa | 2.7V | 00:00:00 | 00:00:00 | 00:00:00 | |
| OE5DRO-10 | 2026-09-06 01:09:06 | 47.50197 | 13.23709 | 107° | 49km/h | 3290m | -3.3m/s | -0.0°C | 83.7% | 694.2hPa | 2.7V | 07:55:00 | 00:00:00 | 00:00:00 | |
| OE5DRO-10 | 2026-09-06 01:09:04 | 47.50204 | 13.23673 | 106° | 51km/h | 3298m | -3.6m/s | -0.0°C | 84.5% | 693.6hPa | 2.7V | 00:00:00 | 00:00:00 | 00:00:00 | |
| OE5DRO-10 | 2026-09-06 01:09:02 | 47.50210 | 13.23636 | 106° | 49km/h | 3305m | -3.4m/s | -0.0°C | 83.1% | 693.1hPa | 2.7V | 00:00:00 | 00:00:00 | 00:00:00 | |
| OE5DXL-15 | 2026-09-06 01:09:01 | 47.50214 | 13.23619 | 107° | 49km/h | 3308m | -3.3m/s | -0.1°C | 82.0% | 692.7hPa | 2.7V | 00:00:00 | 00:00:00 | 00:00:00 | |
| OE5DRO-10 | 2026-09-06 01:09:00 | 47.50217 | 13.23601 | 107° | 51km/h | 3312m | -3.2m/s | -0.1°C | 81.2% | 692.6hPa | 2.7V | 00:00:00 | 00:00:00 | 00:00:00 | |
| OE5DRO-10 | 2026-09-06 01:08:58 | 47.50224 | 13.23564 | 105° | 49km/h | 3318m | -3.5m/s | -0.1°C | 80.9% | 691.9hPa | 2.7V | 00:00:00 | 00:00:00 | 00:00:00 | |
| DG1MFX-10 | 2026-09-06 01:08:54 | 47.50234 | 13.23510 | 107° | 51km/h | 3328m | -3.3m/s | -0.3°C | 81.0% | 691.1hPa | 2.7V | 00:00:00 | 00:00:00 | 00:00:00 | |
| OE5DXL-15 | 2026-09-06 01:08:52 | 47.50245 | 13.23457 | 108° | 51km/h | 3338m | -3.7m/s | -0.3°C | 81.5% | 690.2hPa | 2.7V | 00:00:00 | 00:00:00 | 00:00:00 | |
| OE5DRO-10 | 2026-09-06 01:08:51 | 47.50249 | 13.23439 | 107° | 51km/h | 3342m | -3.6m/s | -0.3°C | 80.8% | 689.8hPa | 2.7V | 00:00:00 | 00:00:00 | 00:00:00 | |
| OE5DRO-10 | 2026-09-06 01:08:44 | 47.50273 | 13.23312 | 106° | 49km/h | 3365m | -2.5m/s | -0.4°C | 76.2% | 687.8hPa | 2.7V | 00:00:00 | 00:00:00 | 00:00:00 | |
| PG1ADW-2 | 2026-09-06 01:08:43 | 47.50276 | 13.23294 | 108° | 51km/h | 3368m | -2.9m/s | -0.4°C | 77.1% | 687.6hPa | 2.7V | 07:55:00 | 00:00:00 | 00:00:00 | |
| OE5DRO-10 | 2026-09-06 01:08:37 | 47.50298 | 13.23188 | 109° | 53km/h | 3386m | -2.7m/s | -0.3°C | 74.2% | 686.0hPa | 2.7V | 00:00:00 | 00:00:00 | 00:00:00 | |
| OE5DXL-15 | 2026-09-06 01:08:32 | 47.50319 | 13.23094 | 109° | 51km/h | 3402m | -3.7m/s | -0.4°C | 73.6% | 684.6hPa | 2.7V | 00:00:00 | 00:00:00 | 00:00:00 | |
| DG1MFX-10 | 2026-09-06 01:08:31 | 47.50319 | 13.23094 | 110° | 53km/h | 3402m | -3.7m/s | -0.5°C | 73.5% | 684.7hPa | 2.6V | 00:00:00 | 00:00:00 | 00:00:00 | |
| OE5DRO-10 | 2026-09-06 01:08:30 | 47.50327 | 13.23056 | 107° | 53km/h | 3409m | -3.8m/s | -0.5°C | 72.6% | 683.9hPa | 2.6V | 07:55:00 | 00:00:00 | 00:00:00 | |
| PG1ADW-2 | 2026-09-06 01:08:23 | 47.50353 | 13.22925 | 108° | 51km/h | 3435m | -3.7m/s | -0.6°C | 71.0% | 681.9hPa | 2.6V | 00:00:00 | 00:00:00 | 00:00:00 | |
| OE5DRO-10 | 2026-09-06 01:08:16 | 47.50378 | 13.22802 | 106° | 51km/h | 3460m | -3.5m/s | -0.9°C | 71.7% | 679.8hPa | 2.7V | 00:00:00 | 00:00:00 | 00:00:00 | |
| OE5DXL-15 | 2026-09-06 01:08:12 | 47.50392 | 13.22730 | 106° | 53km/h | 3477m | -4.0m/s | -1.1°C | 71.2% | 678.3hPa | 2.7V | 00:00:00 | 00:00:00 | 00:00:00 | |
| OE5DRO-10 | 2026-09-06 01:08:09 | 47.50404 | 13.22674 | 109° | 55km/h | 3488m | -3.7m/s | -1.1°C | 71.3% | 677.4hPa | 2.7V | 00:00:00 | 00:00:00 | 00:00:00 | |
| DG1MFX-10 | 2026-09-06 01:08:04 | 47.50421 | 13.22597 | 110° | 55km/h | 3504m | -3.1m/s | -1.3°C | 69.9% | 676.0hPa | 2.7V | 00:00:00 | 00:00:00 | 00:00:00 | |
| PG1ADW-2 | 2026-09-06 01:08:03 | 47.50430 | 13.22558 | 107° | 55km/h | 3511m | -3.5m/s | -1.3°C | 69.7% | 675.4hPa | 2.7V | 00:00:00 | 02:38:36 | 00:00:00 | |
| OE5DRO-10 | 2026-09-06 01:08:02 | 47.50433 | 13.22539 | 106° | 53km/h | 3514m | -3.1m/s | -1.2°C | 67.9% | 675.0hPa | 2.7V | 00:00:00 | 00:00:00 | 00:00:00 | |
| OE5DRO-10 | 2026-09-06 01:07:55 | 47.50460 | 13.22404 | 106° | 55km/h | 3535m | -3.2m/s | -1.0°C | 61.9% | 673.3hPa | 2.7V | 00:00:00 | 00:00:00 | 00:00:00 | |
| OE5DXL-15 | 2026-09-06 01:07:52 | 47.50471 | 13.22346 | 106° | 55km/h | 3545m | -3.1m/s | -0.9°C | 59.6% | 672.5hPa | 2.7V | 07:56:00 | 00:00:00 | 00:00:00 | |
| OE5DRO-10 | 2026-09-06 01:07:48 | 47.50485 | 13.22268 | 106° | 55km/h | 3558m | -2.3m/s | -0.7°C | 52.0% | 671.5hPa | 2.7V | 00:00:00 | 00:00:00 | 00:00:00 | |
| PG1ADW-2 | 2026-09-06 01:07:43 | 47.50505 | 13.22170 | 109° | 53km/h | 3570m | -3.0m/s | -0.7°C | 50.1% | 670.4hPa | 2.7V | 00:00:00 | 00:00:00 | 00:00:00 | |
| OE5DRO-10 | 2026-09-06 01:07:41 | 47.50514 | 13.22131 | 107° | 55km/h | 3577m | -3.5m/s | -0.8°C | 49.8% | 669.8hPa | 2.7V | 00:00:00 | 00:00:00 | 00:00:00 | |
| OE5DRO-10 | 2026-09-06 01:07:34 | 47.50540 | 13.21994 | 106° | 53km/h | 3598m | -2.8m/s | -0.8°C | 47.6% | 668.1hPa | 2.7V | 07:56:00 | 00:00:00 | 00:00:00 | |
| OE5DXL-15 | 2026-09-06 01:07:32 | 47.50548 | 13.21956 | 110° | 53km/h | 3603m | -2.6m/s | -0.8°C | 47.2% | 667.6hPa | 2.7V | 00:00:00 | 00:00:00 | 00:00:00 | |
| OE5DRO-10 | 2026-09-06 01:07:27 | 47.50572 | 13.21866 | 117° | 53km/h | 3619m | -3.5m/s | -1.1°C | 48.4% | 666.3hPa | 2.6V | 00:00:00 | 00:00:00 | 00:00:00 | |
| PG1ADW-2 | 2026-09-06 01:07:23 | 47.50598 | 13.21797 | 121° | 55km/h | 3634m | -3.9m/s | -1.1°C | 50.1% | 665.0hPa | 2.6V | 00:00:00 | 00:00:00 | 00:00:00 | |
| OE5DRO-10 | 2026-09-06 01:07:20 | 47.50619 | 13.21745 | 121° | 53km/h | 3645m | -3.2m/s | -1.2°C | 49.6% | 664.0hPa | 2.7V | 00:00:00 | 00:00:00 | 00:00:00 | |
| DG1MFX-10 | 2026-09-06 01:07:19 | 47.50619 | 13.21745 | 122° | 53km/h | 3645m | -3.3m/s | -1.3°C | 49.5% | 664.0hPa | 2.7V | 07:57:00 | 00:00:00 | 00:00:00 | |
| OE5DRO-10 | 2026-09-06 01:07:13 | 47.50665 | 13.21622 | 120° | 57km/h | 3673m | -3.8m/s | -1.4°C | 50.1% | 661.9hPa | 2.7V | 00:00:00 | 00:00:00 | 00:00:00 | |
| OE5DXL-15 | 2026-09-06 01:07:12 | 47.50672 | 13.21605 | 121° | 57km/h | 3676m | -3.9m/s | -1.3°C | 47.4% | 661.6hPa | 2.7V | 00:00:00 | 00:00:00 | 00:00:00 | |
| OE3JTB-15 | 2026-09-06 01:07:11 | 47.50679 | 13.21588 | 123° | 57km/h | 3681m | -3.9m/s | -1.2°C | 45.3% | 661.2hPa | 2.7V | 00:00:00 | 02:37:44 | 00:00:00 | |
| OE3JTB-15 | 2026-09-06 01:07:06 | 47.50720 | 13.21499 | 124° | 57km/h | 3701m | -3.9m/s | 0.3°C | 16.2% | 659.5hPa | 2.7V | 00:00:00 | 00:00:00 | 00:00:00 | |
| OE3JTB-15 | 2026-09-06 01:07:04 | 47.50736 | 13.21464 | 126° | 58km/h | 3709m | -4.0m/s | 0.3°C | 15.3% | 659.0hPa | 2.6V | 00:00:00 | 00:00:00 | 00:00:00 | |
| PG1ADW-2 | 2026-09-06 01:07:03 | 47.50745 | 13.21446 | 125° | 57km/h | 3713m | -3.9m/s | 0.2°C | 15.3% | 658.5hPa | 2.6V | 00:00:00 | 00:00:00 | 00:00:00 | |
| OE3JTB-15 | 2026-09-06 01:07:02 | 47.50753 | 13.21429 | 125° | 57km/h | 3717m | -4.0m/s | 0.2°C | 15.4% | 658.3hPa | 2.6V | 00:00:00 | 02:37:35 | 00:00:00 | |
| OE3JTB-15 | 2026-09-06 01:07:00 | 47.50769 | 13.21395 | 126° | 57km/h | 3725m | -3.9m/s | 0.1°C | 15.4% | 657.6hPa | 2.6V | 00:00:00 | 00:00:00 | 00:00:00 | |
| OE5DRO-10 | 2026-09-06 01:06:59 | 47.50778 | 13.21377 | 125° | 57km/h | 3729m | -3.7m/s | 0.1°C | 15.3% | 657.3hPa | 2.7V | 00:00:00 | 00:00:00 | 00:00:00 | |
| OE3JTB-15 | 2026-09-06 01:06:58 | 47.50786 | 13.21361 | 127° | 55km/h | 3733m | -3.9m/s | 0.1°C | 15.4% | 656.9hPa | 2.7V | 00:00:00 | 00:00:00 | 00:00:00 | |
| OE3JTB-15 | 2026-09-06 01:06:56 | 47.50803 | 13.21327 | 128° | 58km/h | 3740m | -3.6m/s | 0.0°C | 15.5% | 656.3hPa | 2.7V | 00:00:00 | 02:37:29 | 00:00:00 | |
| OE3JTB-15 | 2026-09-06 01:06:54 | 47.50820 | 13.21293 | 125° | 57km/h | 3748m | -3.4m/s | -0.0°C | 15.5% | 655.9hPa | 2.7V | 07:57:00 | 00:00:00 | 00:00:00 | |
| OE5DXL-15 | 2026-09-06 01:06:52 | 47.50837 | 13.21258 | 126° | 57km/h | 3755m | -3.5m/s | -0.0°C | 15.5% | 655.1hPa | 2.7V | 00:00:00 | 00:00:00 | 00:00:00 | |
| OE3JTB-15 | 2026-09-06 01:06:50 | 47.50853 | 13.21222 | 124° | 57km/h | 3762m | -3.5m/s | -0.1°C | 15.6% | 654.6hPa | 2.7V | 00:00:00 | 02:37:23 | 00:00:00 | |
| OE3JTB-15 | 2026-09-06 01:06:48 | 47.50870 | 13.21186 | 124° | 58km/h | 3769m | -3.4m/s | -0.2°C | 15.7% | 654.0hPa | 2.7V | 00:00:00 | 00:00:00 | 00:00:00 | |
| OE3JTB-15 | 2026-09-06 01:06:46 | 47.50886 | 13.21151 | 124° | 57km/h | 3776m | -3.4m/s | -0.2°C | 15.7% | 653.3hPa | 2.7V | 00:00:00 | 00:00:00 | 00:00:00 | |
| OE5DRO-10 | 2026-09-06 01:06:45 | 47.50893 | 13.21133 | 125° | 57km/h | 3780m | -3.4m/s | -0.3°C | 15.7% | 652.9hPa | 2.7V | 00:00:00 | 00:00:00 | 00:00:00 | |
| OE3JTB-15 | 2026-09-06 01:06:44 | 47.50902 | 13.21116 | 125° | 58km/h | 3783m | -3.3m/s | -0.3°C | 15.7% | 652.9hPa | 2.7V | 00:00:00 | 02:37:17 | 00:00:00 | |
| PG1ADW-2 | 2026-09-06 01:06:43 | 47.50910 | 13.21098 | 124° | 58km/h | 3787m | -3.3m/s | -0.3°C | 15.5% | 652.4hPa | 2.7V | 00:00:00 | 02:37:16 | 00:00:00 | |
| OE3JTB-15 | 2026-09-06 01:06:42 | 47.50918 | 13.21080 | 125° | 57km/h | 3790m | -3.4m/s | -0.3°C | 15.6% | 652.2hPa | 2.7V | 00:00:00 | 00:00:00 | 00:00:00 | |
| OE5MMP-10 | 2026-09-06 01:06:40 | 47.50935 | 13.21044 | 125° | 58km/h | 3797m | -3.2m/s | -0.4°C | 15.5% | 651.7hPa | 2.6V | 00:00:00 | 02:37:13 | 00:00:00 | |
| OE3JTB-15 | 2026-09-06 01:06:38 | 47.50951 | 13.21008 | 124° | 57km/h | 3803m | -2.9m/s | -0.4°C | 15.4% | 651.2hPa | 2.6V | 07:57:00 | 02:37:11 | 00:00:00 | |
| OE5DRO-10 | 2026-09-06 01:06:37 | 47.50959 | 13.20990 | 125° | 57km/h | 3806m | -3.1m/s | -0.4°C | 15.4% | 650.9hPa | 2.6V | 07:57:00 | 00:00:00 | 00:00:00 | |
| OE3JTB-15 | 2026-09-06 01:06:36 | 47.50967 | 13.20973 | 125° | 58km/h | 3809m | -3.1m/s | -0.4°C | 15.4% | 650.7hPa | 2.6V | 00:00:00 | 00:00:00 | 00:00:00 | |
| OE3JTB-15 | 2026-09-06 01:06:34 | 47.50984 | 13.20937 | 123° | 57km/h | 3816m | -2.9m/s | -0.4°C | 14.9% | 650.1hPa | 2.7V | 00:00:00 | 00:00:00 | 00:00:00 | |
| OE5DXL-15 | 2026-09-06 01:06:32 | 47.50999 | 13.20902 | 125° | 58km/h | 3822m | -2.9m/s | -0.4°C | 14.8% | 649.7hPa | 2.7V | 00:00:00 | 00:00:00 | 00:00:00 | |
| OE5DRO-10 | 2026-09-06 01:06:30 | 47.51016 | 13.20866 | 124° | 58km/h | 3827m | -3.0m/s | -0.4°C | 14.8% | 649.1hPa | 2.6V | 00:00:00 | 00:00:00 | 00:00:00 | |
| OE3JTB-15 | 2026-09-06 01:06:28 | 47.51032 | 13.20830 | 125° | 58km/h | 3834m | -2.8m/s | -0.5°C | 14.8% | 648.8hPa | 2.7V | 00:00:00 | 00:00:00 | 00:00:00 | |
| PG1ADW-2 | 2026-09-06 01:06:23 | 47.51072 | 13.20738 | 123° | 58km/h | 3848m | -2.7m/s | -0.6°C | 14.8% | 647.5hPa | 2.7V | 00:00:00 | 00:00:00 | 00:00:00 | |
| OE3JTB-15 | 2026-09-06 01:06:19 | 47.51104 | 13.20664 | 123° | 58km/h | 3859m | -2.6m/s | -0.7°C | 14.9% | 646.5hPa | 2.6V | 00:00:00 | 02:36:52 | 00:00:00 | |
| OE5DRO-10 | 2026-09-06 01:06:16 | 47.51127 | 13.20609 | 123° | 57km/h | 3868m | -2.6m/s | -0.8°C | 14.9% | 645.8hPa | 2.6V | 00:00:00 | 00:00:00 | 00:00:00 | |
| OE5DXL-15 | 2026-09-06 01:06:12 | 47.51157 | 13.20536 | 122° | 58km/h | 3879m | -2.3m/s | -0.9°C | 15.0% | 644.9hPa | 2.6V | 00:00:00 | 00:00:00 | 00:00:00 | |
| OE5DRO-10 | 2026-09-06 01:06:06 | 47.51204 | 13.20427 | 124° | 58km/h | 3894m | -2.7m/s | -1.0°C | 15.6% | 643.7hPa | 2.6V | 00:00:00 | 00:00:00 | 00:00:00 | |
| PG1ADW-2 | 2026-09-06 01:06:03 | 47.51228 | 13.20370 | 123° | 60km/h | 3901m | -2.3m/s | -1.0°C | 16.2% | 643.2hPa | 2.6V | 07:58:00 | 00:00:00 | 00:00:00 | |
| OE5DRO-10 | 2026-09-06 01:05:59 | 47.51259 | 13.20294 | 122° | 60km/h | 3911m | -2.3m/s | -1.1°C | 16.5% | 642.4hPa | 2.6V | 00:00:00 | 00:00:00 | 00:00:00 | |
| DG1MFX-10 | 2026-09-06 01:05:56 | 47.51275 | 13.20256 | 124° | 60km/h | 3915m | -2.5m/s | -1.2°C | 16.6% | 642.1hPa | 2.6V | 07:58:00 | 00:00:00 | 00:00:00 | |
| OE5DXL-15 | 2026-09-06 01:05:52 | 47.51318 | 13.20162 | 124° | 60km/h | 3927m | -2.1m/s | -1.2°C | 16.3% | 641.1hPa | 2.6V | 00:00:00 | 00:00:00 | 00:00:00 | |
| OE3JTB-15 | 2026-09-06 01:05:49 | 47.51344 | 13.20106 | 124° | 62km/h | 3934m | -2.0m/s | -1.1°C | 16.9% | 640.6hPa | 2.6V | 00:00:00 | 00:00:00 | 00:00:00 | |
| OE5DRO-10 | 2026-09-06 01:05:45 | 47.51377 | 13.20028 | 121° | 60km/h | 3943m | -1.9m/s | -1.0°C | 15.6% | 639.9hPa | 2.7V | 00:00:00 | 00:00:00 | 00:00:00 | |
| PG1ADW-2 | 2026-09-06 01:05:43 | 47.51393 | 13.19989 | 122° | 60km/h | 3947m | -2.3m/s | -0.9°C | 14.2% | 639.6hPa | 2.7V | 00:00:00 | 00:00:00 | 00:00:00 | |
| OE3JTB-15 | 2026-09-06 01:05:39 | 47.51424 | 13.19911 | 123° | 60km/h | 3956m | -2.1m/s | -0.8°C | 13.7% | 638.9hPa | 2.7V | 07:58:00 | 00:00:00 | 00:00:00 | |
| OE5DRO-10 | 2026-09-06 01:05:38 | 47.51432 | 13.19892 | 122° | 60km/h | 3958m | -2.1m/s | -0.8°C | 13.5% | 638.7hPa | 2.7V | 07:58:00 | 00:00:00 | 00:00:00 | |
| DG1MFX-10 | 2026-09-06 01:05:35 | 47.51448 | 13.19853 | 123° | 60km/h | 3962m | -2.1m/s | -0.8°C | 13.3% | 638.3hPa | 2.7V | 07:59:00 | 00:00:00 | 00:00:00 | |
| OE5DXL-15 | 2026-09-06 01:05:32 | 47.51481 | 13.19775 | 122° | 60km/h | 3971m | -1.9m/s | -0.7°C | 12.3% | 637.8hPa | 2.7V | 00:00:00 | 00:00:00 | 00:00:00 | |
| OE5DRO-10 | 2026-09-06 01:05:31 | 47.51489 | 13.19756 | 123° | 60km/h | 3973m | -2.2m/s | -0.7°C | 12.1% | 637.5hPa | 2.7V | 00:00:00 | 00:00:00 | 00:00:00 | |
| OE3JTB-15 | 2026-09-06 01:05:29 | 47.51506 | 13.19717 | 123° | 58km/h | 3977m | -2.2m/s | -0.7°C | 12.0% | 637.2hPa | 2.7V | 00:00:00 | 02:36:02 | 00:00:00 | |
| OE5DRO-10 | 2026-09-06 01:05:24 | 47.51548 | 13.19625 | 126° | 60km/h | 3988m | -2.0m/s | -0.6°C | 11.7% | 636.3hPa | 2.7V | 00:00:00 | 00:00:00 | 00:00:00 | |
| PG1ADW-2 | 2026-09-06 01:05:23 | 47.51557 | 13.19606 | 126° | 58km/h | 3990m | -2.0m/s | -0.6°C | 12.0% | 636.2hPa | 2.7V | 00:00:00 | 02:35:56 | 00:00:00 | |
| OE5DRO-10 | 2026-09-06 01:05:17 | 47.51608 | 13.19495 | 122° | 58km/h | 4002m | -1.8m/s | -0.6°C | 11.6% | 635.2hPa | 2.7V | 00:00:00 | 00:00:00 | 00:00:00 | |
| OE3JTB-15 | 2026-09-06 01:05:15 | 47.51624 | 13.19459 | 124° | 58km/h | 4006m | -1.9m/s | -0.6°C | 11.5% | 635.0hPa | 2.7V | 00:00:00 | 00:00:00 | 00:00:00 | |
| DG1MFX-10 | 2026-09-06 01:05:14 | 47.51624 | 13.19459 | 125° | 58km/h | 4006m | -2.0m/s | -0.6°C | 11.4% | 635.1hPa | 2.6V | 07:59:00 | 00:00:00 | 00:00:00 | |
| OE5DXL-15 | 2026-09-06 01:05:12 | 47.51648 | 13.19403 | 123° | 60km/h | 4013m | -2.3m/s | -0.5°C | 11.2% | 634.4hPa | 2.6V | 07:59:00 | 00:00:00 | 00:00:00 | |
| OE5DRO-10 | 2026-09-06 01:05:10 | 47.51664 | 13.19367 | 125° | 60km/h | 4018m | -2.2m/s | -0.5°C | 10.2% | 634.0hPa | 2.6V | 00:00:00 | 00:00:00 | 00:00:00 | |
| OE5MMP-10 | 2026-09-06 01:05:06 | 47.51699 | 13.19295 | 126° | 60km/h | 4027m | -2.2m/s | -0.3°C | 7.9% | 633.3hPa | 2.6V | 00:00:00 | 02:35:39 | 00:00:00 | |
| OE5FHM-15 | 2026-09-06 01:05:00 | 47.51752 | 13.19184 | 127° | 60km/h | 4041m | -2.3m/s | -0.1°C | 6.8% | 632.1hPa | 2.7V | 00:00:00 | 02:35:33 | 00:00:00 | |
| OE3JTB-15 | 2026-09-06 01:04:57 | 47.51779 | 13.19129 | 125° | 60km/h | 4048m | -2.3m/s | -0.0°C | 6.6% | 631.5hPa | 2.7V | 00:00:00 | 02:35:30 | 00:00:00 | |
| OE5DRO-10 | 2026-09-06 01:04:56 | 47.51787 | 13.19111 | 127° | 60km/h | 4050m | -2.5m/s | -0.0°C | 6.6% | 631.3hPa | 2.7V | 00:00:00 | 00:00:00 | 00:00:00 | |
| DG1MFX-10 | 2026-09-06 01:04:54 | 47.51796 | 13.19093 | 128° | 60km/h | 4053m | -2.7m/s | -0.0°C | 6.4% | 631.3hPa | 2.7V | 08:00:00 | 00:00:00 | 00:00:00 | |
| OE5DXL-15 | 2026-09-06 01:04:52 | 47.51824 | 13.19039 | 129° | 58km/h | 4061m | -2.4m/s | 0.1°C | 5.8% | 630.4hPa | 2.7V | 00:00:00 | 00:00:00 | 00:00:00 | |
| OE5DRO-10 | 2026-09-06 01:04:44 | 47.51899 | 13.18897 | 130° | 58km/h | 4081m | -2.4m/s | 0.2°C | 6.6% | 628.9hPa | 2.7V | 00:00:00 | 00:00:00 | 00:00:00 | |
| PG1ADW-2 | 2026-09-06 01:04:43 | 47.51909 | 13.18879 | 129° | 58km/h | 4084m | -2.9m/s | 0.2°C | 6.8% | 628.7hPa | 2.7V | 00:00:00 | 00:00:00 | 00:00:00 | |
| OE3JTB-15 | 2026-09-06 01:04:41 | 47.51928 | 13.18843 | 128° | 57km/h | 4090m | -2.7m/s | 0.2°C | 6.9% | 628.3hPa | 2.7V | 00:00:00 | 00:00:00 | 00:00:00 | |
| DG1MFX-10 | 2026-09-06 01:04:34 | 47.51985 | 13.18741 | 131° | 60km/h | 4107m | -2.9m/s | 0.4°C | 8.2% | 627.0hPa | 2.7V | 08:00:00 | 00:00:00 | 00:00:00 | |
| OE5DRO-10 | 2026-09-06 01:04:28 | 47.52049 | 13.18622 | 130° | 55km/h | 4129m | -3.4m/s | 0.3°C | 6.9% | 625.3hPa | 2.7V | 07:59:00 | 00:00:00 | 00:00:00 | |
| OE5FHM-15 | 2026-09-06 01:04:27 | 47.52058 | 13.18606 | 130° | 53km/h | 4132m | -3.2m/s | 0.3°C | 6.6% | 625.0hPa | 2.6V | 00:00:00 | 02:35:00 | 00:00:00 | |
| PG1ADW-2 | 2026-09-06 01:04:23 | 47.52092 | 13.18542 | 130° | 53km/h | 4145m | -3.1m/s | 0.3°C | 5.9% | 623.9hPa | 2.6V | 00:00:00 | 00:00:00 | 00:00:00 | |
| OE5DXL-15 | 2026-09-06 01:04:22 | 47.52101 | 13.18526 | 130° | 53km/h | 4148m | -3.0m/s | 0.3°C | 5.8% | 623.8hPa | 2.7V | 00:00:00 | 00:00:00 | 00:00:00 | |
| DG1MFX-10 | 2026-09-06 01:04:13 | 47.52170 | 13.18402 | 130° | 55km/h | 4175m | -3.5m/s | 0.2°C | 3.8% | 621.7hPa | 2.6V | 08:00:00 | 00:00:00 | 00:00:00 | |
| OE5DRO-10 | 2026-09-06 01:04:12 | 47.52187 | 13.18370 | 129° | 53km/h | 4182m | -3.3m/s | 0.2°C | 3.3% | 621.1hPa | 2.6V | 00:00:00 | 00:00:00 | 00:00:00 | |
| PG1ADW-2 | 2026-09-06 01:04:03 | 47.52263 | 13.18233 | 131° | 53km/h | 4215m | -3.8m/s | 0.1°C | 2.2% | 618.6hPa | 2.6V | 00:00:00 | 02:34:36 | 00:00:00 | |
| OE5FHM-15 | 2026-09-06 01:03:57 | 47.52314 | 13.18144 | 131° | 53km/h | 4238m | -3.6m/s | 0.1°C | 2.7% | 616.9hPa | 2.6V | 08:00:00 | 02:34:30 | 00:00:00 | |
| OE5DRO-10 | 2026-09-06 01:03:56 | 47.52323 | 13.18128 | 128° | 53km/h | 4242m | -3.6m/s | 0.1°C | 2.9% | 616.5hPa | 2.7V | 00:00:00 | 00:00:00 | 00:00:00 | |
| OE5DXL-15 | 2026-09-06 01:03:52 | 47.52356 | 13.18066 | 128° | 53km/h | 4257m | -4.0m/s | 0.0°C | 3.2% | 615.3hPa | 2.7V | 00:00:00 | 00:00:00 | 00:00:00 | |
| OE3JTB-15 | 2026-09-06 01:03:44 | 47.52422 | 13.17944 | 129° | 53km/h | 4289m | -3.5m/s | -0.1°C | 4.8% | 612.9hPa | 2.7V | 00:00:00 | 00:00:00 | 00:00:00 | |
| PG1ADW-2 | 2026-09-06 01:03:43 | 47.52430 | 13.17928 | 128° | 53km/h | 4293m | -3.8m/s | -0.2°C | 4.5% | 612.7hPa | 2.7V | 00:00:00 | 00:00:00 | 00:00:00 | |
| OE5DRO-10 | 2026-09-06 01:03:40 | 47.52455 | 13.17882 | 129° | 53km/h | 4305m | -3.6m/s | -0.2°C | 3.7% | 611.7hPa | 2.7V | 00:00:00 | 00:00:00 | 00:00:00 | |
| DG1MFX-10 | 2026-09-06 01:03:32 | 47.52514 | 13.17774 | 132° | 53km/h | 4333m | -4.0m/s | -0.3°C | 2.2% | 609.6hPa | 2.6V | 00:00:00 | 00:00:00 | 00:00:00 | |
| OE5FHM-15 | 2026-09-06 01:03:28 | 47.52565 | 13.17681 | 131° | 53km/h | 4358m | -4.1m/s | -0.4°C | 3.9% | 607.7hPa | 2.6V | 00:00:00 | 02:34:00 | 00:00:00 | |
| OE5DRO-10 | 2026-09-06 01:03:24 | 47.52591 | 13.17635 | 131° | 53km/h | 4371m | -4.1m/s | -0.5°C | 4.0% | 606.7hPa | 2.6V | 00:00:00 | 00:00:00 | 00:00:00 | |
| PG1ADW-2 | 2026-09-06 01:03:23 | 47.52600 | 13.17620 | 129° | 53km/h | 4375m | -3.9m/s | -0.6°C | 4.2% | 606.4hPa | 2.6V | 00:00:00 | 00:00:00 | 00:00:00 | |
| OE5DXL-15 | 2026-09-06 01:03:22 | 47.52608 | 13.17604 | 130° | 53km/h | 4379m | -3.7m/s | -0.6°C | 4.2% | 606.1hPa | 2.6V | 00:00:00 | 00:00:00 | 00:00:00 | |
| OE3JTB-15 | 2026-09-06 01:03:15 | 47.52668 | 13.17497 | 130° | 53km/h | 4409m | -4.2m/s | -0.8°C | 3.8% | 603.7hPa | 2.6V | 00:00:00 | 00:00:00 | 00:00:00 | |
| OE5DRO-10 | 2026-09-06 01:03:08 | 47.52730 | 13.17391 | 132° | 53km/h | 4438m | -3.8m/s | -1.0°C | 4.1% | 601.6hPa | 2.6V | 00:00:00 | 00:00:00 | 00:00:00 | |
| PG1ADW-2 | 2026-09-06 01:03:03 | 47.52775 | 13.17317 | 133° | 55km/h | 4459m | -4.0m/s | -1.1°C | 4.0% | 600.0hPa | 2.6V | 00:00:00 | 00:00:00 | 00:00:00 | |
| OE5FHM-15 | 2026-09-06 01:02:57 | 47.52829 | 13.17228 | 133° | 55km/h | 4484m | -4.4m/s | -1.3°C | 4.9% | 598.0hPa | 2.6V | 00:00:00 | 02:33:30 | 00:00:00 | |
| OE5DXL-15 | 2026-09-06 01:02:52 | 47.52875 | 13.17154 | 133° | 57km/h | 4507m | -4.2m/s | -1.5°C | 5.2% | 596.4hPa | 2.6V | 00:00:00 | 00:00:00 | 00:00:00 | |
| OE3JTB-15 | 2026-09-06 01:02:46 | 47.52932 | 13.17065 | 134° | 57km/h | 4533m | -4.0m/s | -1.6°C | 6.3% | 594.5hPa | 2.7V | 00:00:00 | 02:33:19 | 00:00:00 | |
| PG1ADW-2 | 2026-09-06 01:02:43 | 47.52960 | 13.17020 | 133° | 57km/h | 4545m | -4.3m/s | -1.6°C | 6.3% | 593.4hPa | 2.7V | 00:00:00 | 02:33:16 | 00:00:00 | |
| OE5DRO-10 | 2026-09-06 01:02:36 | 47.53027 | 13.16912 | 134° | 58km/h | 4576m | -4.3m/s | -1.7°C | 5.1% | 591.1hPa | 2.7V | 00:00:00 | 00:00:00 | 00:00:00 | |
| OE5FHM-15 | 2026-09-06 01:02:27 | 47.53117 | 13.16773 | 133° | 60km/h | 4615m | -4.0m/s | -1.8°C | 4.0% | 588.2hPa | 2.7V | 00:00:00 | 02:33:00 | 00:00:00 | |
| DG1MFX-10 | 2026-09-06 01:02:25 | 47.53127 | 13.16757 | 134° | 57km/h | 4619m | -4.1m/s | -1.9°C | 3.7% | 588.0hPa | 2.7V | 08:02:00 | 00:00:00 | 00:00:00 | |
| PG1ADW-2 | 2026-09-06 01:02:23 | 47.53158 | 13.16709 | 132° | 58km/h | 4632m | -4.0m/s | -1.9°C | 3.0% | 587.0hPa | 2.7V | 00:00:00 | 00:00:00 | 00:00:00 | |
| OE5DXL-15 | 2026-09-06 01:02:22 | 47.53167 | 13.16693 | 133° | 60km/h | 4636m | -4.5m/s | -1.9°C | 2.9% | 586.7hPa | 2.6V | 00:00:00 | 00:00:00 | 00:00:00 | |
| OE5DRO-10 | 2026-09-06 01:02:20 | 47.53188 | 13.16660 | 132° | 60km/h | 4645m | -4.3m/s | -1.9°C | 2.6% | 586.0hPa | 2.6V | 00:00:00 | 00:00:00 | 00:00:00 | |
| OE5MMP-10 | 2026-09-06 01:02:17 | 47.53218 | 13.16611 | 133° | 60km/h | 4658m | -4.5m/s | -1.9°C | 2.6% | 585.0hPa | 2.6V | 00:00:00 | 02:32:50 | 00:00:00 | |
| OE5DRO-10 | 2026-09-06 01:02:04 | 47.53347 | 13.16394 | 130° | 60km/h | 4713m | -3.9m/s | -2.2°C | 3.2% | 581.0hPa | 2.6V | 00:00:00 | 00:00:00 | 00:00:00 | |
| PG1ADW-2 | 2026-09-06 01:02:03 | 47.53357 | 13.16377 | 131° | 60km/h | 4718m | -3.8m/s | -2.2°C | 3.5% | 580.6hPa | 2.7V | 00:00:00 | 00:00:00 | 00:00:00 | |
| OE5MMP-10 | 2026-09-06 01:02:00 | 47.53386 | 13.16326 | 131° | 60km/h | 4730m | -4.2m/s | -2.3°C | 3.8% | 579.7hPa | 2.7V | 00:00:00 | 02:32:33 | 00:00:00 | |
| OE5HKT-10 | 2026-09-06 01:01:58 | 47.53406 | 13.16291 | 131° | 62km/h | 4738m | -4.0m/s | -2.3°C | 3.9% | 578.9hPa | 2.7V | 08:02:00 | 00:00:00 | 00:00:00 | |
| OE5FHM-15 | 2026-09-06 01:01:57 | 47.53417 | 13.16274 | 130° | 62km/h | 4743m | -4.0m/s | -2.4°C | 4.0% | 578.8hPa | 2.6V | 00:00:00 | 02:32:30 | 00:00:00 | |
| OE5DXL-15 | 2026-09-06 01:01:52 | 47.53467 | 13.16187 | 131° | 62km/h | 4765m | -3.8m/s | -2.5°C | 4.1% | 577.2hPa | 2.6V | 00:00:00 | 02:32:25 | 00:00:00 | |
| OE3JTB-15 | 2026-09-06 01:01:48 | 47.53506 | 13.16116 | 129° | 62km/h | 4781m | -4.1m/s | -2.6°C | 5.1% | 576.0hPa | 2.6V | 00:00:00 | 00:00:00 | 00:00:00 | |
| OE5MMP-10 | 2026-09-06 01:01:43 | 47.53555 | 13.16025 | 127° | 62km/h | 4802m | -3.7m/s | -2.7°C | 5.0% | 574.4hPa | 2.6V | 08:02:00 | 02:32:16 | 00:00:00 | |
| OE5HKT-10 | 2026-09-06 01:01:41 | 47.53574 | 13.15988 | 129° | 64km/h | 4810m | -3.7m/s | -2.7°C | 4.8% | 574.0hPa | 2.6V | 00:00:00 | 00:00:00 | 00:00:00 | |
| OE5MMP-10 | 2026-09-06 01:01:33 | 47.53651 | 13.15840 | 130° | 62km/h | 4841m | -4.1m/s | -2.8°C | 2.8% | 571.5hPa | 2.6V | 00:00:00 | 02:32:06 | 00:00:00 | |
| OE5DRO-10 | 2026-09-06 01:01:32 | 47.53661 | 13.15821 | 130° | 64km/h | 4845m | -4.2m/s | -2.8°C | 2.9% | 571.3hPa | 2.6V | 00:00:00 | 00:00:00 | 00:00:00 | |
| OE5FHM-15 | 2026-09-06 01:01:27 | 47.53710 | 13.15726 | 126° | 64km/h | 4866m | -3.6m/s | -3.0°C | 3.1% | 569.9hPa | 2.6V | 00:00:00 | 02:32:00 | 00:00:00 | |
| OE5HKT-10 | 2026-09-06 01:01:24 | 47.53738 | 13.15669 | 127° | 64km/h | 4878m | -4.1m/s | -3.1°C | 3.2% | 569.0hPa | 2.6V | 00:00:00 | 02:31:57 | 00:00:00 | |
| PG1ADW-2 | 2026-09-06 01:01:23 | 47.53747 | 13.15650 | 126° | 64km/h | 4882m | -3.9m/s | -3.1°C | 3.2% | 568.7hPa | 2.6V | 08:02:00 | 02:31:56 | 00:00:00 | |
| OE5MMP-10 | 2026-09-06 01:01:22 | 47.53757 | 13.15631 | 127° | 64km/h | 4886m | -3.7m/s | -3.2°C | 3.3% | 568.4hPa | 2.6V | 00:00:00 | 02:31:55 | 00:00:00 | |
| OE3JTB-15 | 2026-09-06 01:01:19 | 47.53785 | 13.15574 | 127° | 64km/h | 4897m | -3.9m/s | -3.2°C | 3.4% | 567.5hPa | 2.6V | 00:00:00 | 02:31:52 | 00:00:00 | |
| OE5DRO-10 | 2026-09-06 01:01:16 | 47.53814 | 13.15517 | 127° | 64km/h | 4909m | -4.0m/s | -3.3°C | 3.3% | 566.7hPa | 2.6V | 00:00:00 | 00:00:00 | 00:00:00 | |
| OE5HKT-10 | 2026-09-06 01:01:03 | 47.53945 | 13.15270 | 128° | 66km/h | 4960m | -3.8m/s | -3.5°C | 3.5% | 563.1hPa | 2.6V | 00:00:00 | 00:00:00 | 00:00:00 | |
| DG1MFX-10 | 2026-09-06 01:01:02 | 47.53945 | 13.15270 | 128° | 64km/h | 4960m | -3.9m/s | -3.5°C | 3.4% | 563.1hPa | 2.6V | 08:03:00 | 00:00:00 | 00:00:00 | |
| OE5MMP-10 | 2026-09-06 01:01:01 | 47.53964 | 13.15231 | 127° | 66km/h | 4968m | -3.8m/s | -3.5°C | 3.5% | 562.4hPa | 2.6V | 00:00:00 | 02:31:34 | 00:00:00 | |
| OE5DRO-10 | 2026-09-06 01:01:00 | 47.53974 | 13.15212 | 127° | 66km/h | 4972m | -3.5m/s | -3.5°C | 3.5% | 562.3hPa | 2.6V | 00:00:00 | 00:00:00 | 00:00:00 | |
| OE5FHM-15 | 2026-09-06 01:00:54 | 47.54034 | 13.15096 | 128° | 66km/h | 4995m | -3.6m/s | -3.6°C | 3.4% | 560.6hPa | 2.6V | 00:00:00 | 02:31:27 | 00:00:00 | |
| OE5DXL-15 | 2026-09-06 01:00:52 | 47.54054 | 13.15057 | 129° | 66km/h | 5003m | -3.7m/s | -3.7°C | 3.4% | 560.1hPa | 2.6V | 00:00:00 | 00:00:00 | 00:00:00 | |
| OE3JTB-15 | 2026-09-06 01:00:50 | 47.54075 | 13.15019 | 128° | 66km/h | 5011m | -3.6m/s | -3.7°C | 3.6% | 559.5hPa | 2.6V | 00:00:00 | 00:00:00 | 00:00:00 | |
| OE5HKT-10 | 2026-09-06 01:00:46 | 47.54116 | 13.14941 | 128° | 66km/h | 5025m | -3.5m/s | -3.7°C | 3.6% | 558.4hPa | 2.6V | 00:00:00 | 00:00:00 | 00:00:00 | |
| OE5DRO-10 | 2026-09-06 01:00:44 | 47.54136 | 13.14903 | 130° | 66km/h | 5032m | -3.5m/s | -3.8°C | 3.7% | 557.8hPa | 2.6V | 00:00:00 | 00:00:00 | 00:00:00 | |
| PG1ADW-2 | 2026-09-06 01:00:43 | 47.54146 | 13.14884 | 130° | 66km/h | 5036m | -3.7m/s | -3.8°C | 3.7% | 557.7hPa | 2.6V | 00:00:00 | 00:00:00 | 00:00:00 | |
| DG1MFX-10 | 2026-09-06 01:00:41 | 47.54157 | 13.14864 | 129° | 66km/h | 5039m | -3.7m/s | -3.9°C | 3.7% | 557.4hPa | 2.6V | 08:04:00 | 00:00:00 | 00:00:00 | |
| OE5MMP-10 | 2026-09-06 01:00:34 | 47.54239 | 13.14710 | 128° | 68km/h | 5069m | -4.0m/s | -4.1°C | 4.1% | 555.3hPa | 2.6V | 00:00:00 | 02:31:07 | 00:00:00 | |
| OE5HKT-10 | 2026-09-06 01:00:28 | 47.54302 | 13.14592 | 128° | 68km/h | 5092m | -3.7m/s | -4.2°C | 4.1% | 553.7hPa | 2.6V | 00:00:00 | 02:31:01 | 00:00:00 | |
| OE5FHM-15 | 2026-09-06 01:00:24 | 47.54343 | 13.14513 | 128° | 66km/h | 5108m | -3.5m/s | -4.3°C | 4.0% | 552.6hPa | 2.6V | 00:00:00 | 02:30:57 | 00:00:00 | |
| PG1ADW-2 | 2026-09-06 01:00:23 | 47.54354 | 13.14493 | 128° | 66km/h | 5111m | -3.5m/s | -4.3°C | 4.0% | 552.2hPa | 2.6V | 00:00:00 | 00:00:00 | 00:00:00 | |
| OE5DXL-15 | 2026-09-06 01:00:22 | 47.54364 | 13.14473 | 129° | 66km/h | 5115m | -3.8m/s | -4.3°C | 4.0% | 552.1hPa | 2.5V | 00:00:00 | 00:00:00 | 00:00:00 | |
| OE3JTB-15 | 2026-09-06 01:00:21 | 47.54375 | 13.14453 | 128° | 66km/h | 5119m | -3.7m/s | -4.3°C | 4.0% | 551.9hPa | 2.5V | 00:00:00 | 00:00:00 | 00:00:00 | |
| DG1MFX-10 | 2026-09-06 01:00:20 | 47.54375 | 13.14453 | 128° | 68km/h | 5119m | -3.8m/s | -4.3°C | 3.9% | 552.0hPa | 2.5V | 08:04:00 | 00:00:00 | 00:00:00 | |
| OE5MMP-10 | 2026-09-06 01:00:13 | 47.54458 | 13.14299 | 129° | 66km/h | 5149m | -3.6m/s | -4.4°C | 3.9% | 549.7hPa | 2.5V | 00:00:00 | 02:30:46 | 00:00:00 | |
| OE5DRO-10 | 2026-09-06 01:00:12 | 47.54468 | 13.14280 | 130° | 66km/h | 5153m | -3.7m/s | -4.4°C | 3.9% | 549.4hPa | 2.5V | 00:00:00 | 00:00:00 | 00:00:00 | |
| DG1MFX-10 | 2026-09-06 01:00:00 | 47.54582 | 13.14070 | 130° | 66km/h | 5193m | -3.9m/s | -4.6°C | 4.3% | 546.7hPa | 2.5V | 08:04:00 | 00:00:00 | 00:00:00 | |
| OE5DRO-10 | 2026-09-06 00:59:56 | 47.54633 | 13.13973 | 128° | 66km/h | 5211m | -3.5m/s | -4.7°C | 4.4% | 545.4hPa | 2.5V | 00:00:00 | 00:00:00 | 00:00:00 | |
| OE5FHM-15 | 2026-09-06 00:59:54 | 47.54653 | 13.13933 | 128° | 66km/h | 5219m | -3.6m/s | -4.7°C | 4.4% | 544.9hPa | 2.5V | 00:00:00 | 02:30:27 | 00:00:00 | |
| OE5DXL-15 | 2026-09-06 00:59:52 | 47.54673 | 13.13893 | 126° | 66km/h | 5226m | -3.5m/s | -4.7°C | 4.4% | 544.3hPa | 2.5V | 08:04:00 | 00:00:00 | 00:00:00 | |
| OE5MMP-10 | 2026-09-06 00:59:49 | 47.54702 | 13.13833 | 126° | 66km/h | 5237m | -3.6m/s | -4.7°C | 4.4% | 543.5hPa | 2.6V | 08:04:00 | 02:30:22 | 00:00:00 | |
| PG1ADW-2 | 2026-09-06 00:59:43 | 47.54759 | 13.13713 | 125° | 66km/h | 5259m | -3.6m/s | -4.8°C | 4.6% | 542.0hPa | 2.6V | 00:00:00 | 00:00:00 | 00:00:00 | |
| OE5DRO-10 | 2026-09-06 00:59:40 | 47.54786 | 13.13651 | 125° | 66km/h | 5270m | -3.5m/s | -4.8°C | 4.4% | 541.2hPa | 2.6V | 00:00:00 | 00:00:00 | 00:00:00 | |
| DG1MFX-10 | 2026-09-06 00:59:39 | 47.54787 | 13.13651 | 125° | 66km/h | 5270m | -3.5m/s | -4.8°C | 4.3% | 541.3hPa | 2.5V | 08:05:00 | 00:00:00 | 00:00:00 | |
| OE5MMP-10 | 2026-09-06 00:59:38 | 47.54805 | 13.13610 | 124° | 66km/h | 5278m | -4.1m/s | -4.8°C | 4.3% | 540.7hPa | 2.5V | 00:00:00 | 02:30:11 | 00:00:00 | |
| OE5MMP-10 | 2026-09-06 00:59:28 | 47.54897 | 13.13404 | 123° | 68km/h | 5314m | -3.7m/s | -5.0°C | 4.2% | 538.1hPa | 2.5V | 00:00:00 | 02:30:01 | 00:00:00 | |
| OE5FHM-15 | 2026-09-06 00:59:24 | 47.54935 | 13.13321 | 124° | 69km/h | 5329m | -3.7m/s | -5.1°C | 4.1% | 537.2hPa | 2.5V | 08:04:00 | 02:29:57 | 00:00:00 | |
| PG1ADW-2 | 2026-09-06 00:59:23 | 47.54944 | 13.13300 | 126° | 69km/h | 5333m | -3.7m/s | -5.1°C | 4.1% | 536.9hPa | 2.6V | 00:00:00 | 00:00:00 | 00:00:00 | |
| OE5DXL-15 | 2026-09-06 00:59:22 | 47.54954 | 13.13279 | 125° | 71km/h | 5337m | -3.7m/s | -5.1°C | 4.2% | 536.6hPa | 2.6V | 00:00:00 | 00:00:00 | 00:00:00 | |
| OE5HKT-10 | 2026-09-06 00:59:21 | 47.54964 | 13.13258 | 124° | 69km/h | 5340m | -3.5m/s | -5.1°C | 4.2% | 536.5hPa | 2.6V | 00:00:00 | 00:00:00 | 00:00:00 | |
| DG1MFX-10 | 2026-09-06 00:59:19 | 47.54974 | 13.13236 | 125° | 69km/h | 5344m | -3.8m/s | -5.2°C | 4.0% | 536.3hPa | 2.5V | 08:05:00 | 00:00:00 | 00:00:00 | |
| OE5MMP-10 | 2026-09-06 00:59:18 | 47.54994 | 13.13193 | 124° | 69km/h | 5351m | -3.4m/s | -5.2°C | 4.0% | 535.8hPa | 2.5V | 00:00:00 | 02:29:51 | 00:00:00 | |
| OE5DRO-10 | 2026-09-06 00:59:08 | 47.55088 | 13.12974 | 124° | 71km/h | 5387m | -4.0m/s | -5.3°C | 3.2% | 533.2hPa | 2.5V | 00:00:00 | 00:00:00 | 00:00:00 | |
| OE5HKT-10 | 2026-09-06 00:59:04 | 47.55125 | 13.12885 | 122° | 73km/h | 5403m | -3.7m/s | -5.3°C | 3.0% | 532.1hPa | 2.5V | 00:00:00 | 00:00:00 | 00:00:00 | |
| PG1ADW-2 | 2026-09-06 00:59:03 | 47.55135 | 13.12862 | 121° | 73km/h | 5406m | -3.9m/s | -5.3°C | 2.9% | 531.8hPa | 2.5V | 00:00:00 | 00:00:00 | 00:00:00 | |
| DG1MFX-10 | 2026-09-06 00:58:58 | 47.55172 | 13.12772 | 122° | 71km/h | 5421m | -3.9m/s | -5.4°C | 2.8% | 531.0hPa | 2.5V | 08:06:00 | 00:00:00 | 00:00:00 | |
| OE5FHM-15 | 2026-09-06 00:58:54 | 47.55220 | 13.12658 | 124° | 75km/h | 5440m | -3.6m/s | -5.4°C | 2.9% | 529.6hPa | 2.5V | 00:00:00 | 02:29:27 | 00:00:00 | |
| OE5DXL-15 | 2026-09-06 00:58:52 | 47.55240 | 13.12612 | 123° | 75km/h | 5448m | -3.6m/s | -5.5°C | 2.9% | 529.2hPa | 2.5V | 00:00:00 | 00:00:00 | 00:00:00 | |
| OE5MMP-10 | 2026-09-06 00:58:51 | 47.55250 | 13.12589 | 124° | 75km/h | 5451m | -3.3m/s | -5.5°C | 2.9% | 528.9hPa | 2.5V | 00:00:00 | 02:29:24 | 00:00:00 | |
| PG1ADW-2 | 2026-09-06 00:58:43 | 47.55333 | 13.12403 | 124° | 77km/h | 5480m | -4.2m/s | -5.7°C | 3.0% | 526.9hPa | 2.5V | 00:00:00 | 02:29:16 | 00:00:00 | |
| OE5MMP-10 | 2026-09-06 00:58:41 | 47.55354 | 13.12356 | 125° | 77km/h | 5488m | -3.8m/s | -5.7°C | 3.7% | 526.4hPa | 2.5V | 00:00:00 | 02:29:14 | 00:00:00 | |
| DG1MFX-10 | 2026-09-06 00:58:37 | 47.55386 | 13.12285 | 126° | 75km/h | 5500m | -3.8m/s | -5.7°C | 6.0% | 525.7hPa | 2.6V | 08:06:00 | 00:00:00 | 00:00:00 | |
| OE5DRO-10 | 2026-09-06 00:58:36 | 47.55409 | 13.12240 | 127° | 77km/h | 5507m | -3.7m/s | -5.7°C | 7.7% | 525.1hPa | 2.6V | 00:00:00 | 00:00:00 | 00:00:00 | |
| OE5MMP-10 | 2026-09-06 00:58:31 | 47.55465 | 13.12123 | 126° | 77km/h | 5528m | -4.0m/s | -5.8°C | 11.0% | 523.7hPa | 2.6V | 00:00:00 | 02:29:04 | 00:00:00 | |
| OE3JTB-15 | 2026-09-06 00:58:25 | 47.55534 | 13.11986 | 128° | 77km/h | 5552m | -4.0m/s | -5.9°C | 16.6% | 522.3hPa | 2.6V | 00:00:00 | 02:28:58 | 00:00:00 | |
| OE5FHM-15 | 2026-09-06 00:58:24 | 47.55546 | 13.11964 | 128° | 77km/h | 5556m | -3.9m/s | -5.9°C | 17.6% | 522.1hPa | 2.6V | 00:00:00 | 02:28:57 | 00:00:00 | |
| OE5HKT-10 | 2026-09-06 00:58:23 | 47.55558 | 13.11941 | 129° | 77km/h | 5560m | -3.7m/s | -5.9°C | 19.1% | 521.7hPa | 2.6V | 08:05:00 | 00:00:00 | 00:00:00 | |
| OE5DXL-15 | 2026-09-06 00:58:22 | 47.55570 | 13.11919 | 130° | 77km/h | 5563m | -3.3m/s | -5.9°C | 19.9% | 521.4hPa | 2.6V | 00:00:00 | 00:00:00 | 00:00:00 | |
| OE5MMP-10 | 2026-09-06 00:58:21 | 47.55583 | 13.11896 | 129° | 77km/h | 5567m | -3.7m/s | -5.9°C | 20.7% | 521.2hPa | 2.6V | 00:00:00 | 02:28:54 | 00:00:00 | |
| OE5DRO-10 | 2026-09-06 00:58:20 | 47.55595 | 13.11873 | 128° | 77km/h | 5571m | -3.9m/s | -5.9°C | 21.5% | 521.0hPa | 2.6V | 00:00:00 | 00:00:00 | 00:00:00 | |
| DG1MFX-10 | 2026-09-06 00:58:16 | 47.55631 | 13.11804 | 128° | 78km/h | 5582m | -3.8m/s | -6.0°C | 23.5% | 520.3hPa | 2.6V | 08:06:00 | 00:00:00 | 00:00:00 | |
| OE5MMP-10 | 2026-09-06 00:58:11 | 47.55702 | 13.11669 | 128° | 77km/h | 5606m | -4.0m/s | -6.1°C | 25.7% | 518.5hPa | 2.6V | 08:06:00 | 02:28:44 | 00:00:00 | |
| OE5HKT-10 | 2026-09-06 00:58:06 | 47.55760 | 13.11554 | 127° | 75km/h | 5627m | -3.7m/s | -6.3°C | 28.4% | 517.4hPa | 2.6V | 00:00:00 | 00:00:00 | 00:00:00 | |
| OE5DRO-10 | 2026-09-06 00:58:04 | 47.55782 | 13.11508 | 127° | 75km/h | 5635m | -3.8m/s | -6.3°C | 29.7% | 516.9hPa | 2.6V | 08:06:00 | 00:00:00 | 00:00:00 | |
| PG1ADW-2 | 2026-09-06 00:58:03 | 47.55793 | 13.11486 | 128° | 75km/h | 5639m | -3.8m/s | -6.3°C | 31.1% | 516.6hPa | 2.6V | 00:00:00 | 00:00:00 | 00:00:00 | |
| OE5MMP-10 | 2026-09-06 00:58:01 | 47.55816 | 13.11440 | 126° | 75km/h | 5647m | -4.0m/s | -6.3°C | 30.0% | 516.0hPa | 2.6V | 00:00:00 | 02:28:34 | 00:00:00 | |
| OE3JTB-15 | 2026-09-06 00:57:56 | 47.55872 | 13.11326 | 127° | 73km/h | 5667m | -3.7m/s | -6.3°C | 29.3% | 514.8hPa | 2.6V | 08:06:00 | 00:00:00 | 00:00:00 | |
| OE5FHM-15 | 2026-09-06 00:57:54 | 47.55894 | 13.11282 | 128° | 73km/h | 5674m | -3.6m/s | -6.4°C | 29.4% | 514.2hPa | 2.6V | 00:00:00 | 02:28:27 | 00:00:00 | |
| OE5MMP-10 | 2026-09-06 00:57:51 | 47.55929 | 13.11216 | 129° | 73km/h | 5686m | -3.5m/s | -6.5°C | 29.4% | 513.4hPa | 2.6V | 00:00:00 | 02:28:24 | 00:00:00 | |
| OE5HKT-10 | 2026-09-06 00:57:49 | 47.55952 | 13.11172 | 128° | 73km/h | 5694m | -4.3m/s | -6.5°C | 29.2% | 513.0hPa | 2.6V | 00:00:00 | 02:28:22 | 00:00:00 | |
| OE5DRO-10 | 2026-09-06 00:57:48 | 47.55963 | 13.11150 | 128° | 73km/h | 5699m | -3.9m/s | -6.5°C | 29.3% | 512.7hPa | 2.6V | 00:00:00 | 00:00:00 | 00:00:00 | |
| PG1ADW-2 | 2026-09-06 00:57:43 | 47.56019 | 13.11042 | 129° | 73km/h | 5719m | -4.0m/s | -6.6°C | 29.6% | 511.3hPa | 2.6V | 00:00:00 | 00:00:00 | 00:00:00 | |
| OE5MMP-10 | 2026-09-06 00:57:41 | 47.56042 | 13.11000 | 129° | 73km/h | 5727m | -3.9m/s | -6.7°C | 29.7% | 510.6hPa | 2.6V | 00:00:00 | 02:28:14 | 00:00:00 | |
| DG1MFX-10 | 2026-09-06 00:57:36 | 47.56089 | 13.10915 | 130° | 73km/h | 5745m | -4.1m/s | -6.8°C | 29.6% | 509.6hPa | 2.5V | 08:06:00 | 00:00:00 | 00:00:00 | |
| OE5HKT-10 | 2026-09-06 00:57:32 | 47.56148 | 13.10810 | 131° | 71km/h | 5765m | -4.1m/s | -6.9°C | 30.6% | 508.2hPa | 2.5V | 00:00:00 | 00:00:00 | 00:00:00 | |
| OE5MMP-10 | 2026-09-06 00:57:31 | 47.56160 | 13.10789 | 130° | 71km/h | 5769m | -4.5m/s | -6.9°C | 30.6% | 507.9hPa | 2.5V | 00:00:00 | 02:28:04 | 00:00:00 | |
| OE3JTB-15 | 2026-09-06 00:57:27 | 47.56206 | 13.10709 | 132° | 71km/h | 5786m | -4.1m/s | -6.9°C | 30.5% | 506.8hPa | 2.5V | 00:00:00 | 00:00:00 | 00:00:00 | |
| OE5FHM-15 | 2026-09-06 00:57:24 | 47.56242 | 13.10649 | 133° | 71km/h | 5799m | -4.6m/s | -7.0°C | 30.0% | 505.9hPa | 2.5V | 00:00:00 | 02:27:57 | 00:00:00 | |
| PG1ADW-2 | 2026-09-06 00:57:23 | 47.56255 | 13.10628 | 132° | 71km/h | 5804m | -4.2m/s | -7.0°C | 29.7% | 505.6hPa | 2.5V | 00:00:00 | 02:27:56 | 00:00:00 | |
| OE5DXL-15 | 2026-09-06 00:57:22 | 47.56267 | 13.10608 | 132° | 71km/h | 5808m | -4.4m/s | -7.0°C | 29.8% | 505.4hPa | 2.6V | 00:00:00 | 00:00:00 | 00:00:00 | |
| OE5DRO-10 | 2026-09-06 00:57:16 | 47.56340 | 13.10487 | 132° | 71km/h | 5835m | -4.1m/s | -7.1°C | 29.9% | 503.7hPa | 2.6V | 00:00:00 | 00:00:00 | 00:00:00 | |
| OE5HKT-10 | 2026-09-06 00:57:15 | 47.56352 | 13.10467 | 133° | 71km/h | 5839m | -3.9m/s | -7.1°C | 29.9% | 503.4hPa | 2.6V | 00:00:00 | 00:00:00 | 00:00:00 | |
| OE5MMP-10 | 2026-09-06 00:57:11 | 47.56402 | 13.10390 | 134° | 71km/h | 5856m | -4.7m/s | -7.1°C | 30.1% | 502.3hPa | 2.6V | 00:00:00 | 02:27:44 | 00:00:00 | |
| PG1ADW-2 | 2026-09-06 00:57:03 | 47.56503 | 13.10236 | 135° | 71km/h | 5891m | -4.8m/s | -7.3°C | 30.8% | 500.1hPa | 2.5V | 00:00:00 | 00:00:00 | 00:00:00 | |
| OE5MMP-10 | 2026-09-06 00:57:01 | 47.56528 | 13.10196 | 133° | 71km/h | 5901m | -4.4m/s | -7.2°C | 29.8% | 499.5hPa | 2.5V | 00:00:00 | 02:27:34 | 00:00:00 | |
| OE5DRO-10 | 2026-09-06 00:57:00 | 47.56540 | 13.10177 | 134° | 71km/h | 5905m | -4.0m/s | -7.2°C | 30.3% | 499.3hPa | 2.5V | 00:00:00 | 00:00:00 | 00:00:00 | |
| OE5HKT-10 | 2026-09-06 00:56:58 | 47.56565 | 13.10138 | 133° | 71km/h | 5914m | -4.2m/s | -7.3°C | 30.8% | 498.6hPa | 2.5V | 00:00:00 | 02:27:31 | 00:00:00 | |
| DG1MFX-10 | 2026-09-06 00:56:55 | 47.56590 | 13.10099 | 135° | 71km/h | 5923m | -4.5m/s | -7.4°C | 30.7% | 498.1hPa | 2.5V | 08:07:00 | 00:00:00 | 00:00:00 | |
| OE5FHM-15 | 2026-09-06 00:56:54 | 47.56614 | 13.10060 | 133° | 69km/h | 5932m | -4.3m/s | -7.4°C | 31.4% | 497.4hPa | 2.5V | 00:00:00 | 02:27:27 | 00:00:00 | |
| OE5MMP-10 | 2026-09-06 00:56:51 | 47.56651 | 13.10002 | 135° | 71km/h | 5945m | -4.4m/s | -7.5°C | 31.8% | 496.6hPa | 2.5V | 00:00:00 | 02:27:24 | 00:00:00 | |
| PG1ADW-2 | 2026-09-06 00:56:43 | 47.56749 | 13.09849 | 134° | 69km/h | 5981m | -4.3m/s | -7.6°C | 29.8% | 494.5hPa | 2.5V | 00:00:00 | 00:00:00 | 00:00:00 | |
| OE5WHR-10 | 2026-09-06 00:56:42 | 47.56762 | 13.09830 | 134° | 69km/h | 5985m | -4.6m/s | -7.6°C | 30.0% | 494.1hPa | 2.5V | 00:00:00 | 00:00:00 | 00:00:00 | |
| OE5MMP-10 | 2026-09-06 00:56:41 | 47.56774 | 13.09812 | 136° | 69km/h | 5990m | -4.4m/s | -7.7°C | 30.1% | 493.7hPa | 2.5V | 08:07:00 | 02:27:14 | 00:00:00 | |
| OE5HKT-10 | 2026-09-06 00:56:37 | 47.56824 | 13.09738 | 135° | 68km/h | 6008m | -4.7m/s | -7.8°C | 30.6% | 492.7hPa | 2.6V | 00:00:00 | 00:00:00 | 00:00:00 | |
| DG1MFX-10 | 2026-09-06 00:56:34 | 47.56848 | 13.09701 | 135° | 68km/h | 6017m | -4.4m/s | -7.9°C | 30.3% | 492.1hPa | 2.5V | 08:07:00 | 00:00:00 | 00:00:00 | |
| OE5MMP-10 | 2026-09-06 00:56:31 | 47.56897 | 13.09626 | 134° | 68km/h | 6036m | -4.2m/s | -8.0°C | 30.8% | 491.0hPa | 2.5V | 00:00:00 | 02:27:04 | 00:00:00 | |
| OE3JTB-15 | 2026-09-06 00:56:29 | 47.56921 | 13.09589 | 133° | 68km/h | 6045m | -4.3m/s | -8.1°C | 30.7% | 490.4hPa | 2.5V | 00:00:00 | 00:00:00 | 00:00:00 | |
| OE5FHM-15 | 2026-09-06 00:56:24 | 47.56979 | 13.09496 | 133° | 68km/h | 6068m | -4.2m/s | -8.1°C | 28.9% | 489.0hPa | 2.6V | 00:00:00 | 02:26:57 | 00:00:00 | |
| PG1ADW-2 | 2026-09-06 00:56:23 | 47.56991 | 13.09478 | 134° | 68km/h | 6072m | -4.4m/s | -8.1°C | 28.6% | 488.7hPa | 2.6V | 00:00:00 | 00:00:00 | 00:00:00 | |
| OE5DRO-10 | 2026-09-06 00:56:22 | 47.57003 | 13.09459 | 135° | 68km/h | 6077m | -4.6m/s | -8.2°C | 28.4% | 488.4hPa | 2.5V | 00:00:00 | 00:00:00 | 00:00:00 | |
| OE5MMP-10 | 2026-09-06 00:56:21 | 47.57014 | 13.09441 | 133° | 66km/h | 6081m | -4.4m/s | -8.2°C | 28.2% | 488.1hPa | 2.5V | 00:00:00 | 02:26:54 | 00:00:00 | |
| OE5HKT-10 | 2026-09-06 00:56:16 | 47.57071 | 13.09348 | 132° | 68km/h | 6105m | -4.7m/s | -8.3°C | 28.2% | 486.7hPa | 2.5V | 00:00:00 | 00:00:00 | 00:00:00 | |
| OE5WHR-10 | 2026-09-06 00:56:15 | 47.57082 | 13.09329 | 131° | 68km/h | 6110m | -4.6m/s | -8.4°C | 28.3% | 486.3hPa | 2.5V | 00:00:00 | 02:26:48 | 00:00:00 | |
| DG1MFX-10 | 2026-09-06 00:56:13 | 47.57093 | 13.09310 | 132° | 64km/h | 6115m | -4.5m/s | -8.5°C | 27.8% | 486.0hPa | 2.5V | 08:08:00 | 00:00:00 | 00:00:00 | |
| OE5MMP-10 | 2026-09-06 00:56:11 | 47.57127 | 13.09256 | 134° | 68km/h | 6129m | -4.3m/s | -8.5°C | 28.5% | 485.2hPa | 2.5V | 00:00:00 | 02:26:44 | 00:00:00 | |
| PG1ADW-2 | 2026-09-06 00:56:03 | 47.57221 | 13.09109 | 136° | 75km/h | 6165m | -4.3m/s | -8.8°C | 28.7% | 482.8hPa | 2.5V | 00:00:00 | 02:26:36 | 00:00:00 | |
| OE5MMP-10 | 2026-09-06 00:56:01 | 47.57246 | 13.09072 | 134° | 69km/h | 6175m | -4.7m/s | -8.8°C | 28.7% | 482.3hPa | 2.5V | 00:00:00 | 02:26:34 | 00:00:00 | |
| OE3JTB-15 | 2026-09-06 00:56:00 | 47.57258 | 13.09054 | 135° | 69km/h | 6180m | -4.3m/s | -8.9°C | 28.7% | 482.0hPa | 2.5V | 00:00:00 | 00:00:00 | 00:00:00 | |
| OE5HKT-10 | 2026-09-06 00:55:59 | 47.57270 | 13.09036 | 135° | 69km/h | 6184m | -4.5m/s | -8.9°C | 28.7% | 481.7hPa | 2.5V | 00:00:00 | 02:26:32 | 00:00:00 | |
| OE5WHR-10 | 2026-09-06 00:55:58 | 47.57282 | 13.09017 | 134° | 69km/h | 6189m | -4.1m/s | -8.9°C | 28.7% | 481.4hPa | 2.5V | 00:00:00 | 00:00:00 | 00:00:00 | |
| DG1MFX-10 | 2026-09-06 00:55:54 | 47.57344 | 13.08927 | 137° | 71km/h | 6210m | -4.3m/s | -9.0°C | 26.9% | 480.2hPa | 2.6V | 08:08:00 | 00:00:00 | 00:00:00 | |
| OE5DXL-15 | 2026-09-06 00:55:52 | 47.57356 | 13.08909 | 136° | 69km/h | 6215m | -3.8m/s | -8.9°C | 26.9% | 479.7hPa | 2.6V | 00:00:00 | 00:00:00 | 00:00:00 | |
| OE5MMP-10 | 2026-09-06 00:55:51 | 47.57369 | 13.08891 | 137° | 68km/h | 6219m | -4.5m/s | -9.0°C | 26.8% | 479.5hPa | 2.6V | 00:00:00 | 02:26:24 | 00:00:00 | |
| OE5DRO-10 | 2026-09-06 00:55:45 | 47.57444 | 13.08785 | 138° | 69km/h | 6246m | -4.5m/s | -9.2°C | 27.3% | 477.8hPa | 2.6V | 00:00:00 | 00:00:00 | 00:00:00 | |
| OE5HKT-10 | 2026-09-06 00:55:42 | 47.57482 | 13.08733 | 140° | 71km/h | 6260m | -4.8m/s | -9.3°C | 27.1% | 477.0hPa | 2.6V | 08:08:00 | 00:00:00 | 00:00:00 | |
| OE5MMP-10 | 2026-09-06 00:55:41 | 47.57495 | 13.08717 | 139° | 71km/h | 6265m | -4.7m/s | -9.3°C | 27.1% | 476.7hPa | 2.5V | 00:00:00 | 02:26:14 | 00:00:00 | |
| DG1MFX-10 | 2026-09-06 00:55:33 | 47.57603 | 13.08579 | 141° | 69km/h | 6301m | -4.5m/s | -9.7°C | 26.5% | 474.5hPa | 2.6V | 08:09:00 | 00:00:00 | 00:00:00 | |
| OE3JTB-15 | 2026-09-06 00:55:32 | 47.57631 | 13.08544 | 138° | 71km/h | 6310m | -4.4m/s | -9.7°C | 27.1% | 473.9hPa | 2.6V | 00:00:00 | 02:26:04 | 00:00:00 | |
| OE5MMP-10 | 2026-09-06 00:55:31 | 47.57631 | 13.08544 | 138° | 71km/h | 6310m | -4.4m/s | -9.7°C | 27.1% | 473.9hPa | 2.6V | 00:00:00 | 02:26:04 | 00:00:00 | |
| OE5DRO-10 | 2026-09-06 00:55:29 | 47.57658 | 13.08508 | 139° | 71km/h | 6319m | -4.4m/s | -9.8°C | 27.2% | 473.4hPa | 2.6V | 08:08:00 | 00:00:00 | 00:00:00 | |
| OE5DXL-15 | 2026-09-06 00:55:22 | 47.57750 | 13.08384 | 138° | 73km/h | 6351m | -4.5m/s | -10.1°C | 27.8% | 471.4hPa | 2.5V | 08:08:00 | 00:00:00 | 00:00:00 | |
| OE5MMP-10 | 2026-09-06 00:55:21 | 47.57763 | 13.08366 | 137° | 73km/h | 6356m | -4.3m/s | -10.1°C | 28.0% | 471.1hPa | 2.5V | 00:00:00 | 02:25:54 | 00:00:00 | |
| OE5WHR-10 | 2026-09-06 00:55:20 | 47.57776 | 13.08348 | 139° | 73km/h | 6361m | -4.5m/s | -10.2°C | 28.0% | 470.8hPa | 2.5V | 00:00:00 | 02:25:53 | 00:00:00 | |
| OE5DRO-10 | 2026-09-06 00:55:13 | 47.57868 | 13.08215 | 135° | 73km/h | 6394m | -4.8m/s | -10.3°C | 27.8% | 468.9hPa | 2.5V | 00:00:00 | 00:00:00 | 00:00:00 | |
| DG1MFX-10 | 2026-09-06 00:55:12 | 47.57868 | 13.08215 | 135° | 73km/h | 6394m | -4.9m/s | -10.3°C | 27.2% | 468.9hPa | 2.5V | 08:09:00 | 00:00:00 | 00:00:00 | |
| OE5MMP-10 | 2026-09-06 00:55:11 | 47.57893 | 13.08176 | 134° | 73km/h | 6403m | -4.5m/s | -10.4°C | 27.8% | 468.3hPa | 2.5V | 08:09:00 | 02:25:44 | 00:00:00 | |
| OE5HKT-10 | 2026-09-06 00:55:08 | 47.57931 | 13.08116 | 133° | 73km/h | 6418m | -4.2m/s | -10.4°C | 27.7% | 467.4hPa | 2.6V | 00:00:00 | 02:25:41 | 00:00:00 | |
| OE5WHR-10 | 2026-09-06 00:55:03 | 47.57995 | 13.08022 | 136° | 75km/h | 6440m | -4.5m/s | -10.5°C | 26.0% | 466.0hPa | 2.6V | 00:00:00 | 00:00:00 | 00:00:00 | |
| OE3JTB-15 | 2026-09-06 00:55:02 | 47.58009 | 13.08003 | 136° | 77km/h | 6444m | -4.8m/s | -10.5°C | 25.7% | 465.6hPa | 2.6V | 00:00:00 | 00:00:00 | 00:00:00 | |
| OE5MMP-10 | 2026-09-06 00:55:01 | 47.58022 | 13.07983 | 134° | 75km/h | 6450m | -4.5m/s | -10.5°C | 25.3% | 465.4hPa | 2.5V | 00:00:00 | 02:25:34 | 00:00:00 | |
| OE5DRO-10 | 2026-09-06 00:54:57 | 47.58073 | 13.07901 | 133° | 77km/h | 6468m | -4.2m/s | -10.6°C | 24.6% | 464.2hPa | 2.5V | 00:00:00 | 00:00:00 | 00:00:00 | |
| OE5FHM-15 | 2026-09-06 00:54:54 | 47.58112 | 13.07837 | 132° | 77km/h | 6482m | -4.3m/s | -10.7°C | 24.3% | 463.4hPa | 2.5V | 08:09:00 | 02:25:27 | 00:00:00 | |
| OE5DXL-15 | 2026-09-06 00:54:52 | 47.58137 | 13.07798 | 136° | 77km/h | 6491m | -4.6m/s | -10.7°C | 24.1% | 462.8hPa | 2.6V | 00:00:00 | 00:00:00 | 00:00:00 | |
| OE5MMP-10 | 2026-09-06 00:54:51 | 47.58151 | 13.07778 | 136° | 77km/h | 6496m | -4.7m/s | -10.8°C | 24.1% | 462.6hPa | 2.6V | 00:00:00 | 02:25:24 | 00:00:00 | |
| OE5WHR-10 | 2026-09-06 00:54:46 | 47.58218 | 13.07673 | 134° | 77km/h | 6518m | -4.2m/s | -10.9°C | 23.7% | 461.3hPa | 2.6V | 00:00:00 | 00:00:00 | 00:00:00 | |
| OE5MMP-10 | 2026-09-06 00:54:41 | 47.58282 | 13.07566 | 132° | 77km/h | 6543m | -4.3m/s | -11.0°C | 23.0% | 459.8hPa | 2.6V | 00:00:00 | 02:25:14 | 00:00:00 | |
| OE5HKT-10 | 2026-09-06 00:54:34 | 47.58375 | 13.07418 | 134° | 78km/h | 6575m | -4.9m/s | -11.2°C | 23.0% | 457.9hPa | 2.6V | 00:00:00 | 00:00:00 | 00:00:00 | |
| OE3JTB-15 | 2026-09-06 00:54:33 | 47.58388 | 13.07396 | 132° | 78km/h | 6580m | -4.5m/s | -11.2°C | 23.4% | 457.6hPa | 2.6V | 00:00:00 | 00:00:00 | 00:00:00 | |
| OE5MMP-10 | 2026-09-06 00:54:31 | 47.58414 | 13.07352 | 131° | 77km/h | 6589m | -4.5m/s | -11.3°C | 23.7% | 457.0hPa | 2.6V | 00:00:00 | 02:25:04 | 00:00:00 | |
| OE5WHR-10 | 2026-09-06 00:54:30 | 47.58440 | 13.07307 | 130° | 80km/h | 6599m | -4.6m/s | -11.4°C | 23.8% | 456.6hPa | 2.6V | 00:00:00 | 02:25:02 | 00:00:00 | |
| OE5DRO-10 | 2026-09-06 00:54:25 | 47.58489 | 13.07221 | 132° | 80km/h | 6618m | -4.2m/s | -11.5°C | 24.0% | 455.4hPa | 2.6V | 00:00:00 | 00:00:00 | 00:00:00 | |
| OE5FHM-15 | 2026-09-06 00:54:24 | 47.58503 | 13.07199 | 132° | 80km/h | 6623m | -4.0m/s | -11.6°C | 24.0% | 455.1hPa | 2.6V | 00:00:00 | 02:24:57 | 00:00:00 | |
| OE5MMP-10 | 2026-09-06 00:54:21 | 47.58541 | 13.07132 | 132° | 80km/h | 6636m | -4.2m/s | -11.7°C | 24.0% | 454.3hPa | 2.6V | 00:00:00 | 02:24:54 | 00:00:00 | |
| BAUMI2-15 | 2026-09-06 00:54:17 | 47.58595 | 13.07042 | 129° | 80km/h | 6654m | -4.4m/s | -11.8°C | 24.6% | 453.2hPa | 2.6V | 00:00:00 | 02:24:50 | 00:00:00 | |
| OE5MMP-10 | 2026-09-06 00:54:11 | 47.58673 | 13.06903 | 131° | 80km/h | 6681m | -4.4m/s | -12.1°C | 25.0% | 451.6hPa | 2.6V | 00:00:00 | 02:24:44 | 00:00:00 | |
| DG1MFX-10 | 2026-09-06 00:54:10 | 47.58686 | 13.06881 | 133° | 78km/h | 6686m | -4.4m/s | -12.2°C | 24.5% | 451.4hPa | 2.6V | 08:10:00 | 00:00:00 | 00:00:00 | |
| OE5DRO-10 | 2026-09-06 00:54:09 | 47.58699 | 13.06858 | 132° | 82km/h | 6691m | -4.3m/s | -12.1°C | 25.2% | 451.0hPa | 2.6V | 00:00:00 | 00:00:00 | 00:00:00 | |
| BAUMI2-15 | 2026-09-06 00:54:07 | 47.58725 | 13.06814 | 131° | 84km/h | 6700m | -4.7m/s | -12.2°C | 25.5% | 450.5hPa | 2.6V | 08:10:00 | 02:24:40 | 00:00:00 | |
| OE3JTB-15 | 2026-09-06 00:54:04 | 47.58780 | 13.06724 | 131° | 84km/h | 6719m | -4.4m/s | -12.4°C | 25.9% | 449.4hPa | 2.5V | 00:00:00 | 02:24:36 | 00:00:00 | |
| OE5MMP-10 | 2026-09-06 00:54:01 | 47.58807 | 13.06675 | 129° | 82km/h | 6728m | -4.4m/s | -12.5°C | 26.0% | 448.8hPa | 2.5V | 00:00:00 | 02:24:34 | 00:00:00 | |
| OE5HKT-10 | 2026-09-06 00:54:00 | 47.58820 | 13.06651 | 129° | 84km/h | 6733m | -4.4m/s | -12.5°C | 26.2% | 448.6hPa | 2.5V | 00:00:00 | 00:00:00 | 00:00:00 | |
| OE5FHM-15 | 2026-09-06 00:53:54 | 47.58898 | 13.06508 | 131° | 88km/h | 6760m | -4.4m/s | -12.8°C | 27.3% | 446.9hPa | 2.6V | 00:00:00 | 02:24:27 | 00:00:00 | |
| OE5DRO-10 | 2026-09-06 00:53:53 | 47.58912 | 13.06484 | 130° | 86km/h | 6764m | -4.2m/s | -12.8°C | 27.4% | 446.7hPa | 2.6V | 00:00:00 | 00:00:00 | 00:00:00 | |
| OE5DXL-15 | 2026-09-06 00:53:52 | 47.58925 | 13.06459 | 129° | 88km/h | 6768m | -4.6m/s | -12.9°C | 27.5% | 446.4hPa | 2.6V | 00:00:00 | 00:00:00 | 00:00:00 | |
| OE5MMP-10 | 2026-09-06 00:53:51 | 47.58938 | 13.06434 | 129° | 84km/h | 6773m | -4.6m/s | -12.9°C | 27.5% | 446.1hPa | 2.6V | 00:00:00 | 02:24:24 | 00:00:00 | |
| DG1MFX-10 | 2026-09-06 00:53:49 | 47.58952 | 13.06410 | 131° | 84km/h | 6778m | -4.2m/s | -13.0°C | 26.9% | 445.9hPa | 2.6V | 08:11:00 | 00:00:00 | 00:00:00 | |
| OE5HKT-10 | 2026-09-06 00:53:43 | 47.59045 | 13.06240 | 132° | 88km/h | 6809m | -4.6m/s | -13.2°C | 27.5% | 443.9hPa | 2.6V | 00:00:00 | 00:00:00 | 00:00:00 | |
| OE5MMP-10 | 2026-09-06 00:53:41 | 47.59074 | 13.06190 | 130° | 88km/h | 6817m | -4.3m/s | -13.2°C | 27.4% | 443.5hPa | 2.6V | 08:10:00 | 02:24:14 | 00:00:00 | |
| OE3JTB-15 | 2026-09-06 00:53:35 | 47.59158 | 13.06036 | 128° | 89km/h | 6846m | -4.6m/s | -13.5°C | 27.2% | 441.8hPa | 2.6V | 08:10:00 | 00:00:00 | 00:00:00 | |
| OE5MMP-10 | 2026-09-06 00:53:31 | 47.59214 | 13.05933 | 130° | 89km/h | 6864m | -4.5m/s | -13.6°C | 27.4% | 440.8hPa | 2.6V | 00:00:00 | 02:24:04 | 00:00:00 | |
| DG1MFX-10 | 2026-09-06 00:53:28 | 47.59242 | 13.05879 | 127° | 89km/h | 6874m | -4.8m/s | -13.7°C | 26.7% | 440.3hPa | 2.6V | 08:11:00 | 00:00:00 | 00:00:00 | |
| OE5HKT-10 | 2026-09-06 00:53:26 | 47.59281 | 13.05799 | 127° | 89km/h | 6888m | -4.4m/s | -13.8°C | 27.4% | 439.4hPa | 2.6V | 00:00:00 | 02:23:59 | 00:00:00 | |
| OE5FHM-15 | 2026-09-06 00:53:24 | 47.59308 | 13.05748 | 129° | 89km/h | 6897m | -4.4m/s | -13.8°C | 26.5% | 438.9hPa | 2.6V | 00:00:00 | 02:23:57 | 00:00:00 | |
| OE5DXL-15 | 2026-09-06 00:53:22 | 47.59336 | 13.05694 | 127° | 89km/h | 6906m | -4.3m/s | -13.9°C | 26.3% | 438.4hPa | 2.6V | 00:00:00 | 00:00:00 | 00:00:00 | |
| OE5MMP-10 | 2026-09-06 00:53:21 | 47.59349 | 13.05667 | 126° | 89km/h | 6911m | -4.7m/s | -13.9°C | 26.1% | 438.1hPa | 2.6V | 00:00:00 | 02:23:54 | 00:00:00 | |
| OE5MMP-10 | 2026-09-06 00:53:11 | 47.59490 | 13.05401 | 130° | 89km/h | 6961m | -4.4m/s | -14.3°C | 26.5% | 435.3hPa | 2.6V | 00:00:00 | 02:23:44 | 00:00:00 | |
| OE5HKT-10 | 2026-09-06 00:53:09 | 47.59518 | 13.05347 | 127° | 89km/h | 6970m | -4.5m/s | -14.4°C | 26.6% | 434.8hPa | 2.5V | 08:11:00 | 00:00:00 | 00:00:00 | |
| DG1MFX-10 | 2026-09-06 00:53:07 | 47.59531 | 13.05321 | 129° | 86km/h | 6975m | -4.6m/s | -14.5°C | 26.0% | 434.5hPa | 2.5V | 08:11:00 | 00:00:00 | 00:00:00 | |
| OE3JTB-15 | 2026-09-06 00:53:06 | 47.59559 | 13.05271 | 130° | 91km/h | 6984m | -4.8m/s | -14.5°C | 26.9% | 434.0hPa | 2.5V | 00:00:00 | 00:00:00 | 00:00:00 | |
| OE5DRO-10 | 2026-09-06 00:53:05 | 47.59573 | 13.05245 | 130° | 91km/h | 6989m | -4.7m/s | -14.6°C | 27.0% | 433.7hPa | 2.5V | 08:11:00 | 00:00:00 | 00:00:00 | |
| OE5MMP-10 | 2026-09-06 00:53:01 | 47.59630 | 13.05139 | 130° | 91km/h | 7008m | -4.6m/s | -14.8°C | 27.6% | 432.6hPa | 2.5V | 00:00:00 | 02:23:34 | 00:00:00 | |
| OE5FHM-15 | 2026-09-06 00:52:54 | 47.59732 | 13.04954 | 133° | 91km/h | 7042m | -4.6m/s | -15.1°C | 28.4% | 430.8hPa | 2.5V | 00:00:00 | 02:23:27 | 00:00:00 | |
| OE5HKT-10 | 2026-09-06 00:52:52 | 47.59763 | 13.04901 | 130° | 91km/h | 7052m | -4.6m/s | -15.2°C | 28.6% | 430.2hPa | 2.5V | 00:00:00 | 00:00:00 | 00:00:00 | |
| OE5MMP-10 | 2026-09-06 00:52:51 | 47.59778 | 13.04873 | 128° | 91km/h | 7056m | -4.2m/s | -15.2°C | 28.7% | 429.8hPa | 2.5V | 00:00:00 | 02:23:24 | 00:00:00 | |
| DG1MFX-10 | 2026-09-06 00:52:47 | 47.59819 | 13.04791 | 127° | 86km/h | 7070m | -4.9m/s | -15.4°C | 28.2% | 429.2hPa | 2.5V | 08:11:00 | 00:00:00 | 00:00:00 | |
| OE5DRO-10 | 2026-09-06 00:52:46 | 47.59846 | 13.04740 | 131° | 93km/h | 7080m | -4.3m/s | -15.4°C | 29.4% | 428.6hPa | 2.5V | 00:00:00 | 00:00:00 | 00:00:00 | |
| OE5MMP-10 | 2026-09-06 00:52:41 | 47.59923 | 13.04608 | 127° | 91km/h | 7102m | -4.5m/s | -15.7°C | 30.2% | 427.2hPa | 2.5V | 00:00:00 | 02:23:14 | 00:00:00 | |
| OE3JTB-15 | 2026-09-06 00:52:38 | 47.59979 | 13.04502 | 131° | 91km/h | 7120m | -4.4m/s | -15.8°C | 30.2% | 426.3hPa | 2.6V | 00:00:00 | 02:23:10 | 00:00:00 | |
| OE5HKT-10 | 2026-09-06 00:52:31 | 47.60070 | 13.04343 | 131° | 91km/h | 7148m | -4.5m/s | -16.1°C | 31.3% | 424.5hPa | 2.6V | 00:00:00 | 02:23:04 | 00:00:00 | |
| OE5DRO-10 | 2026-09-06 00:52:27 | 47.60130 | 13.04232 | 130° | 89km/h | 7167m | -4.7m/s | -16.3°C | 32.4% | 423.5hPa | 2.6V | 00:00:00 | 00:00:00 | 00:00:00 | |
| OE5FHM-15 | 2026-09-06 00:52:24 | 47.60175 | 13.04155 | 132° | 91km/h | 7181m | -4.6m/s | -16.4°C | 32.6% | 422.8hPa | 2.6V | 00:00:00 | 02:22:57 | 00:00:00 | |
| OE5DXL-15 | 2026-09-06 00:52:22 | 47.60204 | 13.04103 | 129° | 91km/h | 7191m | -4.5m/s | -16.5°C | 32.7% | 422.3hPa | 2.6V | 00:00:00 | 00:00:00 | 00:00:00 | |
| OE5MMP-10 | 2026-09-06 00:52:21 | 47.60219 | 13.04078 | 130° | 91km/h | 7196m | -4.4m/s | -16.6°C | 32.8% | 421.9hPa | 2.6V | 00:00:00 | 02:22:54 | 00:00:00 | |
| OE5MMP-10 | 2026-09-06 00:52:11 | 47.60369 | 13.03819 | 130° | 91km/h | 7245m | -4.6m/s | -17.0°C | 33.8% | 419.3hPa | 2.6V | 08:12:00 | 02:22:44 | 00:00:00 | |
| OE5HKT-10 | 2026-09-06 00:52:10 | 47.60383 | 13.03795 | 132° | 93km/h | 7250m | -4.6m/s | -17.1°C | 33.8% | 418.9hPa | 2.6V | 00:00:00 | 00:00:00 | 00:00:00 | |
| OE5DRO-10 | 2026-09-06 00:52:08 | 47.60413 | 13.03748 | 135° | 93km/h | 7261m | -4.4m/s | -17.1°C | 33.7% | 418.4hPa | 2.5V | 00:00:00 | 00:00:00 | 00:00:00 | |
| DG1MFX-10 | 2026-09-06 00:52:06 | 47.60429 | 13.03724 | 135° | 91km/h | 7265m | -4.2m/s | -17.2°C | 32.7% | 418.3hPa | 2.6V | 08:12:00 | 00:00:00 | 00:00:00 | |
| OE5MMP-10 | 2026-09-06 00:52:01 | 47.60524 | 13.03567 | 132° | 93km/h | 7294m | -4.6m/s | -17.4°C | 33.4% | 416.5hPa | 2.6V | 00:00:00 | 02:22:34 | 00:00:00 | |
| OE5FHM-15 | 2026-09-06 00:51:54 | 47.60633 | 13.03388 | 134° | 91km/h | 7328m | -4.9m/s | -17.7°C | 33.5% | 414.5hPa | 2.6V | 00:00:00 | 02:22:27 | 00:00:00 | |
| OE5DXL-15 | 2026-09-06 00:51:52 | 47.60666 | 13.03336 | 131° | 91km/h | 7338m | -4.7m/s | -17.8°C | 33.5% | 414.0hPa | 2.6V | 00:00:00 | 00:00:00 | 00:00:00 | |
| OE5MMP-10 | 2026-09-06 00:51:51 | 47.60681 | 13.03309 | 130° | 91km/h | 7343m | -5.0m/s | -17.8°C | 33.4% | 413.8hPa | 2.6V | 00:00:00 | 02:22:24 | 00:00:00 | |
| OE5HKT-10 | 2026-09-06 00:51:49 | 47.60712 | 13.03256 | 132° | 91km/h | 7354m | -5.1m/s | -17.9°C | 32.9% | 413.2hPa | 2.6V | 00:00:00 | 00:00:00 | 00:00:00 | |
| DG1MFX-10 | 2026-09-06 00:51:46 | 47.60758 | 13.03181 | 133° | 93km/h | 7369m | -5.0m/s | -18.0°C | 30.2% | 412.4hPa | 2.6V | 08:12:00 | 00:00:00 | 00:00:00 | |
| OE5MMP-10 | 2026-09-06 00:51:41 | 47.60836 | 13.03050 | 132° | 91km/h | 7395m | -4.9m/s | -18.1°C | 29.5% | 410.9hPa | 2.6V | 00:00:00 | 02:22:14 | 00:00:00 | |
| OE3JTB-15 | 2026-09-06 00:51:38 | 47.60894 | 13.02943 | 129° | 91km/h | 7415m | -4.8m/s | -18.2°C | 30.2% | 409.9hPa | 2.5V | 00:00:00 | 00:00:00 | 00:00:00 | |
| OE5MMP-10 | 2026-09-06 00:51:31 | 47.60985 | 13.02784 | 127° | 91km/h | 7445m | -4.6m/s | -18.5°C | 32.1% | 408.2hPa | 2.5V | 00:00:00 | 02:22:04 | 00:00:00 | |
| OE5DRO-10 | 2026-09-06 00:51:30 | 47.60999 | 13.02755 | 127° | 89km/h | 7450m | -5.0m/s | -18.5°C | 31.9% | 408.0hPa | 2.5V | 00:00:00 | 00:00:00 | 00:00:00 | |
| OE5HKT-10 | 2026-09-06 00:51:28 | 47.61026 | 13.02701 | 128° | 89km/h | 7460m | -4.4m/s | -18.6°C | 31.2% | 407.4hPa | 2.5V | 00:00:00 | 02:22:01 | 00:00:00 | |
| DG1MFX-10 | 2026-09-06 00:51:25 | 47.61053 | 13.02652 | 133° | 86km/h | 7469m | -4.5m/s | -18.7°C | 29.4% | 406.9hPa | 2.5V | 08:12:00 | 00:00:00 | 00:00:00 | |
| OE5FHM-15 | 2026-09-06 00:51:24 | 47.61084 | 13.02603 | 133° | 91km/h | 7479m | -4.9m/s | -18.7°C | 30.0% | 406.3hPa | 2.5V | 00:00:00 | 02:21:57 | 00:00:00 | |
| OE5DXL-15 | 2026-09-06 00:51:22 | 47.61116 | 13.02549 | 130° | 93km/h | 7489m | -5.0m/s | -18.8°C | 30.0% | 405.8hPa | 2.5V | 00:00:00 | 00:00:00 | 00:00:00 | |
| OE5MMP-10 | 2026-09-06 00:51:21 | 47.61131 | 13.02522 | 129° | 89km/h | 7494m | -4.9m/s | -18.9°C | 29.8% | 405.6hPa | 2.5V | 00:00:00 | 02:21:54 | 00:00:00 | |
| OE5MMP-10 | 2026-09-06 00:51:11 | 47.61270 | 13.02257 | 131° | 93km/h | 7545m | -4.8m/s | -19.3°C | 29.8% | 402.8hPa | 2.5V | 00:00:00 | 02:21:44 | 00:00:00 | |
| OE5WHR-10 | 2026-09-06 00:51:09 | 47.61300 | 13.02206 | 132° | 86km/h | 7554m | -4.9m/s | -19.4°C | 30.2% | 402.1hPa | 2.5V | 08:13:00 | 00:00:00 | 00:00:00 | |
| OE5HKT-10 | 2026-09-06 00:51:07 | 47.61332 | 13.02152 | 130° | 93km/h | 7565m | -5.0m/s | -19.5°C | 30.9% | 401.6hPa | 2.6V | 00:00:00 | 00:00:00 | 00:00:00 | |
| DG1MFX-10 | 2026-09-06 00:51:05 | 47.61348 | 13.02123 | 129° | 99km/h | 7570m | -5.3m/s | -19.6°C | 30.3% | 401.5hPa | 2.5V | 08:13:00 | 00:00:00 | 00:00:00 | |
| OE5MMP-10 | 2026-09-06 00:51:01 | 47.61415 | 13.01980 | 127° | 93km/h | 7596m | -5.1m/s | -19.8°C | 32.9% | 400.0hPa | 2.5V | 00:00:00 | 02:21:34 | 00:00:00 | |
| OE5FHM-15 | 2026-09-06 00:50:54 | 47.61521 | 13.01799 | 127° | 89km/h | 7630m | -4.9m/s | -20.2°C | 34.8% | 398.0hPa | 2.5V | 00:00:00 | 02:21:27 | 00:00:00 | |
| OE5DRO-10 | 2026-09-06 00:50:52 | 47.61550 | 13.01739 | 124° | 86km/h | 7640m | -5.2m/s | -20.3°C | 35.6% | 397.4hPa | 2.5V | 00:00:00 | 00:00:00 | 00:00:00 | |
| OE5MMP-10 | 2026-09-06 00:50:51 | 47.61563 | 13.01709 | 123° | 86km/h | 7646m | -5.6m/s | -20.3°C | 35.9% | 397.2hPa | 2.5V | 00:00:00 | 02:21:24 | 00:00:00 | |
| OE5HKT-10 | 2026-09-06 00:50:46 | 47.61623 | 13.01566 | 124° | 88km/h | 7673m | -5.2m/s | -20.6°C | 35.1% | 395.6hPa | 2.5V | 00:00:00 | 00:00:00 | 00:00:00 | |
| DG1MFX-10 | 2026-09-06 00:50:44 | 47.61635 | 13.01540 | 124° | 82km/h | 7679m | -5.6m/s | -20.7°C | 33.9% | 395.4hPa | 2.5V | 08:13:00 | 00:00:00 | 00:00:00 | |
| OE5MMP-10 | 2026-09-06 00:50:41 | 47.61683 | 13.01443 | 130° | 88km/h | 7701m | -5.5m/s | -20.8°C | 35.3% | 394.1hPa | 2.5V | 08:13:00 | 02:21:14 | 00:00:00 | |
| OE3JTB-15 | 2026-09-06 00:50:40 | 47.61696 | 13.01420 | 131° | 91km/h | 7707m | -5.5m/s | -20.9°C | 34.9% | 393.8hPa | 2.5V | 00:00:00 | 00:00:00 | 00:00:00 | |
| OE5WHR-10 | 2026-09-06 00:50:39 | 47.61710 | 13.01397 | 133° | 91km/h | 7712m | -5.7m/s | -20.9°C | 35.0% | 393.4hPa | 2.5V | 00:00:00 | 00:00:00 | 00:00:00 | |
| OE5DRO-10 | 2026-09-06 00:50:33 | 47.61804 | 13.01254 | 133° | 93km/h | 7745m | -5.2m/s | -21.2°C | 35.3% | 391.5hPa | 2.5V | 00:00:00 | 00:00:00 | 00:00:00 | |
| OE5MMP-10 | 2026-09-06 00:50:31 | 47.61838 | 13.01199 | 131° | 91km/h | 7755m | -5.7m/s | -21.3°C | 35.4% | 390.9hPa | 2.5V | 00:00:00 | 02:21:04 | 00:00:00 | |
| OE5HKT-10 | 2026-09-06 00:50:25 | 47.61919 | 13.01028 | 124° | 89km/h | 7787m | -5.7m/s | -21.7°C | 33.9% | 389.0hPa | 2.5V | 00:00:00 | 02:20:58 | 00:00:00 | |
| OE5FHM-15 | 2026-09-06 00:50:24 | 47.61931 | 13.01001 | 124° | 89km/h | 7793m | -5.9m/s | -21.7°C | 33.6% | 388.8hPa | 2.5V | 08:13:00 | 02:20:57 | 00:00:00 | |
| DG1MFX-10 | 2026-09-06 00:50:23 | 47.61931 | 13.01001 | 124° | 88km/h | 7793m | -6.0m/s | -21.8°C | 32.3% | 388.8hPa | 2.5V | 08:14:00 | 00:00:00 | 00:00:00 | |
| OE5DXL-15 | 2026-09-06 00:50:22 | 47.61956 | 13.00946 | 124° | 89km/h | 7804m | -6.0m/s | -21.8°C | 32.3% | 388.1hPa | 2.5V | 00:00:00 | 00:00:00 | 00:00:00 | |
| OE5MMP-10 | 2026-09-06 00:50:21 | 47.61968 | 13.00919 | 125° | 91km/h | 7810m | -5.7m/s | -21.9°C | 31.7% | 387.8hPa | 2.5V | 00:00:00 | 02:20:54 | 00:00:00 | |
| OE5WHR-10 | 2026-09-06 00:50:18 | 47.62010 | 13.00836 | 130° | 89km/h | 7826m | -5.7m/s | -22.0°C | 30.7% | 386.9hPa | 2.5V | 00:00:00 | 02:20:51 | 00:00:00 | |
| OE5DRO-10 | 2026-09-06 00:50:14 | 47.62072 | 13.00730 | 131° | 88km/h | 7848m | -6.1m/s | -22.2°C | 29.2% | 385.6hPa | 2.5V | 08:13:00 | 00:00:00 | 00:00:00 | |
| OE5MMP-10 | 2026-09-06 00:50:11 | 47.62116 | 13.00653 | 130° | 88km/h | 7865m | -6.9m/s | -22.4°C | 29.6% | 384.7hPa | 2.5V | 00:00:00 | 02:20:44 | 00:00:00 | |
| OE5HKT-10 | 2026-09-06 00:50:04 | 47.62214 | 13.00473 | 130° | 86km/h | 7942m | -12.3m/s | -23.0°C | 34.8% | 381.0hPa | 2.4V | 08:14:00 | 00:00:00 | 00:00:00 | |
| DG1MFX-10 | 2026-09-06 00:50:02 | 47.62228 | 13.00448 | 129° | 89km/h | 7955m | -11.9m/s | -23.2°C | 34.1% | 380.4hPa | 2.5V | 08:14:00 | 00:00:00 | 00:00:00 | |
| OE5MMP-10 | 2026-09-06 00:50:01 | 47.62256 | 13.00396 | 129° | 88km/h | 7978m | -11.7m/s | -23.4°C | 37.5% | 379.1hPa | 2.5V | 00:00:00 | 02:20:34 | 00:00:00 | |
| OE5WHR-10 | 2026-09-06 00:49:57 | 47.62310 | 13.00291 | 126° | 86km/h | 8025m | -11.8m/s | -23.8°C | 39.3% | 376.7hPa | 2.5V | 00:00:00 | 00:00:00 | 00:00:00 | |
| OE5DRO-10 | 2026-09-06 00:49:55 | 47.62336 | 13.00240 | 128° | 86km/h | 8048m | -11.2m/s | -24.0°C | 39.6% | 375.6hPa | 2.4V | 00:00:00 | 00:00:00 | 00:00:00 | |
| OE5FHM-15 | 2026-09-06 00:49:54 | 47.62349 | 13.00214 | 127° | 86km/h | 8059m | -11.7m/s | -24.1°C | 39.3% | 374.9hPa | 2.4V | 00:00:00 | 02:20:27 | 00:00:00 | |
| OE5DXL-15 | 2026-09-06 00:49:52 | 47.62375 | 13.00160 | 125° | 86km/h | 8081m | -12.2m/s | -24.2°C | 37.7% | 373.7hPa | 2.4V | 00:00:00 | 00:00:00 | 00:00:00 | |
| OE5MMP-10 | 2026-09-06 00:49:51 | 47.62388 | 13.00134 | 126° | 86km/h | 8093m | -12.5m/s | -24.2°C | 37.7% | 373.2hPa | 2.4V | 00:00:00 | 02:20:24 | 00:00:00 | |
| OE5HKT-10 | 2026-09-06 00:49:43 | 47.62485 | 12.99921 | 123° | 84km/h | 8187m | -11.6m/s | -25.0°C | 37.6% | 368.3hPa | 2.4V | 00:00:00 | 00:00:00 | 00:00:00 | |
| OE3JTB-15 | 2026-09-06 00:49:42 | 47.62497 | 12.99895 | 125° | 86km/h | 8198m | -12.2m/s | -25.1°C | 37.7% | 367.7hPa | 2.4V | 00:00:00 | 02:20:15 | 00:00:00 | |
| OE5MMP-10 | 2026-09-06 00:49:41 | 47.62509 | 12.99868 | 124° | 84km/h | 8210m | -12.4m/s | -25.2°C | 37.5% | 367.1hPa | 2.4V | 00:00:00 | 02:20:14 | 00:00:00 | |
| OE5WHR-10 | 2026-09-06 00:49:36 | 47.62569 | 12.99738 | 126° | 86km/h | 8271m | -12.9m/s | -25.7°C | 37.7% | 364.1hPa | 2.5V | 00:00:00 | 00:00:00 | 00:00:00 | |
| OE5MMP-10 | 2026-09-06 00:49:31 | 47.62630 | 12.99607 | 124° | 86km/h | 8330m | -12.5m/s | -26.3°C | 39.1% | 361.1hPa | 2.5V | 00:00:00 | 02:20:04 | 00:00:00 | |
| DG1MFX-10 | 2026-09-06 00:49:22 | 47.62739 | 12.99367 | 124° | 86km/h | 8441m | -12.6m/s | -27.1°C | 26.1% | 355.8hPa | 2.5V | 08:15:00 | 00:00:00 | 00:00:00 | |
| OE5MMP-10 | 2026-09-06 00:49:21 | 47.62751 | 12.99340 | 125° | 89km/h | 8454m | -12.6m/s | -27.2°C | 26.2% | 355.1hPa | 2.5V | 00:00:00 | 02:19:54 | 00:00:00 | |
| OE5DRO-10 | 2026-09-06 00:49:17 | 47.62803 | 12.99230 | 124° | 91km/h | 8502m | -11.8m/s | -27.3°C | 19.1% | 352.8hPa | 2.5V | 00:00:00 | 00:00:00 | 00:00:00 | |
| OE5WHR-10 | 2026-09-06 00:49:15 | 47.62829 | 12.99176 | 127° | 91km/h | 8526m | -12.1m/s | -27.4°C | 17.7% | 351.6hPa | 2.5V | 00:00:00 | 02:19:48 | 00:00:00 | |
| OE3JTB-15 | 2026-09-06 00:49:13 | 47.62856 | 12.99121 | 127° | 89km/h | 8549m | -12.6m/s | -27.4°C | 15.2% | 350.5hPa | 2.5V | 08:14:00 | 00:00:00 | 00:00:00 | |
| OE5MMP-10 | 2026-09-06 00:49:11 | 47.62882 | 12.99066 | 127° | 91km/h | 8574m | -12.8m/s | -27.4°C | 15.1% | 349.2hPa | 2.5V | 08:15:00 | 02:19:44 | 00:00:00 | |
| PG1ADW-2 | 2026-09-06 00:49:04 | 47.62979 | 12.98875 | 126° | 89km/h | 8661m | -12.9m/s | -28.1°C | 19.9% | 345.0hPa | 2.4V | 08:15:00 | 00:00:00 | 00:00:00 | |
| DB0ND-19 | 2026-09-06 00:49:03 | 47.63233 | 12.98356 | 124° | 86km/h | 8899m | -12.6m/s | 0°C | -1.0% | -1.0hPa | 2.5V | 00:00:00 | 00:00:00 | 00:00:00 | |
| DG1MFX-10 | 2026-09-06 00:49:01 | 47.63020 | 12.98793 | 127° | 93km/h | 8698m | -13.2m/s | -28.5°C | 19.5% | 343.3hPa | 2.5V | 08:15:00 | 00:00:00 | 00:00:00 | |
| OE5DRO-10 | 2026-09-06 00:48:58 | 47.63061 | 12.98710 | 127° | 89km/h | 8737m | -13.0m/s | -28.8°C | 21.4% | 341.4hPa | 2.5V | 00:00:00 | 00:00:00 | 00:00:00 | |
| OE5FHM-15 | 2026-09-06 00:48:54 | 47.63114 | 12.98601 | 127° | 91km/h | 8788m | -12.8m/s | -29.2°C | 21.0% | 339.1hPa | 2.5V | 00:00:00 | 02:19:27 | 00:00:00 | |
| OE5DXL-15 | 2026-09-06 00:48:52 | 47.63141 | 12.98547 | 128° | 91km/h | 8813m | -12.9m/s | -29.5°C | 21.3% | 337.9hPa | 2.4V | 00:00:00 | 00:00:00 | 00:00:00 | |
| OE5MMP-10 | 2026-09-06 00:48:51 | 47.63155 | 12.98519 | 125° | 89km/h | 8825m | -12.7m/s | -29.6°C | 21.5% | 337.3hPa | 2.4V | 00:00:00 | 02:19:24 | 00:00:00 | |
| PG1ADW-2 | 2026-09-06 00:48:44 | 47.63246 | 12.98329 | 126° | 91km/h | 8911m | -12.8m/s | -30.4°C | 24.8% | 333.1hPa | 2.4V | 00:00:00 | 00:00:00 | 00:00:00 | |
| OE5MMP-10 | 2026-09-06 00:48:41 | 47.63285 | 12.98247 | 125° | 89km/h | 8949m | -13.3m/s | -30.8°C | 26.7% | 331.4hPa | 2.4V | 00:00:00 | 02:19:14 | 00:00:00 | |
| OE5HKT-10 | 2026-09-06 00:48:40 | 47.63297 | 12.98220 | 125° | 93km/h | 8961m | -13.0m/s | -30.9°C | 27.4% | 330.8hPa | 2.5V | 00:00:00 | 00:00:00 | 00:00:00 | |
| OE5DRO-10 | 2026-09-06 00:48:39 | 47.63310 | 12.98193 | 126° | 93km/h | 8974m | -12.8m/s | -31.0°C | 28.2% | 330.2hPa | 2.5V | 00:00:00 | 00:00:00 | 00:00:00 | |
| OE5WHR-10 | 2026-09-06 00:48:33 | 47.63386 | 12.98025 | 124° | 95km/h | 9050m | -13.0m/s | -31.5°C | 28.0% | 326.7hPa | 2.5V | 00:00:00 | 00:00:00 | 00:00:00 | |
| DB0ND-19 | 2026-09-06 00:48:32 | 47.63399 | 12.97997 | 123° | 93km/h | 9062m | -13.0m/s | 0°C | -1.0% | -1.0hPa | 2.5V | 00:00:00 | 00:00:00 | 00:00:00 | |
| OE5MMP-10 | 2026-09-06 00:48:31 | 47.63412 | 12.97967 | 123° | 95km/h | 9075m | -12.7m/s | -31.8°C | 27.5% | 325.5hPa | 2.5V | 00:00:00 | 02:19:04 | 00:00:00 | |
| OE5FHM-15 | 2026-09-06 00:48:24 | 47.63503 | 12.97760 | 123° | 99km/h | 9163m | -13.7m/s | -32.3°C | 21.5% | 321.4hPa | 2.5V | 00:00:00 | 02:18:57 | 00:00:00 | |
| OE5DXL-15 | 2026-09-06 00:48:22 | 47.63530 | 12.97699 | 124° | 99km/h | 9190m | -13.5m/s | -32.4°C | 19.6% | 320.2hPa | 2.5V | 00:00:00 | 00:00:00 | 00:00:00 | |
| OE5MMP-10 | 2026-09-06 00:48:21 | 47.63543 | 12.97668 | 122° | 99km/h | 9203m | -13.1m/s | -32.5°C | 18.7% | 319.6hPa | 2.5V | 00:00:00 | 02:18:54 | 00:00:00 | |
| OE5DRO-10 | 2026-09-06 00:48:20 | 47.63556 | 12.97638 | 124° | 99km/h | 9215m | -13.5m/s | -32.6°C | 18.3% | 319.0hPa | 2.5V | 00:00:00 | 00:00:00 | 00:00:00 | |
| OE5HKT-10 | 2026-09-06 00:48:19 | 47.63570 | 12.97608 | 123° | 99km/h | 9229m | -13.4m/s | -32.6°C | 18.0% | 318.4hPa | 2.5V | 00:00:00 | 02:18:52 | 00:00:00 | |
| DG1MFX-10 | 2026-09-06 00:48:18 | 47.63569 | 12.97608 | 124° | 95km/h | 9229m | -13.4m/s | -32.7°C | 16.4% | 318.5hPa | 2.5V | 08:16:00 | 00:00:00 | 00:00:00 | |
| OE3JTB-15 | 2026-09-06 00:48:15 | 47.63625 | 12.97486 | 125° | 100km/h | 9283m | -13.5m/s | -33.0°C | 17.8% | 316.1hPa | 2.5V | 00:00:00 | 02:18:48 | 00:00:00 | |
| OE5WHR-10 | 2026-09-06 00:48:12 | 47.63669 | 12.97395 | 126° | 100km/h | 9323m | -13.9m/s | -33.4°C | 17.8% | 314.3hPa | 2.5V | 00:00:00 | 02:18:45 | 00:00:00 | |
| OE5MMP-10 | 2026-09-06 00:48:11 | 47.63683 | 12.97364 | 126° | 100km/h | 9337m | -13.9m/s | -33.5°C | 17.9% | 313.6hPa | 2.5V | 00:00:00 | 02:18:44 | 00:00:00 | |
| PG1ADW-2 | 2026-09-06 00:48:04 | 47.63789 | 12.97153 | 127° | 100km/h | 9428m | -13.0m/s | -34.3°C | 19.6% | 309.5hPa | 2.5V | 00:00:00 | 00:00:00 | 00:00:00 | |
| OE5MMP-10 | 2026-09-06 00:48:01 | 47.63835 | 12.97063 | 129° | 100km/h | 9467m | -13.2m/s | -34.6°C | 20.2% | 307.8hPa | 2.5V | 00:00:00 | 02:18:34 | 00:00:00 | |
| OE5HKT-10 | 2026-09-06 00:47:58 | 47.63881 | 12.96973 | 127° | 100km/h | 9506m | -13.4m/s | -35.0°C | 20.7% | 306.1hPa | 2.5V | 00:00:00 | 00:00:00 | 00:00:00 | |
| OE5FHM-15 | 2026-09-06 00:47:54 | 47.63942 | 12.96853 | 128° | 100km/h | 9559m | -13.7m/s | -35.5°C | 21.0% | 303.8hPa | 2.5V | 00:00:00 | 02:18:27 | 00:00:00 | |
| OE5DXL-15 | 2026-09-06 00:47:52 | 47.63973 | 12.96792 | 128° | 100km/h | 9586m | -14.5m/s | -35.7°C | 20.9% | 302.6hPa | 2.5V | 00:00:00 | 00:00:00 | 00:00:00 | |
| OE5MMP-10 | 2026-09-06 00:47:51 | 47.63988 | 12.96763 | 127° | 100km/h | 9601m | -14.4m/s | -35.8°C | 21.0% | 302.0hPa | 2.5V | 00:00:00 | 02:18:24 | 00:00:00 | |
| OE3JTB-15 | 2026-09-06 00:47:46 | 47.64064 | 12.96613 | 126° | 100km/h | 9669m | -13.8m/s | -36.4°C | 21.5% | 299.1hPa | 2.5V | 00:00:00 | 00:00:00 | 00:00:00 | |
| PG1ADW-2 | 2026-09-06 00:47:44 | 47.64095 | 12.96553 | 127° | 100km/h | 9697m | -14.0m/s | -36.7°C | 21.7% | 297.9hPa | 2.5V | 00:00:00 | 00:00:00 | 00:00:00 | |
| OE5DRO-10 | 2026-09-06 00:47:42 | 47.64125 | 12.96493 | 127° | 100km/h | 9724m | -14.1m/s | -36.9°C | 21.8% | 296.8hPa | 2.5V | 00:00:00 | 00:00:00 | 00:00:00 | |
| OE5MMP-10 | 2026-09-06 00:47:41 | 47.64140 | 12.96463 | 127° | 100km/h | 9737m | -13.7m/s | -37.1°C | 21.7% | 296.2hPa | 2.5V | 08:16:00 | 02:18:14 | 00:00:00 | |
| DG1MFX-10 | 2026-09-06 00:47:38 | 47.64170 | 12.96404 | 127° | 100km/h | 9764m | -13.7m/s | -37.3°C | 19.2% | 295.1hPa | 2.5V | 08:17:00 | 00:00:00 | 00:00:00 | |
| OE5HKT-10 | 2026-09-06 00:47:37 | 47.64201 | 12.96343 | 126° | 100km/h | 9790m | -13.7m/s | -37.5°C | 21.2% | 293.9hPa | 2.5V | 00:00:00 | 00:00:00 | 00:00:00 | |
| OE5MMP-10 | 2026-09-06 00:47:31 | 47.64290 | 12.96162 | 126° | 100km/h | 9871m | -13.8m/s | -38.0°C | 21.2% | 290.5hPa | 2.5V | 00:00:00 | 02:18:04 | 00:00:00 | |
| OE5WHR-10 | 2026-09-06 00:47:30 | 47.64305 | 12.96132 | 126° | 102km/h | 9884m | -14.2m/s | -38.1°C | 21.0% | 289.9hPa | 2.5V | 00:00:00 | 00:00:00 | 00:00:00 | |
| OE5FHM-15 | 2026-09-06 00:47:24 | 47.64393 | 12.95947 | 124° | 102km/h | 9968m | -14.1m/s | -38.8°C | 22.4% | 286.5hPa | 2.5V | 00:00:00 | 02:17:57 | 00:00:00 | |
| OE5DRO-10 | 2026-09-06 00:47:23 | 47.64408 | 12.95916 | 126° | 102km/h | 9982m | -14.2m/s | -38.9°C | 22.7% | 285.9hPa | 2.5V | 08:16:00 | 00:00:00 | 00:00:00 | |
| OE5DXL-15 | 2026-09-06 00:47:22 | 47.64423 | 12.95884 | 124° | 102km/h | 9995m | -13.5m/s | -39.1°C | 23.1% | 285.3hPa | 2.5V | 00:00:00 | 00:00:00 | 00:00:00 | |
| OE5MMP-10 | 2026-09-06 00:47:21 | 47.64437 | 12.95853 | 126° | 102km/h | 10008m | -14.5m/s | -39.2°C | 23.4% | 284.8hPa | 2.5V | 00:00:00 | 02:17:54 | 00:00:00 | |
| OE3JTB-15 | 2026-09-06 00:47:17 | 47.64495 | 12.95727 | 125° | 104km/h | 10064m | -13.5m/s | -39.6°C | 24.4% | 282.5hPa | 2.5V | 00:00:00 | 00:00:00 | 00:00:00 | |
| OE5HKT-10 | 2026-09-06 00:47:16 | 47.64510 | 12.95696 | 124° | 104km/h | 10077m | -13.9m/s | -39.7°C | 24.3% | 282.0hPa | 2.5V | 00:00:00 | 02:17:49 | 00:00:00 | |
| OE5MMP-10 | 2026-09-06 00:47:11 | 47.64584 | 12.95537 | 125° | 102km/h | 10145m | -13.8m/s | -40.3°C | 23.2% | 279.3hPa | 2.5V | 00:00:00 | 02:17:44 | 00:00:00 | |
| BAUMI2-15 | 2026-09-06 00:47:06 | 47.64657 | 12.95378 | 125° | 102km/h | 10213m | -14.3m/s | -40.8°C | 23.1% | 276.3hPa | 2.5V | 00:00:00 | 02:17:39 | 00:00:00 | |
| OE5WHR-10 | 2026-09-06 00:47:04 | 47.64686 | 12.95314 | 126° | 104km/h | 10240m | -13.8m/s | -41.0°C | 23.1% | 275.3hPa | 2.5V | 00:00:00 | 02:17:37 | 00:00:00 | |
| OE5MMP-10 | 2026-09-06 00:47:01 | 47.64730 | 12.95218 | 124° | 104km/h | 10280m | -14.1m/s | -41.3°C | 24.2% | 273.5hPa | 2.5V | 00:00:00 | 02:17:34 | 00:00:00 | |
| BAUMI2-15 | 2026-09-06 00:47:00 | 47.64745 | 12.95186 | 125° | 104km/h | 10294m | -14.2m/s | -41.4°C | 24.6% | 273.0hPa | 2.5V | 00:00:00 | 02:17:33 | 00:00:00 | |
| DG1MFX-10 | 2026-09-06 00:46:56 | 47.64789 | 12.95089 | 125° | 102km/h | 10335m | -14.4m/s | -41.8°C | 22.7% | 271.4hPa | 2.5V | 08:17:00 | 00:00:00 | 00:00:00 | |
| OE5HKT-10 | 2026-09-06 00:46:55 | 47.64819 | 12.95025 | 124° | 115km/h | 10363m | -14.3m/s | -42.0°C | 26.3% | 270.1hPa | 2.5V | 08:17:00 | 00:00:00 | 00:00:00 | |
| OE5FHM-15 | 2026-09-06 00:46:54 | 47.64833 | 12.94992 | 125° | 108km/h | 10377m | -14.2m/s | -42.1°C | 26.7% | 269.6hPa | 2.5V | 00:00:00 | 02:17:27 | 00:00:00 | |
| OE5DXL-15 | 2026-09-06 00:46:52 | 47.64863 | 12.94927 | 125° | 108km/h | 10405m | -14.3m/s | -42.3°C | 27.4% | 268.5hPa | 2.5V | 00:00:00 | 00:00:00 | 00:00:00 | |
| OE5MMP-10 | 2026-09-06 00:46:51 | 47.64878 | 12.94894 | 125° | 106km/h | 10419m | -14.8m/s | -42.4°C | 27.8% | 268.0hPa | 2.5V | 00:00:00 | 02:17:24 | 00:00:00 | |
| OE3JTB-15 | 2026-09-06 00:46:48 | 47.64923 | 12.94797 | 124° | 108km/h | 10463m | -14.6m/s | -42.8°C | 28.6% | 266.3hPa | 2.5V | 00:00:00 | 02:17:21 | 00:00:00 | |
| BAUMI2-15 | 2026-09-06 00:46:46 | 47.64953 | 12.94731 | 124° | 108km/h | 10492m | -14.3m/s | -43.1°C | 28.9% | 265.2hPa | 2.5V | 00:00:00 | 02:17:19 | 00:00:00 | |
| OE5DRO-10 | 2026-09-06 00:46:45 | 47.64969 | 12.94699 | 126° | 108km/h | 10506m | -14.3m/s | -43.2°C | 29.0% | 264.6hPa | 2.5V | 00:00:00 | 00:00:00 | 00:00:00 | |
| OE5WHR-10 | 2026-09-06 00:46:43 | 47.64999 | 12.94633 | 125° | 117km/h | 10534m | -14.6m/s | -43.5°C | 29.1% | 263.5hPa | 2.5V | 00:00:00 | 00:00:00 | 00:00:00 | |
| OE5MMP-10 | 2026-09-06 00:46:41 | 47.65030 | 12.94568 | 124° | 108km/h | 10563m | -14.6m/s | -43.7°C | 29.3% | 262.4hPa | 2.5V | 00:00:00 | 02:17:14 | 00:00:00 | |
| BAUMI2-15 | 2026-09-06 00:46:39 | 47.65060 | 12.94502 | 124° | 108km/h | 10591m | -14.6m/s | -43.9°C | 29.6% | 261.3hPa | 2.4V | 00:00:00 | 02:17:12 | 00:00:00 | |
| DG1MFX-10 | 2026-09-06 00:46:36 | 47.65092 | 12.94436 | 125° | 106km/h | 10619m | -14.9m/s | -44.2°C | 26.6% | 260.2hPa | 2.4V | 08:17:00 | 00:00:00 | 00:00:00 | |
| BAUMI2-15 | 2026-09-06 00:46:34 | 47.65139 | 12.94337 | 126° | 110km/h | 10663m | -14.6m/s | -44.5°C | 30.3% | 258.5hPa | 2.4V | 00:00:00 | 02:17:07 | 00:00:00 | |
| OE5MMP-10 | 2026-09-06 00:46:31 | 47.65187 | 12.94237 | 127° | 110km/h | 10705m | -14.6m/s | -44.9°C | 31.4% | 256.8hPa | 2.5V | 00:00:00 | 02:17:04 | 00:00:00 | |
| BAUMI2-15 | 2026-09-06 00:46:29 | 47.65219 | 12.94171 | 127° | 111km/h | 10734m | -15.1m/s | -45.1°C | 32.0% | 255.8hPa | 2.5V | 00:00:00 | 02:17:02 | 00:00:00 | |
| OE5DRO-10 | 2026-09-06 00:46:26 | 47.65269 | 12.94071 | 126° | 111km/h | 10778m | -14.9m/s | -45.4°C | 32.9% | 254.1hPa | 2.5V | 00:00:00 | 00:00:00 | 00:00:00 | |
| OE5FHM-15 | 2026-09-06 00:46:24 | 47.65303 | 12.94004 | 127° | 113km/h | 10808m | -15.3m/s | -45.7°C | 33.6% | 252.9hPa | 2.4V | 00:00:00 | 02:16:57 | 00:00:00 | |
| OE5DXL-15 | 2026-09-06 00:46:22 | 47.65336 | 12.93937 | 127° | 113km/h | 10837m | -16.2m/s | -45.9°C | 34.2% | 251.8hPa | 2.4V | 08:17:00 | 00:00:00 | 00:00:00 | |
| OE5MMP-10 | 2026-09-06 00:46:21 | 47.65353 | 12.93903 | 126° | 111km/h | 10853m | -15.3m/s | -46.1°C | 34.8% | 251.3hPa | 2.5V | 00:00:00 | 02:16:54 | 00:00:00 | |
| BAUMI2-15 | 2026-09-06 00:46:19 | 47.65386 | 12.93837 | 127° | 111km/h | 10883m | -15.6m/s | -46.4°C | 35.9% | 250.1hPa | 2.5V | 08:17:00 | 02:16:52 | 00:00:00 | |
| DG1MFX-10 | 2026-09-06 00:46:16 | 47.65421 | 12.93770 | 128° | 110km/h | 10913m | -16.4m/s | -46.7°C | 33.1% | 249.0hPa | 2.5V | 08:18:00 | 00:00:00 | 00:00:00 | |
| BAUMI2-15 | 2026-09-06 00:46:14 | 47.65471 | 12.93669 | 127° | 113km/h | 10960m | -16.0m/s | -47.1°C | 38.2% | 247.2hPa | 2.5V | 00:00:00 | 02:16:47 | 00:00:00 | |
| OE5MMP-10 | 2026-09-06 00:46:11 | 47.65523 | 12.93568 | 127° | 115km/h | 11006m | -15.3m/s | -47.5°C | 39.5% | 245.6hPa | 2.5V | 08:18:00 | 02:16:44 | 00:00:00 | |
| BAUMI2-15 | 2026-09-06 00:46:09 | 47.65558 | 12.93501 | 127° | 115km/h | 11036m | -15.1m/s | -47.8°C | 40.5% | 244.4hPa | 2.5V | 00:00:00 | 02:16:42 | 00:00:00 | |
| OE5DRO-10 | 2026-09-06 00:46:08 | 47.65593 | 12.93432 | 127° | 117km/h | 11066m | -15.2m/s | -48.1°C | 41.3% | 243.3hPa | 2.5V | 00:00:00 | 00:00:00 | 00:00:00 | |
| BAUMI2-15 | 2026-09-06 00:46:04 | 47.65646 | 12.93329 | 128° | 115km/h | 11111m | -15.7m/s | -48.5°C | 43.0% | 241.6hPa | 2.5V | 00:00:00 | 02:16:37 | 00:00:00 | |
| OE5MMP-10 | 2026-09-06 00:46:01 | 47.65699 | 12.93225 | 127° | 117km/h | 11157m | -16.1m/s | -48.9°C | 44.3% | 240.0hPa | 2.5V | 00:00:00 | 02:16:34 | 00:00:00 | |
| BAUMI2-15 | 2026-09-06 00:45:59 | 47.65734 | 12.93156 | 127° | 117km/h | 11188m | -15.3m/s | -49.2°C | 44.6% | 238.9hPa | 2.5V | 00:00:00 | 02:16:32 | 00:00:00 | |
| DG1MFX-10 | 2026-09-06 00:45:55 | 47.65786 | 12.93051 | 127° | 115km/h | 11234m | -16.5m/s | -49.7°C | 39.9% | 237.2hPa | 2.5V | 08:18:00 | 00:00:00 | 00:00:00 | |
| OE5FHM-15 | 2026-09-06 00:45:54 | 47.65822 | 12.92981 | 127° | 135km/h | 11266m | -15.9m/s | -49.9°C | 44.7% | 236.1hPa | 2.5V | 08:18:00 | 02:16:27 | 00:00:00 | |
| OE5DXL-15 | 2026-09-06 00:45:52 | 47.65857 | 12.92911 | 128° | 122km/h | 11297m | -16.4m/s | -50.2°C | 44.6% | 234.9hPa | 2.5V | 00:00:00 | 00:00:00 | 00:00:00 | |
| OE5MMP-10 | 2026-09-06 00:45:51 | 47.65875 | 12.92876 | 127° | 119km/h | 11313m | -15.8m/s | -50.3°C | 44.4% | 234.4hPa | 2.5V | 00:00:00 | 02:16:24 | 00:00:00 | |
| OE3JTB-15 | 2026-09-06 00:45:50 | 47.65893 | 12.92840 | 129° | 122km/h | 11328m | -15.8m/s | -50.4°C | 44.4% | 233.8hPa | 2.5V | 00:00:00 | 00:00:00 | 00:00:00 | |
| BAUMI2-15 | 2026-09-06 00:45:49 | 47.65912 | 12.92806 | 128° | 119km/h | 11343m | -15.9m/s | -50.5°C | 44.6% | 233.3hPa | 2.5V | 00:00:00 | 02:16:22 | 00:00:00 | |
| OE5DRO-10 | 2026-09-06 00:45:48 | 47.65930 | 12.92770 | 129° | 120km/h | 11359m | -15.9m/s | -50.6°C | 44.5% | 232.7hPa | 2.5V | 00:00:00 | 00:00:00 | 00:00:00 | |
| BAUMI2-15 | 2026-09-06 00:45:44 | 47.66005 | 12.92629 | 128° | 120km/h | 11421m | -16.1m/s | -51.1°C | 44.5% | 230.4hPa | 2.5V | 00:00:00 | 02:16:17 | 00:00:00 | |
| OE5MMP-10 | 2026-09-06 00:45:41 | 47.66062 | 12.92522 | 129° | 122km/h | 11469m | -16.4m/s | -51.5°C | 44.5% | 228.7hPa | 2.5V | 00:00:00 | 02:16:14 | 00:00:00 | |
| BAUMI2-15 | 2026-09-06 00:45:39 | 47.66099 | 12.92451 | 129° | 120km/h | 11499m | -16.3m/s | -51.8°C | 44.7% | 227.7hPa | 2.5V | 00:00:00 | 02:16:12 | 00:00:00 | |
| DG1MFX-10 | 2026-09-06 00:45:35 | 47.66156 | 12.92344 | 129° | 119km/h | 11547m | -16.9m/s | -52.3°C | 39.7% | 226.0hPa | 2.5V | 08:18:00 | 00:00:00 | 00:00:00 | |
| BAUMI2-15 | 2026-09-06 00:45:34 | 47.66194 | 12.92272 | 129° | 122km/h | 11580m | -17.1m/s | -52.5°C | 44.7% | 224.9hPa | 2.5V | 08:18:00 | 02:16:07 | 00:00:00 | |
| OE5MMP-10 | 2026-09-06 00:45:31 | 47.66252 | 12.92162 | 129° | 126km/h | 11629m | -17.1m/s | -52.9°C | 44.7% | 223.2hPa | 2.5V | 00:00:00 | 02:16:04 | 00:00:00 | |
| BAUMI2-15 | 2026-09-06 00:45:29 | 47.66290 | 12.92089 | 129° | 124km/h | 11662m | -17.0m/s | -53.2°C | 44.9% | 222.1hPa | 2.5V | 00:00:00 | 02:16:02 | 00:00:00 | |
| OE5DXL-15 | 2026-09-06 00:45:22 | 47.66428 | 12.91827 | 129° | 133km/h | 11773m | -16.4m/s | -54.1°C | 45.9% | 218.2hPa | 2.5V | 00:00:00 | 00:00:00 | 00:00:00 | |
| OE5MMP-10 | 2026-09-06 00:45:21 | 47.66448 | 12.91790 | 128° | 131km/h | 11789m | -16.2m/s | -54.3°C | 46.0% | 217.7hPa | 2.5V | 00:00:00 | 02:15:54 | 00:00:00 | |
| DG1MFX-10 | 2026-09-06 00:45:14 | 47.66569 | 12.91556 | 129° | 133km/h | 11884m | -16.2m/s | -55.0°C | 39.3% | 214.6hPa | 2.5V | 08:19:00 | 00:00:00 | 00:00:00 | |
| OE5MMP-10 | 2026-09-06 00:45:11 | 47.66651 | 12.91395 | 128° | 135km/h | 11946m | -16.0m/s | -55.4°C | 44.9% | 212.4hPa | 2.5V | 00:00:00 | 02:15:44 | 00:00:00 | |
| OE5DRO-10 | 2026-09-06 00:45:10 | 47.66671 | 12.91354 | 127° | 135km/h | 11962m | -16.3m/s | -55.5°C | 45.1% | 211.9hPa | 2.5V | 00:00:00 | 00:00:00 | 00:00:00 | |
| PG1ADW-2 | 2026-09-06 00:45:06 | 47.66755 | 12.91192 | 128° | 135km/h | 12024m | -15.5m/s | -56.0°C | 45.3% | 209.8hPa | 2.5V | 00:00:00 | 00:00:00 | 00:00:00 | |
| DO3MHA-11 | 2026-09-06 00:45:05 | 47.66775 | 12.91152 | 128° | 137km/h | 12039m | -15.5m/s | -56.1°C | 45.1% | 209.3hPa | 2.5V | 00:00:00 | 02:15:38 | 00:00:00 | |
| OE5MMP-10 | 2026-09-06 00:45:01 | 47.66859 | 12.90987 | 127° | 135km/h | 12102m | -17.3m/s | -56.7°C | 44.5% | 207.3hPa | 2.5V | 00:00:00 | 02:15:34 | 00:00:00 | |
| OE5WHR-10 | 2026-09-06 00:44:55 | 47.66983 | 12.90746 | 128° | 131km/h | 12203m | -17.6m/s | -57.4°C | 43.5% | 204.0hPa | 2.5V | 00:00:00 | 02:15:28 | 00:00:00 | |
| DG1MFX-10 | 2026-09-06 00:44:53 | 47.67003 | 12.90707 | 128° | 131km/h | 12220m | -17.5m/s | -57.6°C | 37.4% | 203.5hPa | 2.5V | 08:19:00 | 00:00:00 | 00:00:00 | |
| OE5DXL-15 | 2026-09-06 00:44:52 | 47.67044 | 12.90629 | 127° | 139km/h | 12255m | -17.3m/s | -57.7°C | 42.9% | 202.4hPa | 2.5V | 00:00:00 | 00:00:00 | 00:00:00 | |
| OE5MMP-10 | 2026-09-06 00:44:51 | 47.67065 | 12.90589 | 128° | 135km/h | 12272m | -17.6m/s | -57.8°C | 42.4% | 201.9hPa | 2.5V | 00:00:00 | 02:15:24 | 00:00:00 | |
| PG1ADW-2 | 2026-09-06 00:44:46 | 47.67169 | 12.90390 | 128° | 141km/h | 12361m | -17.9m/s | -58.3°C | 40.5% | 199.1hPa | 2.5V | 08:19:00 | 00:00:00 | 00:00:00 | |
| OE5MMP-10 | 2026-09-06 00:44:41 | 47.67273 | 12.90185 | 126° | 142km/h | 12450m | -17.8m/s | -59.0°C | 39.7% | 196.3hPa | 2.5V | 08:19:00 | 02:15:14 | 00:00:00 | |
| OE5WHR-10 | 2026-09-06 00:44:32 | 47.67465 | 12.89795 | 127° | 137km/h | 12608m | -18.5m/s | -60.0°C | 39.0% | 191.3hPa | 2.5V | 00:00:00 | 00:00:00 | 00:00:00 | |
| OE5MMP-10 | 2026-09-06 00:44:31 | 47.67486 | 12.89752 | 127° | 141km/h | 12626m | -18.3m/s | -60.2°C | 39.0% | 190.8hPa | 2.6V | 00:00:00 | 02:15:04 | 00:00:00 | |
| OE5FHM-15 | 2026-09-06 00:44:28 | 47.67549 | 12.89623 | 126° | 135km/h | 12679m | -18.4m/s | -60.7°C | 39.2% | 189.1hPa | 2.6V | 00:00:00 | 02:15:01 | 00:00:00 | |
| PG1ADW-2 | 2026-09-06 00:44:25 | 47.67614 | 12.89495 | 128° | 135km/h | 12733m | -18.4m/s | -61.2°C | 39.5% | 187.5hPa | 2.6V | 00:00:00 | 02:14:58 | 00:00:00 | |
| OE5DXL-15 | 2026-09-06 00:44:22 | 47.67677 | 12.89370 | 128° | 135km/h | 12786m | -18.1m/s | -61.6°C | 39.6% | 185.9hPa | 2.6V | 00:00:00 | 00:00:00 | 00:00:00 | |
| OE5MMP-10 | 2026-09-06 00:44:21 | 47.67698 | 12.89329 | 128° | 133km/h | 12803m | -18.4m/s | -61.7°C | 39.2% | 185.4hPa | 2.6V | 00:00:00 | 02:14:54 | 00:00:00 | |
| OE5DRO-10 | 2026-09-06 00:44:13 | 47.67862 | 12.89008 | 128° | 135km/h | 12948m | -18.6m/s | -62.6°C | 37.0% | 181.1hPa | 2.6V | 00:00:00 | 00:00:00 | 00:00:00 | |
| DG1MFX-10 | 2026-09-06 00:44:12 | 47.67862 | 12.89008 | 128° | 133km/h | 12948m | -18.6m/s | -62.7°C | 30.2% | 181.2hPa | 2.6V | 08:20:00 | 00:00:00 | 00:00:00 | |
| OE5MMP-10 | 2026-09-06 00:44:11 | 47.67901 | 12.88928 | 125° | 133km/h | 12984m | -18.2m/s | -62.9°C | 36.6% | 180.1hPa | 2.6V | 00:00:00 | 02:14:44 | 00:00:00 | |
| PG1ADW-2 | 2026-09-06 00:44:05 | 47.68014 | 12.88681 | 123° | 137km/h | 13094m | -18.7m/s | -63.5°C | 34.6% | 176.9hPa | 2.5V | 00:00:00 | 00:00:00 | 00:00:00 | |
| OE5MMP-10 | 2026-09-06 00:44:01 | 47.68088 | 12.88509 | 124° | 137km/h | 13167m | -18.3m/s | -63.8°C | 33.7% | 174.9hPa | 2.5V | 00:00:00 | 02:14:34 | 00:00:00 | |
| OE5FHM-15 | 2026-09-06 00:43:58 | 47.68145 | 12.88382 | 124° | 137km/h | 13221m | -18.7m/s | -63.9°C | 32.1% | 173.3hPa | 2.5V | 00:00:00 | 02:14:31 | 00:00:00 | |
| OE5DRO-10 | 2026-09-06 00:43:54 | 47.68220 | 12.88210 | 123° | 139km/h | 13294m | -19.3m/s | -64.3°C | 31.0% | 171.2hPa | 2.5V | 00:00:00 | 00:00:00 | 00:00:00 | |
| DG1MFX-10 | 2026-09-06 00:43:52 | 47.68259 | 12.88124 | 125° | 137km/h | 13331m | -18.9m/s | -64.5°C | 23.6% | 170.2hPa | 2.5V | 08:20:00 | 00:00:00 | 00:00:00 | |
| OE5MMP-10 | 2026-09-06 00:43:51 | 47.68279 | 12.88082 | 125° | 137km/h | 13350m | -18.8m/s | -64.5°C | 29.8% | 169.6hPa | 2.5V | 00:00:00 | 02:14:24 | 00:00:00 | |
| OE5WHR-10 | 2026-09-06 00:43:50 | 47.68297 | 12.88040 | 125° | 130km/h | 13368m | -18.5m/s | -64.6°C | 29.5% | 169.2hPa | 2.5V | 00:00:00 | 02:14:23 | 00:00:00 | |
| PG1ADW-2 | 2026-09-06 00:43:45 | 47.68396 | 12.87827 | 126° | 133km/h | 13459m | -19.0m/s | -65.3°C | 28.5% | 166.6hPa | 2.5V | 00:00:00 | 00:00:00 | 00:00:00 | |
| OE5MMP-10 | 2026-09-06 00:43:41 | 47.68476 | 12.87658 | 125° | 137km/h | 13533m | -18.5m/s | -65.8°C | 27.5% | 164.6hPa | 2.5V | 00:00:00 | 02:14:14 | 00:00:00 | |
| OE5HKT-10 | 2026-09-06 00:43:39 | 47.68518 | 12.87571 | 126° | 115km/h | 13569m | -19.4m/s | -66.1°C | 26.8% | 163.7hPa | 2.5V | 00:00:00 | 00:00:00 | 00:00:00 | |
| OE5DRO-10 | 2026-09-06 00:43:35 | 47.68597 | 12.87402 | 124° | 122km/h | 13645m | -19.1m/s | -66.2°C | 25.0% | 161.7hPa | 2.5V | 00:00:00 | 00:00:00 | 00:00:00 | |
| OE5MMP-10 | 2026-09-06 00:43:31 | 47.68673 | 12.87237 | 124° | 120km/h | 13721m | -19.0m/s | -66.5°C | 23.8% | 159.6hPa | 2.5V | 00:00:00 | 02:14:04 | 00:00:00 | |
| DG1MFX-10 | 2026-09-06 00:43:30 | 47.68673 | 12.87237 | 124° | 131km/h | 13721m | -19.1m/s | -66.6°C | 16.9% | 159.7hPa | 2.5V | 08:21:00 | 00:00:00 | 00:00:00 | |
| OE5FHM-15 | 2026-09-06 00:43:28 | 47.68728 | 12.87119 | 124° | 115km/h | 13777m | -19.3m/s | -66.4°C | 22.2% | 158.1hPa | 2.5V | 00:00:00 | 02:14:01 | 00:00:00 | |
| PG1ADW-2 | 2026-09-06 00:43:25 | 47.68779 | 12.87006 | 125° | 115km/h | 13833m | -19.5m/s | -66.6°C | 21.5% | 156.7hPa | 2.5V | 00:00:00 | 00:00:00 | 00:00:00 | |
| BAUMI2-15 | 2026-09-06 00:43:24 | 47.68796 | 12.86970 | 125° | 113km/h | 13852m | -19.4m/s | -66.6°C | 21.1% | 156.1hPa | 2.5V | 00:00:00 | 02:13:57 | 00:00:00 | |
| OE5WHR-10 | 2026-09-06 00:43:22 | 47.68828 | 12.86899 | 123° | 102km/h | 13890m | -19.3m/s | -66.6°C | 20.2% | 155.2hPa | 2.5V | 00:00:00 | 00:00:00 | 08:30:00 | |
| OE5MMP-10 | 2026-09-06 00:43:21 | 47.68843 | 12.86863 | 123° | 113km/h | 13910m | -19.7m/s | -66.6°C | 19.5% | 154.7hPa | 2.5V | 00:00:00 | 02:13:54 | 00:00:00 | |
| BAUMI2-15 | 2026-09-06 00:43:19 | 47.68875 | 12.86793 | 123° | 111km/h | 13948m | -19.6m/s | -66.7°C | 19.0% | 153.7hPa | 2.5V | 00:00:00 | 02:13:52 | 00:00:00 | |
| OE5DRO-10 | 2026-09-06 00:43:16 | 47.68919 | 12.86685 | 120° | 115km/h | 14006m | -19.6m/s | -66.5°C | 17.6% | 152.3hPa | 2.6V | 00:00:00 | 00:00:00 | 00:00:00 | |
| BAUMI2-15 | 2026-09-06 00:43:14 | 47.68946 | 12.86611 | 119° | 117km/h | 14045m | -19.6m/s | -66.0°C | 16.2% | 151.3hPa | 2.6V | 00:00:00 | 02:13:47 | 00:00:00 | |
| DG1MFX-10 | 2026-09-06 00:43:11 | 47.68988 | 12.86493 | 120° | 120km/h | 14102m | -19.8m/s | -65.3°C | 8.9% | 149.9hPa | 2.6V | 08:21:00 | 00:00:00 | 00:00:00 | |
| BAUMI2-15 | 2026-09-06 00:43:10 | 47.69018 | 12.86416 | 119° | 119km/h | 14141m | -19.4m/s | -64.5°C | 13.0% | 148.9hPa | 2.6V | 00:00:00 | 02:13:42 | 00:00:00 | |
| PG1ADW-2 | 2026-09-06 00:43:05 | 47.69077 | 12.86261 | 123° | 113km/h | 14218m | -19.3m/s | -64.5°C | 11.8% | 147.1hPa | 2.6V | 00:00:00 | 02:13:38 | 00:00:00 | |
| BAUMI2-15 | 2026-09-06 00:43:04 | 47.69093 | 12.86225 | 124° | 111km/h | 14237m | -19.6m/s | -64.6°C | 11.7% | 146.6hPa | 2.6V | 00:00:00 | 02:13:37 | 00:00:00 | |
| OE5MMP-10 | 2026-09-06 00:43:01 | 47.69143 | 12.86122 | 130° | 100km/h | 14295m | -19.6m/s | -63.7°C | 10.4% | 145.3hPa | 2.5V | 00:00:00 | 02:13:34 | 00:00:00 | |
| BAUMI2-15 | 2026-09-06 00:42:59 | 47.69179 | 12.86061 | 132° | 100km/h | 14334m | -19.7m/s | -63.5°C | 9.8% | 144.4hPa | 2.5V | 00:00:00 | 02:13:32 | 00:00:00 | |
| OE5FHM-15 | 2026-09-06 00:42:58 | 47.69197 | 12.86032 | 132° | 89km/h | 14354m | -19.5m/s | -63.4°C | 9.6% | 143.9hPa | 2.5V | 00:00:00 | 02:13:31 | 00:00:00 | |
| OE5DRO-10 | 2026-09-06 00:42:57 | 47.69214 | 12.86004 | 134° | 89km/h | 14373m | -19.2m/s | -63.4°C | 9.5% | 143.4hPa | 2.5V | 00:00:00 | 00:00:00 | 00:00:00 | |
| BAUMI2-15 | 2026-09-06 00:42:54 | 47.69268 | 12.85927 | 136° | 91km/h | 14431m | -20.0m/s | -63.3°C | 9.0% | 142.0hPa | 2.5V | 00:00:00 | 02:13:27 | 00:00:00 | |
| OE5HKT-10 | 2026-09-06 00:42:53 | 47.69284 | 12.85902 | 136° | 88km/h | 14451m | -20.1m/s | -63.4°C | 9.0% | 141.6hPa | 2.5V | 00:00:00 | 02:13:26 | 00:00:00 | |
| OE5DXL-15 | 2026-09-06 00:42:52 | 47.69301 | 12.85878 | 135° | 89km/h | 14471m | -20.0m/s | -63.4°C | 8.9% | 141.1hPa | 2.5V | 00:00:00 | 00:00:00 | 00:00:00 | |
| OE5MMP-10 | 2026-09-06 00:42:51 | 47.69317 | 12.85853 | 135° | 86km/h | 14490m | -20.4m/s | -63.3°C | 8.8% | 140.6hPa | 2.5V | 00:00:00 | 02:13:24 | 00:00:00 | |
| DG1MFX-10 | 2026-09-06 00:42:50 | 47.69317 | 12.85853 | 135° | 91km/h | 14490m | -20.5m/s | -63.3°C | 4.5% | 140.7hPa | 2.5V | 08:22:00 | 00:00:00 | 00:00:00 | |
| BAUMI2-15 | 2026-09-06 00:42:44 | 47.69418 | 12.85681 | 129° | 84km/h | 14632m | -20.2m/s | -63.6°C | 8.3% | 137.5hPa | 2.5V | 00:00:00 | 02:13:17 | 00:00:00 | |
| OE5WHR-10 | 2026-09-06 00:42:43 | 47.69430 | 12.85656 | 126° | 91km/h | 14652m | -20.0m/s | -63.6°C | 8.2% | 137.0hPa | 2.5V | 00:00:00 | 00:00:00 | 00:00:00 | |
| OE5MMP-10 | 2026-09-06 00:42:41 | 47.69455 | 12.85605 | 123° | 89km/h | 14692m | -20.1m/s | -63.5°C | 8.0% | 136.1hPa | 2.5V | 00:00:00 | 02:13:14 | 00:00:00 | |
| BAUMI2-15 | 2026-09-06 00:42:39 | 47.69477 | 12.85551 | 122° | 89km/h | 14732m | -20.0m/s | -63.3°C | 8.0% | 135.2hPa | 2.5V | 00:00:00 | 02:13:12 | 00:00:00 | |
| OE5DRO-10 | 2026-09-06 00:42:38 | 47.69489 | 12.85523 | 123° | 93km/h | 14752m | -20.0m/s | -63.2°C | 7.9% | 134.8hPa | 2.5V | 00:00:00 | 00:00:00 | 00:00:00 | |
| BAUMI2-15 | 2026-09-06 00:42:34 | 47.69541 | 12.85413 | 127° | 91km/h | 14830m | -20.6m/s | -62.7°C | 7.5% | 133.1hPa | 2.5V | 00:00:00 | 02:13:07 | 00:00:00 | |
| OE5HKT-10 | 2026-09-06 00:42:32 | 47.69569 | 12.85358 | 128° | 75km/h | 14871m | -20.5m/s | -62.5°C | 7.3% | 132.2hPa | 2.5V | 00:00:00 | 00:00:00 | 00:00:00 | |
| OE5MMP-10 | 2026-09-06 00:42:31 | 47.69582 | 12.85330 | 127° | 97km/h | 14891m | -20.3m/s | -62.5°C | 7.4% | 131.8hPa | 2.5V | 00:00:00 | 02:13:04 | 00:00:00 | |
| BAUMI2-15 | 2026-09-06 00:42:29 | 47.69611 | 12.85273 | 128° | 99km/h | 14932m | -20.1m/s | -62.5°C | 7.4% | 130.9hPa | 2.5V | 00:00:00 | 02:13:02 | 00:00:00 | |
| OE5FHM-15 | 2026-09-06 00:42:28 | 47.69626 | 12.85244 | 128° | 91km/h | 14952m | -20.1m/s | -62.5°C | 7.4% | 130.5hPa | 2.5V | 00:00:00 | 02:13:01 | 00:00:00 | |
| BAUMI2-15 | 2026-09-06 00:42:24 | 47.69688 | 12.85130 | 129° | 95km/h | 15032m | -20.5m/s | -62.2°C | 7.2% | 128.8hPa | 2.5V | 00:00:00 | 02:12:57 | 00:00:00 | |
| OE5WHR-10 | 2026-09-06 00:42:22 | 47.69717 | 12.85073 | 126° | 73km/h | 15073m | -20.6m/s | -62.3°C | 7.1% | 128.0hPa | 2.5V | 00:00:00 | 02:12:55 | 00:00:00 | |
| OE5MMP-10 | 2026-09-06 00:42:21 | 47.69731 | 12.85044 | 125° | 95km/h | 15093m | -21.0m/s | -62.4°C | 7.2% | 127.5hPa | 2.5V | 00:00:00 | 02:12:54 | 00:00:00 | |
| BAUMI2-15 | 2026-09-06 00:42:19 | 47.69759 | 12.84984 | 126° | 93km/h | 15135m | -20.6m/s | -62.4°C | 7.1% | 126.7hPa | 2.5V | 00:00:00 | 02:12:52 | 00:00:00 | |
| PG1ADW-2 | 2026-09-06 00:42:16 | 47.69800 | 12.84897 | 124° | 93km/h | 15196m | -21.3m/s | -62.4°C | 7.1% | 125.4hPa | 2.5V | 00:00:00 | 00:00:00 | 00:00:00 | |
| BAUMI2-15 | 2026-09-06 00:42:14 | 47.69825 | 12.84838 | 123° | 97km/h | 15238m | -20.3m/s | -62.4°C | 7.2% | 124.6hPa | 2.5V | 00:00:00 | 02:12:47 | 00:00:00 | |
| OE5MMP-10 | 2026-09-06 00:42:11 | 47.69866 | 12.84746 | 126° | 89km/h | 15298m | -21.2m/s | -61.4°C | 6.5% | 123.4hPa | 2.5V | 00:00:00 | 02:12:44 | 00:00:00 | |
| OE8JPQ-2 | 2026-09-06 00:42:09 | 47.69894 | 12.84689 | 128° | 82km/h | 15340m | -20.6m/s | -61.2°C | 6.4% | 122.5hPa | 2.5V | 00:00:00 | 00:00:00 | 00:00:00 | |
| BAUMI2-15 | 2026-09-06 00:42:04 | 47.69965 | 12.84557 | 128° | 84km/h | 15444m | -21.2m/s | -61.0°C | 6.2% | 120.5hPa | 2.5V | 08:22:00 | 02:12:37 | 00:00:00 | |
| OE5MMP-10 | 2026-09-06 00:42:01 | 47.70005 | 12.84480 | 129° | 80km/h | 15506m | -20.7m/s | -60.7°C | 6.0% | 119.2hPa | 2.6V | 00:00:00 | 02:12:34 | 00:00:00 | |
| OE5DRO-10 | 2026-09-06 00:42:00 | 47.70018 | 12.84456 | 129° | 78km/h | 15526m | -20.7m/s | -60.7°C | 6.0% | 118.9hPa | 2.6V | 00:00:00 | 00:00:00 | 00:00:00 | |
| BAUMI2-15 | 2026-09-06 00:41:59 | 47.70030 | 12.84433 | 128° | 80km/h | 15546m | -19.8m/s | -60.7°C | 6.0% | 118.5hPa | 2.6V | 00:00:00 | 02:12:32 | 00:00:00 | |
| OE5FHM-15 | 2026-09-06 00:41:57 | 47.70056 | 12.84386 | 131° | 69km/h | 15586m | -20.4m/s | -60.5°C | 6.0% | 117.7hPa | 2.6V | 00:00:00 | 02:12:30 | 00:00:00 | |
| PG1ADW-2 | 2026-09-06 00:41:56 | 47.70068 | 12.84364 | 129° | 55km/h | 15607m | -19.5m/s | -60.4°C | 6.0% | 117.4hPa | 2.6V | 00:00:00 | 00:00:00 | 00:00:00 | |
| BAUMI2-15 | 2026-09-06 00:41:54 | 47.70094 | 12.84319 | 131° | 78km/h | 15645m | -19.9m/s | -60.1°C | 5.9% | 116.6hPa | 2.6V | 00:00:00 | 02:12:27 | 00:00:00 | |
| OE5DXL-15 | 2026-09-06 00:41:52 | 47.70119 | 12.84274 | 130° | 69km/h | 15685m | -20.4m/s | -60.2°C | 6.0% | 115.9hPa | 2.6V | 08:22:00 | 00:00:00 | 00:00:00 | |
| OE5MMP-10 | 2026-09-06 00:41:51 | 47.70132 | 12.84251 | 131° | 77km/h | 15706m | -20.5m/s | -60.1°C | 6.0% | 115.5hPa | 2.5V | 00:00:00 | 02:12:24 | 00:00:00 | |
| BAUMI2-15 | 2026-09-06 00:41:50 | 47.70156 | 12.84207 | 131° | 77km/h | 15746m | -19.6m/s | -60.2°C | 6.1% | 114.8hPa | 2.5V | 00:00:00 | 02:12:22 | 00:00:00 | |
| OE8JPQ-2 | 2026-09-06 00:41:49 | 47.70156 | 12.84207 | 131° | 73km/h | 15746m | -19.6m/s | -60.2°C | 6.1% | 114.8hPa | 2.6V | 00:00:00 | 02:12:22 | 00:00:00 | |
| BAUMI2-15 | 2026-09-06 00:41:44 | 47.70214 | 12.84094 | 124° | 75km/h | 15842m | -19.1m/s | -60.4°C | 6.3% | 113.0hPa | 2.6V | 00:00:00 | 02:12:17 | 00:00:00 | |
| OE5MMP-10 | 2026-09-06 00:41:41 | 47.70245 | 12.84023 | 122° | 71km/h | 15900m | -20.2m/s | -60.1°C | 6.2% | 112.0hPa | 2.6V | 08:22:00 | 02:12:14 | 00:00:00 | |
| BAUMI2-15 | 2026-09-06 00:41:39 | 47.70264 | 12.83976 | 120° | 73km/h | 15942m | -21.0m/s | -59.8°C | 6.0% | 111.3hPa | 2.5V | 00:00:00 | 02:12:12 | 00:00:00 | |
| DB0UT-7 | 2026-09-06 00:41:35 | 47.70301 | 12.83880 | 120° | 60km/h | 16027m | -21.7m/s | -59.3°C | 5.7% | 109.8hPa | 2.5V | 00:00:00 | 00:00:00 | 00:00:00 | |
| BAUMI2-15 | 2026-09-06 00:41:34 | 47.70309 | 12.83856 | 119° | 64km/h | 16048m | -21.9m/s | -59.1°C | 5.7% | 109.4hPa | 2.5V | 00:00:00 | 02:12:07 | 00:00:00 | |
| OE5MMP-10 | 2026-09-06 00:41:31 | 47.70329 | 12.83791 | 111° | 60km/h | 16115m | -22.0m/s | -58.5°C | 5.4% | 108.2hPa | 2.5V | 00:00:00 | 02:12:04 | 00:00:00 | |
| DO7DH-14 | 2026-09-06 00:41:30 | 47.70335 | 12.83769 | 110° | 57km/h | 16137m | -21.7m/s | 0°C | 0% | 0hPa | 2.5V | 00:00:00 | 02:12:03 | 00:00:00 | |
| BAUMI2-15 | 2026-09-06 00:41:29 | 47.70340 | 12.83747 | 111° | 49km/h | 16158m | -21.4m/s | -58.0°C | 5.2% | 107.5hPa | 2.5V | 00:00:00 | 02:12:02 | 00:00:00 | |
| OE5FHM-15 | 2026-09-06 00:41:22 | 47.70373 | 12.83600 | 109° | 60km/h | 16306m | -21.4m/s | -57.7°C | 5.0% | 105.0hPa | 2.5V | 00:00:00 | 02:11:55 | 00:00:00 | |
| OE5MMP-10 | 2026-09-06 00:41:21 | 47.70378 | 12.83580 | 109° | 58km/h | 16328m | -21.5m/s | -57.6°C | 4.9% | 104.7hPa | 2.5V | 00:00:00 | 02:11:54 | 00:00:00 | |
| OE5MMP-10 | 2026-09-06 00:41:11 | 47.70422 | 12.83369 | 99° | 60km/h | 16544m | -22.7m/s | -57.3°C | 4.8% | 101.1hPa | 2.5V | 00:00:00 | 02:11:44 | 00:00:00 | |
| OE8JPQ-2 | 2026-09-06 00:41:09 | 47.70425 | 12.83326 | 96° | 60km/h | 16589m | -22.5m/s | -57.5°C | 4.8% | 100.4hPa | 2.5V | 00:00:00 | 00:00:00 | 00:00:00 | |
| DG1MFX-10 | 2026-09-06 00:41:06 | 47.70429 | 12.83259 | 94° | 62km/h | 16656m | -22.4m/s | -57.6°C | 1.8% | 99.4hPa | 2.5V | 08:23:00 | 00:00:00 | 00:00:00 | |
| DB0UT-7 | 2026-09-06 00:41:05 | 47.70430 | 12.83236 | 93° | 60km/h | 16678m | -22.3m/s | -57.6°C | 4.8% | 99.0hPa | 2.5V | 00:00:00 | 02:11:38 | 00:00:00 | |
| OE5DRO-10 | 2026-09-06 00:41:03 | 47.70431 | 12.83192 | 93° | 62km/h | 16721m | -22.3m/s | -57.8°C | 4.9% | 98.3hPa | 2.5V | 00:00:00 | 00:00:00 | 00:00:00 | |
| OE5MMP-10 | 2026-09-06 00:41:01 | 47.70432 | 12.83148 | 91° | 60km/h | 16765m | -22.3m/s | -58.0°C | 5.1% | 97.6hPa | 2.5V | 00:00:00 | 02:11:34 | 00:00:00 | |
| OE5FHM-15 | 2026-09-06 00:40:52 | 47.70429 | 12.82950 | 91° | 68km/h | 16961m | -22.7m/s | -58.1°C | 5.0% | 94.6hPa | 2.5V | 00:00:00 | 02:11:25 | 00:00:00 | |
| OE5MMP-10 | 2026-09-06 00:40:51 | 47.70429 | 12.82926 | 92° | 68km/h | 16983m | -22.8m/s | -58.2°C | 5.1% | 94.3hPa | 2.5V | 00:00:00 | 02:11:24 | 00:00:00 | |
| OE8JPQ-2 | 2026-09-06 00:40:49 | 47.70430 | 12.82877 | 96° | 68km/h | 17029m | -22.8m/s | -58.2°C | 5.1% | 93.6hPa | 2.5V | 00:00:00 | 02:11:22 | 00:00:00 | |
| OE5DRO-10 | 2026-09-06 00:40:44 | 47.70445 | 12.82753 | 105° | 69km/h | 17142m | -23.5m/s | -58.2°C | 5.2% | 92.0hPa | 2.5V | 00:00:00 | 00:00:00 | 00:00:00 | |
| OE5MMP-10 | 2026-09-06 00:40:41 | 47.70460 | 12.82680 | 107° | 68km/h | 17212m | -23.2m/s | -57.7°C | 4.9% | 90.9hPa | 2.6V | 00:00:00 | 02:11:14 | 00:00:00 | |
| OE5HKT-10 | 2026-09-06 00:40:35 | 47.70494 | 12.82536 | 112° | 66km/h | 17350m | -23.3m/s | -57.7°C | 5.0% | 89.0hPa | 2.5V | 00:00:00 | 00:00:00 | 00:00:00 | |
| OE5MMP-10 | 2026-09-06 00:40:31 | 47.70520 | 12.82441 | 112° | 68km/h | 17444m | -23.4m/s | -57.8°C | 5.1% | 87.7hPa | 2.5V | 00:00:00 | 02:11:04 | 00:00:00 | |
| OE8JPQ-2 | 2026-09-06 00:40:29 | 47.70533 | 12.82391 | 112° | 53km/h | 17491m | -24.1m/s | -57.5°C | 4.9% | 87.0hPa | 2.5V | 08:23:00 | 00:00:00 | 00:00:00 | |
| OE5DRO-10 | 2026-09-06 00:40:25 | 47.70561 | 12.82295 | 114° | 58km/h | 17586m | -24.5m/s | -57.9°C | 5.2% | 85.7hPa | 2.5V | 00:00:00 | 00:00:00 | 00:00:00 | |
| DG1MFX-10 | 2026-09-06 00:40:24 | 47.70568 | 12.82273 | 115° | 68km/h | 17610m | -24.5m/s | -57.7°C | 1.7% | 85.4hPa | 2.5V | 08:23:00 | 00:00:00 | 00:00:00 | |
| OE5FHM-15 | 2026-09-06 00:40:22 | 47.70583 | 12.82229 | 120° | 46km/h | 17660m | -25.2m/s | -57.9°C | 5.2% | 84.7hPa | 2.5V | 08:23:00 | 02:10:55 | 00:00:00 | |
| OE5MMP-10 | 2026-09-06 00:40:21 | 47.70591 | 12.82208 | 120° | 60km/h | 17684m | -24.9m/s | -58.0°C | 5.3% | 84.5hPa | 2.5V | 00:00:00 | 02:10:54 | 00:00:00 | |
| OE5HKT-10 | 2026-09-06 00:40:14 | 47.70661 | 12.82086 | 144° | 40km/h | 17851m | -23.9m/s | -56.7°C | 4.8% | 82.2hPa | 2.5V | 00:00:00 | 02:10:47 | 00:00:00 | |
| OE5MMP-10 | 2026-09-06 00:40:11 | 47.70695 | 12.82053 | 150° | 29km/h | 17923m | -24.4m/s | -56.7°C | 4.7% | 81.3hPa | 2.5V | 00:00:00 | 02:10:44 | 08:30:00 | |
| DH7VM-15 | 2026-09-06 00:40:09 | 47.70716 | 12.82034 | 150° | 46km/h | 17971m | -24.6m/s | 0°C | 0% | 0hPa | 2.6V | 00:00:00 | 00:00:00 | 00:00:00 | |
| OE5DRO-10 | 2026-09-06 00:40:06 | 47.70745 | 12.82007 | 146° | 31km/h | 18044m | -24.8m/s | -56.6°C | 4.8% | 79.7hPa | 2.6V | 00:00:00 | 00:00:00 | 00:00:00 | |
| DG1MFX-10 | 2026-09-06 00:40:04 | 47.70761 | 12.81990 | 140° | 38km/h | 18094m | -25.7m/s | -56.3°C | 1.5% | 79.1hPa | 2.6V | 08:24:00 | 00:00:00 | 00:00:00 | |
| OE5HKT-10 | 2026-09-06 00:39:53 | 47.70803 | 12.81876 | 87° | 31km/h | 18370m | -26.2m/s | -55.5°C | 4.1% | 75.7hPa | 2.6V | 00:00:00 | 00:00:00 | 00:00:00 | |
| OE5FHM-15 | 2026-09-06 00:39:52 | 47.70803 | 12.81866 | 86° | 37km/h | 18396m | -25.6m/s | -55.6°C | 4.2% | 75.4hPa | 2.6V | 00:00:00 | 02:10:25 | 00:00:00 | |
| OE5DRO-10 | 2026-09-06 00:39:47 | 47.70791 | 12.81819 | 61° | 37km/h | 18519m | -26.0m/s | -56.1°C | 4.4% | 73.9hPa | 2.6V | 00:00:00 | 00:00:00 | 00:00:00 | |
| OE8JPQ-2 | 2026-09-06 00:39:44 | 47.70782 | 12.81791 | 71° | 40km/h | 18598m | -26.5m/s | -56.0°C | 4.3% | 73.0hPa | 2.6V | 00:00:00 | 02:10:17 | 00:00:00 | |
| DG1MFX-10 | 2026-09-06 00:39:42 | 47.70780 | 12.81781 | 76° | 27km/h | 18625m | -26.7m/s | -56.3°C | 1.4% | 72.8hPa | 2.6V | 08:24:00 | 00:00:00 | 00:00:00 | |
| OE5HKT-10 | 2026-09-06 00:39:32 | 47.70780 | 12.81639 | 98° | 33km/h | 18903m | -25.6m/s | -57.3°C | 5.0% | 69.6hPa | 2.6V | 00:00:00 | 00:00:00 | 00:00:00 | |
| DB0UT-7 | 2026-09-06 00:39:29 | 47.70786 | 12.81587 | 101° | 38km/h | 18980m | -24.9m/s | -57.5°C | 5.0% | 68.8hPa | 2.6V | 00:00:00 | 00:00:00 | 00:00:00 | |
| OE5DRO-10 | 2026-09-06 00:39:28 | 47.70788 | 12.81569 | 102° | 38km/h | 19004m | -25.3m/s | -57.4°C | 5.0% | 68.5hPa | 2.6V | 00:00:00 | 00:00:00 | 00:00:00 | |
| OE8JPQ-2 | 2026-09-06 00:39:24 | 47.70799 | 12.81499 | 110° | 35km/h | 19106m | -25.4m/s | -57.4°C | 4.9% | 67.4hPa | 2.6V | 00:00:00 | 00:00:00 | 00:00:00 | |
| OE5FHM-15 | 2026-09-06 00:39:22 | 47.70807 | 12.81468 | 112° | 37km/h | 19157m | -25.8m/s | -57.3°C | 5.0% | 66.8hPa | 2.6V | 00:00:00 | 02:09:55 | 00:00:00 | |
| BAUMI2-15 | 2026-09-06 00:39:19 | 47.70817 | 12.81427 | 111° | 31km/h | 19234m | -26.4m/s | -55.8°C | 4.4% | 66.0hPa | 2.6V | 00:00:00 | 02:09:52 | 00:00:00 | |
| BAUMI2-15 | 2026-09-06 00:39:14 | 47.70826 | 12.81367 | 103° | 33km/h | 19368m | -27.2m/s | -56.1°C | 4.5% | 64.6hPa | 2.6V | 08:24:00 | 02:09:47 | 00:00:00 | |
| BAUMI2-15 | 2026-09-06 00:39:09 | 47.70837 | 12.81305 | 111° | 35km/h | 19504m | -27.9m/s | -56.6°C | 4.6% | 63.3hPa | 2.5V | 00:00:00 | 02:09:42 | 00:00:00 | |
| PG1ADW-2 | 2026-09-06 00:39:08 | 47.70840 | 12.81292 | 111° | 27km/h | 19532m | -27.6m/s | -56.7°C | 4.8% | 63.0hPa | 2.5V | 00:00:00 | 00:00:00 | 00:00:00 | |
| OE8JPQ-2 | 2026-09-06 00:39:04 | 47.70853 | 12.81241 | 109° | 42km/h | 19641m | -27.1m/s | -56.9°C | 4.9% | 61.9hPa | 2.5V | 00:00:00 | 00:00:00 | 00:00:00 | |
| DG1MFX-10 | 2026-09-06 00:39:02 | 47.70856 | 12.81227 | 110° | 40km/h | 19668m | -26.7m/s | -57.0°C | 1.6% | 61.7hPa | 2.5V | 08:25:00 | 00:00:00 | 00:00:00 | |
| BAUMI2-15 | 2026-09-06 00:38:59 | 47.70869 | 12.81171 | 110° | 38km/h | 19775m | -27.9m/s | -56.5°C | 4.7% | 60.6hPa | 2.5V | 00:00:00 | 02:09:32 | 00:00:00 | |
| BAUMI2-15 | 2026-09-06 00:38:54 | 47.70890 | 12.81103 | 116° | 44km/h | 19918m | -27.5m/s | -55.9°C | 4.4% | 59.3hPa | 2.6V | 00:00:00 | 02:09:27 | 00:00:00 | |
| OE5FHM-15 | 2026-09-06 00:38:52 | 47.70900 | 12.81075 | 119° | 20km/h | 19973m | -27.2m/s | -55.8°C | 4.4% | 58.8hPa | 2.6V | 00:00:00 | 02:09:25 | 00:00:00 | |
| OE5DRO-10 | 2026-09-06 00:38:50 | 47.70912 | 12.81047 | 124° | 37km/h | 20027m | -27.1m/s | -55.8°C | 4.4% | 58.2hPa | 2.5V | 08:25:00 | 00:00:00 | 00:00:00 | |
| BAUMI2-15 | 2026-09-06 00:38:49 | 47.70918 | 12.81034 | 127° | 44km/h | 20054m | -27.8m/s | -56.0°C | 4.5% | 58.0hPa | 2.6V | 00:00:00 | 02:09:22 | 00:00:00 | |
| OE8JPQ-2 | 2026-09-06 00:38:44 | 47.70955 | 12.80974 | 142° | 24km/h | 20190m | -27.6m/s | -55.6°C | 4.5% | 56.8hPa | 2.6V | 00:00:00 | 02:09:17 | 00:00:00 | |
| DG1MFX-10 | 2026-09-06 00:38:42 | 47.70970 | 12.80955 | 148° | 40km/h | 20245m | -26.8m/s | -55.6°C | 1.4% | 56.3hPa | 2.6V | 08:25:00 | 00:00:00 | 00:00:00 | |
| BAUMI2-15 | 2026-09-06 00:38:39 | 47.70995 | 12.80931 | 150° | 33km/h | 20325m | -27.8m/s | -55.7°C | 4.5% | 55.6hPa | 2.6V | 00:00:00 | 02:09:12 | 00:00:00 | |
| BAUMI2-15 | 2026-09-06 00:38:34 | 47.71029 | 12.80899 | 154° | 20km/h | 20465m | -29.0m/s | -56.2°C | 4.6% | 54.4hPa | 2.6V | 00:00:00 | 02:09:07 | 00:00:00 | |
| OE5DRO-10 | 2026-09-06 00:38:31 | 47.71043 | 12.80888 | 162° | 9km/h | 20550m | -29.1m/s | -55.7°C | 4.5% | 53.6hPa | 2.6V | 00:00:00 | 00:00:00 | 00:00:00 | |
| OE5HKT-10 | 2026-09-06 00:38:30 | 47.71047 | 12.80887 | 167° | 11km/h | 20579m | -29.6m/s | -55.5°C | 4.4% | 53.4hPa | 2.6V | 00:00:00 | 02:09:03 | 00:00:00 | |
| BAUMI2-15 | 2026-09-06 00:38:29 | 47.71049 | 12.80886 | 167° | 5km/h | 20609m | -29.4m/s | -55.2°C | 4.3% | 53.1hPa | 2.6V | 08:25:00 | 02:09:02 | 00:00:00 | |
| IN3HCDX | 2026-09-06 00:38:28 | 47.71049 | 12.80886 | 167° | 9km/h | 20609m | -29.5m/s | -55.2°C | 1.3% | 53.2hPa | 2.6V | 08:26:00 | 00:00:00 | 00:00:00 | |
| DB0UT-7 | 2026-09-06 00:38:25 | 47.71052 | 12.80886 | 337° | 13km/h | 20726m | -29.0m/s | -55.0°C | 4.3% | 52.2hPa | 2.6V | 00:00:00 | 02:08:58 | 00:00:00 | |
| OE8JPQ-2 | 2026-09-06 00:38:24 | 47.71051 | 12.80886 | 321° | 18km/h | 20755m | -29.9m/s | -55.2°C | 4.4% | 51.9hPa | 2.6V | 00:00:00 | 00:00:00 | 00:00:00 | |
| OE5DXL-15 | 2026-09-06 00:38:22 | 47.71050 | 12.80887 | 17° | 24km/h | 20814m | -30.0m/s | -55.5°C | 4.5% | 51.5hPa | 2.6V | 00:00:00 | 00:00:00 | 00:00:00 | |
| OE5FHM-15 | 2026-09-06 00:38:21 | 47.71049 | 12.80886 | 51° | 13km/h | 20844m | -28.6m/s | -55.6°C | 4.6% | 51.2hPa | 2.6V | 00:00:00 | 02:08:54 | 00:00:00 | |
| BAUMI2-15 | 2026-09-06 00:38:19 | 47.71047 | 12.80882 | 81° | 13km/h | 20903m | -29.1m/s | -56.0°C | 4.8% | 50.8hPa | 2.6V | 00:00:00 | 02:08:52 | 00:00:00 | |
| BAUMI2-15 | 2026-09-06 00:38:14 | 47.71045 | 12.80857 | 88° | 22km/h | 21049m | -30.0m/s | -56.0°C | 4.9% | 49.6hPa | 2.6V | 00:00:00 | 02:08:47 | 00:00:00 | |
| OE5DRO-10 | 2026-09-06 00:38:12 | 47.71044 | 12.80842 | 85° | 29km/h | 21109m | -29.5m/s | -55.4°C | 4.7% | 49.2hPa | 2.6V | 00:00:00 | 00:00:00 | 00:00:00 | |
| BAUMI2-15 | 2026-09-06 00:38:09 | 47.71042 | 12.80814 | 79° | 31km/h | 21194m | -29.1m/s | -54.8°C | 4.5% | 48.5hPa | 2.6V | 00:00:00 | 02:08:42 | 00:00:00 | |
| IN3HCDX | 2026-09-06 00:38:08 | 47.71040 | 12.80803 | 81° | 29km/h | 21223m | -30.3m/s | -54.7°C | 1.3% | 48.3hPa | 2.6V | 08:26:00 | 00:00:00 | 00:00:00 | |
| BAUMI2-15 | 2026-09-06 00:38:04 | 47.71034 | 12.80756 | 81° | 31km/h | 21341m | -30.2m/s | -54.4°C | 4.3% | 47.4hPa | 2.6V | 00:00:00 | 02:08:37 | 00:00:00 | |
| DG1MFX-10 | 2026-09-06 00:38:01 | 47.71032 | 12.80732 | 87° | 33km/h | 21399m | -28.8m/s | -54.5°C | 1.3% | 47.0hPa | 2.6V | 08:26:00 | 00:00:00 | 00:00:00 | |
| BAUMI2-15 | 2026-09-06 00:37:59 | 47.71034 | 12.80697 | 102° | 31km/h | 21485m | -29.4m/s | -54.1°C | 4.3% | 46.3hPa | 2.6V | 00:00:00 | 02:08:32 | 00:00:00 | |
| BAUMI2-15 | 2026-09-06 00:37:54 | 47.71051 | 12.80645 | 132° | 26km/h | 21630m | -29.8m/s | -53.3°C | 3.9% | 45.2hPa | 2.6V | 00:00:00 | 02:08:27 | 00:00:00 | |
| OE5DXL-15 | 2026-09-06 00:37:52 | 47.71061 | 12.80631 | 134° | 20km/h | 21689m | -29.0m/s | -53.1°C | 3.9% | 44.8hPa | 2.6V | 00:00:00 | 00:00:00 | 00:00:00 | |
| BAUMI2-15 | 2026-09-06 00:37:49 | 47.71075 | 12.80613 | 142° | 16km/h | 21776m | -29.9m/s | -53.1°C | 3.8% | 44.2hPa | 2.6V | 00:00:00 | 02:08:22 | 00:00:00 | |
| IN3HCDX | 2026-09-06 00:37:47 | 47.71080 | 12.80608 | 144° | 20km/h | 21805m | -29.7m/s | -53.1°C | 1.1% | 44.1hPa | 2.6V | 08:26:00 | 00:00:00 | 00:00:00 | |
| OE8JPQ-2 | 2026-09-06 00:37:44 | 47.71093 | 12.80598 | 158° | 20km/h | 21924m | -31.3m/s | -52.9°C | 3.7% | 43.2hPa | 2.6V | 00:00:00 | 02:08:17 | 00:00:00 | |
| DG1MFX-10 | 2026-09-06 00:37:40 | 47.71102 | 12.80592 | 151° | 13km/h | 22019m | -32.2m/s | -53.5°C | 1.2% | 42.6hPa | 2.6V | 08:27:00 | 00:00:00 | 00:00:00 | |
| BAUMI2-15 | 2026-09-06 00:37:39 | 47.71107 | 12.80587 | 148° | 20km/h | 22083m | -31.5m/s | -53.7°C | 4.0% | 42.2hPa | 2.6V | 00:00:00 | 02:08:12 | 00:00:00 | |
| OE5DRO-10 | 2026-09-06 00:37:34 | 47.71126 | 12.80562 | 137° | 20km/h | 22238m | -31.5m/s | -53.9°C | 4.0% | 41.2hPa | 2.6V | 00:00:00 | 00:00:00 | 00:00:00 | |
| BAUMI2-15 | 2026-09-06 00:37:29 | 47.71153 | 12.80535 | 151° | 16km/h | 22391m | -31.2m/s | -54.6°C | 4.4% | 40.2hPa | 2.6V | 00:00:00 | 02:08:02 | 00:00:00 | |
| IN3HCDX | 2026-09-06 00:37:27 | 47.71163 | 12.80528 | 155° | 24km/h | 22453m | -30.4m/s | -54.9°C | 1.4% | 39.9hPa | 2.5V | 00:00:00 | 00:00:00 | 00:00:00 | |
| OE5WHR-10 | 2026-09-06 00:37:26 | 47.71168 | 12.80525 | 155° | 13km/h | 22484m | -31.3m/s | -54.7°C | 4.5% | 39.6hPa | 2.5V | 00:00:00 | 00:00:00 | 00:00:00 | |
| OE8JPQ-2 | 2026-09-06 00:37:24 | 47.71178 | 12.80518 | 150° | 13km/h | 22545m | -31.7m/s | -54.3°C | 4.4% | 39.2hPa | 2.6V | 08:26:00 | 00:00:00 | 00:00:00 | |
| OE5DXL-15 | 2026-09-06 00:37:22 | 47.71187 | 12.80511 | 152° | 11km/h | 22607m | -31.4m/s | -53.7°C | 4.3% | 38.9hPa | 2.5V | 08:26:00 | 00:00:00 | 00:00:00 | |
| DG1MFX-10 | 2026-09-06 00:37:19 | 47.71194 | 12.80504 | 138° | 15km/h | 22670m | -32.3m/s | -53.7°C | 1.3% | 38.5hPa | 2.5V | 08:27:00 | 00:00:00 | 00:00:00 | |
| OE5DRO-10 | 2026-09-06 00:37:15 | 47.71197 | 12.80490 | 63° | 11km/h | 22829m | -31.6m/s | -53.6°C | 4.3% | 37.5hPa | 2.5V | 00:00:00 | 00:00:00 | 00:00:00 | |
| IN3HCDX | 2026-09-06 00:37:06 | 47.71191 | 12.80459 | 112° | 16km/h | 23126m | -33.4m/s | -53.0°C | 1.2% | 35.8hPa | 2.5V | 00:00:00 | 00:00:00 | 00:00:00 | |
| OE5HKT-10 | 2026-09-06 00:37:05 | 47.71193 | 12.80454 | 115° | 13km/h | 23159m | -32.5m/s | -53.0°C | 4.2% | 35.6hPa | 2.5V | 00:00:00 | 00:00:00 | 00:00:00 | |
| OE8JPQ-2 | 2026-09-06 00:37:04 | 47.71194 | 12.80449 | 111° | 13km/h | 23192m | -33.0m/s | -52.8°C | 4.2% | 35.4hPa | 2.5V | 00:00:00 | 00:00:00 | 00:00:00 | |
| OE5WHR-10 | 2026-09-06 00:37:02 | 47.71196 | 12.80441 | 112° | 24km/h | 23258m | -33.6m/s | -52.3°C | 4.0% | 35.1hPa | 2.5V | 00:00:00 | 00:00:00 | 00:00:00 | |
| DG1MFX-10 | 2026-09-06 00:36:58 | 47.71197 | 12.80434 | 109° | 4km/h | 23358m | -33.1m/s | -51.6°C | 1.1% | 34.5hPa | 2.5V | 08:27:00 | 00:00:00 | 00:00:00 | |
| OE5DRO-10 | 2026-09-06 00:36:56 | 47.71201 | 12.80429 | 157° | 13km/h | 23463m | -35.4m/s | -51.5°C | 3.7% | 34.0hPa | 2.5V | 00:00:00 | 00:00:00 | 00:00:00 | |
| OE5DXL-15 | 2026-09-06 00:36:52 | 47.71215 | 12.80423 | 173° | 9km/h | 23600m | -33.9m/s | -51.3°C | 3.7% | 33.3hPa | 2.6V | 00:00:00 | 00:00:00 | 00:00:00 | |
| IN3HCDX | 2026-09-06 00:36:45 | 47.71242 | 12.80430 | 233° | 11km/h | 23842m | -35.6m/s | -50.7°C | 1.0% | 32.1hPa | 2.6V | 08:28:00 | 00:00:00 | 00:00:00 | |
| OE5HKT-10 | 2026-09-06 00:36:44 | 47.71244 | 12.80434 | 245° | 5km/h | 23878m | -35.4m/s | -50.8°C | 3.5% | 31.8hPa | 2.6V | 00:00:00 | 00:00:00 | 00:00:00 | |
| DG1MFX-10 | 2026-09-06 00:36:38 | 47.71246 | 12.80446 | 258° | 4km/h | 24046m | -33.9m/s | -51.4°C | 1.1% | 31.0hPa | 2.6V | 08:28:00 | 00:00:00 | 00:00:00 | |
| OE5DRO-10 | 2026-09-06 00:36:37 | 47.71248 | 12.80448 | 208° | 7km/h | 24112m | -34.0m/s | -51.2°C | 3.6% | 30.7hPa | 2.6V | 00:00:00 | 00:00:00 | 00:00:00 | |
| OE8JPQ-2 | 2026-09-06 00:36:24 | 47.71249 | 12.80459 | 6° | 13km/h | 24574m | -35.7m/s | -51.3°C | 3.7% | 28.6hPa | 2.6V | 00:00:00 | 00:00:00 | 00:00:00 | |
| OE5HKT-10 | 2026-09-06 00:36:23 | 47.71247 | 12.80458 | 4° | 11km/h | 24608m | -35.0m/s | -51.4°C | 3.7% | 28.4hPa | 2.5V | 00:00:00 | 02:06:56 | 00:00:00 | |
| IN3HCDX | 2026-09-06 00:36:22 | 47.71245 | 12.80457 | 21° | 9km/h | 24644m | -37.2m/s | -51.6°C | 1.0% | 28.3hPa | 2.5V | 08:28:00 | 00:00:00 | 00:00:00 | |
| DG1MFX-10 | 2026-09-06 00:36:18 | 47.71238 | 12.80443 | 71° | 13km/h | 24792m | -36.7m/s | -52.0°C | 1.1% | 27.7hPa | 2.5V | 08:28:00 | 00:00:00 | 00:00:00 | |
| OE5FHM-15 | 2026-09-06 00:36:07 | 47.71259 | 12.80415 | 211° | 15km/h | 25198m | -33.9m/s | -50.8°C | 3.6% | 25.9hPa | 2.5V | 00:00:00 | 02:06:40 | 00:00:00 | |
| OE8JPQ-2 | 2026-09-06 00:36:04 | 47.71265 | 12.80423 | 239° | 11km/h | 25298m | -33.6m/s | -50.9°C | 3.6% | 25.5hPa | 2.5V | 00:00:00 | 00:00:00 | 00:00:00 | |
| DL1ZP-14 | 2026-09-06 00:36:03 | 47.71267 | 12.80430 | 259° | 11km/h | 25362m | -33.2m/s | 0°C | -1.0% | -1.0hPa | 2.5V | 00:00:00 | 00:00:00 | 00:00:00 | |
| OE5HKT-10 | 2026-09-06 00:36:02 | 47.71267 | 12.80430 | 260° | 13km/h | 25362m | -33.1m/s | -50.9°C | 3.7% | 25.2hPa | 2.5V | 00:00:00 | 00:00:00 | 00:00:00 | |
| IN3HCDX | 2026-09-06 00:36:01 | 47.71267 | 12.80433 | 270° | 7km/h | 25396m | -34.7m/s | -50.9°C | 1.0% | 25.2hPa | 2.6V | 08:28:00 | 00:00:00 | 00:00:00 | |
| OE5DRO-10 | 2026-09-06 00:35:59 | 47.71266 | 12.80438 | 308° | 9km/h | 25464m | -35.0m/s | -50.9°C | 3.7% | 24.9hPa | 2.6V | 08:28:00 | 00:00:00 | 00:00:00 | |
| DG1MFX-10 | 2026-09-06 00:35:58 | 47.71264 | 12.80441 | 310° | 11km/h | 25498m | -34.5m/s | -50.9°C | 1.1% | 24.8hPa | 2.5V | 08:28:00 | 00:00:00 | 00:00:00 | |
| OE5DXL-15 | 2026-09-06 00:35:52 | 47.71253 | 12.80447 | 18° | 16km/h | 25708m | -36.1m/s | -51.0°C | 3.8% | 23.9hPa | 2.5V | 00:00:00 | 00:00:00 | 00:00:00 | |
| IN3HCDX | 2026-09-06 00:35:41 | 47.71220 | 12.80399 | 70° | 18km/h | 26112m | -36.5m/s | -50.4°C | 1.0% | 22.5hPa | 2.5V | 08:28:00 | 00:00:00 | 00:00:00 | |
| DG1MFX-10 | 2026-09-06 00:35:37 | 47.71216 | 12.80373 | 102° | 18km/h | 26255m | -36.0m/s | -50.1°C | 1.0% | 22.0hPa | 2.5V | 08:28:00 | 00:00:00 | 00:00:00 | |
| DL1ZP-14 | 2026-09-06 00:35:33 | 47.71223 | 12.80341 | 118° | 18km/h | 26432m | -33.0m/s | 0°C | -1.0% | -1.0hPa | 2.5V | 00:00:00 | 00:00:00 | 00:00:00 | |
| OE5DRO-10 | 2026-09-06 00:35:24 | 47.71242 | 12.80297 | 154° | 9km/h | 26697m | -32.8m/s | -50.1°C | 3.8% | 20.4hPa | 2.6V | 00:00:00 | 00:00:00 | 00:00:00 | |
| OE5DXL-15 | 2026-09-06 00:35:22 | 47.71247 | 12.80293 | 148° | 9km/h | 26766m | -35.3m/s | -50.0°C | 3.8% | 20.3hPa | 2.6V | 00:00:00 | 00:00:00 | 00:00:00 | |
| IN3HCDX | 2026-09-06 00:35:20 | 47.71251 | 12.80290 | 149° | 11km/h | 26837m | -34.2m/s | -49.7°C | 1.0% | 20.1hPa | 2.6V | 08:28:00 | 00:00:00 | 00:00:00 | |
| BAUMI2-15 | 2026-09-06 00:35:19 | 47.71254 | 12.80288 | 138° | 11km/h | 26871m | -33.9m/s | -49.6°C | 3.7% | 20.0hPa | 2.6V | 00:00:00 | 02:05:52 | 00:00:00 | |
| DG1MFX-10 | 2026-09-06 00:35:15 | 47.71259 | 12.80279 | 132° | 11km/h | 26971m | -32.5m/s | -48.8°C | 1.0% | 19.7hPa | 2.6V | 08:28:00 | 00:00:00 | 00:00:00 | |
| BAUMI2-15 | 2026-09-06 00:35:14 | 47.71262 | 12.80273 | 128° | 7km/h | 27037m | -33.8m/s | -48.2°C | 3.3% | 19.4hPa | 2.6V | 00:00:00 | 02:05:47 | 00:00:00 | |
| BAUMI2-15 | 2026-09-06 00:35:09 | 47.71271 | 12.80265 | 186° | 9km/h | 27212m | -35.5m/s | -47.6°C | 3.1% | 18.9hPa | 2.6V | 00:00:00 | 02:05:42 | 00:00:00 | |
| OE5FHM-15 | 2026-09-06 00:35:07 | 47.71275 | 12.80267 | 219° | 11km/h | 27283m | -35.8m/s | -47.5°C | 3.1% | 18.7hPa | 2.6V | 00:00:00 | 02:05:40 | 00:00:00 | |
| OE5DRO-10 | 2026-09-06 00:35:05 | 47.71278 | 12.80271 | 219° | 18km/h | 27354m | -35.5m/s | -47.8°C | 3.2% | 18.5hPa | 2.6V | 00:00:00 | 00:00:00 | 00:00:00 | |
| BAUMI2-15 | 2026-09-06 00:35:04 | 47.71280 | 12.80273 | 221° | 9km/h | 27388m | -34.5m/s | -47.8°C | 3.2% | 18.4hPa | 2.6V | 00:00:00 | 02:05:37 | 00:00:00 | |
| OE5HKT-10 | 2026-09-06 00:34:59 | 47.71287 | 12.80288 | 255° | 13km/h | 27559m | -34.0m/s | -47.9°C | 3.3% | 17.9hPa | 2.6V | 08:29:00 | 00:00:00 | 00:00:00 | |
| IN3HCDX | 2026-09-06 00:34:58 | 47.71287 | 12.80288 | 256° | 13km/h | 27559m | -34.0m/s | -48.0°C | 0.9% | 17.9hPa | 2.6V | 00:00:00 | 00:00:00 | 00:00:00 | |
| BAUMI2-15 | 2026-09-06 00:34:54 | 47.71281 | 12.80305 | 336° | 13km/h | 27737m | -37.9m/s | -48.3°C | 3.6% | 17.4hPa | 2.6V | 08:29:00 | 02:05:27 | 00:00:00 | |
| OE5DXL-15 | 2026-09-06 00:34:52 | 47.71276 | 12.80306 | 357° | 18km/h | 27812m | -38.0m/s | -47.8°C | 3.4% | 17.2hPa | 2.6V | 00:00:00 | 00:00:00 | 00:00:00 | |
| BAUMI2-15 | 2026-09-06 00:34:50 | 47.71266 | 12.80303 | 26° | 13km/h | 27925m | -37.8m/s | -47.7°C | 3.4% | 17.0hPa | 2.6V | 00:00:00 | 02:05:22 | 00:00:00 | |
| BAUMI2-15 | 2026-09-06 00:34:44 | 47.71256 | 12.80286 | 52° | 11km/h | 28122m | -42.1m/s | -47.0°C | 3.3% | 16.5hPa | 2.6V | 00:00:00 | 02:05:17 | 00:00:00 | |
| OE8JPQ-2 | 2026-09-06 00:34:43 | 47.71254 | 12.80284 | 46° | 20km/h | 28164m | -39.9m/s | -46.9°C | 3.3% | 16.3hPa | 2.6V | 00:00:00 | 00:00:00 | 00:00:00 | |
| BAUMI2-15 | 2026-09-06 00:34:39 | 47.71247 | 12.80268 | 78° | 22km/h | 28324m | -38.7m/s | -46.2°C | 3.2% | 15.9hPa | 2.6V | 00:00:00 | 02:05:12 | 00:00:00 | |
| IN3HCDX | 2026-09-06 00:34:38 | 47.71247 | 12.80261 | 92° | 20km/h | 28363m | -39.4m/s | -46.2°C | 0.8% | 15.9hPa | 2.5V | 00:00:00 | 00:00:00 | 00:00:00 | |
| OE5FHM-15 | 2026-09-06 00:34:37 | 47.71247 | 12.80254 | 103° | 24km/h | 28402m | -39.8m/s | -46.1°C | 3.2% | 15.7hPa | 2.5V | 08:29:00 | 02:05:10 | 00:00:00 | |
| BAUMI2-15 | 2026-09-06 00:34:34 | 47.71255 | 12.80230 | 128° | 26km/h | 28523m | -39.7m/s | -46.1°C | 3.3% | 15.5hPa | 2.6V | 00:00:00 | 02:05:07 | 00:00:00 | |
| BAUMI2-15 | 2026-09-06 00:34:29 | 47.71277 | 12.80195 | 145° | 20km/h | 28719m | -41.3m/s | -45.1°C | 3.1% | 15.0hPa | 2.6V | 00:00:00 | 02:05:02 | 00:00:00 | |
| BAUMI2-15 | 2026-09-06 00:34:24 | 47.71295 | 12.80170 | 129° | 20km/h | 28927m | -41.3m/s | -44.4°C | 2.9% | 14.5hPa | 2.6V | 00:00:00 | 02:04:57 | 00:00:00 | |
| OE8JPQ-2 | 2026-09-06 00:34:23 | 47.71297 | 12.80164 | 129° | 26km/h | 28968m | -42.0m/s | -44.4°C | 3.0% | 14.4hPa | 2.5V | 00:00:00 | 00:00:00 | 00:00:00 | |
| OE5DXL-15 | 2026-09-06 00:34:22 | 47.71300 | 12.80158 | 120° | 26km/h | 29011m | -43.6m/s | -44.3°C | 2.9% | 14.3hPa | 2.5V | 00:00:00 | 00:00:00 | 00:00:00 | |
| BAUMI2-15 | 2026-09-06 00:34:19 | 47.71308 | 12.80138 | 112° | 26km/h | 29138m | -42.1m/s | -43.7°C | 2.8% | 14.1hPa | 2.6V | 00:00:00 | 02:04:52 | 00:00:00 | |
| OE5HKT-10 | 2026-09-06 00:34:17 | 47.71312 | 12.80120 | 104° | 27km/h | 29223m | -41.0m/s | -43.0°C | 2.6% | 13.9hPa | 2.6V | 00:00:00 | 02:04:50 | 00:00:00 | |
| IN3HCDX | 2026-09-06 00:34:16 | 47.71312 | 12.80120 | 105° | 26km/h | 29223m | -41.0m/s | -43.1°C | 0.7% | 13.9hPa | 2.6V | 00:00:00 | 00:00:00 | 00:00:00 | |
| IV3AMH | 2026-09-06 00:34:11 | 47.71325 | 12.80067 | 122° | 27km/h | 29430m | -44.3m/s | 0°C | 0% | 0hPa | 2.6V | 00:00:00 | 00:00:00 | 00:00:00 | |
| BAUMI2-15 | 2026-09-06 00:34:09 | 47.71336 | 12.80041 | 126° | 27km/h | 29562m | -45.4m/s | -42.6°C | 2.5% | 13.2hPa | 2.6V | 00:00:00 | 02:04:42 | 08:30:00 | |
| OE5FHM-15 | 2026-09-06 00:34:07 | 47.71343 | 12.80025 | 123° | 18km/h | 29653m | -44.8m/s | -42.7°C | 2.5% | 13.0hPa | 2.5V | 00:00:00 | 02:04:40 | 00:00:00 | |
| BAUMI2-15 | 2026-09-06 00:34:04 | 47.71355 | 12.79999 | 128° | 27km/h | 29786m | -44.1m/s | -42.8°C | 2.5% | 12.7hPa | 2.5V | 00:00:00 | 02:04:37 | 00:00:00 | |
| OE8JPQ-2 | 2026-09-06 00:34:03 | 47.71359 | 12.79992 | 130° | 18km/h | 29829m | -42.5m/s | -42.9°C | 2.5% | 12.7hPa | 2.5V | 00:00:00 | 02:04:36 | 00:00:00 | |
| BAUMI2-15 | 2026-09-06 00:33:59 | 47.71380 | 12.79967 | 151° | 24km/h | 29996m | -41.6m/s | -42.8°C | 2.5% | 12.3hPa | 2.5V | 00:00:00 | 02:04:32 | 00:00:00 | |
| OE5HKT-10 | 2026-09-06 00:33:56 | 47.71397 | 12.79957 | 166° | 13km/h | 30118m | -38.8m/s | -42.9°C | 2.5% | 12.1hPa | 2.5V | 00:00:00 | 00:00:00 | 00:00:00 | |
| IN3HCDX | 2026-09-06 00:33:55 | 47.71397 | 12.79957 | 167° | 24km/h | 30118m | -38.8m/s | -43.0°C | 0.7% | 12.1hPa | 2.6V | 00:00:00 | 00:00:00 | 00:00:00 | |
| BAUMI2-15 | 2026-09-06 00:33:54 | 47.71408 | 12.79954 | 170° | 15km/h | 30191m | -34.5m/s | -43.1°C | 2.5% | 11.9hPa | 2.6V | 00:00:00 | 02:04:27 | 00:00:00 | |
| OE5DXL-15 | 2026-09-06 00:33:52 | 47.71417 | 12.79952 | 168° | 13km/h | 30255m | -30.7m/s | -43.3°C | 2.6% | 11.8hPa | 2.6V | 00:00:00 | 00:00:00 | 00:00:00 | |
| BAUMI2-15 | 2026-09-06 00:33:49 | 47.71425 | 12.79948 | 152° | 7km/h | 30335m | -22.1m/s | -43.3°C | 2.5% | 11.6hPa | 2.6V | 00:00:00 | 02:04:22 | 00:00:00 | |
| BAUMI2-15 | 2026-09-06 00:33:44 | 47.71435 | 12.79947 | 209° | 13km/h | 30436m | -22.3m/s | -43.3°C | 2.6% | 11.4hPa | 2.6V | 00:00:00 | 02:04:17 | 00:00:00 | |
| OE8JPQ-2 | 2026-09-06 00:33:43 | 47.71438 | 12.79949 | 210° | 15km/h | 30454m | -13.2m/s | -43.3°C | 2.6% | 11.4hPa | 2.6V | 00:00:00 | 00:00:00 | 08:30:00 | |
| BAUMI2-15 | 2026-09-06 00:33:39 | 47.71448 | 12.79960 | 234° | 11km/h | 30450m | 4.6m/s | -43.4°C | 2.6% | 11.4hPa | 2.6V | 00:00:00 | 02:04:12 | 00:00:00 | |
| OE5FHM-15 | 2026-09-06 00:33:37 | 47.71452 | 12.79965 | 205° | 16km/h | 30440m | 6.0m/s | -43.4°C | 2.6% | 11.4hPa | 2.6V | 00:00:00 | 02:04:10 | 00:00:00 | |
| OE5HKT-10 | 2026-09-06 00:33:35 | 47.71458 | 12.79966 | 165° | 16km/h | 30429m | 5.1m/s | -43.5°C | 2.6% | 11.4hPa | 2.6V | 00:00:00 | 00:00:00 | 00:00:00 | |
| BAUMI2-15 | 2026-09-06 00:33:34 | 47.71461 | 12.79964 | 152° | 13km/h | 30424m | 5.2m/s | -43.4°C | 2.6% | 11.4hPa | 2.6V | 00:00:00 | 02:04:07 | 00:00:00 | |
| DG1MFX-10 | 2026-09-06 00:33:32 | 47.71464 | 12.79961 | 144° | 13km/h | 30418m | 6.5m/s | -43.5°C | 0.7% | 11.5hPa | 2.6V | 00:00:00 | 00:00:00 | 00:00:00 | |
| BAUMI2-15 | 2026-09-06 00:33:29 | 47.71475 | 12.79952 | 177° | 22km/h | 30397m | 6.2m/s | -43.5°C | 2.6% | 11.5hPa | 2.6V | 00:00:00 | 02:04:02 | 00:00:00 | |
| OE8JPQ-2 | 2026-09-06 00:33:23 | 47.71501 | 12.79962 | 189° | 20km/h | 30365m | 4.5m/s | -43.6°C | 2.7% | 11.5hPa | 2.6V | 00:00:00 | 00:00:00 | 00:00:00 | |
| OE5DXL-15 | 2026-09-06 00:33:22 | 47.71503 | 12.79962 | 175° | 22km/h | 30361m | 4.8m/s | -43.6°C | 2.7% | 11.6hPa | 2.6V | 00:00:00 | 00:00:00 | 00:00:00 | |
| IN3HCDX | 2026-09-06 00:33:14 | 47.71535 | 12.79943 | 149° | 15km/h | 30318m | 4.2m/s | -43.8°C | 0.7% | 11.7hPa | 2.6V | 00:00:00 | 00:00:00 | 00:00:00 | |
| DG1MFX-10 | 2026-09-06 00:33:12 | 47.71538 | 12.79940 | 150° | 18km/h | 30314m | 5.2m/s | -43.8°C | 0.7% | 11.7hPa | 2.6V | 00:00:00 | 00:00:00 | 00:00:00 | |
| OE8JPQ-2 | 2026-09-06 00:33:03 | 47.71594 | 12.79923 | 175° | 27km/h | 30259m | 5.7m/s | -43.6°C | 2.7% | 11.7hPa | 2.6V | 00:00:00 | 02:03:36 | 00:00:00 | |
| OE5HKT-10 | 2026-09-06 00:32:53 | 47.71655 | 12.79882 | 158° | 29km/h | 30204m | 4.6m/s | -43.5°C | 2.6% | 11.8hPa | 2.6V | 00:00:00 | 00:00:00 | 00:00:00 | |
| DG1MFX-10 | 2026-09-06 00:32:52 | 47.71664 | 12.79877 | 160° | 35km/h | 30199m | 4.9m/s | -43.5°C | 0.7% | 11.9hPa | 2.6V | 00:00:00 | 00:00:00 | 00:00:00 | |
| OE8JPQ-2 | 2026-09-06 00:32:43 | 47.71714 | 12.79834 | 138° | 31km/h | 30149m | 6.5m/s | -43.6°C | 2.7% | 11.9hPa | 2.6V | 00:00:00 | 00:00:00 | 00:00:00 | |
| OE5FHM-15 | 2026-09-06 00:32:37 | 47.71757 | 12.79790 | 155° | 31km/h | 30116m | 4.6m/s | -43.6°C | 2.7% | 12.0hPa | 2.5V | 00:00:00 | 02:03:10 | 00:00:00 | |
| OE5HKT-10 | 2026-09-06 00:32:32 | 47.71784 | 12.79759 | 124° | 31km/h | 30088m | 6.1m/s | -43.5°C | 2.7% | 12.1hPa | 2.5V | 00:00:00 | 00:00:00 | 00:00:00 | |
| DG1MFX-10 | 2026-09-06 00:32:31 | 47.71784 | 12.79759 | 124° | 27km/h | 30088m | 6.2m/s | -43.6°C | 0.8% | 12.1hPa | 2.5V | 00:00:00 | 00:00:00 | 00:00:00 | |
| OE8JPQ-2 | 2026-09-06 00:32:23 | 47.71830 | 12.79680 | 166° | 29km/h | 30038m | 5.9m/s | -43.5°C | 2.6% | 12.1hPa | 2.5V | 00:00:00 | 00:00:00 | 00:00:00 | |
| OE5DXL-15 | 2026-09-06 00:32:22 | 47.71838 | 12.79677 | 171° | 29km/h | 30033m | 4.8m/s | -43.6°C | 2.6% | 12.1hPa | 2.5V | 00:00:00 | 00:00:00 | 00:00:00 | |
| OE5HKT-10 | 2026-09-06 00:32:11 | 47.71886 | 12.79587 | 125° | 27km/h | 29972m | 5.6m/s | -43.7°C | 2.6% | 12.2hPa | 2.5V | 00:00:00 | 02:02:44 | 00:00:00 | |
| DG1MFX-10 | 2026-09-06 00:32:10 | 47.71886 | 12.79587 | 125° | 31km/h | 29972m | 5.6m/s | -43.8°C | 0.7% | 12.3hPa | 2.5V | 00:00:00 | 00:00:00 | 00:00:00 | |
| OE5FHM-15 | 2026-09-06 00:32:07 | 47.71910 | 12.79562 | 160° | 29km/h | 29949m | 4.7m/s | -43.8°C | 2.7% | 12.3hPa | 2.5V | 00:00:00 | 02:02:40 | 00:00:00 | |
| OE8JPQ-2 | 2026-09-06 00:32:03 | 47.71932 | 12.79544 | 121° | 29km/h | 29928m | 4.9m/s | -43.8°C | 2.7% | 12.4hPa | 2.5V | 00:00:00 | 02:02:36 | 00:00:00 | |
| OE5DXL-15 | 2026-09-06 00:31:52 | 47.71972 | 12.79440 | 155° | 31km/h | 29867m | 6.4m/s | -43.7°C | 2.7% | 12.5hPa | 2.5V | 00:00:00 | 00:00:00 | 00:00:00 | |
| DG1MFX-10 | 2026-09-06 00:31:50 | 47.71981 | 12.79433 | 147° | 20km/h | 29856m | 4.5m/s | -43.7°C | 0.7% | 12.5hPa | 2.5V | 00:00:00 | 00:00:00 | 00:00:00 | |
| OE8JPQ-2 | 2026-09-06 00:31:43 | 47.72007 | 12.79359 | 123° | 33km/h | 29816m | 4.7m/s | -43.6°C | 2.7% | 12.5hPa | 2.5V | 00:00:00 | 00:00:00 | 00:00:00 | |
| IV3AMH | 2026-09-06 00:31:42 | 47.72007 | 12.79359 | 124° | 49km/h | 29816m | 4.7m/s | 0°C | 0% | 0hPa | 2.5V | 00:00:00 | 00:00:00 | 00:00:00 | |
| OE5FHM-15 | 2026-09-06 00:31:37 | 47.72038 | 12.79299 | 135° | 31km/h | 29785m | 5.4m/s | -43.6°C | 2.7% | 12.6hPa | 2.5V | 00:00:00 | 02:02:10 | 00:00:00 | |
| IN3HCDX | 2026-09-06 00:31:30 | 47.72074 | 12.79248 | 122° | 33km/h | 29747m | 5.8m/s | -43.7°C | 0.7% | 12.8hPa | 2.5V | 00:00:00 | 00:00:00 | 00:00:00 | |
| OE5HKT-10 | 2026-09-06 00:31:29 | 47.72078 | 12.79237 | 114° | 33km/h | 29741m | 5.4m/s | -43.6°C | 2.7% | 12.7hPa | 2.5V | 00:00:00 | 00:00:00 | 00:00:00 | |
| OE8JPQ-2 | 2026-09-06 00:31:23 | 47.72096 | 12.79156 | 110° | 29km/h | 29709m | 5.4m/s | -43.6°C | 2.7% | 12.8hPa | 2.5V | 00:00:00 | 00:00:00 | 00:00:00 | |
| OE5DXL-15 | 2026-09-06 00:31:22 | 47.72098 | 12.79146 | 114° | 33km/h | 29703m | 6.2m/s | -43.6°C | 2.7% | 12.8hPa | 2.5V | 00:00:00 | 00:00:00 | 00:00:00 | |
| BAUMI2-15 | 2026-09-06 00:31:17 | 47.72119 | 12.79123 | 154° | 31km/h | 29675m | 4.7m/s | -43.5°C | 2.7% | 12.8hPa | 2.6V | 00:00:00 | 02:01:50 | 00:00:00 | |
| BAUMI2-15 | 2026-09-06 00:31:12 | 47.72142 | 12.79079 | 100° | 38km/h | 29647m | 5.9m/s | -43.4°C | 2.7% | 12.9hPa | 2.6V | 00:00:00 | 02:01:45 | 00:00:00 | |
| DG1MFX-10 | 2026-09-06 00:31:08 | 47.72146 | 12.79035 | 100° | 38km/h | 29630m | 4.2m/s | -43.5°C | 0.7% | 13.0hPa | 2.6V | 00:00:00 | 00:00:00 | 00:00:00 | |
| OE5FHM-15 | 2026-09-06 00:31:07 | 47.72149 | 12.79010 | 103° | 33km/h | 29620m | 6.4m/s | -43.5°C | 2.7% | 12.9hPa | 2.6V | 00:00:00 | 02:01:40 | 00:00:00 | |
| OE8JPQ-2 | 2026-09-06 00:31:03 | 47.72160 | 12.78984 | 142° | 37km/h | 29599m | 5.9m/s | -43.5°C | 2.7% | 13.0hPa | 2.6V | 00:00:00 | 02:01:36 | 00:00:00 | |
| BAUMI2-15 | 2026-09-06 00:31:02 | 47.72165 | 12.78977 | 139° | 38km/h | 29593m | 5.7m/s | -43.5°C | 2.7% | 13.0hPa | 2.6V | 00:00:00 | 02:01:35 | 00:00:00 | |
| BAUMI2-15 | 2026-09-06 00:30:57 | 47.72186 | 12.78911 | 94° | 40km/h | 29567m | 5.0m/s | -43.5°C | 2.7% | 13.0hPa | 2.6V | 00:00:00 | 02:01:30 | 00:00:00 | |
| BAUMI2-15 | 2026-09-06 00:30:52 | 47.72188 | 12.78836 | 99° | 29km/h | 29541m | 4.4m/s | -43.5°C | 2.6% | 13.1hPa | 2.6V | 00:00:00 | 02:01:25 | 00:00:00 | |
| IN3HCDX | 2026-09-06 00:30:48 | 47.72195 | 12.78794 | 118° | 27km/h | 29520m | 4.5m/s | -43.5°C | 0.7% | 13.2hPa | 2.6V | 00:00:00 | 00:00:00 | 00:00:00 | |
| OE5HKT-10 | 2026-09-06 00:30:47 | 47.72198 | 12.78784 | 124° | 29km/h | 29514m | 6.6m/s | -43.5°C | 2.6% | 13.2hPa | 2.6V | 00:00:00 | 00:00:00 | 00:00:00 | |
| OE8JPQ-2 | 2026-09-06 00:30:43 | 47.72218 | 12.78738 | 111° | 29km/h | 29493m | 6.2m/s | -43.6°C | 2.7% | 13.2hPa | 2.5V | 00:00:00 | 00:00:00 | 08:30:00 | |
| BAUMI2-15 | 2026-09-06 00:30:42 | 47.72221 | 12.78725 | 99° | 33km/h | 29487m | 6.1m/s | -43.7°C | 2.7% | 13.2hPa | 2.5V | 00:00:00 | 02:01:15 | 00:00:00 | |
| OE5FHM-15 | 2026-09-06 00:30:37 | 47.72220 | 12.78667 | 99° | 24km/h | 29460m | 4.8m/s | -43.6°C | 2.7% | 13.3hPa | 2.5V | 00:00:00 | 02:01:10 | 00:00:00 | |
| BAUMI2-15 | 2026-09-06 00:30:32 | 47.72229 | 12.78618 | 113° | 22km/h | 29433m | 5.0m/s | -43.5°C | 2.6% | 13.3hPa | 2.5V | 00:00:00 | 02:01:05 | 00:00:00 | |
| IN3HCDX | 2026-09-06 00:30:27 | 47.72243 | 12.78581 | 100° | 26km/h | 29406m | 6.2m/s | -43.6°C | 0.7% | 13.4hPa | 2.5V | 00:00:00 | 00:00:00 | 00:00:00 | |
| OE5HKT-10 | 2026-09-06 00:30:26 | 47.72243 | 12.78571 | 83° | 24km/h | 29399m | 6.8m/s | -43.5°C | 2.6% | 13.4hPa | 2.5V | 00:00:00 | 00:00:00 | 00:00:00 | |
| OE8JPQ-2 | 2026-09-06 00:30:23 | 47.72237 | 12.78536 | 78° | 22km/h | 29383m | 5.4m/s | -43.6°C | 2.7% | 13.4hPa | 2.5V | 00:00:00 | 00:00:00 | 00:00:00 | |
| OE5DXL-15 | 2026-09-06 00:30:22 | 47.72236 | 12.78525 | 87° | 24km/h | 29378m | 5.4m/s | -43.6°C | 2.6% | 13.4hPa | 2.5V | 00:00:00 | 00:00:00 | 00:00:00 | |
| PG1ADW-2 | 2026-09-06 00:30:17 | 47.72248 | 12.78488 | 128° | 26km/h | 29340m | 5.0m/s | -43.8°C | 2.6% | 13.5hPa | 2.5V | 00:00:00 | 02:00:48 | 08:30:00 | |
| BAUMI2-15 | 2026-09-06 00:30:13 | 47.72257 | 12.78469 | 116° | 27km/h | 29323m | 5.1m/s | -43.9°C | 2.7% | 13.5hPa | 2.6V | 00:00:00 | 02:00:45 | 00:00:00 | |
| DG1MFX-10 | 2026-09-06 00:30:08 | 47.72258 | 12.78429 | 74° | 27km/h | 29300m | 4.6m/s | -44.0°C | 0.7% | 13.7hPa | 2.6V | 00:00:00 | 00:00:00 | 00:00:00 | |
| OE5FHM-15 | 2026-09-06 00:30:07 | 47.72256 | 12.78420 | 76° | 22km/h | 29296m | 4.0m/s | -44.0°C | 2.6% | 13.6hPa | 2.6V | 00:00:00 | 02:00:40 | 08:30:00 | |
| OE5HKT-10 | 2026-09-06 00:30:05 | 47.72256 | 12.78403 | 109° | 24km/h | 29285m | 6.5m/s | -44.0°C | 2.6% | 13.6hPa | 2.5V | 00:00:00 | 02:00:38 | 00:00:00 | |
| IN3HCDX | 2026-09-06 00:30:04 | 47.72256 | 12.78403 | 110° | 20km/h | 29285m | 6.5m/s | -44.0°C | 0.7% | 13.7hPa | 2.5V | 00:00:00 | 00:00:00 | 00:00:00 | |
| OE8JPQ-2 | 2026-09-06 00:30:03 | 47.72264 | 12.78390 | 148° | 24km/h | 29273m | 5.5m/s | -44.1°C | 2.6% | 13.7hPa | 2.5V | 00:00:00 | 02:00:36 | 00:00:00 | |
| BAUMI2-15 | 2026-09-06 00:29:57 | 47.72291 | 12.78348 | 109° | 26km/h | 29240m | 5.6m/s | -44.5°C | 2.7% | 13.7hPa | 2.5V | 00:00:00 | 02:00:30 | 00:00:00 | |
| PG1ADW-2 | 2026-09-06 00:29:53 | 47.72292 | 12.78310 | 67° | 15km/h | 29218m | 6.3m/s | -44.8°C | 2.8% | 13.8hPa | 2.5V | 00:00:00 | 00:00:00 | 00:00:00 | |
| OE5DXL-15 | 2026-09-06 00:29:52 | 47.72290 | 12.78305 | 53° | 20km/h | 29213m | 4.9m/s | -44.9°C | 2.8% | 13.8hPa | 2.5V | 00:00:00 | 00:00:00 | 00:00:00 | |
| DG1MFX-10 | 2026-09-06 00:29:47 | 47.72303 | 12.78290 | 147° | 33km/h | 29187m | 5.5m/s | -45.1°C | 0.8% | 13.9hPa | 2.6V | 00:00:00 | 00:00:00 | 00:00:00 | |
| OE5HKT-10 | 2026-09-06 00:29:44 | 47.72321 | 12.78265 | 130° | 20km/h | 29173m | 5.3m/s | -45.1°C | 2.8% | 13.9hPa | 2.6V | 00:00:00 | 00:00:00 | 00:00:00 | |
| OE8JPQ-2 | 2026-09-06 00:29:43 | 47.72325 | 12.78258 | 119° | 20km/h | 29167m | 6.2m/s | -45.1°C | 2.8% | 13.9hPa | 2.6V | 00:00:00 | 00:00:00 | 00:00:00 | |
| BAUMI2-15 | 2026-09-06 00:29:42 | 47.72327 | 12.78252 | 97° | 13km/h | 29161m | 6.4m/s | -45.1°C | 2.8% | 13.9hPa | 2.5V | 00:00:00 | 02:00:15 | 00:00:00 | |
| BAUMI2-15 | 2026-09-06 00:29:37 | 47.72324 | 12.78231 | 113° | 20km/h | 29133m | 5.0m/s | -45.2°C | 2.8% | 13.9hPa | 2.5V | 00:00:00 | 02:00:10 | 00:00:00 | |
| BAUMI2-15 | 2026-09-06 00:29:32 | 47.72345 | 12.78201 | 134° | 37km/h | 29104m | 6.8m/s | -45.3°C | 2.9% | 14.0hPa | 2.5V | 00:00:00 | 02:00:05 | 00:00:00 | |
| BAUMI2-15 | 2026-09-06 00:29:27 | 47.72371 | 12.78149 | 130° | 9km/h | 29078m | 5.7m/s | -45.4°C | 2.9% | 14.1hPa | 2.5V | 00:00:00 | 02:00:00 | 00:00:00 | |
| DG1MFX-10 | 2026-09-06 00:29:26 | 47.72371 | 12.78149 | 131° | 16km/h | 29078m | 5.7m/s | -45.5°C | 0.8% | 14.1hPa | 2.5V | 00:00:00 | 00:00:00 | 00:00:00 | |
| PG1ADW-2 | 2026-09-06 00:29:25 | 47.72374 | 12.78145 | 151° | 11km/h | 29067m | 6.0m/s | -45.5°C | 2.9% | 14.1hPa | 2.5V | 00:00:00 | 00:00:00 | 00:00:00 | |
| IN3HCDX | 2026-09-06 00:29:24 | 47.72374 | 12.78145 | 152° | 5km/h | 29067m | 6.0m/s | -45.5°C | 0.8% | 14.1hPa | 2.5V | 00:00:00 | 00:00:00 | 00:00:00 | |
| OE8JPQ-2 | 2026-09-06 00:29:23 | 47.72377 | 12.78142 | 141° | 16km/h | 29055m | 5.2m/s | -45.5°C | 2.9% | 14.2hPa | 2.5V | 00:00:00 | 00:00:00 | 00:00:00 | |
| OE5DXL-15 | 2026-09-06 00:29:22 | 47.72378 | 12.78140 | 134° | 18km/h | 29050m | 4.9m/s | -45.5°C | 2.9% | 14.1hPa | 2.5V | 00:00:00 | 00:00:00 | 00:00:00 | |
| DG1MFX-10 | 2026-09-06 00:29:07 | 47.72409 | 12.78074 | 159° | 11km/h | 28967m | 6.0m/s | -45.3°C | 0.8% | 14.4hPa | 2.5V | 00:00:00 | 00:00:00 | 00:00:00 | |
| PG1ADW-2 | 2026-09-06 00:29:05 | 47.72416 | 12.78067 | 133° | 22km/h | 28956m | 5.2m/s | -45.2°C | 2.8% | 14.3hPa | 2.5V | 00:00:00 | 00:00:00 | 00:00:00 | |
| OE8JPQ-2 | 2026-09-06 00:29:03 | 47.72422 | 12.78054 | 125° | 24km/h | 28944m | 6.3m/s | -45.2°C | 2.8% | 14.3hPa | 2.5V | 00:00:00 | 01:59:36 | 00:00:00 | |
| OE5HKT-10 | 2026-09-06 00:29:02 | 47.72425 | 12.78048 | 122° | 24km/h | 28938m | 5.5m/s | -45.2°C | 2.8% | 14.4hPa | 2.5V | 00:00:00 | 01:59:35 | 00:00:00 | |
| OE5DXL-15 | 2026-09-06 00:28:52 | 47.72463 | 12.78014 | 175° | 33km/h | 28884m | 4.5m/s | -45.5°C | 2.8% | 14.5hPa | 2.5V | 00:00:00 | 00:00:00 | 00:00:00 | |
| DG1MFX-10 | 2026-09-06 00:28:45 | 47.72497 | 12.77971 | 138° | 31km/h | 28850m | 6.0m/s | -45.8°C | 0.8% | 14.6hPa | 2.5V | 00:00:00 | 00:00:00 | 00:00:00 | |
| OE8JPQ-2 | 2026-09-06 00:28:43 | 47.72511 | 12.77952 | 140° | 33km/h | 28834m | 5.5m/s | -45.8°C | 2.9% | 14.6hPa | 2.5V | 00:00:00 | 00:00:00 | 00:00:00 | |
| IN3HCDX | 2026-09-06 00:28:42 | 47.72511 | 12.77952 | 140° | 22km/h | 28834m | 5.5m/s | -45.8°C | 0% | 14.7hPa | 2.5V | 00:00:00 | 00:00:00 | 00:00:00 | |
| OE5HKT-10 | 2026-09-06 00:28:41 | 47.72520 | 12.77940 | 136° | 35km/h | 28822m | 6.2m/s | -45.8°C | 2.9% | 14.7hPa | 2.5V | 00:00:00 | 00:00:00 | 08:30:00 | |
| OE5FHM-15 | 2026-09-06 00:28:37 | 47.72545 | 12.77907 | 147° | 31km/h | 28799m | 6.4m/s | -45.9°C | 2.9% | 14.7hPa | 2.5V | 00:00:00 | 01:59:10 | 00:00:00 | |
| OE5DRO-10 | 2026-09-06 00:28:30 | 47.72589 | 12.77835 | 108° | 31km/h | 28759m | 5.7m/s | -46.0°C | 2.9% | 14.8hPa | 2.5V | 00:00:00 | 00:00:00 | 00:00:00 | |
| DG1MFX-10 | 2026-09-06 00:28:25 | 47.72601 | 12.77791 | 122° | 31km/h | 28737m | 5.6m/s | -46.0°C | 0.8% | 14.9hPa | 2.5V | 00:00:00 | 00:00:00 | 00:00:00 | |
| OE8JPQ-2 | 2026-09-06 00:28:23 | 47.72616 | 12.77760 | 129° | 26km/h | 28720m | 5.1m/s | -46.0°C | 2.9% | 14.9hPa | 2.5V | 00:00:00 | 00:00:00 | 00:00:00 | |
| IN3HCDX | 2026-09-06 00:28:22 | 47.72621 | 12.77750 | 130° | 33km/h | 28715m | 6.4m/s | -46.1°C | 0% | 14.9hPa | 2.5V | 00:00:00 | 00:00:00 | 00:00:00 | |
| OE5HKT-10 | 2026-09-06 00:28:20 | 47.72631 | 12.77733 | 127° | 24km/h | 28702m | 5.7m/s | -46.2°C | 2.9% | 14.9hPa | 2.5V | 00:00:00 | 00:00:00 | 00:00:00 | |
| OE5WHR-10 | 2026-09-06 00:28:18 | 47.72638 | 12.77716 | 124° | 22km/h | 28690m | 6.5m/s | -46.3°C | 3.0% | 14.9hPa | 2.5V | 00:00:00 | 01:58:51 | 00:00:00 | |
| OE5DRO-10 | 2026-09-06 00:28:11 | 47.72660 | 12.77667 | 131° | 20km/h | 28652m | 5.5m/s | -46.3°C | 2.9% | 15.0hPa | 2.5V | 00:00:00 | 00:00:00 | 00:00:00 | |
| OE5FHM-15 | 2026-09-06 00:28:07 | 47.72676 | 12.77635 | 118° | 18km/h | 28630m | 5.5m/s | -46.4°C | 3.0% | 15.1hPa | 2.5V | 00:00:00 | 01:58:40 | 00:00:00 | |
| DG1MFX-10 | 2026-09-06 00:28:04 | 47.72680 | 12.77618 | 94° | 22km/h | 28618m | 5.7m/s | -46.6°C | 0.9% | 15.2hPa | 2.5V | 00:00:00 | 00:00:00 | 00:00:00 | |
| OE8JPQ-2 | 2026-09-06 00:28:03 | 47.72678 | 12.77601 | 78° | 20km/h | 28607m | 6.4m/s | -46.5°C | 3.0% | 15.2hPa | 2.5V | 00:00:00 | 01:58:36 | 00:00:00 | |
| IN3HCDX | 2026-09-06 00:28:01 | 47.72676 | 12.77582 | 83° | 26km/h | 28595m | 5.0m/s | -46.7°C | 0% | 15.2hPa | 2.5V | 00:00:00 | 00:00:00 | 00:00:00 | |
| OE5HKT-10 | 2026-09-06 00:27:59 | 47.72674 | 12.77566 | 83° | 16km/h | 28586m | 5.1m/s | -46.6°C | 3.0% | 15.2hPa | 2.5V | 00:00:00 | 01:58:32 | 00:00:00 | |
| OE5WHR-10 | 2026-09-06 00:27:55 | 47.72673 | 12.77549 | 109° | 18km/h | 28562m | 6.1m/s | -46.6°C | 3.1% | 15.2hPa | 2.5V | 00:00:00 | 00:00:00 | 00:00:00 | |
| OE5DXL-15 | 2026-09-06 00:27:52 | 47.72677 | 12.77531 | 102° | 16km/h | 28545m | 4.4m/s | -46.6°C | 3.0% | 15.3hPa | 2.5V | 00:00:00 | 00:00:00 | 00:00:00 | |
| OE5DRO-10 | 2026-09-06 00:27:51 | 47.72678 | 12.77523 | 90° | 16km/h | 28540m | 5.2m/s | -46.6°C | 3.0% | 15.3hPa | 2.5V | 00:00:00 | 00:00:00 | 00:00:00 | |
| OE8JPQ-2 | 2026-09-06 00:27:43 | 47.72664 | 12.77461 | 86° | 15km/h | 28495m | 4.9m/s | -46.5°C | 3.0% | 15.4hPa | 2.5V | 00:00:00 | 00:00:00 | 08:30:00 | |
| IN3HCDX | 2026-09-06 00:27:39 | 47.72662 | 12.77449 | 66° | 11km/h | 28479m | 4.9m/s | 0°C | 0% | 15.5hPa | 2.6V | 00:00:00 | 00:00:00 | 00:00:00 | |
| OE5HKT-10 | 2026-09-06 00:27:38 | 47.72659 | 12.77439 | 77° | 13km/h | 28466m | 6.2m/s | -46.6°C | 3.0% | 15.5hPa | 2.6V | 00:00:00 | 00:00:00 | 00:00:00 | |
| OE5FHM-15 | 2026-09-06 00:27:37 | 47.72658 | 12.77432 | 76° | 13km/h | 28461m | 5.1m/s | -46.6°C | 3.0% | 15.5hPa | 2.6V | 00:00:00 | 01:58:10 | 00:00:00 | |
| OE5WHR-10 | 2026-09-06 00:27:33 | 47.72650 | 12.77406 | 58° | 11km/h | 28438m | 4.6m/s | -46.5°C | 3.0% | 15.6hPa | 2.6V | 00:00:00 | 00:00:00 | 00:00:00 | |
| OE5DRO-10 | 2026-09-06 00:27:32 | 47.72647 | 12.77401 | 62° | 13km/h | 28433m | 6.4m/s | -46.5°C | 3.0% | 15.6hPa | 2.6V | 00:00:00 | 00:00:00 | 00:00:00 | |
| OE8JPQ-2 | 2026-09-06 00:27:23 | 47.72631 | 12.77379 | 80° | 13km/h | 28382m | 5.2m/s | -46.4°C | 3.0% | 15.7hPa | 2.5V | 00:00:00 | 00:00:00 | 00:00:00 | |
| BAUMI2-15 | 2026-09-06 00:27:22 | 47.72631 | 12.77376 | 83° | 9km/h | 28377m | 4.7m/s | -46.4°C | 3.0% | 15.7hPa | 2.5V | 00:00:00 | 01:57:55 | 00:00:00 | |
| IN3HCDX | 2026-09-06 00:27:19 | 47.72627 | 12.77368 | 36° | 11km/h | 28360m | 5.3m/s | 0°C | 0% | 0hPa | 2.6V | 00:00:00 | 00:00:00 | 00:00:00 | |
| OE5HKT-10 | 2026-09-06 00:27:18 | 47.72623 | 12.77362 | 46° | 16km/h | 28350m | 5.3m/s | -46.5°C | 3.0% | 15.8hPa | 2.6V | 00:00:00 | 00:00:00 | 00:00:00 | |
| OE5DRO-10 | 2026-09-06 00:27:13 | 47.72615 | 12.77339 | 72° | 15km/h | 28327m | 5.9m/s | -46.6°C | 3.0% | 15.8hPa | 2.6V | 00:00:00 | 00:00:00 | 00:00:00 | |
| OE5WHR-10 | 2026-09-06 00:27:12 | 47.72614 | 12.77334 | 69° | 13km/h | 28321m | 6.3m/s | -46.7°C | 3.0% | 15.8hPa | 2.6V | 00:00:00 | 01:57:45 | 00:00:00 | |
| OE5FHM-15 | 2026-09-06 00:27:07 | 47.72612 | 12.77316 | 83° | 16km/h | 28292m | 5.3m/s | -46.7°C | 3.0% | 15.9hPa | 2.6V | 00:00:00 | 01:57:40 | 00:00:00 | |
| OE8JPQ-2 | 2026-09-06 00:27:03 | 47.72604 | 12.77293 | 53° | 20km/h | 28270m | 4.8m/s | -46.8°C | 3.0% | 16.0hPa | 2.5V | 00:00:00 | 01:57:36 | 00:00:00 | |
| BAUMI2-15 | 2026-09-06 00:27:02 | 47.72601 | 12.77287 | 60° | 22km/h | 28264m | 6.2m/s | -46.9°C | 3.0% | 16.0hPa | 2.5V | 00:00:00 | 01:57:35 | 00:00:00 | |
| BAUMI2-15 | 2026-09-06 00:26:57 | 47.72595 | 12.77249 | 91° | 9km/h | 28235m | 5.9m/s | -47.1°C | 3.0% | 16.0hPa | 2.5V | 00:00:00 | 01:57:30 | 00:00:00 | |
| OE5HKT-10 | 2026-09-06 00:26:56 | 47.72595 | 12.77246 | 88° | 15km/h | 28230m | 5.1m/s | -47.1°C | 3.1% | 16.1hPa | 2.5V | 00:00:00 | 01:57:29 | 00:00:00 | |
| OE5DRO-10 | 2026-09-06 00:26:54 | 47.72595 | 12.77240 | 84° | 16km/h | 28219m | 6.0m/s | -47.2°C | 3.1% | 16.1hPa | 2.5V | 00:00:00 | 00:00:00 | 00:00:00 | |
| BAUMI2-15 | 2026-09-06 00:26:52 | 47.72593 | 12.77230 | 80° | 20km/h | 28208m | 4.5m/s | -47.3°C | 3.1% | 16.1hPa | 2.5V | 00:00:00 | 01:57:25 | 00:00:00 | |
| OE5WHR-10 | 2026-09-06 00:26:51 | 47.72592 | 12.77224 | 74° | 15km/h | 28203m | 5.1m/s | -47.3°C | 3.1% | 16.1hPa | 2.5V | 00:00:00 | 00:00:00 | 08:30:00 | |
| BAUMI2-15 | 2026-09-06 00:26:47 | 47.72580 | 12.77199 | 40° | 26km/h | 28181m | 5.2m/s | -47.4°C | 3.1% | 16.2hPa | 2.6V | 00:00:00 | 01:57:20 | 00:00:00 | |
| OE8JPQ-2 | 2026-09-06 00:26:43 | 47.72560 | 12.77171 | 51° | 15km/h | 28160m | 5.0m/s | -47.5°C | 3.1% | 16.2hPa | 2.6V | 00:00:00 | 00:00:00 | 00:00:00 | |
| BAUMI2-15 | 2026-09-06 00:26:42 | 47.72558 | 12.77167 | 52° | 4km/h | 28154m | 7.1m/s | -47.5°C | 3.1% | 16.2hPa | 2.6V | 00:00:00 | 01:57:15 | 00:00:00 | |
| OE5FHM-15 | 2026-09-06 00:26:37 | 47.72557 | 12.77162 | 57° | 16km/h | 28126m | 5.5m/s | -47.6°C | 3.1% | 16.3hPa | 2.6V | 00:00:00 | 01:57:10 | 00:00:00 | |
| OE5HKT-10 | 2026-09-06 00:26:35 | 47.72551 | 12.77153 | 38° | 16km/h | 28116m | 5.4m/s | -47.6°C | 3.1% | 16.3hPa | 2.6V | 00:00:00 | 00:00:00 | 00:00:00 | |
| BAUMI2-15 | 2026-09-06 00:26:32 | 47.72533 | 12.77138 | 22° | 20km/h | 28098m | 5.2m/s | -47.6°C | 3.1% | 16.4hPa | 2.6V | 00:00:00 | 01:57:05 | 00:00:00 | |
| BAUMI2-15 | 2026-09-06 00:26:27 | 47.72513 | 12.77119 | 45° | 11km/h | 28073m | 4.6m/s | -47.8°C | 3.1% | 16.4hPa | 2.6V | 00:00:00 | 01:57:00 | 00:00:00 | |
| OE5WHR-10 | 2026-09-06 00:26:24 | 47.72505 | 12.77117 | 341° | 15km/h | 28055m | 5.3m/s | -48.0°C | 3.2% | 16.5hPa | 2.6V | 00:00:00 | 00:00:00 | 00:00:00 | |
| OE8JPQ-2 | 2026-09-06 00:26:23 | 47.72502 | 12.77119 | 338° | 15km/h | 28050m | 5.0m/s | -48.1°C | 3.2% | 16.5hPa | 2.6V | 00:00:00 | 00:00:00 | 00:00:00 | |
| BAUMI2-15 | 2026-09-06 00:26:22 | 47.72499 | 12.77120 | 344° | 15km/h | 28044m | 6.5m/s | -48.1°C | 3.2% | 16.5hPa | 2.6V | 00:00:00 | 01:56:55 | 08:30:00 | |
| BAUMI2-15 | 2026-09-06 00:26:17 | 47.72482 | 12.77123 | 2° | 13km/h | 28015m | 4.6m/s | -48.4°C | 3.3% | 16.6hPa | 2.5V | 00:00:00 | 01:56:50 | 00:00:00 | |
| OE5DRO-10 | 2026-09-06 00:26:16 | 47.72479 | 12.77122 | 19° | 13km/h | 28010m | 5.6m/s | -48.4°C | 3.3% | 16.6hPa | 2.5V | 00:00:00 | 00:00:00 | 00:00:00 | |
| OE5HKT-10 | 2026-09-06 00:26:14 | 47.72474 | 12.77116 | 68° | 13km/h | 27998m | 5.7m/s | -48.4°C | 3.3% | 16.6hPa | 2.5V | 00:00:00 | 00:00:00 | 00:00:00 | |
| BAUMI2-15 | 2026-09-06 00:26:12 | 47.72472 | 12.77108 | 63° | 13km/h | 27987m | 6.0m/s | -48.3°C | 3.3% | 16.7hPa | 2.5V | 00:00:00 | 01:56:45 | 00:00:00 | |
| OE5FHM-15 | 2026-09-06 00:26:07 | 47.72458 | 12.77093 | 40° | 15km/h | 27959m | 5.8m/s | -48.2°C | 3.2% | 16.7hPa | 2.5V | 00:00:00 | 01:56:40 | 00:00:00 | |
| OE8JPQ-2 | 2026-09-06 00:26:03 | 47.72443 | 12.77079 | 11° | 13km/h | 27938m | 6.1m/s | -48.2°C | 3.2% | 16.8hPa | 2.5V | 00:00:00 | 01:56:36 | 00:00:00 | |
| OE5WHR-10 | 2026-09-06 00:26:02 | 47.72440 | 12.77079 | 351° | 13km/h | 27932m | 4.7m/s | -48.1°C | 3.2% | 16.8hPa | 2.5V | 00:00:00 | 01:56:35 | 00:00:00 | |
| DG1MFX-10 | 2026-09-06 00:26:01 | 47.72440 | 12.77079 | 352° | 13km/h | 27932m | 4.8m/s | -48.2°C | 0.9% | 16.9hPa | 2.5V | 00:00:00 | 00:00:00 | 00:00:00 | |
| BAUMI2-15 | 2026-09-06 00:25:57 | 47.72438 | 12.77090 | 247° | 9km/h | 27905m | 5.7m/s | -48.1°C | 3.2% | 16.9hPa | 2.5V | 00:00:00 | 01:56:30 | 00:00:00 | |
| OE5HKT-10 | 2026-09-06 00:25:53 | 47.72433 | 12.77098 | 3° | 16km/h | 27882m | 6.3m/s | -48.2°C | 3.2% | 17.0hPa | 2.5V | 00:00:00 | 01:56:26 | 00:00:00 | |
| BAUMI2-15 | 2026-09-06 00:25:52 | 47.72430 | 12.77097 | 19° | 16km/h | 27876m | 5.7m/s | -48.2°C | 3.2% | 17.0hPa | 2.5V | 00:00:00 | 01:56:25 | 00:00:00 | |
| BAUMI2-15 | 2026-09-06 00:25:47 | 47.72411 | 12.77098 | 320° | 16km/h | 27849m | 4.7m/s | -48.3°C | 3.2% | 17.0hPa | 2.6V | 00:00:00 | 01:56:20 | 00:00:00 | |
| OE8JPQ-2 | 2026-09-06 00:25:43 | 47.72408 | 12.77120 | 249° | 16km/h | 27827m | 4.5m/s | -48.6°C | 3.3% | 17.1hPa | 2.6V | 00:00:00 | 00:00:00 | 00:00:00 | |
| BAUMI2-15 | 2026-09-06 00:25:42 | 47.72410 | 12.77127 | 255° | 16km/h | 27822m | 5.5m/s | -48.8°C | 3.3% | 17.1hPa | 2.5V | 00:00:00 | 01:56:15 | 00:00:00 | |
| OE5WHR-10 | 2026-09-06 00:25:41 | 47.72410 | 12.77133 | 273° | 16km/h | 27816m | 5.7m/s | -48.8°C | 3.4% | 17.1hPa | 2.5V | 00:00:00 | 00:00:00 | 00:00:00 | |
| DG1MFX-10 | 2026-09-06 00:25:40 | 47.72410 | 12.77133 | 274° | 16km/h | 27816m | 5.8m/s | -48.9°C | 1.0% | 17.2hPa | 2.6V | 00:00:00 | 00:00:00 | 00:00:00 | |
| OE5DRO-10 | 2026-09-06 00:25:38 | 47.72404 | 12.77148 | 325° | 15km/h | 27800m | 5.7m/s | -48.9°C | 3.4% | 17.1hPa | 2.6V | 00:00:00 | 00:00:00 | 00:00:00 | |
| OE5FHM-15 | 2026-09-06 00:25:37 | 47.72401 | 12.77151 | 335° | 15km/h | 27794m | 5.9m/s | -48.9°C | 3.4% | 17.2hPa | 2.6V | 00:00:00 | 01:56:10 | 08:30:00 | |
| BAUMI2-15 | 2026-09-06 00:25:28 | 47.72384 | 12.77205 | 244° | 15km/h | 27740m | 5.0m/s | -48.8°C | 3.4% | 17.3hPa | 2.6V | 00:00:00 | 01:56:00 | 00:00:00 | |
| OE5DRO-10 | 2026-09-06 00:25:19 | 47.72384 | 12.77230 | 333° | 13km/h | 27696m | 5.9m/s | -48.7°C | 3.4% | 17.4hPa | 2.6V | 00:00:00 | 00:00:00 | 00:00:00 | |
| OE5MMP-10 | 2026-09-06 00:25:18 | 47.72382 | 12.77233 | 322° | 16km/h | 27690m | 5.7m/s | -48.7°C | 3.4% | 17.5hPa | 2.6V | 00:00:00 | 01:55:51 | 00:00:00 | |
| OE5HKT-10 | 2026-09-06 00:25:11 | 47.72392 | 12.77257 | 213° | 13km/h | 27652m | 6.5m/s | -48.5°C | 3.3% | 17.6hPa | 2.6V | 00:00:00 | 00:00:00 | 00:00:00 | |
| OE5FHM-15 | 2026-09-06 00:25:07 | 47.72406 | 12.77274 | 210° | 9km/h | 27631m | 6.5m/s | -48.4°C | 3.3% | 17.6hPa | 2.6V | 00:00:00 | 01:55:40 | 00:00:00 | |
| OE8JPQ-2 | 2026-09-06 00:25:03 | 47.72411 | 12.77273 | 211° | 9km/h | 27608m | 6.3m/s | -48.3°C | 3.3% | 17.7hPa | 2.6V | 00:00:00 | 01:55:36 | 00:00:00 | |
| OE5DRO-10 | 2026-09-06 00:25:00 | 47.72416 | 12.77280 | 218° | 11km/h | 27590m | 6.6m/s | -48.2°C | 3.3% | 17.7hPa | 2.6V | 00:00:00 | 00:00:00 | 00:00:00 | |
| DG1MFX-10 | 2026-09-06 00:24:59 | 47.72416 | 12.77280 | 218° | 13km/h | 27590m | 6.6m/s | -48.2°C | 0.9% | 17.8hPa | 2.6V | 00:00:00 | 00:00:00 | 00:00:00 | |
| OE5WHR-10 | 2026-09-06 00:24:57 | 47.72425 | 12.77292 | 230° | 9km/h | 27574m | 6.6m/s | -48.1°C | 3.2% | 17.8hPa | 2.6V | 00:00:00 | 01:55:30 | 00:00:00 | |
| OE5DXL-15 | 2026-09-06 00:24:52 | 47.72438 | 12.77307 | 152° | 9km/h | 27545m | 5.3m/s | -48.2°C | 3.3% | 17.9hPa | 2.6V | 00:00:00 | 00:00:00 | 00:00:00 | |
| OE5HKT-10 | 2026-09-06 00:24:50 | 47.72440 | 12.77304 | 91° | 9km/h | 27533m | 6.5m/s | -48.2°C | 3.3% | 17.9hPa | 2.6V | 00:00:00 | 01:55:23 | 00:00:00 | |
| OE8JPQ-2 | 2026-09-06 00:24:43 | 47.72446 | 12.77311 | 207° | 11km/h | 27495m | 5.1m/s | -48.2°C | 3.3% | 18.0hPa | 2.6V | 00:00:00 | 00:00:00 | 08:30:00 | |
| OE5DRO-10 | 2026-09-06 00:24:41 | 47.72452 | 12.77317 | 227° | 11km/h | 27484m | 5.4m/s | -48.2°C | 3.3% | 18.0hPa | 2.6V | 00:00:00 | 00:00:00 | 00:00:00 | |
| DG1MFX-10 | 2026-09-06 00:24:38 | 47.72456 | 12.77322 | 210° | 9km/h | 27473m | 6.3m/s | -48.2°C | 1.0% | 18.1hPa | 2.6V | 00:00:00 | 00:00:00 | 00:00:00 | |
| OE5FHM-15 | 2026-09-06 00:24:37 | 47.72460 | 12.77323 | 170° | 13km/h | 27462m | 4.8m/s | -48.1°C | 3.3% | 18.1hPa | 2.6V | 00:00:00 | 01:55:10 | 00:00:00 | |
| OE5WHR-10 | 2026-09-06 00:24:36 | 47.72462 | 12.77323 | 175° | 11km/h | 27457m | 5.2m/s | -48.1°C | 3.3% | 18.1hPa | 2.6V | 00:00:00 | 00:00:00 | 00:00:00 | |
| OE5HKT-10 | 2026-09-06 00:24:29 | 47.72476 | 12.77334 | 201° | 13km/h | 27416m | 4.7m/s | -48.0°C | 3.3% | 18.2hPa | 2.6V | 00:00:00 | 00:00:00 | 00:00:00 | |
| OE8JPQ-2 | 2026-09-06 00:24:23 | 47.72497 | 12.77345 | 169° | 13km/h | 27382m | 5.8m/s | -47.9°C | 3.2% | 18.3hPa | 2.5V | 00:00:00 | 00:00:00 | 00:00:00 | |
| OE5DXL-15 | 2026-09-06 00:24:22 | 47.72501 | 12.77343 | 159° | 13km/h | 27376m | 5.2m/s | -47.9°C | 3.2% | 18.3hPa | 2.5V | 00:00:00 | 00:00:00 | 00:00:00 | |
| DG1MFX-10 | 2026-09-06 00:24:18 | 47.72510 | 12.77336 | 153° | 7km/h | 27358m | 5.7m/s | -47.9°C | 0.9% | 18.4hPa | 2.5V | 00:00:00 | 00:00:00 | 00:00:00 | |
| OE5WHR-10 | 2026-09-06 00:24:15 | 47.72520 | 12.77335 | 184° | 13km/h | 27335m | 5.2m/s | -47.8°C | 3.2% | 18.4hPa | 2.5V | 00:00:00 | 00:00:00 | 00:00:00 | |
| OE5HKT-10 | 2026-09-06 00:24:08 | 47.72543 | 12.77340 | 143° | 13km/h | 27295m | 5.0m/s | -47.5°C | 3.1% | 18.6hPa | 2.5V | 00:00:00 | 00:00:00 | 00:00:00 | |
| OE5FHM-15 | 2026-09-06 00:24:07 | 47.72545 | 12.77336 | 124° | 13km/h | 27289m | 6.0m/s | -47.5°C | 3.1% | 18.6hPa | 2.5V | 00:00:00 | 01:54:40 | 00:00:00 | |
| OE8JPQ-2 | 2026-09-06 00:24:03 | 47.72546 | 12.77322 | 100° | 15km/h | 27265m | 6.4m/s | -47.5°C | 0% | 18.7hPa | 2.5V | 00:00:00 | 01:54:36 | 00:00:00 | |
| DG1MFX-10 | 2026-09-06 00:23:57 | 47.72557 | 12.77308 | 161° | 7km/h | 27237m | 5.1m/s | -47.7°C | 0.9% | 18.8hPa | 2.5V | 00:00:00 | 00:00:00 | 00:00:00 | |
| OE5WHR-10 | 2026-09-06 00:23:54 | 47.72564 | 12.77294 | 119° | 15km/h | 27215m | 5.8m/s | -47.7°C | 3.2% | 18.8hPa | 2.5V | 00:00:00 | 01:54:27 | 00:00:00 | |
| OE5DXL-15 | 2026-09-06 00:23:52 | 47.72569 | 12.77279 | 117° | 13km/h | 27203m | 6.1m/s | -47.8°C | 3.1% | 18.8hPa | 2.5V | 00:00:00 | 00:00:00 | 08:30:00 | |
| OE5HKT-10 | 2026-09-06 00:23:47 | 47.72575 | 12.77253 | 101° | 13km/h | 27173m | 5.7m/s | -47.9°C | 3.2% | 18.9hPa | 2.5V | 00:00:00 | 01:54:20 | 00:00:00 | |
| OE5DRO-10 | 2026-09-06 00:23:44 | 47.72576 | 12.77236 | 81° | 11km/h | 27157m | 6.8m/s | -47.9°C | 3.2% | 18.9hPa | 2.5V | 00:00:00 | 00:00:00 | 08:30:00 | |
| OE8JPQ-2 | 2026-09-06 00:23:43 | 47.72575 | 12.77232 | 64° | 11km/h | 27150m | 6.2m/s | -47.9°C | 3.2% | 19.0hPa | 2.6V | 00:00:00 | 00:00:00 | 00:00:00 | |
| OE5FHM-15 | 2026-09-06 00:23:37 | 47.72575 | 12.77203 | 120° | 11km/h | 27115m | 6.2m/s | -47.9°C | 3.2% | 19.1hPa | 2.6V | 00:00:00 | 01:54:10 | 00:00:00 | |
| OE5WHR-10 | 2026-09-06 00:23:33 | 47.72582 | 12.77191 | 135° | 13km/h | 27091m | 6.7m/s | -48.0°C | 3.2% | 19.2hPa | 2.6V | 00:00:00 | 00:00:00 | 08:30:00 | |
| OE5HKT-10 | 2026-09-06 00:23:26 | 47.72583 | 12.77168 | 93° | 13km/h | 27052m | 4.9m/s | -48.0°C | 3.2% | 19.3hPa | 2.6V | 00:00:00 | 00:00:00 | 00:00:00 | |
| OE5DRO-10 | 2026-09-06 00:23:25 | 47.72584 | 12.77165 | 113° | 13km/h | 27046m | 6.7m/s | -48.0°C | 3.1% | 19.3hPa | 2.5V | 00:00:00 | 00:00:00 | 00:00:00 | |
| OE5DXL-15 | 2026-09-06 00:23:22 | 47.72592 | 12.77149 | 138° | 13km/h | 27029m | 5.2m/s | -48.0°C | 3.1% | 19.3hPa | 2.5V | 00:00:00 | 00:00:00 | 00:00:00 | |
| BAUMI2-15 | 2026-09-06 00:23:17 | 47.72603 | 12.77135 | 106° | 9km/h | 26999m | 6.8m/s | -48.1°C | 3.1% | 19.5hPa | 2.5V | 00:00:00 | 01:53:50 | 00:00:00 | |
| DG1MFX-10 | 2026-09-06 00:23:16 | 47.72603 | 12.77135 | 107° | 7km/h | 26999m | 6.9m/s | -48.2°C | 0.9% | 19.5hPa | 2.5V | 00:00:00 | 00:00:00 | 00:00:00 | |
| BAUMI2-15 | 2026-09-06 00:23:12 | 47.72600 | 12.77119 | 64° | 13km/h | 26969m | 4.5m/s | -48.5°C | 3.2% | 19.5hPa | 2.5V | 00:00:00 | 01:53:45 | 00:00:00 | |
| OE5FHM-15 | 2026-09-06 00:23:07 | 47.72610 | 12.77101 | 155° | 16km/h | 26940m | 6.2m/s | -48.7°C | 3.2% | 19.6hPa | 2.5V | 00:00:00 | 01:53:40 | 00:00:00 | |
| OE5WHR-10 | 2026-09-06 00:23:06 | 47.72615 | 12.77098 | 165° | 15km/h | 26934m | 6.3m/s | -48.8°C | 3.3% | 19.7hPa | 2.5V | 00:00:00 | 00:00:00 | 00:00:00 | |
| OE5HKT-10 | 2026-09-06 00:23:05 | 47.72619 | 12.77097 | 174° | 11km/h | 26928m | 5.5m/s | -48.8°C | 3.3% | 19.7hPa | 2.5V | 00:00:00 | 00:00:00 | 00:00:00 | |
| OE8JPQ-2 | 2026-09-06 00:23:03 | 47.72625 | 12.77095 | 164° | 11km/h | 26917m | 5.9m/s | -48.8°C | 3.2% | 19.7hPa | 2.5V | 00:00:00 | 01:53:36 | 00:00:00 | |
| BAUMI2-15 | 2026-09-06 00:23:02 | 47.72628 | 12.77093 | 150° | 13km/h | 26911m | 6.3m/s | -48.9°C | 3.3% | 19.7hPa | 2.5V | 00:00:00 | 01:53:35 | 00:00:00 | |
| BAUMI2-15 | 2026-09-06 00:22:57 | 47.72641 | 12.77078 | 149° | 13km/h | 26882m | 5.5m/s | -49.1°C | 3.3% | 19.8hPa | 2.5V | 00:00:00 | 01:53:30 | 00:00:00 | |
| DG1MFX-10 | 2026-09-06 00:22:56 | 47.72641 | 12.77078 | 149° | 11km/h | 26882m | 5.5m/s | -49.1°C | 1.0% | 19.9hPa | 2.5V | 00:00:00 | 00:00:00 | 00:00:00 | |
| OE5DXL-15 | 2026-09-06 00:22:52 | 47.72652 | 12.77062 | 139° | 16km/h | 26854m | 6.0m/s | -49.4°C | 3.3% | 19.9hPa | 2.5V | 00:00:00 | 00:00:00 | 00:00:00 | |
| BAUMI2-15 | 2026-09-06 00:22:47 | 47.72660 | 12.77061 | 147° | 13km/h | 26824m | 6.5m/s | -49.6°C | 3.4% | 20.0hPa | 2.5V | 00:00:00 | 01:53:20 | 00:00:00 | |
| OE5HKT-10 | 2026-09-06 00:22:44 | 47.72666 | 12.77052 | 140° | 18km/h | 26806m | 6.4m/s | -49.6°C | 3.4% | 20.0hPa | 2.5V | 00:00:00 | 01:53:17 | 00:00:00 | |
| OE8JPQ-2 | 2026-09-06 00:22:43 | 47.72669 | 12.77049 | 143° | 18km/h | 26800m | 5.1m/s | -49.6°C | 3.4% | 20.0hPa | 2.5V | 00:00:00 | 00:00:00 | 00:00:00 | |
| BAUMI2-15 | 2026-09-06 00:22:42 | 47.72672 | 12.77045 | 139° | 22km/h | 26796m | 4.3m/s | -49.6°C | 3.4% | 20.1hPa | 2.5V | 00:00:00 | 01:53:15 | 00:00:00 | |
| BAUMI2-15 | 2026-09-06 00:22:37 | 47.72689 | 12.77014 | 134° | 18km/h | 26767m | 6.4m/s | -49.8°C | 3.4% | 20.2hPa | 2.5V | 00:00:00 | 01:53:10 | 00:00:00 | |
| DG1MFX-10 | 2026-09-06 00:22:35 | 47.72692 | 12.77009 | 137° | 16km/h | 26761m | 5.3m/s | -49.9°C | 1.0% | 20.2hPa | 2.5V | 00:00:00 | 00:00:00 | 00:00:00 | |
| BAUMI2-15 | 2026-09-06 00:22:32 | 47.72703 | 12.76990 | 124° | 15km/h | 26738m | 4.9m/s | -49.9°C | 3.5% | 20.3hPa | 2.5V | 00:00:00 | 01:53:05 | 00:00:00 | |
| OE5FHM-15 | 2026-09-06 00:22:31 | 47.72706 | 12.76985 | 127° | 15km/h | 26732m | 6.6m/s | -50.0°C | 3.5% | 20.3hPa | 2.5V | 00:00:00 | 01:53:04 | 00:00:00 | |
| BAUMI2-15 | 2026-09-06 00:22:27 | 47.72714 | 12.76966 | 114° | 20km/h | 26709m | 6.2m/s | -50.1°C | 3.5% | 20.3hPa | 2.6V | 00:00:00 | 01:53:00 | 00:00:00 | |
| OE5HKT-10 | 2026-09-06 00:22:23 | 47.72721 | 12.76935 | 109° | 20km/h | 26687m | 5.6m/s | -50.1°C | 3.5% | 20.4hPa | 2.6V | 00:00:00 | 00:00:00 | 08:30:00 | |
| BAUMI2-15 | 2026-09-06 00:22:22 | 47.72722 | 12.76930 | 113° | 18km/h | 26682m | 5.2m/s | -50.1°C | 3.5% | 20.4hPa | 2.6V | 00:00:00 | 01:52:55 | 00:00:00 | |
| BAUMI2-15 | 2026-09-06 00:22:17 | 47.72732 | 12.76897 | 111° | 20km/h | 26654m | 5.5m/s | -50.0°C | 3.5% | 20.5hPa | 2.6V | 00:00:00 | 01:52:50 | 00:00:00 | |
| OE5DRO-10 | 2026-09-06 00:22:15 | 47.72735 | 12.76884 | 100° | 22km/h | 26642m | 5.0m/s | -50.0°C | 3.5% | 20.5hPa | 2.6V | 00:00:00 | 00:00:00 | 00:00:00 | |
| BAUMI2-15 | 2026-09-06 00:22:12 | 47.72738 | 12.76860 | 110° | 24km/h | 26626m | 5.5m/s | -50.0°C | 3.5% | 20.6hPa | 2.6V | 00:00:00 | 01:52:45 | 00:00:00 | |
| BAUMI2-15 | 2026-09-06 00:22:07 | 47.72752 | 12.76823 | 126° | 22km/h | 26598m | 4.9m/s | -50.0°C | 3.4% | 20.7hPa | 2.6V | 00:00:00 | 01:52:40 | 08:30:00 | |
| OE8JPQ-2 | 2026-09-06 00:22:03 | 47.72764 | 12.76794 | 115° | 22km/h | 26575m | 6.5m/s | -50.0°C | 3.5% | 20.8hPa | 2.5V | 00:00:00 | 01:52:36 | 00:00:00 | |
| OE5HKT-10 | 2026-09-06 00:22:02 | 47.72766 | 12.76787 | 110° | 22km/h | 26569m | 5.9m/s | -50.0°C | 3.5% | 20.8hPa | 2.5V | 00:00:00 | 00:00:00 | 00:00:00 | |
| BAUMI2-15 | 2026-09-06 00:21:57 | 47.72777 | 12.76751 | 128° | 18km/h | 26540m | 5.3m/s | -50.1°C | 3.5% | 20.9hPa | 2.5V | 00:00:00 | 01:52:30 | 00:00:00 | |
| OE5DRO-10 | 2026-09-06 00:21:56 | 47.72781 | 12.76746 | 135° | 20km/h | 26535m | 6.4m/s | -50.1°C | 3.5% | 20.9hPa | 2.5V | 00:00:00 | 00:00:00 | 00:00:00 | |
| DG1MFX-10 | 2026-09-06 00:21:54 | 47.72784 | 12.76742 | 144° | 16km/h | 26529m | 5.0m/s | -50.2°C | 1.0% | 21.0hPa | 2.5V | 00:00:00 | 00:00:00 | 00:00:00 | |
| BAUMI2-15 | 2026-09-06 00:21:52 | 47.72795 | 12.76727 | 128° | 24km/h | 26513m | 5.3m/s | -50.2°C | 3.5% | 21.0hPa | 2.5V | 00:00:00 | 01:52:25 | 00:00:00 | |
| BAUMI2-15 | 2026-09-06 00:21:47 | 47.72801 | 12.76687 | 86° | 24km/h | 26485m | 5.2m/s | -50.3°C | 3.5% | 21.1hPa | 2.6V | 00:00:00 | 01:52:20 | 00:00:00 | |
| OE8JPQ-2 | 2026-09-06 00:21:43 | 47.72801 | 12.76651 | 89° | 16km/h | 26464m | 5.6m/s | -50.3°C | 3.5% | 21.1hPa | 2.6V | 00:00:00 | 00:00:00 | 08:30:00 | |
| BAUMI2-15 | 2026-09-06 00:21:42 | 47.72800 | 12.76643 | 87° | 18km/h | 26458m | 6.0m/s | -50.3°C | 3.5% | 21.1hPa | 2.6V | 00:00:00 | 01:52:15 | 00:00:00 | |
| OE5HKT-10 | 2026-09-06 00:21:41 | 47.72800 | 12.76637 | 89° | 18km/h | 26452m | 4.9m/s | -50.3°C | 3.6% | 21.2hPa | 2.6V | 00:00:00 | 01:52:14 | 00:00:00 | |
| BAUMI2-15 | 2026-09-06 00:21:37 | 47.72804 | 12.76610 | 109° | 18km/h | 26431m | 4.6m/s | -50.4°C | 3.5% | 21.3hPa | 2.6V | 00:00:00 | 01:52:10 | 00:00:00 | |
| DG1MFX-10 | 2026-09-06 00:21:33 | 47.72806 | 12.76589 | 92° | 16km/h | 26415m | 5.6m/s | -50.5°C | 1.1% | 21.3hPa | 2.6V | 00:00:00 | 00:00:00 | 00:00:00 | |
| BAUMI2-15 | 2026-09-06 00:21:32 | 47.72807 | 12.76578 | 100° | 15km/h | 26404m | 6.1m/s | -50.4°C | 3.5% | 21.3hPa | 2.6V | 00:00:00 | 01:52:05 | 00:00:00 | |
| BAUMI2-15 | 2026-09-06 00:21:27 | 47.72813 | 12.76551 | 99° | 16km/h | 26376m | 5.1m/s | -50.5°C | 3.6% | 21.4hPa | 2.6V | 00:00:00 | 01:52:00 | 00:00:00 | |
| OE8JPQ-2 | 2026-09-06 00:21:23 | 47.72817 | 12.76526 | 104° | 22km/h | 26354m | 4.7m/s | -50.4°C | 3.5% | 21.5hPa | 2.6V | 00:00:00 | 00:00:00 | 00:00:00 | |
| OE5DXL-15 | 2026-09-06 00:21:22 | 47.72818 | 12.76518 | 96° | 22km/h | 26349m | 5.8m/s | -50.4°C | 3.5% | 21.5hPa | 2.6V | 00:00:00 | 00:00:00 | 00:00:00 | |
| OE5HKT-10 | 2026-09-06 00:21:20 | 47.72817 | 12.76504 | 76° | 22km/h | 26338m | 4.7m/s | -50.4°C | 3.5% | 21.5hPa | 2.6V | 00:00:00 | 00:00:00 | 00:00:00 | |
| OE5DRO-10 | 2026-09-06 00:21:18 | 47.72815 | 12.76490 | 83° | 22km/h | 26327m | 6.1m/s | -50.4°C | 3.5% | 21.6hPa | 2.6V | 00:00:00 | 00:00:00 | 00:00:00 | |
| DG1MFX-10 | 2026-09-06 00:21:13 | 47.72812 | 12.76460 | 73° | 20km/h | 26305m | 5.6m/s | -50.6°C | 1.0% | 21.7hPa | 2.6V | 00:00:00 | 00:00:00 | 00:00:00 | |
| DL1ZP-14 | 2026-09-06 00:21:03 | 47.72768 | 12.76247 | 70° | 20km/h | 26163m | 5.2m/s | 0°C | -1.0% | 22.2hPa | 2.6V | 00:00:00 | 00:00:00 | 00:00:00 | |
| OE5HKT-10 | 2026-09-06 00:20:59 | 47.72788 | 12.76333 | 60° | 22km/h | 26226m | 4.8m/s | -50.6°C | 3.6% | 21.9hPa | 2.6V | 00:00:00 | 00:00:00 | 00:00:00 | |
| OE5WHR-10 | 2026-09-06 00:20:55 | 47.72782 | 12.76305 | 77° | 22km/h | 26205m | 4.8m/s | -50.7°C | 3.6% | 22.0hPa | 2.6V | 00:00:00 | 01:51:28 | 00:00:00 | |
| OE5DXL-15 | 2026-09-06 00:20:52 | 47.72776 | 12.76284 | 61° | 22km/h | 26188m | 4.5m/s | -50.7°C | 3.6% | 22.1hPa | 2.6V | 00:00:00 | 00:00:00 | 00:00:00 | |
| OE5DRO-10 | 2026-09-06 00:20:50 | 47.72772 | 12.76270 | 73° | 24km/h | 26178m | 6.1m/s | -50.7°C | 3.6% | 22.1hPa | 2.5V | 00:00:00 | 00:00:00 | 00:00:00 | |
| OE8JPQ-2 | 2026-09-06 00:20:43 | 47.72754 | 12.76224 | 42° | 24km/h | 26141m | 6.1m/s | -50.8°C | 3.6% | 22.2hPa | 2.5V | 00:00:00 | 00:00:00 | 00:00:00 | |
| OE5HKT-10 | 2026-09-06 00:20:38 | 47.72730 | 12.76195 | 40° | 22km/h | 26114m | 4.6m/s | -50.7°C | 3.6% | 22.3hPa | 2.6V | 00:00:00 | 01:51:11 | 00:00:00 | |
| OE5WHR-10 | 2026-09-06 00:20:33 | 47.72712 | 12.76156 | 55° | 20km/h | 26089m | 5.7m/s | -50.7°C | 3.6% | 22.4hPa | 2.6V | 00:00:00 | 00:00:00 | 00:00:00 | |
| OE5DRO-10 | 2026-09-06 00:20:31 | 47.72704 | 12.76144 | 37° | 18km/h | 26078m | 4.7m/s | -50.8°C | 3.6% | 22.5hPa | 2.6V | 00:00:00 | 00:00:00 | 08:30:00 | |
| OE8JPQ-2 | 2026-09-06 00:20:23 | 47.72675 | 12.76099 | 36° | 18km/h | 26038m | 5.2m/s | -51.1°C | 3.7% | 22.6hPa | 2.6V | 00:00:00 | 00:00:00 | 00:00:00 | |
| OE5DXL-15 | 2026-09-06 00:20:22 | 47.72670 | 12.76095 | 32° | 16km/h | 26032m | 5.4m/s | -51.1°C | 3.7% | 22.6hPa | 2.6V | 00:00:00 | 00:00:00 | 00:00:00 | |
| OE5HKT-10 | 2026-09-06 00:20:17 | 47.72653 | 12.76080 | 21° | 16km/h | 26005m | 6.2m/s | -51.0°C | 3.7% | 22.7hPa | 2.6V | 00:00:00 | 00:00:00 | 00:00:00 | |
| OE5DRO-10 | 2026-09-06 00:20:12 | 47.72633 | 12.76067 | 36° | 16km/h | 25978m | 4.7m/s | -50.9°C | 3.7% | 22.8hPa | 2.6V | 00:00:00 | 00:00:00 | 00:00:00 | |
| DG1MFX-10 | 2026-09-06 00:20:10 | 47.72629 | 12.76063 | 33° | 20km/h | 25973m | 4.6m/s | -50.9°C | 1.0% | 22.9hPa | 2.6V | 00:00:00 | 00:00:00 | 00:00:00 | |
| OE5WHR-10 | 2026-09-06 00:20:03 | 47.72591 | 12.76049 | 357° | 9km/h | 25929m | 6.0m/s | -50.8°C | 3.6% | 23.0hPa | 2.6V | 00:00:00 | 00:00:00 | 00:00:00 | |
| DL1ZP-14 | 2026-09-06 00:20:00 | 47.72581 | 12.76050 | 10° | 7km/h | 25906m | 4.8m/s | 0°C | -1.0% | 23.1hPa | 2.6V | 00:00:00 | 00:00:00 | 00:00:00 | |
| OE5HKT-10 | 2026-09-06 00:19:56 | 47.72571 | 12.76047 | 6° | 16km/h | 25890m | 5.3m/s | -50.7°C | 3.6% | 23.1hPa | 2.6V | 00:00:00 | 00:00:00 | 00:00:00 | |
| OE5DRO-10 | 2026-09-06 00:19:53 | 47.72555 | 12.76046 | 1° | 15km/h | 25874m | 5.5m/s | -50.7°C | 3.6% | 23.2hPa | 2.6V | 00:00:00 | 00:00:00 | 00:00:00 | |
| OE5DXL-15 | 2026-09-06 00:19:52 | 47.72551 | 12.76046 | 359° | 13km/h | 25868m | 5.1m/s | -50.7°C | 3.6% | 23.2hPa | 2.6V | 00:00:00 | 00:00:00 | 00:00:00 | |
| DG1MFX-10 | 2026-09-06 00:19:50 | 47.72547 | 12.76046 | 359° | 15km/h | 25863m | 6.1m/s | -50.8°C | 1.0% | 23.3hPa | 2.6V | 00:00:00 | 00:00:00 | 00:00:00 | |
| OE8JPQ-2 | 2026-09-06 00:19:43 | 47.72526 | 12.76037 | 24° | 15km/h | 25817m | 5.9m/s | -50.9°C | 3.7% | 23.4hPa | 2.6V | 00:00:00 | 00:00:00 | 00:00:00 | |
| OE5WHR-10 | 2026-09-06 00:19:42 | 47.72522 | 12.76035 | 16° | 15km/h | 25811m | 4.9m/s | -50.9°C | 3.6% | 23.4hPa | 2.5V | 00:00:00 | 01:50:15 | 00:00:00 | |
| OE5HKT-10 | 2026-09-06 00:19:35 | 47.72490 | 12.76038 | 354° | 9km/h | 25773m | 4.6m/s | -50.9°C | 3.6% | 23.5hPa | 2.5V | 00:00:00 | 01:50:08 | 00:00:00 | |
| OE5DRO-10 | 2026-09-06 00:19:34 | 47.72486 | 12.76039 | 353° | 7km/h | 25767m | 6.2m/s | -51.0°C | 3.6% | 23.6hPa | 2.5V | 00:00:00 | 00:00:00 | 00:00:00 | |
| DG1MFX-10 | 2026-09-06 00:19:30 | 47.72483 | 12.76040 | 0° | 0km/h | 25751m | 4.5m/s | -51.2°C | 1.1% | 23.7hPa | 2.5V | 00:00:00 | 00:00:00 | 00:00:00 | |
| DL1ZP-14 | 2026-09-06 00:19:29 | 47.72460 | 12.76052 | 320° | 9km/h | 25707m | 5.2m/s | 0°C | -1.0% | -1.0hPa | 2.5V | 00:00:00 | 00:00:00 | 00:00:00 | |
| OE8JPQ-2 | 2026-09-06 00:19:23 | 47.72460 | 12.76052 | 321° | 9km/h | 25707m | 5.2m/s | -51.1°C | 3.7% | 23.8hPa | 2.5V | 00:00:00 | 00:00:00 | 00:00:00 | |
| OE5DXL-15 | 2026-09-06 00:19:22 | 47.72458 | 12.76054 | 334° | 11km/h | 25701m | 6.6m/s | -51.1°C | 3.7% | 23.8hPa | 2.5V | 00:00:00 | 00:00:00 | 08:30:00 | |
| OE5WHR-10 | 2026-09-06 00:19:21 | 47.72456 | 12.76054 | 8° | 9km/h | 25695m | 5.4m/s | -51.1°C | 3.7% | 23.8hPa | 2.6V | 00:00:00 | 00:00:00 | 00:00:00 | |
| BAUMI2-15 | 2026-09-06 00:19:17 | 47.72458 | 12.76051 | 185° | 9km/h | 25672m | 4.8m/s | -51.1°C | 3.7% | 23.9hPa | 2.5V | 00:00:00 | 01:49:50 | 00:00:00 | |
| OE5DRO-10 | 2026-09-06 00:19:15 | 47.72457 | 12.76053 | 337° | 13km/h | 25661m | 6.3m/s | -51.1°C | 3.7% | 23.9hPa | 2.5V | 00:00:00 | 00:00:00 | 00:00:00 | |
| OE5HKT-10 | 2026-09-06 00:19:14 | 47.72455 | 12.76054 | 340° | 15km/h | 25655m | 5.4m/s | -51.2°C | 3.7% | 24.0hPa | 2.5V | 00:00:00 | 00:00:00 | 08:30:00 | |
| BAUMI2-15 | 2026-09-06 00:19:12 | 47.72448 | 12.76059 | 329° | 15km/h | 25645m | 5.6m/s | -51.2°C | 3.7% | 24.0hPa | 2.5V | 00:00:00 | 01:49:45 | 00:00:00 | |
| DO3MHA-11 | 2026-09-06 00:19:10 | 47.72442 | 12.76067 | 304° | 13km/h | 25633m | 5.5m/s | -51.2°C | 3.8% | 24.1hPa | 2.5V | 00:00:00 | 01:49:43 | 00:00:00 | |
| BAUMI2-15 | 2026-09-06 00:19:07 | 47.72438 | 12.76080 | 297° | 9km/h | 25615m | 5.7m/s | -51.1°C | 3.7% | 24.1hPa | 2.5V | 00:00:00 | 01:49:40 | 00:00:00 | |
| OE8JPQ-2 | 2026-09-06 00:19:03 | 47.72439 | 12.76091 | 222° | 13km/h | 25592m | 5.0m/s | -51.0°C | 3.7% | 24.2hPa | 2.5V | 00:00:00 | 01:49:36 | 00:00:00 | |
| BAUMI2-15 | 2026-09-06 00:19:02 | 47.72440 | 12.76092 | 251° | 13km/h | 25587m | 5.0m/s | -50.9°C | 3.7% | 24.3hPa | 2.5V | 00:00:00 | 01:49:35 | 00:00:00 | |
| OE5WHR-10 | 2026-09-06 00:19:00 | 47.72438 | 12.76097 | 319° | 15km/h | 25575m | 5.0m/s | -50.9°C | 3.6% | 24.3hPa | 2.5V | 00:00:00 | 00:00:00 | 00:00:00 | |
| BAUMI2-15 | 2026-09-06 00:18:57 | 47.72429 | 12.76113 | 297° | 20km/h | 25560m | 6.2m/s | -50.9°C | 3.7% | 24.4hPa | 2.5V | 00:00:00 | 01:49:30 | 00:00:00 | |
| OE5DRO-10 | 2026-09-06 00:18:56 | 47.72427 | 12.76120 | 285° | 13km/h | 25554m | 5.7m/s | -50.8°C | 3.7% | 24.4hPa | 2.5V | 00:00:00 | 00:00:00 | 00:00:00 | |
| OE5HKT-10 | 2026-09-06 00:18:53 | 47.72425 | 12.76143 | 276° | 13km/h | 25537m | 6.2m/s | -50.8°C | 3.7% | 24.4hPa | 2.5V | 00:00:00 | 00:00:00 | 00:00:00 | |
| BAUMI2-15 | 2026-09-06 00:18:52 | 47.72425 | 12.76149 | 278° | 9km/h | 25531m | 5.3m/s | -50.8°C | 3.6% | 24.5hPa | 2.5V | 00:00:00 | 01:49:25 | 00:00:00 | |
| DG1MFX-10 | 2026-09-06 00:18:49 | 47.72425 | 12.76156 | 244° | 7km/h | 25520m | 6.3m/s | -50.8°C | 1.1% | 24.5hPa | 2.5V | 00:00:00 | 00:00:00 | 00:00:00 | |
| BAUMI2-15 | 2026-09-06 00:18:47 | 47.72430 | 12.76162 | 217° | 7km/h | 25503m | 5.1m/s | -50.7°C | 3.6% | 24.5hPa | 2.5V | 00:00:00 | 01:49:20 | 00:00:00 | |
| OE8JPQ-2 | 2026-09-06 00:18:43 | 47.72430 | 12.76171 | 283° | 15km/h | 25482m | 5.2m/s | -50.7°C | 3.6% | 24.6hPa | 2.5V | 00:00:00 | 00:00:00 | 08:30:00 | |
| BAUMI2-15 | 2026-09-06 00:18:42 | 47.72430 | 12.76175 | 269° | 18km/h | 25476m | 6.2m/s | -50.7°C | 3.6% | 24.6hPa | 2.5V | 00:00:00 | 01:49:15 | 00:00:00 | |
| OE5WHR-10 | 2026-09-06 00:18:39 | 47.72433 | 12.76195 | 257° | 15km/h | 25459m | 5.2m/s | -50.6°C | 3.6% | 24.7hPa | 2.5V | 00:00:00 | 01:49:12 | 00:00:00 | |
| BAUMI2-15 | 2026-09-06 00:18:37 | 47.72434 | 12.76209 | 266° | 15km/h | 25447m | 5.0m/s | -50.6°C | 3.6% | 24.8hPa | 2.5V | 00:00:00 | 01:49:10 | 08:30:00 | |
| OE5HKT-10 | 2026-09-06 00:18:32 | 47.72444 | 12.76229 | 210° | 15km/h | 25422m | 4.1m/s | -50.6°C | 3.6% | 24.9hPa | 2.6V | 00:00:00 | 01:49:05 | 00:00:00 | |
| DG1MFX-10 | 2026-09-06 00:18:29 | 47.72449 | 12.76234 | 245° | 9km/h | 25411m | 6.1m/s | -50.6°C | 1.1% | 25.0hPa | 2.6V | 00:00:00 | 00:00:00 | 00:00:00 | |
| BAUMI2-15 | 2026-09-06 00:18:27 | 47.72450 | 12.76248 | 263° | 18km/h | 25394m | 6.2m/s | -50.6°C | 3.6% | 25.0hPa | 2.6V | 00:00:00 | 01:49:00 | 00:00:00 | |
| OE8JPQ-2 | 2026-09-06 00:18:23 | 47.72457 | 12.76273 | 245° | 15km/h | 25373m | 5.7m/s | -50.6°C | 3.6% | 25.1hPa | 2.6V | 00:00:00 | 00:00:00 | 00:00:00 | |
| BAUMI2-15 | 2026-09-06 00:18:22 | 47.72458 | 12.76278 | 254° | 13km/h | 25367m | 5.8m/s | -50.7°C | 3.6% | 25.1hPa | 2.6V | 00:00:00 | 01:48:55 | 00:00:00 | |
| OE5WHR-10 | 2026-09-06 00:18:18 | 47.72463 | 12.76296 | 226° | 15km/h | 25345m | 6.0m/s | -50.7°C | 3.6% | 25.2hPa | 2.6V | 00:00:00 | 00:00:00 | 08:30:00 | |
| BAUMI2-15 | 2026-09-06 00:18:17 | 47.72466 | 12.76300 | 221° | 16km/h | 25340m | 5.1m/s | -50.8°C | 3.6% | 25.2hPa | 2.6V | 00:00:00 | 01:48:50 | 00:00:00 | |
| BAUMI2-15 | 2026-09-06 00:18:12 | 47.72479 | 12.76325 | 236° | 18km/h | 25312m | 6.4m/s | -50.8°C | 3.6% | 25.3hPa | 2.6V | 00:00:00 | 01:48:45 | 00:00:00 | |
| OE5HKT-10 | 2026-09-06 00:18:11 | 47.72482 | 12.76331 | 231° | 13km/h | 25306m | 5.5m/s | -50.8°C | 3.6% | 25.4hPa | 2.6V | 00:00:00 | 00:00:00 | 00:00:00 | |
| DG1MFX-10 | 2026-09-06 00:18:09 | 47.72485 | 12.76337 | 232° | 18km/h | 25301m | 4.6m/s | -50.8°C | 1.1% | 25.4hPa | 2.6V | 00:00:00 | 00:00:00 | 00:00:00 | |
| BAUMI2-15 | 2026-09-06 00:18:07 | 47.72490 | 12.76351 | 254° | 13km/h | 25284m | 4.9m/s | -50.8°C | 3.6% | 25.4hPa | 2.6V | 00:00:00 | 01:48:40 | 00:00:00 | |
| OE8JPQ-2 | 2026-09-06 00:18:03 | 47.72499 | 12.76365 | 201° | 13km/h | 25263m | 4.7m/s | -50.9°C | 3.6% | 25.5hPa | 2.5V | 00:00:00 | 01:48:36 | 00:00:00 | |
| BAUMI2-15 | 2026-09-06 00:18:02 | 47.72502 | 12.76367 | 194° | 13km/h | 25258m | 4.2m/s | -50.8°C | 3.6% | 25.5hPa | 2.5V | 00:00:00 | 01:48:35 | 00:00:00 | |
| DL1ZP-14 | 2026-09-06 00:17:51 | 47.72543 | 12.76376 | 165° | 15km/h | 25186m | 4.6m/s | 0°C | -1.0% | -1.0hPa | 2.5V | 00:00:00 | 00:00:00 | 00:00:00 | |
| OE5HKT-10 | 2026-09-06 00:17:50 | 47.72539 | 12.76377 | 171° | 16km/h | 25191m | 5.7m/s | -50.8°C | 3.6% | 25.8hPa | 2.5V | 00:00:00 | 00:00:00 | 00:00:00 | |
| DG1MFX-10 | 2026-09-06 00:17:48 | 47.72543 | 12.76377 | 167° | 16km/h | 25186m | 4.6m/s | -50.9°C | 1.1% | 25.9hPa | 2.5V | 00:00:00 | 00:00:00 | 00:00:00 | |
| BAUMI2-15 | 2026-09-06 00:17:47 | 47.72550 | 12.76372 | 149° | 13km/h | 25175m | 6.8m/s | -50.9°C | 3.6% | 25.9hPa | 2.5V | 00:00:00 | 01:48:20 | 00:00:00 | |
| OE8JPQ-2 | 2026-09-06 00:17:43 | 47.72561 | 12.76360 | 158° | 16km/h | 25152m | 5.7m/s | -50.9°C | 3.6% | 26.0hPa | 2.5V | 00:00:00 | 00:00:00 | 00:00:00 | |
| BAUMI2-15 | 2026-09-06 00:17:42 | 47.72564 | 12.76359 | 165° | 13km/h | 25147m | 4.6m/s | -50.9°C | 3.6% | 26.0hPa | 2.6V | 00:00:00 | 01:48:15 | 00:00:00 | |
| OE5DRO-10 | 2026-09-06 00:17:40 | 47.72571 | 12.76356 | 165° | 16km/h | 25136m | 6.2m/s | -50.9°C | 3.5% | 26.0hPa | 2.6V | 00:00:00 | 00:00:00 | 08:30:00 | |
| DO3MHA-11 | 2026-09-06 00:17:39 | 47.72573 | 12.76355 | 161° | 18km/h | 25130m | 4.8m/s | -50.9°C | 3.6% | 26.0hPa | 2.5V | 00:00:00 | 01:48:12 | 00:00:00 | |
| BAUMI2-15 | 2026-09-06 00:17:37 | 47.72579 | 12.76352 | 162° | 18km/h | 25120m | 6.2m/s | -51.0°C | 3.6% | 26.1hPa | 2.5V | 00:00:00 | 01:48:10 | 00:00:00 | |
| OE5WHR-10 | 2026-09-06 00:17:36 | 47.72583 | 12.76350 | 162° | 20km/h | 25114m | 5.4m/s | -51.1°C | 3.6% | 26.1hPa | 2.6V | 00:00:00 | 01:48:09 | 00:00:00 | |
| BAUMI2-15 | 2026-09-06 00:17:32 | 47.72600 | 12.76334 | 131° | 22km/h | 25093m | 4.3m/s | -51.4°C | 3.7% | 26.2hPa | 2.6V | 00:00:00 | 01:48:05 | 00:00:00 | |
| OE5HKT-10 | 2026-09-06 00:17:29 | 47.72612 | 12.76316 | 140° | 16km/h | 25077m | 4.6m/s | -51.4°C | 3.7% | 26.2hPa | 2.6V | 00:00:00 | 01:48:02 | 00:00:00 | |
| DG1MFX-10 | 2026-09-06 00:17:28 | 47.72612 | 12.76316 | 141° | 22km/h | 25077m | 4.6m/s | -51.5°C | 1.1% | 26.3hPa | 2.6V | 00:00:00 | 00:00:00 | 00:00:00 | |
| BAUMI2-15 | 2026-09-06 00:17:27 | 47.72619 | 12.76307 | 137° | 11km/h | 25067m | 6.4m/s | -51.5°C | 3.7% | 26.3hPa | 2.6V | 00:00:00 | 01:48:00 | 00:00:00 | |
| OE8JPQ-2 | 2026-09-06 00:17:23 | 47.72626 | 12.76294 | 126° | 18km/h | 25045m | 6.3m/s | -51.6°C | 3.7% | 26.4hPa | 2.6V | 00:00:00 | 00:00:00 | 00:00:00 | |
| OE5DXL-15 | 2026-09-06 00:17:22 | 47.72628 | 12.76289 | 124° | 18km/h | 25039m | 5.4m/s | -51.6°C | 3.7% | 26.4hPa | 2.6V | 00:00:00 | 00:00:00 | 00:00:00 | |
| OE5DRO-10 | 2026-09-06 00:17:21 | 47.72631 | 12.76282 | 118° | 18km/h | 25034m | 4.8m/s | -51.6°C | 3.7% | 26.4hPa | 2.6V | 00:00:00 | 00:00:00 | 00:00:00 | |
| OE5WHR-10 | 2026-09-06 00:17:15 | 47.72639 | 12.76231 | 98° | 16km/h | 25001m | 4.3m/s | -51.6°C | 3.8% | 26.6hPa | 2.6V | 00:00:00 | 00:00:00 | 00:00:00 | |
| OE5HKT-10 | 2026-09-06 00:17:08 | 47.72636 | 12.76195 | 100° | 16km/h | 24963m | 4.4m/s | -51.6°C | 3.8% | 26.7hPa | 2.5V | 00:00:00 | 00:00:00 | 00:00:00 | |
| DG1MFX-10 | 2026-09-06 00:17:07 | 47.72636 | 12.76195 | 101° | 13km/h | 24963m | 4.5m/s | -51.7°C | 1.1% | 26.8hPa | 2.5V | 00:00:00 | 00:00:00 | 00:00:00 | |
| OE8JPQ-2 | 2026-09-06 00:17:03 | 47.72631 | 12.76160 | 74° | 18km/h | 24935m | 6.0m/s | -51.7°C | 3.8% | 26.8hPa | 2.5V | 00:00:00 | 01:47:36 | 00:00:00 | |
| OE5DRO-10 | 2026-09-06 00:17:02 | 47.72629 | 12.76151 | 71° | 18km/h | 24930m | 4.2m/s | -51.7°C | 3.8% | 26.9hPa | 2.5V | 00:00:00 | 00:00:00 | 00:00:00 | |
| OE5WHR-10 | 2026-09-06 00:16:54 | 47.72605 | 12.76130 | 13° | 16km/h | 24888m | 5.0m/s | -51.6°C | 3.7% | 27.0hPa | 2.5V | 00:00:00 | 00:00:00 | 00:00:00 | |
| OE5DXL-15 | 2026-09-06 00:16:52 | 47.72601 | 12.76128 | 38° | 16km/h | 24877m | 4.9m/s | -51.7°C | 3.7% | 27.1hPa | 2.5V | 00:00:00 | 00:00:00 | 00:00:00 | |
| OE5HKT-10 | 2026-09-06 00:16:47 | 47.72589 | 12.76099 | 49° | 16km/h | 24851m | 6.1m/s | -51.9°C | 3.7% | 27.2hPa | 2.5V | 00:00:00 | 00:00:00 | 00:00:00 | |
| DG1MFX-10 | 2026-09-06 00:16:46 | 47.72589 | 12.76099 | 49° | 24km/h | 24851m | 6.1m/s | -51.9°C | 1.1% | 27.3hPa | 2.5V | 00:00:00 | 00:00:00 | 00:00:00 | |
| OE8JPQ-2 | 2026-09-06 00:16:43 | 47.72566 | 12.76084 | 3° | 15km/h | 24828m | 5.8m/s | -51.9°C | 3.8% | 27.3hPa | 2.5V | 00:00:00 | 00:00:00 | 00:00:00 | |
| OE5WHR-10 | 2026-09-06 00:16:33 | 47.72532 | 12.76074 | 37° | 13km/h | 24775m | 6.1m/s | -52.3°C | 3.9% | 27.5hPa | 2.6V | 00:00:00 | 01:47:06 | 00:00:00 | |
| OE5HKT-10 | 2026-09-06 00:16:26 | 47.72506 | 12.76057 | 349° | 9km/h | 24737m | 6.2m/s | -52.2°C | 3.9% | 27.7hPa | 2.6V | 00:00:00 | 01:46:59 | 00:00:00 | |
| DG1MFX-10 | 2026-09-06 00:16:25 | 47.72506 | 12.76057 | 350° | 11km/h | 24737m | 6.2m/s | -52.2°C | 1.2% | 27.7hPa | 2.6V | 00:00:00 | 00:00:00 | 00:00:00 | |
| OE5DRO-10 | 2026-09-06 00:16:24 | 47.72501 | 12.76059 | 351° | 9km/h | 24727m | 4.4m/s | -52.1°C | 3.8% | 27.7hPa | 2.6V | 00:00:00 | 00:00:00 | 00:00:00 | |
| OE8JPQ-2 | 2026-09-06 00:16:23 | 47.72499 | 12.76059 | 6° | 11km/h | 24722m | 5.9m/s | -52.1°C | 3.9% | 27.8hPa | 2.6V | 00:00:00 | 00:00:00 | 00:00:00 | |
| OE5DXL-15 | 2026-09-06 00:16:22 | 47.72498 | 12.76058 | 38° | 11km/h | 24716m | 5.5m/s | -52.1°C | 3.8% | 27.8hPa | 2.6V | 00:00:00 | 00:00:00 | 00:00:00 | |
| DO3MHA-11 | 2026-09-06 00:16:16 | 47.72481 | 12.76047 | 13° | 9km/h | 24684m | 6.0m/s | -51.9°C | 3.9% | 27.9hPa | 2.6V | 00:00:00 | 01:46:49 | 00:00:00 | |
| OE5WHR-10 | 2026-09-06 00:16:12 | 47.72474 | 12.76051 | 309° | 11km/h | 24662m | 5.3m/s | -51.8°C | 3.9% | 28.0hPa | 2.5V | 00:00:00 | 00:00:00 | 00:00:00 | |
| DO3MHA-11 | 2026-09-06 00:16:06 | 47.72469 | 12.76071 | 319° | 13km/h | 24631m | 6.1m/s | -51.6°C | 3.8% | 28.2hPa | 2.6V | 00:00:00 | 01:46:39 | 00:00:00 | |
| OE5DRO-10 | 2026-09-06 00:16:05 | 47.72467 | 12.76073 | 343° | 11km/h | 24625m | 5.3m/s | -51.6°C | 3.8% | 28.2hPa | 2.6V | 00:00:00 | 00:00:00 | 00:00:00 | |
| OE5HKT-10 | 2026-09-06 00:16:04 | 47.72464 | 12.76073 | 356° | 11km/h | 24621m | 4.7m/s | -51.5°C | 3.8% | 28.2hPa | 2.6V | 00:00:00 | 00:00:00 | 08:30:00 | |
| OE8JPQ-2 | 2026-09-06 00:16:03 | 47.72460 | 12.76073 | 7° | 11km/h | 24615m | 5.6m/s | -51.5°C | 3.7% | 28.2hPa | 2.6V | 00:00:00 | 01:46:36 | 00:00:00 | |
| OE5DXL-15 | 2026-09-06 00:15:52 | 47.72454 | 12.76099 | 281° | 9km/h | 24556m | 5.3m/s | -51.6°C | 3.8% | 28.5hPa | 2.6V | 00:00:00 | 00:00:00 | 00:00:00 | |
| OE5WHR-10 | 2026-09-06 00:15:51 | 47.72453 | 12.76103 | 313° | 9km/h | 24551m | 4.5m/s | -51.6°C | 3.8% | 28.5hPa | 2.6V | 00:00:00 | 00:00:00 | 00:00:00 | |
| DG1MFX-10 | 2026-09-06 00:15:44 | 47.72442 | 12.76106 | 312° | 7km/h | 24521m | 6.1m/s | -51.5°C | 1.1% | 28.7hPa | 2.6V | 00:00:00 | 00:00:00 | 00:00:00 | |
| OE8JPQ-2 | 2026-09-06 00:15:43 | 47.72440 | 12.76114 | 280° | 9km/h | 24510m | 4.8m/s | -51.4°C | 3.8% | 28.7hPa | 2.6V | 00:00:00 | 00:00:00 | 08:30:00 | |
| OE5HKT-10 | 2026-09-06 00:15:42 | 47.72440 | 12.76119 | 262° | 9km/h | 24505m | 5.7m/s | -51.4°C | 3.8% | 28.7hPa | 2.6V | 00:00:00 | 00:00:00 | 00:00:00 | |
| OE5WHR-10 | 2026-09-06 00:15:30 | 47.72446 | 12.76148 | 310° | 7km/h | 24439m | 4.4m/s | -51.2°C | 3.7% | 29.0hPa | 2.6V | 00:00:00 | 01:46:03 | 00:00:00 | |
| DG1MFX-10 | 2026-09-06 00:15:24 | 47.72449 | 12.76159 | 218° | 11km/h | 24413m | 6.4m/s | -51.2°C | 1.1% | 29.2hPa | 2.6V | 00:00:00 | 00:00:00 | 00:00:00 | |
| OE8JPQ-2 | 2026-09-06 00:15:23 | 47.72454 | 12.76164 | 213° | 9km/h | 24402m | 4.7m/s | -51.1°C | 3.6% | 29.2hPa | 2.6V | 00:00:00 | 00:00:00 | 00:00:00 | |
| BAUMI2-15 | 2026-09-06 00:15:22 | 47.72457 | 12.76166 | 200° | 9km/h | 24396m | 6.1m/s | -51.1°C | 3.6% | 29.2hPa | 2.6V | 00:00:00 | 01:45:55 | 00:00:00 | |
| OE5HKT-10 | 2026-09-06 00:15:21 | 47.72460 | 12.76167 | 187° | 7km/h | 24391m | 5.6m/s | -51.1°C | 3.6% | 29.2hPa | 2.5V | 00:00:00 | 01:45:54 | 00:00:00 | |
| BAUMI2-15 | 2026-09-06 00:15:12 | 47.72469 | 12.76174 | 183° | 9km/h | 24342m | 5.5m/s | -51.5°C | 3.7% | 29.5hPa | 2.5V | 00:00:00 | 01:45:45 | 00:00:00 | |
| OE5WHR-10 | 2026-09-06 00:15:09 | 47.72475 | 12.76177 | 194° | 7km/h | 24327m | 5.2m/s | -51.6°C | 3.7% | 29.5hPa | 2.5V | 00:00:00 | 00:00:00 | 08:30:00 | |
| OE5DRO-10 | 2026-09-06 00:15:08 | 47.72478 | 12.76177 | 187° | 7km/h | 24321m | 6.1m/s | -51.6°C | 3.7% | 29.5hPa | 2.5V | 00:00:00 | 00:00:00 | 00:00:00 | |
| BAUMI2-15 | 2026-09-06 00:15:07 | 47.72482 | 12.76178 | 182° | 11km/h | 24315m | 4.9m/s | -51.6°C | 3.7% | 29.6hPa | 2.5V | 00:00:00 | 01:45:40 | 08:30:00 | |
| DG1MFX-10 | 2026-09-06 00:15:03 | 47.72491 | 12.76179 | 193° | 5km/h | 24300m | 5.6m/s | -51.7°C | 1.1% | 29.7hPa | 2.6V | 00:00:00 | 00:00:00 | 00:00:00 | |
| BAUMI2-15 | 2026-09-06 00:15:02 | 47.72493 | 12.76179 | 89° | 2km/h | 24289m | 5.8m/s | -51.7°C | 3.7% | 29.7hPa | 2.6V | 00:00:00 | 01:45:35 | 00:00:00 | |
| OE5HKT-10 | 2026-09-06 00:15:00 | 47.72493 | 12.76177 | 92° | 7km/h | 24278m | 4.7m/s | -51.7°C | 3.7% | 29.7hPa | 2.6V | 00:00:00 | 00:00:00 | 00:00:00 | |
| BAUMI2-15 | 2026-09-06 00:14:57 | 47.72492 | 12.76176 | 281° | 9km/h | 24262m | 5.4m/s | -51.8°C | 3.7% | 29.8hPa | 2.5V | 00:00:00 | 01:45:30 | 00:00:00 | |
| OE5DXL-15 | 2026-09-06 00:14:52 | 47.72501 | 12.76184 | 200° | 13km/h | 24234m | 6.0m/s | -52.1°C | 3.8% | 29.9hPa | 2.5V | 00:00:00 | 00:00:00 | 08:30:00 | |
| OE5DRO-10 | 2026-09-06 00:14:49 | 47.72506 | 12.76189 | 221° | 13km/h | 24218m | 5.9m/s | -52.3°C | 3.9% | 30.0hPa | 2.6V | 00:00:00 | 00:00:00 | 08:30:00 | |
| OE5WHR-10 | 2026-09-06 00:14:48 | 47.72508 | 12.76190 | 220° | 13km/h | 24212m | 5.4m/s | -52.3°C | 3.9% | 30.0hPa | 2.6V | 00:00:00 | 00:00:00 | 00:00:00 | |
| BAUMI2-15 | 2026-09-06 00:14:47 | 47.72508 | 12.76192 | 247° | 9km/h | 24207m | 4.7m/s | -52.3°C | 3.9% | 30.1hPa | 2.6V | 00:00:00 | 01:45:20 | 00:00:00 | |
| OE8JPQ-2 | 2026-09-06 00:14:43 | 47.72503 | 12.76203 | 300° | 15km/h | 24186m | 4.2m/s | -52.3°C | 3.9% | 30.2hPa | 2.6V | 00:00:00 | 00:00:00 | 00:00:00 | |
| BAUMI2-15 | 2026-09-06 00:14:42 | 47.72502 | 12.76208 | 286° | 15km/h | 24181m | 6.1m/s | -52.3°C | 3.9% | 30.2hPa | 2.6V | 00:00:00 | 01:45:15 | 00:00:00 | |
| OE5HKT-10 | 2026-09-06 00:14:39 | 47.72504 | 12.76223 | 252° | 16km/h | 24165m | 4.7m/s | -52.2°C | 3.9% | 30.3hPa | 2.6V | 00:00:00 | 00:00:00 | 00:00:00 | |
| BAUMI2-15 | 2026-09-06 00:14:37 | 47.72505 | 12.76234 | 274° | 15km/h | 24154m | 5.3m/s | -52.1°C | 3.9% | 30.3hPa | 2.6V | 00:00:00 | 01:45:10 | 00:00:00 | |
| BAUMI2-15 | 2026-09-06 00:14:32 | 47.72503 | 12.76262 | 275° | 13km/h | 24128m | 5.0m/s | -52.1°C | 3.9% | 30.4hPa | 2.5V | 00:00:00 | 01:45:05 | 00:00:00 | |
| OE5DRO-10 | 2026-09-06 00:14:30 | 47.72502 | 12.76271 | 298° | 16km/h | 24116m | 5.0m/s | -52.1°C | 3.9% | 30.5hPa | 2.5V | 00:00:00 | 00:00:00 | 00:00:00 | |
| OE5WHR-10 | 2026-09-06 00:14:27 | 47.72499 | 12.76285 | 263° | 20km/h | 24100m | 5.7m/s | -52.1°C | 3.9% | 30.6hPa | 2.5V | 00:00:00 | 01:45:00 | 00:00:00 | |
| OE8JPQ-2 | 2026-09-06 00:14:23 | 47.72504 | 12.76315 | 254° | 18km/h | 24079m | 4.8m/s | -52.0°C | 3.9% | 30.7hPa | 2.5V | 00:00:00 | 00:00:00 | 00:00:00 | |
| OE5DXL-15 | 2026-09-06 00:14:22 | 47.72506 | 12.76323 | 247° | 16km/h | 24073m | 6.1m/s | -52.0°C | 3.9% | 30.7hPa | 2.5V | 00:00:00 | 00:00:00 | 00:00:00 | |
| DG1MFX-10 | 2026-09-06 00:14:21 | 47.72506 | 12.76323 | 248° | 24km/h | 24073m | 6.2m/s | -52.0°C | 1.2% | 30.8hPa | 2.5V | 00:00:00 | 00:00:00 | 00:00:00 | |
| BAUMI2-15 | 2026-09-06 00:14:17 | 47.72517 | 12.76356 | 268° | 13km/h | 24045m | 4.6m/s | -51.9°C | 3.9% | 30.9hPa | 2.5V | 00:00:00 | 01:44:50 | 00:00:00 | |
| OE5HKT-10 | 2026-09-06 00:14:15 | 47.72517 | 12.76365 | 256° | 15km/h | 24035m | 6.3m/s | -51.9°C | 3.9% | 30.9hPa | 2.5V | 00:00:00 | 01:44:48 | 00:00:00 | |
| BAUMI2-15 | 2026-09-06 00:14:12 | 47.72522 | 12.76378 | 238° | 22km/h | 24018m | 6.1m/s | -51.8°C | 3.8% | 31.0hPa | 2.5V | 00:00:00 | 01:44:45 | 00:00:00 | |
| OE5DRO-10 | 2026-09-06 00:14:11 | 47.72525 | 12.76383 | 236° | 16km/h | 24012m | 4.8m/s | -51.8°C | 3.8% | 31.0hPa | 2.5V | 00:00:00 | 00:00:00 | 00:00:00 | |
| BAUMI2-15 | 2026-09-06 00:14:07 | 47.72542 | 12.76406 | 211° | 15km/h | 23991m | 4.1m/s | -51.7°C | 3.8% | 31.1hPa | 2.5V | 00:00:00 | 01:44:40 | 00:00:00 | |
| OE5WHR-10 | 2026-09-06 00:14:06 | 47.72547 | 12.76410 | 214° | 15km/h | 23986m | 6.0m/s | -51.7°C | 3.8% | 31.1hPa | 2.5V | 00:00:00 | 00:00:00 | 00:00:00 | |
| OE8JPQ-2 | 2026-09-06 00:14:03 | 47.72553 | 12.76418 | 208° | 15km/h | 23970m | 5.9m/s | -51.6°C | 3.8% | 31.2hPa | 2.6V | 00:00:00 | 01:44:36 | 00:00:00 | |
| BAUMI2-15 | 2026-09-06 00:14:02 | 47.72555 | 12.76419 | 192° | 9km/h | 23964m | 5.8m/s | -51.6°C | 3.7% | 31.2hPa | 2.6V | 00:00:00 | 01:44:35 | 00:00:00 | |
| DG1MFX-10 | 2026-09-06 00:14:00 | 47.72556 | 12.76420 | 193° | 7km/h | 23958m | 4.9m/s | -51.6°C | 1.1% | 31.3hPa | 2.6V | 00:00:00 | 00:00:00 | 00:00:00 | |
| BAUMI2-15 | 2026-09-06 00:13:57 | 47.72564 | 12.76430 | 227° | 20km/h | 23938m | 4.2m/s | -51.5°C | 3.7% | 31.3hPa | 2.6V | 00:00:00 | 01:44:30 | 00:00:00 | |
| OE5HKT-10 | 2026-09-06 00:13:54 | 47.72576 | 12.76440 | 199° | 18km/h | 23922m | 4.7m/s | -51.4°C | 3.7% | 31.4hPa | 2.6V | 00:00:00 | 00:00:00 | 00:00:00 | |
| OE5DXL-15 | 2026-09-06 00:13:52 | 47.72586 | 12.76446 | 201° | 20km/h | 23911m | 5.6m/s | -51.5°C | 3.7% | 31.5hPa | 2.6V | 00:00:00 | 00:00:00 | 00:00:00 | |
| BAUMI2-15 | 2026-09-06 00:13:47 | 47.72606 | 12.76451 | 183° | 13km/h | 23886m | 4.3m/s | -51.4°C | 3.7% | 31.6hPa | 2.6V | 00:00:00 | 01:44:20 | 00:00:00 | |
| OE5WHR-10 | 2026-09-06 00:13:45 | 47.72611 | 12.76454 | 222° | 20km/h | 23875m | 5.6m/s | -51.4°C | 3.7% | 31.7hPa | 2.6V | 00:00:00 | 00:00:00 | 00:00:00 | |
| OE8JPQ-2 | 2026-09-06 00:13:43 | 47.72616 | 12.76462 | 227° | 22km/h | 23865m | 5.5m/s | -51.5°C | 3.7% | 31.7hPa | 2.6V | 00:00:00 | 00:00:00 | 00:00:00 | |
| BAUMI2-15 | 2026-09-06 00:13:42 | 47.72619 | 12.76465 | 214° | 20km/h | 23859m | 5.7m/s | -51.5°C | 3.7% | 31.7hPa | 2.6V | 00:00:00 | 01:44:15 | 00:00:00 | |
| DG1MFX-10 | 2026-09-06 00:13:39 | 47.72627 | 12.76470 | 196° | 20km/h | 23848m | 5.2m/s | -51.6°C | 1.1% | 31.8hPa | 2.6V | 00:00:00 | 00:00:00 | 00:00:00 | |
| BAUMI2-15 | 2026-09-06 00:13:37 | 47.72644 | 12.76475 | 187° | 26km/h | 23832m | 5.1m/s | -51.6°C | 3.7% | 31.9hPa | 2.6V | 00:00:00 | 01:44:10 | 08:30:00 | |
| OE5HKT-10 | 2026-09-06 00:13:33 | 47.72670 | 12.76473 | 178° | 22km/h | 23811m | 5.7m/s | -51.8°C | 3.7% | 32.0hPa | 2.5V | 00:00:00 | 00:00:00 | 00:00:00 | |
| BAUMI2-15 | 2026-09-06 00:13:32 | 47.72676 | 12.76473 | 189° | 20km/h | 23805m | 5.4m/s | -51.8°C | 3.8% | 32.0hPa | 2.5V | 00:00:00 | 01:44:05 | 00:00:00 | |
| BAUMI2-15 | 2026-09-06 00:13:27 | 47.72700 | 12.76476 | 170° | 22km/h | 23780m | 5.1m/s | -52.1°C | 3.8% | 32.1hPa | 2.5V | 00:00:00 | 01:44:00 | 00:00:00 | |
| OE5WHR-10 | 2026-09-06 00:13:24 | 47.72718 | 12.76473 | 179° | 18km/h | 23764m | 4.6m/s | -52.1°C | 3.9% | 32.2hPa | 2.5V | 00:00:00 | 01:43:57 | 00:00:00 | |
| OE8JPQ-2 | 2026-09-06 00:13:23 | 47.72725 | 12.76473 | 177° | 16km/h | 23760m | 4.5m/s | -52.1°C | 3.8% | 32.2hPa | 2.5V | 00:00:00 | 00:00:00 | 00:00:00 | |
| OE5DXL-15 | 2026-09-06 00:13:22 | 47.72732 | 12.76472 | 174° | 15km/h | 23754m | 6.1m/s | -52.0°C | 3.8% | 32.3hPa | 2.5V | 00:00:00 | 00:00:00 | 00:00:00 | |
| DG1MFX-10 | 2026-09-06 00:13:18 | 47.72750 | 12.76468 | 178° | 20km/h | 23738m | 6.2m/s | -52.0°C | 1.1% | 32.4hPa | 2.6V | 00:00:00 | 00:00:00 | 00:00:00 | |
| OE5DRO-10 | 2026-09-06 00:13:14 | 47.72768 | 12.76462 | 151° | 13km/h | 23713m | 4.6m/s | -52.1°C | 3.8% | 32.5hPa | 2.6V | 00:00:00 | 00:00:00 | 00:00:00 | |
| OE5HKT-10 | 2026-09-06 00:13:12 | 47.72777 | 12.76457 | 173° | 11km/h | 23703m | 6.1m/s | -52.1°C | 3.8% | 32.5hPa | 2.6V | 00:00:00 | 01:43:45 | 00:00:00 | |
| OE5WHR-10 | 2026-09-06 00:13:03 | 47.72805 | 12.76461 | 115° | 7km/h | 23654m | 6.3m/s | -52.1°C | 3.7% | 32.8hPa | 2.6V | 00:00:00 | 00:00:00 | 00:00:00 | |
| DG1MFX-10 | 2026-09-06 00:12:57 | 47.72814 | 12.76451 | 184° | 13km/h | 23628m | 5.0m/s | -52.4°C | 1.1% | 33.0hPa | 2.5V | 00:00:00 | 00:00:00 | 00:00:00 | |
| OE5DRO-10 | 2026-09-06 00:12:55 | 47.72823 | 12.76452 | 181° | 5km/h | 23613m | 4.7m/s | -52.5°C | 3.9% | 33.0hPa | 2.5V | 00:00:00 | 00:00:00 | 00:00:00 | |
| OE5DXL-15 | 2026-09-06 00:12:52 | 47.72825 | 12.76454 | 285° | 5km/h | 23598m | 5.7m/s | -52.6°C | 3.9% | 33.1hPa | 2.5V | 00:00:00 | 00:00:00 | 00:00:00 | |
| OE5HKT-10 | 2026-09-06 00:12:51 | 47.72824 | 12.76456 | 288° | 5km/h | 23593m | 4.7m/s | -52.6°C | 3.8% | 33.1hPa | 2.5V | 00:00:00 | 00:00:00 | 08:30:00 | |
| OE8JPQ-2 | 2026-09-06 00:12:43 | 47.72828 | 12.76452 | 107° | 7km/h | 23551m | 5.5m/s | -52.7°C | 3.9% | 33.3hPa | 2.5V | 00:00:00 | 00:00:00 | 08:30:00 | |
| OE5WHR-10 | 2026-09-06 00:12:42 | 47.72829 | 12.76450 | 113° | 7km/h | 23546m | 5.4m/s | -52.8°C | 4.0% | 33.3hPa | 2.5V | 00:00:00 | 00:00:00 | 00:00:00 | |
| DG1MFX-10 | 2026-09-06 00:12:37 | 47.72832 | 12.76450 | 253° | 9km/h | 23525m | 5.2m/s | -53.0°C | 1.2% | 33.5hPa | 2.5V | 00:00:00 | 00:00:00 | 00:00:00 | |
| OE5DRO-10 | 2026-09-06 00:12:36 | 47.72833 | 12.76457 | 265° | 7km/h | 23515m | 5.8m/s | -52.9°C | 4.0% | 33.5hPa | 2.5V | 00:00:00 | 00:00:00 | 00:00:00 | |
| OE5HKT-10 | 2026-09-06 00:12:30 | 47.72826 | 12.76462 | 47° | 7km/h | 23484m | 6.4m/s | -52.7°C | 3.9% | 33.7hPa | 2.5V | 00:00:00 | 00:00:00 | 00:00:00 | |
| OE5FHM-15 | 2026-09-06 00:12:25 | 47.72823 | 12.76450 | 108° | 11km/h | 23457m | 5.3m/s | -52.7°C | 3.8% | 33.8hPa | 2.5V | 00:00:00 | 01:42:58 | 00:00:00 | |
| OE8JPQ-2 | 2026-09-06 00:12:23 | 47.72826 | 12.76447 | 150° | 11km/h | 23446m | 5.2m/s | -52.7°C | 3.8% | 33.9hPa | 2.5V | 00:00:00 | 00:00:00 | 00:00:00 | |
| OE5DXL-15 | 2026-09-06 00:12:22 | 47.72827 | 12.76445 | 158° | 16km/h | 23441m | 4.3m/s | -52.7°C | 3.8% | 33.9hPa | 2.5V | 00:00:00 | 00:00:00 | 00:00:00 | |
| OE5WHR-10 | 2026-09-06 00:12:21 | 47.72829 | 12.76445 | 174° | 13km/h | 23436m | 5.9m/s | -52.7°C | 3.8% | 33.9hPa | 2.5V | 00:00:00 | 01:42:54 | 00:00:00 | |
| OE5DRO-10 | 2026-09-06 00:12:17 | 47.72834 | 12.76446 | 159° | 13km/h | 23415m | 5.8m/s | -52.8°C | 3.8% | 34.0hPa | 2.5V | 00:00:00 | 00:00:00 | 00:00:00 | |
| OE5HKT-10 | 2026-09-06 00:12:09 | 47.72849 | 12.76419 | 140° | 22km/h | 23375m | 3.8m/s | -53.4°C | 4.0% | 34.3hPa | 2.5V | 00:00:00 | 01:42:42 | 00:00:00 | |
| OE8JPQ-2 | 2026-09-06 00:12:03 | 47.72871 | 12.76396 | 159° | 22km/h | 23345m | 5.7m/s | -53.7°C | 4.1% | 34.4hPa | 2.5V | 00:00:00 | 01:42:36 | 00:00:00 | |
| OE5WHR-10 | 2026-09-06 00:12:00 | 47.72886 | 12.76385 | 140° | 22km/h | 23330m | 5.5m/s | -53.8°C | 4.1% | 34.5hPa | 2.5V | 00:00:00 | 00:00:00 | 08:30:00 | |
| DG1MFX-10 | 2026-09-06 00:11:56 | 47.72895 | 12.76366 | 122° | 24km/h | 23316m | 6.0m/s | -53.9°C | 1.2% | 34.6hPa | 2.6V | 00:00:00 | 00:00:00 | 00:00:00 | |
| OE5DXL-15 | 2026-09-06 00:11:52 | 47.72910 | 12.76321 | 103° | 16km/h | 23290m | 4.7m/s | -54.1°C | 4.1% | 34.7hPa | 2.6V | 00:00:00 | 00:00:00 | 00:00:00 | |
| OE5HKT-10 | 2026-09-06 00:11:48 | 47.72917 | 12.76288 | 129° | 13km/h | 23270m | 4.6m/s | -54.1°C | 4.1% | 34.8hPa | 2.5V | 00:00:00 | 00:00:00 | 00:00:00 | |
| OE5DRO-10 | 2026-09-06 00:11:44 | 47.72924 | 12.76270 | 90° | 11km/h | 23250m | 4.9m/s | -54.0°C | 4.1% | 34.9hPa | 2.5V | 00:00:00 | 00:00:00 | 08:30:00 | |
| OE8JPQ-2 | 2026-09-06 00:11:43 | 47.72924 | 12.76264 | 86° | 15km/h | 23246m | 4.6m/s | -54.0°C | 4.1% | 35.0hPa | 2.5V | 00:00:00 | 00:00:00 | 00:00:00 | |
| OE5WHR-10 | 2026-09-06 00:11:39 | 47.72924 | 12.76235 | 83° | 13km/h | 23225m | 5.4m/s | -54.1°C | 4.1% | 35.1hPa | 2.5V | 00:00:00 | 00:00:00 | 00:00:00 | |
| DG1MFX-10 | 2026-09-06 00:11:36 | 47.72922 | 12.76226 | 61° | 9km/h | 23215m | 4.3m/s | -54.2°C | 1.3% | 35.2hPa | 2.5V | 00:00:00 | 00:00:00 | 00:00:00 | |
| OE5HKT-10 | 2026-09-06 00:11:27 | 47.72908 | 12.76192 | 58° | 13km/h | 23166m | 3.8m/s | -54.4°C | 4.2% | 35.4hPa | 2.5V | 00:00:00 | 00:00:00 | 00:00:00 | |
| OE8JPQ-2 | 2026-09-06 00:11:23 | 47.72895 | 12.76181 | 346° | 13km/h | 23146m | 4.7m/s | -54.4°C | 4.2% | 35.5hPa | 2.5V | 00:00:00 | 00:00:00 | 00:00:00 | |
| BAUMI2-15 | 2026-09-06 00:11:22 | 47.72891 | 12.76183 | 333° | 13km/h | 23141m | 6.0m/s | -54.4°C | 4.1% | 35.6hPa | 2.5V | 00:00:00 | 01:41:55 | 00:00:00 | |
| OE5WHR-10 | 2026-09-06 00:11:18 | 47.72880 | 12.76190 | 5° | 11km/h | 23120m | 4.4m/s | -54.5°C | 4.2% | 35.7hPa | 2.5V | 00:00:00 | 01:41:51 | 00:00:00 | |
| BAUMI2-15 | 2026-09-06 00:11:17 | 47.72878 | 12.76189 | 29° | 15km/h | 23116m | 4.6m/s | -54.6°C | 4.2% | 35.7hPa | 2.5V | 00:00:00 | 01:41:50 | 00:00:00 | |
| DG1MFX-10 | 2026-09-06 00:11:16 | 47.72878 | 12.76189 | 29° | 13km/h | 23116m | 4.7m/s | -54.6°C | 1.3% | 35.7hPa | 2.5V | 00:00:00 | 00:00:00 | 00:00:00 | |
| OE5FHM-15 | 2026-09-06 00:11:15 | 47.72873 | 12.76182 | 65° | 11km/h | 23105m | 4.8m/s | -54.8°C | 4.3% | 35.7hPa | 2.5V | 00:00:00 | 01:41:48 | 00:00:00 | |
| BAUMI2-15 | 2026-09-06 00:11:12 | 47.72867 | 12.76168 | 40° | 13km/h | 23090m | 4.8m/s | -54.8°C | 4.3% | 35.8hPa | 2.5V | 00:00:00 | 01:41:45 | 00:00:00 | |
| BAUMI2-15 | 2026-09-06 00:11:07 | 47.72855 | 12.76169 | 283° | 13km/h | 23066m | 4.3m/s | -54.7°C | 4.3% | 36.0hPa | 2.5V | 00:00:00 | 01:41:40 | 00:00:00 | |
| OE5HKT-10 | 2026-09-06 00:11:06 | 47.72854 | 12.76173 | 282° | 5km/h | 23061m | 4.9m/s | -54.7°C | 4.3% | 36.0hPa | 2.6V | 00:00:00 | 01:41:39 | 00:00:00 | |
| OE8JPQ-2 | 2026-09-06 00:11:03 | 47.72851 | 12.76187 | 298° | 5km/h | 23047m | 4.3m/s | -54.6°C | 4.3% | 36.1hPa | 2.6V | 00:00:00 | 01:41:36 | 00:00:00 | |
| BAUMI2-15 | 2026-09-06 00:11:02 | 47.72850 | 12.76191 | 297° | 4km/h | 23042m | 4.7m/s | -54.6°C | 4.3% | 36.1hPa | 2.6V | 00:00:00 | 01:41:35 | 00:00:00 | |
| OE5WHR-10 | 2026-09-06 00:10:57 | 47.72848 | 12.76194 | 33° | 7km/h | 23018m | 5.2m/s | -54.5°C | 4.3% | 36.2hPa | 2.6V | 00:00:00 | 00:00:00 | 00:00:00 | |
| DG1MFX-10 | 2026-09-06 00:10:55 | 47.72846 | 12.76193 | 29° | 5km/h | 23013m | 4.1m/s | -54.6°C | 1.3% | 36.3hPa | 2.5V | 00:00:00 | 00:00:00 | 00:00:00 | |
| OE5DXL-15 | 2026-09-06 00:10:52 | 47.72845 | 12.76190 | 185° | 13km/h | 22993m | 4.8m/s | -54.5°C | 4.2% | 36.4hPa | 2.5V | 00:00:00 | 00:00:00 | 00:00:00 | |
| OE5DRO-10 | 2026-09-06 00:10:51 | 47.72845 | 12.76191 | 217° | 11km/h | 22987m | 6.0m/s | -54.5°C | 4.1% | 36.4hPa | 2.5V | 00:00:00 | 00:00:00 | 00:00:00 | |
| BAUMI2-15 | 2026-09-06 00:10:47 | 47.72846 | 12.76191 | 156° | 9km/h | 22966m | 5.9m/s | -54.5°C | 4.2% | 36.5hPa | 2.5V | 00:00:00 | 01:41:20 | 00:00:00 | |
| OE5FHM-15 | 2026-09-06 00:10:45 | 47.72849 | 12.76188 | 135° | 18km/h | 22956m | 4.4m/s | -54.6°C | 4.2% | 36.6hPa | 2.5V | 00:00:00 | 01:41:18 | 08:30:00 | |
| OE8JPQ-2 | 2026-09-06 00:10:43 | 47.72852 | 12.76180 | 105° | 16km/h | 22945m | 5.1m/s | -54.7°C | 4.3% | 36.7hPa | 2.5V | 00:00:00 | 00:00:00 | 00:00:00 | |
| BAUMI2-15 | 2026-09-06 00:10:42 | 47.72853 | 12.76175 | 104° | 15km/h | 22940m | 4.5m/s | -54.7°C | 4.2% | 36.7hPa | 2.5V | 00:00:00 | 01:41:15 | 00:00:00 | |
| OE5WHR-10 | 2026-09-06 00:10:36 | 47.72865 | 12.76151 | 131° | 20km/h | 22910m | 4.5m/s | -54.8°C | 4.4% | 36.9hPa | 2.5V | 00:00:00 | 00:00:00 | 00:00:00 | |
| DG1MFX-10 | 2026-09-06 00:10:34 | 47.72868 | 12.76147 | 134° | 15km/h | 22906m | 4.0m/s | -54.9°C | 1.4% | 36.9hPa | 2.5V | 00:00:00 | 00:00:00 | 00:00:00 | |
| OE5DRO-10 | 2026-09-06 00:10:32 | 47.72878 | 12.76135 | 142° | 20km/h | 22890m | 4.3m/s | -54.9°C | 4.4% | 37.0hPa | 2.5V | 00:00:00 | 00:00:00 | 00:00:00 | |
| BAUMI2-15 | 2026-09-06 00:10:27 | 47.72896 | 12.76103 | 129° | 15km/h | 22864m | 4.8m/s | -54.8°C | 4.4% | 37.1hPa | 2.5V | 00:00:00 | 01:41:00 | 00:00:00 | |
| OE8JPQ-2 | 2026-09-06 00:10:23 | 47.72904 | 12.76084 | 112° | 18km/h | 22844m | 3.9m/s | -54.7°C | 4.3% | 37.2hPa | 2.5V | 00:00:00 | 00:00:00 | 00:00:00 | |
| BAUMI2-15 | 2026-09-06 00:10:22 | 47.72906 | 12.76080 | 122° | 20km/h | 22840m | 4.5m/s | -54.7°C | 4.3% | 37.3hPa | 2.5V | 00:00:00 | 01:40:55 | 00:00:00 | |
| BAUMI2-15 | 2026-09-06 00:10:17 | 47.72927 | 12.76056 | 138° | 24km/h | 22814m | 6.0m/s | -54.6°C | 4.2% | 37.4hPa | 2.6V | 00:00:00 | 01:40:50 | 00:00:00 | |
| OE5FHM-15 | 2026-09-06 00:10:15 | 47.72936 | 12.76041 | 130° | 20km/h | 22804m | 4.7m/s | -54.5°C | 4.2% | 37.5hPa | 2.6V | 00:00:00 | 01:40:48 | 00:00:00 | |
| DG1MFX-10 | 2026-09-06 00:10:14 | 47.72936 | 12.76041 | 130° | 26km/h | 22804m | 4.8m/s | -54.6°C | 1.3% | 37.5hPa | 2.6V | 00:00:00 | 00:00:00 | 00:00:00 | |
| OE5DRO-10 | 2026-09-06 00:10:13 | 47.72944 | 12.76029 | 142° | 18km/h | 22794m | 5.8m/s | -54.6°C | 4.2% | 37.6hPa | 2.6V | 00:00:00 | 00:00:00 | 00:00:00 | |
| BAUMI2-15 | 2026-09-06 00:10:12 | 47.72948 | 12.76025 | 152° | 13km/h | 22788m | 4.8m/s | -54.6°C | 4.2% | 37.6hPa | 2.6V | 00:00:00 | 01:40:45 | 00:00:00 | |
| BAUMI2-15 | 2026-09-06 00:10:07 | 47.72964 | 12.76016 | 171° | 20km/h | 22762m | 6.2m/s | -54.5°C | 4.3% | 37.7hPa | 2.6V | 00:00:00 | 01:40:40 | 08:30:00 | |
| BAUMI2-15 | 2026-09-06 00:09:57 | 47.73015 | 12.75997 | 179° | 18km/h | 22709m | 5.2m/s | -54.3°C | 4.1% | 38.0hPa | 2.5V | 00:00:00 | 01:40:30 | 00:00:00 | |
| OE5WHR-10 | 2026-09-06 00:09:54 | 47.73028 | 12.75997 | 173° | 26km/h | 22693m | 5.1m/s | -54.3°C | 4.1% | 38.2hPa | 2.5V | 00:00:00 | 00:00:00 | 00:00:00 | |
| DG1MFX-10 | 2026-09-06 00:09:53 | 47.73028 | 12.75997 | 174° | 20km/h | 22693m | 5.2m/s | -54.3°C | 1.3% | 38.2hPa | 2.5V | 00:00:00 | 00:00:00 | 00:00:00 | |
| OE5DXL-15 | 2026-09-06 00:09:52 | 47.73038 | 12.75992 | 151° | 26km/h | 22683m | 6.2m/s | -54.4°C | 4.1% | 38.2hPa | 2.5V | 00:00:00 | 00:00:00 | 00:00:00 | |
| BAUMI2-15 | 2026-09-06 00:09:47 | 47.73066 | 12.75960 | 150° | 22km/h | 22658m | 4.0m/s | -54.7°C | 4.2% | 38.4hPa | 2.5V | 00:00:00 | 01:40:20 | 00:00:00 | |
| OE5FHM-15 | 2026-09-06 00:09:45 | 47.73076 | 12.75952 | 155° | 27km/h | 22647m | 5.4m/s | -54.8°C | 4.2% | 38.5hPa | 2.5V | 00:00:00 | 01:40:18 | 00:00:00 | |
| OE8JPQ-2 | 2026-09-06 00:09:43 | 47.73085 | 12.75948 | 176° | 26km/h | 22637m | 4.5m/s | -54.9°C | 4.3% | 38.5hPa | 2.5V | 00:00:00 | 00:00:00 | 08:30:00 | |
| OE5HKT-10 | 2026-09-06 00:09:42 | 47.73090 | 12.75948 | 185° | 27km/h | 22632m | 6.0m/s | -55.0°C | 4.3% | 38.5hPa | 2.5V | 00:00:00 | 00:00:00 | 08:30:00 | |
| BAUMI2-15 | 2026-09-06 00:09:37 | 47.73123 | 12.75950 | 171° | 27km/h | 22605m | 4.5m/s | -55.1°C | 4.4% | 38.7hPa | 2.5V | 00:00:00 | 01:40:10 | 00:00:00 | |
| OE5DRO-10 | 2026-09-06 00:09:35 | 47.73136 | 12.75946 | 168° | 27km/h | 22596m | 5.8m/s | -55.2°C | 4.4% | 38.7hPa | 2.5V | 00:00:00 | 00:00:00 | 00:00:00 | |
| OE5WHR-10 | 2026-09-06 00:09:33 | 47.73149 | 12.75942 | 171° | 27km/h | 22586m | 4.5m/s | -55.2°C | 4.4% | 38.8hPa | 2.5V | 00:00:00 | 00:00:00 | 00:00:00 | |
| BAUMI2-15 | 2026-09-06 00:09:32 | 47.73155 | 12.75940 | 171° | 22km/h | 22580m | 5.5m/s | -55.2°C | 4.4% | 38.8hPa | 2.5V | 00:00:00 | 01:40:05 | 00:00:00 | |
| PG1ADW-2 | 2026-09-06 00:09:29 | 47.73171 | 12.75936 | 165° | 31km/h | 22564m | 5.4m/s | -55.2°C | 4.4% | 38.9hPa | 2.5V | 00:00:00 | 01:40:02 | 00:00:00 | |
| BAUMI2-15 | 2026-09-06 00:09:27 | 47.73182 | 12.75930 | 161° | 27km/h | 22553m | 4.8m/s | -55.1°C | 4.4% | 39.0hPa | 2.5V | 00:00:00 | 01:40:00 | 00:00:00 | |
| OE8JPQ-2 | 2026-09-06 00:09:23 | 47.73210 | 12.75912 | 152° | 33km/h | 22532m | 5.1m/s | -55.0°C | 4.3% | 39.1hPa | 2.5V | 00:00:00 | 00:00:00 | 00:00:00 | |
| OE5DXL-15 | 2026-09-06 00:09:22 | 47.73218 | 12.75906 | 152° | 31km/h | 22527m | 6.2m/s | -55.0°C | 4.3% | 39.2hPa | 2.5V | 00:00:00 | 00:00:00 | 00:00:00 | |
| OE5HKT-10 | 2026-09-06 00:09:21 | 47.73225 | 12.75900 | 152° | 33km/h | 22521m | 5.1m/s | -55.1°C | 4.3% | 39.2hPa | 2.5V | 00:00:00 | 00:00:00 | 00:00:00 | |
| OE5DRO-10 | 2026-09-06 00:09:16 | 47.73258 | 12.75875 | 150° | 33km/h | 22495m | 5.5m/s | -55.3°C | 4.5% | 39.4hPa | 2.5V | 00:00:00 | 00:00:00 | 00:00:00 | |
| OE5FHM-15 | 2026-09-06 00:09:15 | 47.73264 | 12.75870 | 146° | 22km/h | 22490m | 5.2m/s | -55.3°C | 4.5% | 39.4hPa | 2.5V | 00:00:00 | 01:39:48 | 00:00:00 | |
| OE5WHR-10 | 2026-09-06 00:09:12 | 47.73281 | 12.75848 | 135° | 33km/h | 22474m | 5.9m/s | -55.4°C | 4.5% | 39.5hPa | 2.5V | 00:00:00 | 01:39:45 | 00:00:00 | |
| OE8JPQ-2 | 2026-09-06 00:09:03 | 47.73341 | 12.75769 | 136° | 27km/h | 22426m | 6.2m/s | -55.2°C | 4.5% | 39.8hPa | 2.5V | 00:00:00 | 01:39:36 | 00:00:00 | |
| OE5HKT-10 | 2026-09-06 00:09:00 | 47.73355 | 12.75741 | 115° | 27km/h | 22408m | 6.4m/s | -55.0°C | 4.4% | 39.9hPa | 2.5V | 00:00:00 | 01:39:33 | 00:00:00 | |
| OE5DRO-10 | 2026-09-06 00:08:57 | 47.73365 | 12.75711 | 125° | 26km/h | 22393m | 5.9m/s | -55.0°C | 4.4% | 40.0hPa | 2.5V | 00:00:00 | 00:00:00 | 00:00:00 | |
| OE5DXL-15 | 2026-09-06 00:08:52 | 47.73396 | 12.75680 | 165° | 22km/h | 22366m | 4.8m/s | -54.8°C | 4.4% | 40.2hPa | 2.5V | 00:00:00 | 00:00:00 | 00:00:00 | |
| OE5WHR-10 | 2026-09-06 00:08:51 | 47.73402 | 12.75678 | 166° | 24km/h | 22361m | 4.8m/s | -54.8°C | 4.4% | 40.2hPa | 2.6V | 00:00:00 | 00:00:00 | 08:30:00 | |
| OE8JPQ-2 | 2026-09-06 00:08:43 | 47.73437 | 12.75627 | 121° | 22km/h | 22318m | 5.2m/s | -54.7°C | 4.4% | 40.5hPa | 2.5V | 00:00:00 | 00:00:00 | 00:00:00 | |
| OE5HKT-10 | 2026-09-06 00:08:39 | 47.73451 | 12.75604 | 151° | 20km/h | 22298m | 4.6m/s | -54.6°C | 4.4% | 40.6hPa | 2.6V | 00:00:00 | 00:00:00 | 00:00:00 | |
| OE5DRO-10 | 2026-09-06 00:08:38 | 47.73456 | 12.75600 | 156° | 22km/h | 22292m | 6.3m/s | -54.5°C | 4.4% | 40.6hPa | 2.5V | 00:00:00 | 00:00:00 | 00:00:00 | |
| OE5WHR-10 | 2026-09-06 00:08:30 | 47.73489 | 12.75558 | 121° | 18km/h | 22250m | 4.9m/s | -54.2°C | 4.3% | 40.9hPa | 2.5V | 00:00:00 | 00:00:00 | 00:00:00 | |
| PG1ADW-2 | 2026-09-06 00:08:29 | 47.73492 | 12.75552 | 121° | 18km/h | 22246m | 4.0m/s | -54.2°C | 4.3% | 40.9hPa | 2.5V | 00:00:00 | 00:00:00 | 00:00:00 | |
| OE8JPQ-2 | 2026-09-06 00:08:23 | 47.73507 | 12.75515 | 127° | 18km/h | 22215m | 4.5m/s | -53.9°C | 4.2% | 41.1hPa | 2.5V | 00:00:00 | 00:00:00 | 00:00:00 | |
| OE5DXL-15 | 2026-09-06 00:08:22 | 47.73511 | 12.75507 | 126° | 15km/h | 22210m | 4.1m/s | -53.9°C | 4.2% | 41.1hPa | 2.5V | 00:00:00 | 00:00:00 | 00:00:00 | |
| OE5DRO-10 | 2026-09-06 00:08:19 | 47.73519 | 12.75488 | 119° | 16km/h | 22195m | 4.5m/s | -53.8°C | 4.2% | 41.3hPa | 2.5V | 00:00:00 | 00:00:00 | 08:30:00 | |
| OE5HKT-10 | 2026-09-06 00:08:18 | 47.73521 | 12.75483 | 118° | 15km/h | 22190m | 4.9m/s | -53.8°C | 4.1% | 41.3hPa | 2.5V | 00:00:00 | 00:00:00 | 00:00:00 | |
| OE5FHM-15 | 2026-09-06 00:08:12 | 47.73533 | 12.75454 | 125° | 13km/h | 22160m | 3.9m/s | -53.6°C | 4.1% | 41.5hPa | 2.5V | 00:00:00 | 01:38:45 | 00:00:00 | |
| DG1MFX-10 | 2026-09-06 00:08:11 | 47.73534 | 12.75454 | 125° | 16km/h | 22160m | 4.0m/s | -53.7°C | 1.3% | 41.5hPa | 2.5V | 00:00:00 | 00:00:00 | 00:00:00 | |
| OE5WHR-10 | 2026-09-06 00:08:09 | 47.73542 | 12.75435 | 124° | 13km/h | 22144m | 4.6m/s | -53.7°C | 4.1% | 41.6hPa | 2.5V | 00:00:00 | 01:38:42 | 00:00:00 | |
| PETON7-10 | 2026-09-06 00:08:05 | 47.73552 | 12.75414 | 138° | 11km/h | 22124m | 4.1m/s | -53.8°C | 4.2% | 41.7hPa | 2.5V | 00:00:00 | 01:38:38 | 00:00:00 | |
| OE8JPQ-2 | 2026-09-06 00:08:03 | 47.73556 | 12.75409 | 148° | 13km/h | 22113m | 5.3m/s | -53.8°C | 4.2% | 41.8hPa | 2.5V | 00:00:00 | 01:38:36 | 00:00:00 | |
| OE5DRO-10 | 2026-09-06 00:08:00 | 47.73565 | 12.75403 | 163° | 13km/h | 22098m | 5.9m/s | -53.9°C | 4.2% | 41.9hPa | 2.5V | 00:00:00 | 00:00:00 | 00:00:00 | |
| OE5HKT-10 | 2026-09-06 00:07:57 | 47.73572 | 12.75399 | 147° | 13km/h | 22082m | 6.0m/s | -53.9°C | 4.2% | 42.0hPa | 2.5V | 00:00:00 | 01:38:30 | 00:00:00 | |
| OE5DXL-15 | 2026-09-06 00:07:52 | 47.73584 | 12.75389 | 186° | 15km/h | 22058m | 4.3m/s | -53.8°C | 4.2% | 42.2hPa | 2.5V | 00:00:00 | 00:00:00 | 00:00:00 | |
| PETON7-10 | 2026-09-06 00:07:49 | 47.73595 | 12.75390 | 179° | 13km/h | 22043m | 4.9m/s | -53.7°C | 4.1% | 42.3hPa | 2.5V | 00:00:00 | 00:00:00 | 00:00:00 | |
| OE5WHR-10 | 2026-09-06 00:07:48 | 47.73599 | 12.75390 | 176° | 15km/h | 22038m | 4.3m/s | -53.7°C | 4.2% | 42.3hPa | 2.5V | 00:00:00 | 00:00:00 | 00:00:00 | |
| OE8JPQ-2 | 2026-09-06 00:07:43 | 47.73616 | 12.75384 | 158° | 15km/h | 22013m | 5.0m/s | -53.6°C | 4.1% | 42.5hPa | 2.5V | 00:00:00 | 00:00:00 | 00:00:00 | |
| OE5DRO-10 | 2026-09-06 00:07:41 | 47.73622 | 12.75380 | 164° | 15km/h | 22003m | 4.8m/s | -53.6°C | 4.1% | 42.5hPa | 2.5V | 00:00:00 | 00:00:00 | 00:00:00 | |
| OE5FHM-15 | 2026-09-06 00:07:37 | 47.73632 | 12.75378 | 175° | 22km/h | 21982m | 5.5m/s | -53.5°C | 4.0% | 42.7hPa | 2.5V | 00:00:00 | 01:38:10 | 00:00:00 | |
| OE5HKT-10 | 2026-09-06 00:07:36 | 47.73636 | 12.75377 | 169° | 18km/h | 21977m | 4.1m/s | -53.5°C | 4.0% | 42.7hPa | 2.5V | 00:00:00 | 00:00:00 | 00:00:00 | |
| PETON7-10 | 2026-09-06 00:07:34 | 47.73643 | 12.75373 | 155° | 16km/h | 21968m | 5.3m/s | -53.5°C | 4.0% | 42.8hPa | 2.6V | 00:00:00 | 00:00:00 | 00:00:00 | |
| DG1MFX-10 | 2026-09-06 00:07:28 | 47.73660 | 12.75361 | 164° | 18km/h | 21943m | 4.4m/s | -53.5°C | 1.2% | 43.0hPa | 2.6V | 00:00:00 | 00:00:00 | 00:00:00 | |
| OE5WHR-10 | 2026-09-06 00:07:27 | 47.73668 | 12.75357 | 151° | 20km/h | 21933m | 5.5m/s | -53.5°C | 4.0% | 43.0hPa | 2.6V | 00:00:00 | 00:00:00 | 00:00:00 | |
| OE8JPQ-2 | 2026-09-06 00:07:23 | 47.73681 | 12.75341 | 140° | 22km/h | 21912m | 5.1m/s | -53.7°C | 4.1% | 43.2hPa | 2.6V | 00:00:00 | 00:00:00 | 00:00:00 | |
| OE5DRO-10 | 2026-09-06 00:07:22 | 47.73684 | 12.75336 | 136° | 22km/h | 21907m | 5.5m/s | -53.7°C | 4.0% | 43.2hPa | 2.6V | 00:00:00 | 00:00:00 | 00:00:00 | |
| PETON7-10 | 2026-09-06 00:07:19 | 47.73694 | 12.75320 | 137° | 22km/h | 21893m | 5.0m/s | -53.8°C | 4.1% | 43.3hPa | 2.6V | 00:00:00 | 01:37:52 | 00:00:00 | |
| BAUMI2-15 | 2026-09-06 00:07:17 | 47.73703 | 12.75310 | 151° | 22km/h | 21882m | 4.8m/s | -53.8°C | 4.1% | 43.3hPa | 2.6V | 00:00:00 | 01:37:50 | 00:00:00 | |
| OE5HKT-10 | 2026-09-06 00:07:15 | 47.73714 | 12.75301 | 148° | 24km/h | 21872m | 5.7m/s | -53.8°C | 4.1% | 43.4hPa | 2.6V | 00:00:00 | 00:00:00 | 00:00:00 | |
| BAUMI2-15 | 2026-09-06 00:07:12 | 47.73726 | 12.75286 | 138° | 24km/h | 21857m | 5.6m/s | -53.8°C | 4.1% | 43.5hPa | 2.6V | 00:00:00 | 01:37:45 | 00:00:00 | |
| BAUMI2-15 | 2026-09-06 00:07:07 | 47.73745 | 12.75252 | 114° | 24km/h | 21831m | 4.7m/s | -53.8°C | 4.1% | 43.7hPa | 2.6V | 00:00:00 | 01:37:40 | 00:00:00 | |
| OE5WHR-10 | 2026-09-06 00:07:06 | 47.73747 | 12.75245 | 117° | 24km/h | 21827m | 4.1m/s | -53.8°C | 4.0% | 43.7hPa | 2.5V | 00:00:00 | 01:37:39 | 00:00:00 | |
| PETON7-10 | 2026-09-06 00:07:04 | 47.73753 | 12.75231 | 131° | 24km/h | 21816m | 4.9m/s | -53.8°C | 4.0% | 43.8hPa | 2.5V | 00:00:00 | 00:00:00 | 08:30:00 | |
| OE8JPQ-2 | 2026-09-06 00:07:03 | 47.73757 | 12.75224 | 132° | 24km/h | 21811m | 4.7m/s | -53.8°C | 4.0% | 43.8hPa | 2.6V | 00:00:00 | 01:37:36 | 00:00:00 | |
| BAUMI2-15 | 2026-09-06 00:07:02 | 47.73762 | 12.75216 | 130° | 29km/h | 21806m | 5.8m/s | -53.9°C | 4.0% | 43.9hPa | 2.6V | 00:00:00 | 01:37:35 | 00:00:00 | |
| BAUMI2-15 | 2026-09-06 00:06:57 | 47.73785 | 12.75176 | 122° | 20km/h | 21782m | 4.9m/s | -54.0°C | 4.1% | 44.0hPa | 2.6V | 00:00:00 | 01:37:30 | 00:00:00 | |
| OE5HKT-10 | 2026-09-06 00:06:54 | 47.73786 | 12.75156 | 73° | 24km/h | 21765m | 4.7m/s | -54.0°C | 4.0% | 44.1hPa | 2.6V | 00:00:00 | 01:37:27 | 00:00:00 | |
| OE5DXL-15 | 2026-09-06 00:06:52 | 47.73783 | 12.75141 | 83° | 27km/h | 21755m | 4.6m/s | -54.2°C | 4.0% | 44.2hPa | 2.6V | 00:00:00 | 00:00:00 | 00:00:00 | |
| PETON7-10 | 2026-09-06 00:06:49 | 47.73785 | 12.75116 | 105° | 24km/h | 21740m | 5.3m/s | -54.4°C | 4.2% | 44.3hPa | 2.6V | 00:00:00 | 00:00:00 | 00:00:00 | |
| BAUMI2-15 | 2026-09-06 00:06:47 | 47.73790 | 12.75096 | 118° | 24km/h | 21731m | 5.8m/s | -54.5°C | 4.1% | 44.4hPa | 2.6V | 00:00:00 | 01:37:20 | 00:00:00 | |
| OE5WHR-10 | 2026-09-06 00:06:45 | 47.73797 | 12.75080 | 123° | 27km/h | 21721m | 4.2m/s | -54.7°C | 4.2% | 44.5hPa | 2.6V | 00:00:00 | 00:00:00 | 00:00:00 | |
| OE5DRO-10 | 2026-09-06 00:06:44 | 47.73800 | 12.75072 | 117° | 27km/h | 21715m | 5.8m/s | -54.7°C | 4.3% | 44.5hPa | 2.5V | 00:00:00 | 00:00:00 | 00:00:00 | |
| OE8JPQ-2 | 2026-09-06 00:06:43 | 47.73802 | 12.75065 | 104° | 27km/h | 21710m | 5.1m/s | -54.7°C | 4.3% | 44.5hPa | 2.5V | 00:00:00 | 00:00:00 | 08:30:00 | |
| BAUMI2-15 | 2026-09-06 00:06:42 | 47.73803 | 12.75058 | 97° | 20km/h | 21705m | 5.0m/s | -54.8°C | 4.3% | 44.6hPa | 2.5V | 00:00:00 | 01:37:15 | 00:00:00 | |
| OE5FHM-15 | 2026-09-06 00:06:37 | 47.73803 | 12.75018 | 95° | 33km/h | 21679m | 4.7m/s | -54.8°C | 4.3% | 44.7hPa | 2.5V | 00:00:00 | 01:37:10 | 00:00:00 | |
| PG1ADW-2 | 2026-09-06 00:06:35 | 47.73806 | 12.74994 | 104° | 35km/h | 21668m | 5.8m/s | -54.8°C | 4.3% | 44.8hPa | 2.5V | 00:00:00 | 01:37:08 | 00:00:00 | |
| PETON7-10 | 2026-09-06 00:06:34 | 47.73808 | 12.74981 | 106° | 31km/h | 21663m | 4.5m/s | -54.8°C | 4.2% | 44.9hPa | 2.6V | 00:00:00 | 01:37:07 | 00:00:00 | |
| OE5HKT-10 | 2026-09-06 00:06:33 | 47.73811 | 12.74967 | 106° | 35km/h | 21658m | 4.6m/s | -54.8°C | 4.3% | 44.9hPa | 2.6V | 00:00:00 | 00:00:00 | 08:30:00 | |
| BAUMI2-15 | 2026-09-06 00:06:32 | 47.73813 | 12.74953 | 102° | 33km/h | 21654m | 5.4m/s | -54.8°C | 4.3% | 44.9hPa | 2.5V | 00:00:00 | 01:37:05 | 00:00:00 | |
| BAUMI2-15 | 2026-09-06 00:06:27 | 47.73812 | 12.74895 | 68° | 27km/h | 21629m | 4.2m/s | -55.0°C | 4.4% | 45.1hPa | 2.5V | 00:00:00 | 01:37:00 | 00:00:00 | |
| DG1MFX-10 | 2026-09-06 00:06:26 | 47.73812 | 12.74895 | 68° | 22km/h | 21629m | 4.2m/s | -55.1°C | 1.4% | 45.1hPa | 2.5V | 00:00:00 | 00:00:00 | 00:00:00 | |
| OE5DRO-10 | 2026-09-06 00:06:25 | 47.73806 | 12.74880 | 57° | 35km/h | 21620m | 5.0m/s | -55.1°C | 4.4% | 45.1hPa | 2.5V | 00:00:00 | 00:00:00 | 00:00:00 | |
| OE5WHR-10 | 2026-09-06 00:06:24 | 47.73802 | 12.74870 | 62° | 35km/h | 21616m | 4.9m/s | -55.1°C | 4.5% | 45.2hPa | 2.6V | 00:00:00 | 00:00:00 | 00:00:00 | |
| BAUMI2-15 | 2026-09-06 00:06:22 | 47.73797 | 12.74845 | 79° | 40km/h | 21606m | 4.7m/s | -55.1°C | 4.4% | 45.3hPa | 2.6V | 00:00:00 | 01:36:55 | 00:00:00 | |
| PETON7-10 | 2026-09-06 00:06:19 | 47.73795 | 12.74800 | 91° | 33km/h | 21592m | 4.2m/s | -55.1°C | 4.4% | 45.4hPa | 2.5V | 00:00:00 | 00:00:00 | 00:00:00 | |
| BAUMI2-15 | 2026-09-06 00:06:17 | 47.73794 | 12.74769 | 85° | 33km/h | 21582m | 5.0m/s | -55.0°C | 4.4% | 45.4hPa | 2.5V | 00:00:00 | 01:36:50 | 00:00:00 | |
| PG1ADW-2 | 2026-09-06 00:06:14 | 47.73789 | 12.74730 | 74° | 33km/h | 21568m | 5.6m/s | -54.9°C | 4.4% | 45.5hPa | 2.5V | 00:00:00 | 00:00:00 | 00:00:00 | |
| BAUMI2-15 | 2026-09-06 00:06:13 | 47.73784 | 12.74712 | 57° | 29km/h | 21559m | 4.4m/s | -54.9°C | 4.4% | 45.6hPa | 2.5V | 00:00:00 | 01:36:45 | 00:00:00 | |
| OE5HKT-10 | 2026-09-06 00:06:12 | 47.73784 | 12.74712 | 57° | 31km/h | 21559m | 4.4m/s | -54.9°C | 4.4% | 45.6hPa | 2.5V | 00:00:00 | 00:00:00 | 00:00:00 | |
| OE5FHM-15 | 2026-09-06 00:06:08 | 47.73760 | 12.74668 | 59° | 35km/h | 21534m | 5.6m/s | -54.7°C | 4.3% | 45.8hPa | 2.5V | 00:00:00 | 01:36:40 | 00:00:00 | |
| OE5DRO-10 | 2026-09-06 00:06:07 | 47.73756 | 12.74658 | 65° | 35km/h | 21528m | 4.3m/s | -54.7°C | 4.3% | 45.8hPa | 2.5V | 00:00:00 | 00:00:00 | 00:00:00 | |
| DG1MFX-10 | 2026-09-06 00:06:06 | 47.73756 | 12.74658 | 66° | 31km/h | 21528m | 4.4m/s | -54.7°C | 1.4% | 45.9hPa | 2.5V | 00:00:00 | 00:00:00 | 00:00:00 | |
| PETON7-10 | 2026-09-06 00:06:04 | 47.73750 | 12.74637 | 68° | 35km/h | 21519m | 5.7m/s | -54.7°C | 4.3% | 45.9hPa | 2.5V | 00:00:00 | 00:00:00 | 00:00:00 | |
| OE5WHR-10 | 2026-09-06 00:06:03 | 47.73746 | 12.74626 | 64° | 35km/h | 21513m | 5.8m/s | -54.7°C | 4.3% | 45.9hPa | 2.5V | 00:00:00 | 01:36:36 | 00:00:00 | |
| BAUMI2-15 | 2026-09-06 00:06:02 | 47.73742 | 12.74615 | 61° | 31km/h | 21508m | 4.4m/s | -54.7°C | 4.3% | 46.0hPa | 2.5V | 00:00:00 | 01:36:35 | 00:00:00 | |
| BAUMI2-15 | 2026-09-06 00:05:57 | 47.73722 | 12.74564 | 51° | 35km/h | 21483m | 5.9m/s | -54.7°C | 4.3% | 46.1hPa | 2.5V | 00:00:00 | 01:36:30 | 00:00:00 | |
| OE8JPQ-2 | 2026-09-06 00:05:54 | 47.73704 | 12.74536 | 48° | 35km/h | 21469m | 5.5m/s | -54.7°C | 4.3% | 46.2hPa | 2.5V | 00:00:00 | 00:00:00 | 00:00:00 | |
| OE5DXL-15 | 2026-09-06 00:05:52 | 47.73692 | 12.74514 | 55° | 33km/h | 21459m | 3.9m/s | -54.7°C | 4.3% | 46.3hPa | 2.5V | 00:00:00 | 00:00:00 | 08:30:00 | |
| OE5HKT-10 | 2026-09-06 00:05:51 | 47.73687 | 12.74503 | 55° | 33km/h | 21455m | 4.9m/s | -54.7°C | 4.3% | 46.3hPa | 2.5V | 00:00:00 | 01:36:24 | 00:00:00 | |
| PETON7-10 | 2026-09-06 00:05:50 | 47.73675 | 12.74481 | 51° | 35km/h | 21445m | 4.3m/s | -54.7°C | 4.3% | 46.5hPa | 2.5V | 00:00:00 | 01:36:22 | 00:00:00 | |
| BAUMI2-15 | 2026-09-06 00:05:47 | 47.73664 | 12.74458 | 56° | 35km/h | 21435m | 5.8m/s | -54.7°C | 4.3% | 46.5hPa | 2.5V | 00:00:00 | 01:36:20 | 00:00:00 | |
| DG1MFX-10 | 2026-09-06 00:05:45 | 47.73659 | 12.74447 | 60° | 35km/h | 21430m | 4.9m/s | -54.7°C | 1.4% | 46.6hPa | 2.5V | 00:00:00 | 00:00:00 | 00:00:00 | |
| BAUMI2-15 | 2026-09-06 00:05:42 | 47.73639 | 12.74408 | 45° | 35km/h | 21411m | 3.8m/s | -54.6°C | 4.2% | 46.7hPa | 2.5V | 00:00:00 | 01:36:15 | 00:00:00 | |
| OE5WHR-10 | 2026-09-06 00:05:41 | 47.73633 | 12.74399 | 47° | 29km/h | 21407m | 4.5m/s | -54.5°C | 4.3% | 46.7hPa | 2.5V | 00:00:00 | 00:00:00 | 08:30:00 | |
| OE5FHM-15 | 2026-09-06 00:05:37 | 47.73610 | 12.74357 | 49° | 27km/h | 21389m | 5.2m/s | -54.5°C | 4.2% | 46.8hPa | 2.5V | 00:00:00 | 01:36:10 | 00:00:00 | |
| PETON7-10 | 2026-09-06 00:05:34 | 47.73593 | 12.74332 | 47° | 27km/h | 21375m | 4.5m/s | -54.5°C | 4.2% | 47.0hPa | 2.5V | 00:00:00 | 00:00:00 | 00:00:00 | |
| BAUMI2-15 | 2026-09-06 00:05:32 | 47.73584 | 12.74316 | 57° | 26km/h | 21365m | 4.4m/s | -54.5°C | 4.2% | 47.0hPa | 2.5V | 00:00:00 | 01:36:05 | 00:00:00 | |
| OE5HKT-10 | 2026-09-06 00:05:30 | 47.73577 | 12.74300 | 52° | 26km/h | 21356m | 5.7m/s | -54.6°C | 4.3% | 47.1hPa | 2.5V | 00:00:00 | 00:00:00 | 00:00:00 | |
| OE5DRO-10 | 2026-09-06 00:05:28 | 47.73569 | 12.74286 | 49° | 26km/h | 21347m | 4.1m/s | -54.5°C | 4.2% | 47.2hPa | 2.6V | 00:00:00 | 00:00:00 | 08:30:00 | |
| BAUMI2-15 | 2026-09-06 00:05:27 | 47.73564 | 12.74278 | 53° | 31km/h | 21341m | 5.6m/s | -54.6°C | 4.2% | 47.2hPa | 2.5V | 00:00:00 | 01:36:00 | 00:00:00 | |
| DG1MFX-10 | 2026-09-06 00:05:25 | 47.73555 | 12.74259 | 57° | 31km/h | 21332m | 4.1m/s | -54.6°C | 1.4% | 47.3hPa | 2.5V | 00:00:00 | 00:00:00 | 00:00:00 | |
| PG1ADW-2 | 2026-09-06 00:05:24 | 47.73546 | 12.74240 | 54° | 24km/h | 21323m | 4.7m/s | -54.6°C | 4.3% | 47.3hPa | 2.5V | 00:00:00 | 00:00:00 | 00:00:00 | |
| OE5DXL-15 | 2026-09-06 00:05:23 | 47.73542 | 12.74232 | 54° | 22km/h | 21318m | 4.1m/s | -54.6°C | 4.2% | 47.4hPa | 2.5V | 00:00:00 | 00:00:00 | 00:00:00 | |
| OE5WHR-10 | 2026-09-06 00:05:20 | 47.73535 | 12.74216 | 65° | 24km/h | 21308m | 5.4m/s | -54.5°C | 4.3% | 47.4hPa | 2.5V | 00:00:00 | 00:00:00 | 00:00:00 | |
| PETON7-10 | 2026-09-06 00:05:19 | 47.73533 | 12.74207 | 68° | 24km/h | 21303m | 3.8m/s | -54.4°C | 4.2% | 47.5hPa | 2.5V | 00:00:00 | 00:00:00 | 00:00:00 | |
| OE8JPQ-2 | 2026-09-06 00:05:14 | 47.73523 | 12.74170 | 74° | 24km/h | 21279m | 4.9m/s | -54.4°C | 4.2% | 47.7hPa | 2.5V | 00:00:00 | 00:00:00 | 00:00:00 | |
| OE5HKT-10 | 2026-09-06 00:05:09 | 47.73513 | 12.74125 | 72° | 18km/h | 21254m | 5.7m/s | -54.5°C | 4.2% | 47.8hPa | 2.5V | 00:00:00 | 00:00:00 | 00:00:00 | |
| OE5FHM-15 | 2026-09-06 00:05:07 | 47.73508 | 12.74105 | 68° | 18km/h | 21245m | 4.4m/s | -54.7°C | 4.3% | 47.9hPa | 2.5V | 00:00:00 | 01:35:40 | 08:30:00 | |
| PETON7-10 | 2026-09-06 00:05:04 | 47.73500 | 12.74084 | 55° | 16km/h | 21231m | 4.1m/s | -54.9°C | 4.3% | 48.1hPa | 2.6V | 00:00:00 | 01:35:37 | 00:00:00 | |
| DG1MFX-10 | 2026-09-06 00:05:03 | 47.73500 | 12.74084 | 56° | 20km/h | 21231m | 4.1m/s | -54.9°C | 1.4% | 48.1hPa | 2.6V | 00:00:00 | 00:00:00 | 00:00:00 | |
| OE5WHR-10 | 2026-09-06 00:05:00 | 47.73492 | 12.74047 | 85° | 16km/h | 21207m | 5.6m/s | -55.0°C | 4.3% | 48.2hPa | 2.6V | 00:00:00 | 01:35:32 | 00:00:00 | |
| OE8JPQ-2 | 2026-09-06 00:04:54 | 47.73490 | 12.74008 | 85° | 15km/h | 21184m | 4.1m/s | -55.0°C | 4.3% | 48.4hPa | 2.6V | 00:00:00 | 00:00:00 | 00:00:00 | |
| OE5DXL-15 | 2026-09-06 00:04:52 | 47.73490 | 12.73999 | 89° | 13km/h | 21174m | 5.1m/s | -55.0°C | 4.3% | 48.5hPa | 2.6V | 00:00:00 | 00:00:00 | 00:00:00 | |
| OE5DRO-10 | 2026-09-06 00:04:50 | 47.73490 | 12.73994 | 106° | 13km/h | 21163m | 5.8m/s | -55.1°C | 4.3% | 48.5hPa | 2.6V | 00:00:00 | 00:00:00 | 00:00:00 | |
| PG1ADW-2 | 2026-09-06 00:04:49 | 47.73491 | 12.73988 | 88° | 44km/h | 21154m | 4.3m/s | -55.2°C | 4.4% | 48.6hPa | 2.6V | 00:00:00 | 01:35:21 | 00:00:00 | |
| OE5HKT-10 | 2026-09-06 00:04:48 | 47.73491 | 12.73988 | 88° | 15km/h | 21154m | 4.3m/s | -55.2°C | 4.4% | 48.6hPa | 2.6V | 00:00:00 | 01:35:21 | 00:00:00 | |
| DG1MFX-10 | 2026-09-06 00:04:43 | 47.73486 | 12.73969 | 68° | 24km/h | 21135m | 5.9m/s | -55.1°C | 1.4% | 48.8hPa | 2.6V | 00:00:00 | 00:00:00 | 00:00:00 | |
| OE5WHR-10 | 2026-09-06 00:04:38 | 47.73469 | 12.73926 | 58° | 11km/h | 21107m | 5.1m/s | -55.2°C | 4.4% | 49.0hPa | 2.6V | 00:00:00 | 00:00:00 | 00:00:00 | |
| OE5FHM-15 | 2026-09-06 00:04:37 | 47.73469 | 12.73923 | 72° | 11km/h | 21102m | 5.8m/s | -55.2°C | 4.4% | 49.0hPa | 2.5V | 00:00:00 | 01:35:10 | 00:00:00 | |
| PETON7-10 | 2026-09-06 00:04:34 | 47.73468 | 12.73916 | 65° | 13km/h | 21087m | 5.7m/s | -55.1°C | 4.3% | 49.1hPa | 2.5V | 00:00:00 | 00:00:00 | 00:00:00 | |
| OE5DRO-10 | 2026-09-06 00:04:32 | 47.73464 | 12.73911 | 49° | 13km/h | 21071m | 5.7m/s | -55.3°C | 4.3% | 49.2hPa | 2.5V | 00:00:00 | 00:00:00 | 00:00:00 | |
| OE5HKT-10 | 2026-09-06 00:04:28 | 47.73456 | 12.73892 | 52° | 11km/h | 21050m | 4.9m/s | -55.5°C | 4.3% | 49.4hPa | 2.6V | 00:00:00 | 00:00:00 | 00:00:00 | |
| DG1MFX-10 | 2026-09-06 00:04:23 | 47.73451 | 12.73877 | 94° | 15km/h | 21036m | 5.3m/s | -55.5°C | 1.4% | 49.6hPa | 2.6V | 00:00:00 | 00:00:00 | 00:00:00 | |
| OE5DXL-15 | 2026-09-06 00:04:22 | 47.73453 | 12.73867 | 124° | 7km/h | 21025m | 6.4m/s | -55.4°C | 4.3% | 49.6hPa | 2.6V | 00:00:00 | 00:00:00 | 00:00:00 | |
| PETON7-10 | 2026-09-06 00:04:19 | 47.73460 | 12.73860 | 166° | 11km/h | 21007m | 6.2m/s | -55.4°C | 4.3% | 49.7hPa | 2.5V | 00:00:00 | 01:34:52 | 00:00:00 | |
| OE5WHR-10 | 2026-09-06 00:04:17 | 47.73467 | 12.73858 | 176° | 7km/h | 20997m | 3.6m/s | -55.5°C | 4.4% | 49.8hPa | 2.5V | 00:00:00 | 00:00:00 | 00:00:00 | |
| OE8JPQ-2 | 2026-09-06 00:04:15 | 47.73474 | 12.73859 | 181° | 7km/h | 20983m | 4.0m/s | -55.9°C | 4.5% | 50.0hPa | 2.5V | 00:00:00 | 00:00:00 | 00:00:00 | |
| OE5DRO-10 | 2026-09-06 00:04:12 | 47.73477 | 12.73857 | 134° | 7km/h | 20973m | 5.4m/s | -56.0°C | 4.6% | 50.0hPa | 2.6V | 00:00:00 | 00:00:00 | 00:00:00 | |
| OE5FHM-15 | 2026-09-06 00:04:07 | 47.73482 | 12.73838 | 106° | 5km/h | 20948m | 5.0m/s | -56.1°C | 4.7% | 50.2hPa | 2.6V | 00:00:00 | 01:34:40 | 00:00:00 | |
| OE5HKT-10 | 2026-09-06 00:04:06 | 47.73483 | 12.73835 | 117° | 5km/h | 20942m | 5.8m/s | -56.1°C | 4.7% | 50.3hPa | 2.6V | 00:00:00 | 00:00:00 | 00:00:00 | |
| PETON7-10 | 2026-09-06 00:04:04 | 47.73486 | 12.73831 | 141° | 4km/h | 20933m | 4.7m/s | -56.0°C | 4.6% | 50.4hPa | 2.6V | 00:00:00 | 00:00:00 | 00:00:00 | |
| DG1MFX-10 | 2026-09-06 00:04:02 | 47.73487 | 12.73830 | 162° | 4km/h | 20927m | 6.1m/s | -56.0°C | 1.5% | 50.4hPa | 2.6V | 00:00:00 | 00:00:00 | 00:00:00 | |
| OE5WHR-10 | 2026-09-06 00:03:57 | 47.73497 | 12.73825 | 157° | 5km/h | 20892m | 5.6m/s | -55.8°C | 4.6% | 50.7hPa | 2.6V | 00:00:00 | 01:34:29 | 00:00:00 | |
| OE8JPQ-2 | 2026-09-06 00:03:55 | 47.73497 | 12.73825 | 349° | 5km/h | 20882m | 4.5m/s | -55.8°C | 4.6% | 50.7hPa | 2.6V | 00:00:00 | 00:00:00 | 00:00:00 | |
| OE5DRO-10 | 2026-09-06 00:03:53 | 47.73497 | 12.73825 | 9° | 5km/h | 20877m | 5.8m/s | -55.7°C | 4.6% | 50.8hPa | 2.6V | 00:00:00 | 00:00:00 | 00:00:00 | |
| OE5DXL-15 | 2026-09-06 00:03:52 | 47.73497 | 12.73825 | 345° | 9km/h | 20872m | 4.3m/s | -55.7°C | 4.5% | 50.8hPa | 2.6V | 00:00:00 | 00:00:00 | 00:00:00 | |
| PETON7-10 | 2026-09-06 00:03:49 | 47.73496 | 12.73827 | 309° | 7km/h | 20857m | 4.5m/s | -55.7°C | 4.5% | 50.9hPa | 2.6V | 00:00:00 | 00:00:00 | 00:00:00 | |
| OE5HKT-10 | 2026-09-06 00:03:45 | 47.73502 | 12.73825 | 165° | 11km/h | 20837m | 4.0m/s | -55.8°C | 4.6% | 51.1hPa | 2.6V | 00:00:00 | 01:34:18 | 00:00:00 | |
| DG1MFX-10 | 2026-09-06 00:03:41 | 47.73510 | 12.73822 | 172° | 7km/h | 20823m | 3.9m/s | -55.7°C | 1.5% | 51.3hPa | 2.6V | 00:00:00 | 00:00:00 | 00:00:00 | |
| OE5FHM-15 | 2026-09-06 00:03:37 | 47.73514 | 12.73824 | 296° | 16km/h | 20799m | 5.2m/s | -55.5°C | 4.5% | 51.4hPa | 2.6V | 00:00:00 | 01:34:10 | 00:00:00 | |
| OE5WHR-10 | 2026-09-06 00:03:35 | 47.73514 | 12.73830 | 256° | 15km/h | 20792m | 3.3m/s | -55.5°C | 4.4% | 51.5hPa | 2.5V | 00:00:00 | 00:00:00 | 00:00:00 | |
| PETON7-10 | 2026-09-06 00:03:34 | 47.73515 | 12.73832 | 221° | 13km/h | 20788m | 5.2m/s | -55.5°C | 4.4% | 51.5hPa | 2.5V | 00:00:00 | 01:34:07 | 00:00:00 | |
| OE5HKT-10 | 2026-09-06 00:03:26 | 47.73548 | 12.73834 | 211° | 20km/h | 20734m | 4.4m/s | -55.4°C | 4.5% | 51.9hPa | 2.5V | 00:00:00 | 00:00:00 | 08:30:00 | |
| DG1MFX-10 | 2026-09-06 00:03:24 | 47.73555 | 12.73837 | 184° | 15km/h | 20725m | 5.6m/s | -55.5°C | 1.5% | 52.1hPa | 2.5V | 00:00:00 | 00:00:00 | 00:00:00 | |
| PETON7-10 | 2026-09-06 00:03:22 | 47.73566 | 12.73831 | 153° | 20km/h | 20708m | 5.0m/s | -55.4°C | 4.5% | 52.1hPa | 2.5V | 00:00:00 | 00:00:00 | 00:00:00 | |
| BAUMI2-15 | 2026-09-06 00:03:21 | 47.73575 | 12.73825 | 160° | 20km/h | 20697m | 5.1m/s | -55.4°C | 4.5% | 52.2hPa | 2.6V | 00:00:00 | 01:33:50 | 00:00:00 | |
| OE5WHR-10 | 2026-09-06 00:03:18 | 47.73590 | 12.73817 | 161° | 24km/h | 20680m | 5.1m/s | -55.3°C | 4.4% | 52.4hPa | 2.6V | 00:00:00 | 00:00:00 | 00:00:00 | |
| BAUMI2-15 | 2026-09-06 00:03:17 | 47.73599 | 12.73814 | 173° | 20km/h | 20669m | 6.1m/s | -55.3°C | 4.4% | 52.5hPa | 2.6V | 00:00:00 | 01:33:45 | 00:00:00 | |
| OE5FHM-15 | 2026-09-06 00:03:14 | 47.73623 | 12.73809 | 159° | 27km/h | 20644m | 4.1m/s | -55.3°C | 4.4% | 52.7hPa | 2.6V | 00:00:00 | 01:33:40 | 00:00:00 | |
| PETON7-10 | 2026-09-06 00:03:13 | 47.73639 | 12.73797 | 151° | 27km/h | 20628m | 4.5m/s | -55.3°C | 4.4% | 52.8hPa | 2.6V | 00:00:00 | 00:00:00 | 00:00:00 | |
| OE5HKT-10 | 2026-09-06 00:03:12 | 47.73645 | 12.73792 | 147° | 27km/h | 20622m | 6.2m/s | -55.3°C | 4.4% | 52.9hPa | 2.6V | 00:00:00 | 00:00:00 | 00:00:00 | |
| DG1MFX-10 | 2026-09-06 00:03:10 | 47.73651 | 12.73786 | 144° | 27km/h | 20617m | 5.2m/s | -55.4°C | 1.5% | 53.0hPa | 2.6V | 00:00:00 | 00:00:00 | 00:00:00 | |
| OE5DRO-10 | 2026-09-06 00:03:05 | 47.73684 | 12.73756 | 150° | 27km/h | 20585m | 4.6m/s | -55.1°C | 4.4% | 53.2hPa | 2.6V | 00:00:00 | 00:00:00 | 00:00:00 | |
| OE8JPQ-2 | 2026-09-06 00:03:02 | 47.73694 | 12.73747 | 155° | 29km/h | 20575m | 5.7m/s | -55.0°C | 4.3% | 53.3hPa | 2.6V | 00:00:00 | 00:00:00 | 00:00:00 | |
| OE5WHR-10 | 2026-09-06 00:03:00 | 47.73700 | 12.73743 | 155° | 29km/h | 20570m | 4.6m/s | -55.0°C | 4.2% | 53.3hPa | 2.6V | 00:00:00 | 01:33:26 | 00:00:00 | |
| OE5DXL-15 | 2026-09-06 00:02:59 | 47.73707 | 12.73738 | 153° | 31km/h | 20565m | 5.1m/s | -54.9°C | 4.3% | 53.3hPa | 2.6V | 00:00:00 | 00:00:00 | 00:00:00 | |
| PETON7-10 | 2026-09-06 00:02:57 | 47.73727 | 12.73721 | 149° | 27km/h | 20549m | 5.7m/s | -54.9°C | 4.2% | 53.5hPa | 2.6V | 00:00:00 | 01:33:22 | 00:00:00 | |
| BAUMI2-15 | 2026-09-06 00:02:56 | 47.73742 | 12.73708 | 151° | 29km/h | 20539m | 4.3m/s | -54.9°C | 4.1% | 53.6hPa | 2.6V | 00:00:00 | 01:33:20 | 00:00:00 | |
| BAUMI2-15 | 2026-09-06 00:02:52 | 47.73771 | 12.73679 | 149° | 26km/h | 20512m | 5.0m/s | -55.1°C | 4.1% | 53.8hPa | 2.6V | 00:00:00 | 01:33:15 | 00:00:00 | |
| OE5HKT-10 | 2026-09-06 00:02:51 | 47.73771 | 12.73679 | 149° | 31km/h | 20512m | 5.0m/s | -55.1°C | 4.1% | 53.8hPa | 2.6V | 00:00:00 | 01:33:15 | 00:00:00 | |
| DG1MFX-10 | 2026-09-06 00:02:50 | 47.73777 | 12.73673 | 148° | 26km/h | 20507m | 5.2m/s | -55.3°C | 1.4% | 53.9hPa | 2.6V | 00:00:00 | 00:00:00 | 00:00:00 | |
| OE5DRO-10 | 2026-09-06 00:02:45 | 47.73798 | 12.73651 | 149° | 35km/h | 20487m | 6.0m/s | -55.7°C | 4.4% | 54.0hPa | 2.6V | 00:00:00 | 00:00:00 | 08:30:00 | |
| BAUMI2-15 | 2026-09-06 00:02:44 | 47.73798 | 12.73651 | 149° | 33km/h | 20487m | 6.0m/s | -55.7°C | 4.4% | 54.0hPa | 2.6V | 00:00:00 | 01:33:10 | 00:00:00 | |
| OE5FHM-15 | 2026-09-06 00:02:43 | 47.73798 | 12.73651 | 149° | 35km/h | 20487m | 6.0m/s | -55.7°C | 4.4% | 54.0hPa | 2.5V | 00:00:00 | 01:33:10 | 00:00:00 | |
| OE5MMP-10 | 2026-09-06 00:02:42 | 47.73805 | 12.73645 | 151° | 35km/h | 20481m | 4.6m/s | -55.7°C | 4.4% | 54.0hPa | 2.5V | 00:00:00 | 01:33:09 | 00:00:00 | |
| DF7PN | 2026-09-06 00:02:41 | 47.73889 | 12.73559 | 154° | 35km/h | 20419m | 4.7m/s | -56.1°C | 1.4% | 54.6hPa | 2.5V | 00:00:00 | 00:00:00 | 00:00:00 | |
| PETON7-10 | 2026-09-06 00:02:39 | 47.73820 | 12.73632 | 147° | 35km/h | 20472m | 5.9m/s | -55.8°C | 4.5% | 54.1hPa | 2.5V | 00:00:00 | 00:00:00 | 08:30:00 | |
| OE5WHR-10 | 2026-09-06 00:02:36 | 47.73833 | 12.73616 | 139° | 35km/h | 20462m | 4.2m/s | -55.9°C | 4.5% | 54.2hPa | 2.5V | 00:00:00 | 00:00:00 | 08:30:00 | |
| BAUMI2-15 | 2026-09-06 00:02:29 | 47.73866 | 12.73580 | 145° | 37km/h | 20437m | 5.8m/s | -56.1°C | 4.6% | 54.5hPa | 2.5V | 00:00:00 | 01:33:00 | 00:00:00 | |
| OE5DXL-15 | 2026-09-06 00:02:24 | 47.73905 | 12.73547 | 152° | 37km/h | 20410m | 5.7m/s | -56.2°C | 4.7% | 54.7hPa | 2.5V | 00:00:00 | 00:00:00 | 00:00:00 | |
| BAUMI2-15 | 2026-09-06 00:02:23 | 47.73905 | 12.73547 | 152° | 35km/h | 20410m | 5.7m/s | -56.2°C | 4.7% | 54.7hPa | 2.5V | 00:00:00 | 01:32:55 | 08:30:00 | |
| OE5HKT-10 | 2026-09-06 00:02:22 | 47.73913 | 12.73540 | 147° | 37km/h | 20405m | 5.4m/s | -56.2°C | 4.7% | 54.7hPa | 2.5V | 00:00:00 | 00:00:00 | 00:00:00 | |
| DG1MFX-10 | 2026-09-06 00:02:20 | 47.73920 | 12.73533 | 143° | 35km/h | 20400m | 4.9m/s | -56.2°C | 1.5% | 54.8hPa | 2.6V | 00:00:00 | 00:00:00 | 00:00:00 | |
| PETON7-10 | 2026-09-06 00:02:18 | 47.73934 | 12.73517 | 145° | 37km/h | 20389m | 5.6m/s | -56.2°C | 4.7% | 54.8hPa | 2.6V | 00:00:00 | 00:00:00 | 00:00:00 | |
| BAUMI2-15 | 2026-09-06 00:02:17 | 47.73941 | 12.73510 | 147° | 35km/h | 20384m | 4.0m/s | -56.1°C | 4.7% | 54.9hPa | 2.6V | 00:00:00 | 01:32:50 | 00:00:00 | |
| OE8JPQ-2 | 2026-09-06 00:02:15 | 47.73961 | 12.73486 | 140° | 38km/h | 20369m | 4.8m/s | -56.0°C | 4.7% | 55.0hPa | 2.6V | 00:00:00 | 00:00:00 | 00:00:00 | |
| OE5MMP-10 | 2026-09-06 00:02:14 | 47.73968 | 12.73478 | 142° | 38km/h | 20364m | 5.0m/s | -56.0°C | 4.6% | 55.1hPa | 2.5V | 00:00:00 | 01:32:46 | 00:00:00 | |
| BAUMI2-15 | 2026-09-06 00:02:12 | 47.73975 | 12.73470 | 146° | 38km/h | 20359m | 6.0m/s | -55.9°C | 4.6% | 55.1hPa | 2.5V | 00:00:00 | 01:32:45 | 00:00:00 | |
| OE5WHR-10 | 2026-09-06 00:02:11 | 47.73983 | 12.73462 | 151° | 37km/h | 20353m | 5.3m/s | -55.9°C | 4.7% | 55.2hPa | 2.5V | 00:00:00 | 00:00:00 | 00:00:00 | |
| OE5FHM-15 | 2026-09-06 00:02:07 | 47.74017 | 12.73434 | 144° | 40km/h | 20333m | 4.1m/s | -55.7°C | 4.6% | 55.3hPa | 2.5V | 00:00:00 | 01:32:40 | 00:00:00 | |
| DF7PN | 2026-09-06 00:02:04 | 47.74037 | 12.73410 | 142° | 31km/h | 20318m | 4.6m/s | -55.7°C | 1.4% | 55.5hPa | 2.6V | 00:00:00 | 00:00:00 | 00:00:00 | |
| OE5DRO-10 | 2026-09-06 00:02:00 | 47.74074 | 12.73364 | 142° | 42km/h | 20291m | 6.0m/s | -55.5°C | 4.5% | 55.7hPa | 2.6V | 00:00:00 | 00:00:00 | 00:00:00 | |
| BAUMI2-15 | 2026-09-06 00:01:59 | 47.74090 | 12.73346 | 143° | 38km/h | 20280m | 5.1m/s | -55.4°C | 4.5% | 55.8hPa | 2.6V | 00:00:00 | 01:32:30 | 00:00:00 | |
| OE8JPQ-2 | 2026-09-06 00:01:57 | 47.74113 | 12.73319 | 145° | 40km/h | 20264m | 5.1m/s | -55.4°C | 4.5% | 56.0hPa | 2.6V | 00:00:00 | 00:00:00 | 00:00:00 | |
| OE5DXL-15 | 2026-09-06 00:01:56 | 47.74128 | 12.73305 | 150° | 42km/h | 20253m | 5.1m/s | -55.3°C | 4.4% | 56.0hPa | 2.6V | 00:00:00 | 00:00:00 | 00:00:00 | |
| OE5WHR-10 | 2026-09-06 00:01:55 | 47.74144 | 12.73291 | 146° | 44km/h | 20242m | 5.2m/s | -55.2°C | 4.4% | 56.1hPa | 2.6V | 00:00:00 | 01:32:23 | 00:00:00 | |
| OE5MMP-10 | 2026-09-06 00:01:54 | 47.74160 | 12.73274 | 146° | 44km/h | 20232m | 5.6m/s | -55.2°C | 4.4% | 56.2hPa | 2.6V | 00:00:00 | 01:32:21 | 00:00:00 | |
| BAUMI2-15 | 2026-09-06 00:01:51 | 47.74169 | 12.73265 | 146° | 47km/h | 20226m | 5.5m/s | -55.2°C | 4.4% | 56.3hPa | 2.6V | 00:00:00 | 01:32:20 | 00:00:00 | |
| BAUMI2-15 | 2026-09-06 00:01:46 | 47.74214 | 12.73208 | 137° | 42km/h | 20199m | 5.8m/s | -55.1°C | 4.3% | 56.5hPa | 2.6V | 00:00:00 | 01:32:15 | 00:00:00 | |
| OE5DRO-10 | 2026-09-06 00:01:45 | 47.74230 | 12.73186 | 139° | 42km/h | 20188m | 4.9m/s | -55.0°C | 4.3% | 56.6hPa | 2.6V | 00:00:00 | 00:00:00 | 00:00:00 | |
| OE5HKT-10 | 2026-09-06 00:01:44 | 47.74237 | 12.73176 | 138° | 42km/h | 20183m | 5.4m/s | -55.0°C | 4.3% | 56.6hPa | 2.5V | 00:00:00 | 01:32:12 | 00:00:00 | |
| OE5FHM-15 | 2026-09-06 00:01:40 | 47.74251 | 12.73156 | 136° | 44km/h | 20172m | 4.9m/s | -55.0°C | 4.4% | 56.7hPa | 2.5V | 00:00:00 | 01:32:10 | 00:00:00 | |
| OE5MMP-10 | 2026-09-06 00:01:39 | 47.74251 | 12.73156 | 136° | 44km/h | 20172m | 4.9m/s | -55.0°C | 4.4% | 56.7hPa | 2.5V | 00:00:00 | 01:32:10 | 00:00:00 | |
| DF7PN | 2026-09-06 00:01:35 | 47.74348 | 12.73003 | 125° | 38km/h | 20103m | 5.1m/s | -55.2°C | 1.4% | 57.4hPa | 2.6V | 00:00:00 | 00:00:00 | 00:00:00 | |
| BAUMI2-15 | 2026-09-06 00:01:34 | 47.74293 | 12.73108 | 142° | 47km/h | 20148m | 5.3m/s | -55.0°C | 4.3% | 57.0hPa | 2.6V | 00:00:00 | 01:32:05 | 00:00:00 | |
| OE5WHR-10 | 2026-09-06 00:01:33 | 47.74318 | 12.73069 | 128° | 46km/h | 20131m | 5.4m/s | -55.0°C | 4.3% | 57.1hPa | 2.6V | 00:00:00 | 00:00:00 | 00:00:00 | |
| BAUMI2-15 | 2026-09-06 00:01:30 | 47.74331 | 12.73042 | 124° | 40km/h | 20120m | 4.6m/s | -55.0°C | 4.3% | 57.2hPa | 2.5V | 00:00:00 | 01:32:00 | 00:00:00 | |
| OE5MMP-10 | 2026-09-06 00:01:29 | 47.74331 | 12.73042 | 124° | 44km/h | 20120m | 4.6m/s | -55.0°C | 4.3% | 57.2hPa | 2.5V | 00:00:00 | 01:32:00 | 00:00:00 | |
| OE5DXL-15 | 2026-09-06 00:01:25 | 47.74361 | 12.72981 | 136° | 44km/h | 20092m | 4.8m/s | -55.3°C | 4.4% | 57.5hPa | 2.5V | 00:00:00 | 00:00:00 | 08:30:00 | |
| OE5DRO-10 | 2026-09-06 00:01:24 | 47.74368 | 12.72970 | 138° | 46km/h | 20088m | 4.0m/s | -55.3°C | 4.4% | 57.5hPa | 2.6V | 00:00:00 | 00:00:00 | 00:00:00 | |
| DG1MFX-10 | 2026-09-06 00:01:23 | 47.74385 | 12.72947 | 137° | 49km/h | 20077m | 5.8m/s | -55.3°C | 1.5% | 57.7hPa | 2.6V | 00:00:00 | 00:00:00 | 00:00:00 | |
| OE5MMP-10 | 2026-09-06 00:01:22 | 47.74403 | 12.72920 | 133° | 46km/h | 20066m | 6.0m/s | -55.2°C | 4.5% | 57.7hPa | 2.6V | 00:00:00 | 01:31:50 | 00:00:00 | |
| OE8JPQ-2 | 2026-09-06 00:01:17 | 47.74425 | 12.72873 | 120° | 44km/h | 20049m | 6.2m/s | -55.2°C | 4.4% | 57.9hPa | 2.6V | 00:00:00 | 00:00:00 | 00:00:00 | |
| OE5FHM-15 | 2026-09-06 00:01:10 | 47.74466 | 12.72778 | 131° | 42km/h | 20012m | 5.6m/s | -55.2°C | 4.4% | 58.2hPa | 2.6V | 00:00:00 | 01:31:40 | 00:00:00 | |
| OE5MMP-10 | 2026-09-06 00:01:09 | 47.74466 | 12.72778 | 131° | 46km/h | 20012m | 5.6m/s | -55.2°C | 4.4% | 58.2hPa | 2.6V | 00:00:00 | 01:31:40 | 08:30:00 | |
| DG1MFX-10 | 2026-09-06 00:01:00 | 47.74512 | 12.72664 | 112° | 44km/h | 19969m | 4.6m/s | -55.1°C | 1.4% | 58.6hPa | 2.5V | 00:00:00 | 00:00:00 | 00:00:00 | |
| OE5HKT-10 | 2026-09-06 00:00:57 | 47.74520 | 12.72635 | 109° | 42km/h | 19958m | 5.5m/s | -55.0°C | 4.3% | 58.7hPa | 2.5V | 00:00:00 | 00:00:00 | 00:00:00 | |
| OE8JPQ-2 | 2026-09-06 00:00:54 | 47.74529 | 12.72593 | 108° | 42km/h | 19942m | 5.2m/s | -54.8°C | 4.3% | 58.8hPa | 2.5V | 00:00:00 | 00:00:00 | 00:00:00 | |
| OE5DXL-15 | 2026-09-06 00:00:52 | 47.74536 | 12.72562 | 110° | 42km/h | 19933m | 5.1m/s | -54.8°C | 4.2% | 58.9hPa | 2.5V | 00:00:00 | 00:00:00 | 00:00:00 | |
| OE5WHR-10 | 2026-09-06 00:00:47 | 47.74555 | 12.72486 | 112° | 42km/h | 19907m | 4.7m/s | -54.7°C | 4.2% | 59.1hPa | 2.5V | 00:00:00 | 01:31:20 | 00:00:00 | |
| OE5DRO-10 | 2026-09-06 00:00:46 | 47.74574 | 12.72425 | 117° | 42km/h | 19885m | 4.7m/s | -54.8°C | 4.2% | 59.4hPa | 2.5V | 00:00:00 | 00:00:00 | 00:00:00 | |
| DG1MFX-10 | 2026-09-06 00:00:43 | 47.74590 | 12.72370 | 111° | 37km/h | 19864m | 6.4m/s | -55.0°C | 1.4% | 59.6hPa | 2.5V | 00:00:00 | 00:00:00 | 00:00:00 | |
| OE5MMP-10 | 2026-09-06 00:00:42 | 47.74593 | 12.72358 | 110° | 44km/h | 19858m | 5.3m/s | -55.0°C | 4.2% | 59.6hPa | 2.5V | 00:00:00 | 01:31:11 | 00:00:00 | |
| OE5FHM-15 | 2026-09-06 00:00:41 | 47.74596 | 12.72345 | 110° | 44km/h | 19853m | 4.9m/s | -55.0°C | 4.2% | 59.6hPa | 2.5V | 00:00:00 | 01:31:10 | 08:30:00 | |
| OE5HKT-10 | 2026-09-06 00:00:40 | 47.74599 | 12.72331 | 110° | 44km/h | 19848m | 6.0m/s | -55.1°C | 4.3% | 59.7hPa | 2.5V | 00:00:00 | 01:31:09 | 00:00:00 | |
| OE8JPQ-2 | 2026-09-06 00:00:36 | 47.74607 | 12.72301 | 115° | 42km/h | 19838m | 4.8m/s | -55.5°C | 4.4% | 59.8hPa | 2.5V | 00:00:00 | 01:31:07 | 00:00:00 | |
| DF7PN | 2026-09-06 00:00:31 | 47.74622 | 12.72256 | 116° | 46km/h | 19822m | 5.3m/s | -55.8°C | -1.0% | 60.0hPa | 2.5V | 00:00:00 | 00:00:00 | 00:00:00 | |
| OE5WHR-10 | 2026-09-06 00:00:27 | 47.74640 | 12.72177 | 102° | 42km/h | 19797m | 5.1m/s | -55.8°C | 4.5% | 60.2hPa | 2.5V | 00:00:00 | 00:00:00 | 00:00:00 | |
| OE5MMP-10 | 2026-09-06 00:00:26 | 47.74640 | 12.72177 | 102° | 46km/h | 19797m | 5.1m/s | -55.8°C | 4.5% | 60.2hPa | 2.5V | 00:00:00 | 01:30:59 | 00:00:00 | |
| OE5DRO-10 | 2026-09-06 00:00:24 | 47.74643 | 12.72149 | 96° | 42km/h | 19787m | 5.2m/s | -55.9°C | 4.5% | 60.3hPa | 2.5V | 00:00:00 | 00:00:00 | 00:00:00 | |
| OE5DXL-15 | 2026-09-06 00:00:23 | 47.74645 | 12.72119 | 98° | 42km/h | 19777m | 3.6m/s | -56.1°C | 4.6% | 60.4hPa | 2.5V | 00:00:00 | 00:00:00 | 00:00:00 | |
| DG1MFX-10 | 2026-09-06 00:00:20 | 47.74656 | 12.72056 | 110° | 47km/h | 19758m | 5.3m/s | -56.2°C | 1.5% | 60.6hPa | 2.5V | 00:00:00 | 00:00:00 | 00:00:00 | |
| OE5MMP-10 | 2026-09-06 00:00:18 | 47.74670 | 12.72004 | 115° | 40km/h | 19744m | 5.7m/s | -56.1°C | 4.6% | 60.7hPa | 2.5V | 00:00:00 | 01:30:48 | 00:00:00 | |
| OE8JPQ-2 | 2026-09-06 00:00:14 | 47.74675 | 12.71987 | 116° | 44km/h | 19739m | 4.6m/s | -56.1°C | 4.6% | 60.8hPa | 2.5V | 00:00:00 | 00:00:00 | 08:30:00 | |
| OE5FHM-15 | 2026-09-06 00:00:09 | 47.74698 | 12.71889 | 108° | 38km/h | 19706m | 4.6m/s | -56.2°C | 4.6% | 61.1hPa | 2.5V | 00:00:00 | 01:30:40 | 00:00:00 | |
| OE5DRO-10 | 2026-09-06 00:00:07 | 47.74703 | 12.71862 | 104° | 40km/h | 19695m | 5.0m/s | -56.2°C | 4.6% | 61.2hPa | 2.5V | 00:00:00 | 00:00:00 | 00:00:00 | |
| OE5WHR-10 | 2026-09-06 00:00:06 | 47.74703 | 12.71862 | 104° | 40km/h | 19695m | 5.0m/s | -56.2°C | 4.6% | 61.2hPa | 2.5V | 00:00:00 | 00:00:00 | 00:00:00 | |
| OE5MMP-10 | 2026-09-06 00:00:05 | 47.74703 | 12.71862 | 104° | 38km/h | 19695m | 5.0m/s | -56.2°C | 4.6% | 61.2hPa | 2.5V | 00:00:00 | 01:30:38 | 00:00:00 | |
| DO7DH-14 | 2026-09-06 00:00:01 | 47.74716 | 12.71803 | 114° | 40km/h | 19676m | 4.7m/s | 0°C | 0% | 0hPa | 2.5V | 00:00:00 | 01:30:34 | 00:00:00 | |
| DF7PN | 2026-09-06 00:00:00 | 47.74720 | 12.71789 | 113° | 40km/h | 19671m | 5.5m/s | 0°C | -1.0% | -1.0hPa | 2.5V | 00:00:00 | 00:00:00 | 00:00:00 | |
| DG1MFX-10 | 2026-09-05 23:59:57 | 47.74728 | 12.71762 | 114° | 38km/h | 19661m | 3.8m/s | -55.9°C | 1.5% | 61.5hPa | 2.5V | 00:00:00 | 00:00:00 | 00:00:00 | |
| OE5HKT-10 | 2026-09-05 23:59:54 | 47.74744 | 12.71711 | 115° | 40km/h | 19642m | 5.6m/s | -55.8°C | 4.5% | 61.7hPa | 2.5V | 00:00:00 | 00:00:00 | 00:00:00 | |
| OE5MMP-10 | 2026-09-05 23:59:52 | 47.74752 | 12.71687 | 116° | 40km/h | 19633m | 4.5m/s | -55.8°C | 4.4% | 61.8hPa | 2.5V | 00:00:00 | 01:30:25 | 00:00:00 | |
| OE5DRO-10 | 2026-09-05 23:59:46 | 47.74774 | 12.71603 | 109° | 40km/h | 19604m | 5.4m/s | -55.8°C | 4.4% | 62.0hPa | 2.5V | 00:00:00 | 00:00:00 | 08:30:00 | |
| OE5WHR-10 | 2026-09-05 23:59:44 | 47.74781 | 12.71574 | 112° | 40km/h | 19595m | 3.8m/s | -55.9°C | 4.4% | 62.1hPa | 2.6V | 00:00:00 | 01:30:17 | 00:00:00 | |
| PETON7-10 | 2026-09-05 23:59:43 | 47.74785 | 12.71560 | 112° | 40km/h | 19590m | 5.5m/s | -56.0°C | 4.4% | 62.2hPa | 2.6V | 00:00:00 | 01:30:16 | 00:00:00 | |
| OE5MMP-10 | 2026-09-05 23:59:42 | 47.74788 | 12.71547 | 112° | 40km/h | 19585m | 4.2m/s | -56.1°C | 4.5% | 62.2hPa | 2.6V | 00:00:00 | 01:30:15 | 00:00:00 | |
| OE5FHM-15 | 2026-09-05 23:59:37 | 47.74808 | 12.71485 | 112° | 38km/h | 19562m | 5.3m/s | -56.3°C | 4.6% | 62.5hPa | 2.6V | 00:00:00 | 01:30:10 | 00:00:00 | |
| DG1MFX-10 | 2026-09-05 23:59:36 | 47.74808 | 12.71485 | 112° | 40km/h | 19562m | 5.4m/s | -56.3°C | 1.5% | 62.5hPa | 2.6V | 00:00:00 | 00:00:00 | 00:00:00 | |
| OE5HKT-10 | 2026-09-05 23:59:33 | 47.74821 | 12.71423 | 108° | 40km/h | 19544m | 4.1m/s | -56.3°C | 4.5% | 62.6hPa | 2.6V | 00:00:00 | 01:30:06 | 00:00:00 | |
| OE5MMP-10 | 2026-09-05 23:59:32 | 47.74825 | 12.71406 | 108° | 38km/h | 19540m | 4.0m/s | -56.3°C | 4.5% | 62.7hPa | 2.6V | 00:00:00 | 01:30:05 | 00:00:00 | |
| DO7DH-14 | 2026-09-05 23:59:30 | 47.74831 | 12.71375 | 106° | 37km/h | 19530m | 4.6m/s | 0°C | 0% | 0hPa | 2.6V | 00:00:00 | 01:30:03 | 00:00:00 | |
| DF7PN | 2026-09-05 23:59:29 | 47.74837 | 12.71348 | 112° | 37km/h | 19520m | 5.3m/s | 0°C | -1.0% | -1.0hPa | 2.6V | 00:00:00 | 00:00:00 | 00:00:00 | |
| PETON7-10 | 2026-09-05 23:59:28 | 47.74837 | 12.71348 | 113° | 38km/h | 19521m | 5.3m/s | -56.5°C | 4.6% | 62.9hPa | 2.6V | 00:00:00 | 00:00:00 | 00:00:00 | |
| OE5DRO-10 | 2026-09-05 23:59:27 | 47.74840 | 12.71335 | 115° | 37km/h | 19516m | 3.6m/s | -56.5°C | 4.7% | 62.9hPa | 2.6V | 00:00:00 | 00:00:00 | 00:00:00 | |
| OE5WHR-10 | 2026-09-05 23:59:23 | 47.74851 | 12.71284 | 98° | 37km/h | 19499m | 4.2m/s | -56.5°C | 4.7% | 63.1hPa | 2.6V | 00:00:00 | 00:00:00 | 08:30:00 | |
| OE5MMP-10 | 2026-09-05 23:59:22 | 47.74852 | 12.71271 | 98° | 40km/h | 19494m | 5.4m/s | -56.5°C | 4.7% | 63.1hPa | 2.6V | 00:00:00 | 01:29:55 | 08:30:00 | |
| BAUMI2-15 | 2026-09-05 23:59:21 | 47.74853 | 12.71257 | 99° | 38km/h | 19490m | 4.5m/s | -56.6°C | 4.7% | 63.2hPa | 2.5V | 00:00:00 | 01:29:54 | 00:00:00 | |
| DG1MFX-10 | 2026-09-05 23:59:17 | 47.74858 | 12.71199 | 100° | 42km/h | 19472m | 3.8m/s | -56.7°C | 1.5% | 63.4hPa | 2.5V | 00:00:00 | 00:00:00 | 00:00:00 | |
| BAUMI2-15 | 2026-09-05 23:59:16 | 47.74860 | 12.71183 | 105° | 40km/h | 19467m | 5.4m/s | -56.7°C | 4.6% | 63.4hPa | 2.5V | 00:00:00 | 01:29:49 | 00:00:00 | |
| PETON7-10 | 2026-09-05 23:59:13 | 47.74869 | 12.71140 | 109° | 33km/h | 19454m | 5.2m/s | -56.7°C | 4.7% | 63.6hPa | 2.5V | 00:00:00 | 00:00:00 | 00:00:00 | |
| OE5MMP-10 | 2026-09-05 23:59:12 | 47.74872 | 12.71126 | 107° | 33km/h | 19449m | 4.5m/s | -56.7°C | 4.7% | 63.6hPa | 2.5V | 00:00:00 | 01:29:45 | 00:00:00 | |
| BAUMI2-15 | 2026-09-05 23:59:11 | 47.74875 | 12.71113 | 106° | 31km/h | 19444m | 5.1m/s | -56.7°C | 4.7% | 63.6hPa | 2.5V | 00:00:00 | 01:29:44 | 00:00:00 | |
| OE5DRO-10 | 2026-09-05 23:59:08 | 47.74879 | 12.71078 | 91° | 33km/h | 19430m | 5.2m/s | -56.7°C | 4.6% | 63.8hPa | 2.5V | 00:00:00 | 00:00:00 | 00:00:00 | |
| OE5FHM-15 | 2026-09-05 23:59:07 | 47.74879 | 12.71067 | 85° | 35km/h | 19425m | 4.5m/s | -56.6°C | 4.6% | 63.8hPa | 2.5V | 00:00:00 | 01:29:40 | 00:00:00 | |
| BAUMI2-15 | 2026-09-05 23:59:06 | 47.74877 | 12.71055 | 83° | 33km/h | 19421m | 4.1m/s | -56.6°C | 4.7% | 63.9hPa | 2.6V | 00:00:00 | 01:29:39 | 00:00:00 | |
| OE5WHR-10 | 2026-09-05 23:59:02 | 47.74878 | 12.71007 | 97° | 35km/h | 19403m | 4.9m/s | -56.6°C | 4.6% | 64.1hPa | 2.6V | 00:00:00 | 00:00:00 | 00:00:00 | |
| BAUMI2-15 | 2026-09-05 23:59:01 | 47.74879 | 12.70995 | 97° | 29km/h | 19398m | 4.1m/s | -56.6°C | 4.6% | 64.1hPa | 2.6V | 00:00:00 | 01:29:34 | 00:00:00 | |
| OE5MMP-10 | 2026-09-05 23:59:00 | 47.74880 | 12.70984 | 97° | 37km/h | 19394m | 4.2m/s | -56.6°C | 4.6% | 64.1hPa | 2.6V | 00:00:00 | 01:29:33 | 00:00:00 | |
| PETON7-10 | 2026-09-05 23:58:58 | 47.74881 | 12.70963 | 97° | 35km/h | 19385m | 3.9m/s | -56.7°C | 4.7% | 64.2hPa | 2.6V | 00:00:00 | 01:29:31 | 00:00:00 | |
| DB0UT-7 | 2026-09-05 23:58:57 | 47.74882 | 12.70952 | 95° | 37km/h | 19380m | 4.8m/s | -56.7°C | 4.6% | 64.3hPa | 2.6V | 00:00:00 | 01:29:30 | 00:00:00 | |
| BAUMI2-15 | 2026-09-05 23:58:56 | 47.74883 | 12.70941 | 95° | 35km/h | 19376m | 4.6m/s | -56.7°C | 4.7% | 64.3hPa | 2.6V | 00:00:00 | 01:29:29 | 00:00:00 | |
| DG1MFX-10 | 2026-09-05 23:58:55 | 47.74882 | 12.70941 | 95° | 33km/h | 19376m | 4.7m/s | -56.8°C | 1.6% | 64.4hPa | 2.6V | 00:00:00 | 00:00:00 | 00:00:00 | |
| OE5DXL-15 | 2026-09-05 23:58:52 | 47.74887 | 12.70889 | 100° | 40km/h | 19358m | 4.2m/s | -56.8°C | 4.7% | 64.5hPa | 2.6V | 00:00:00 | 00:00:00 | 00:00:00 | |
| OE5HKT-10 | 2026-09-05 23:58:51 | 47.74888 | 12.70876 | 101° | 38km/h | 19354m | 3.6m/s | -56.8°C | 4.6% | 64.6hPa | 2.6V | 00:00:00 | 00:00:00 | 00:00:00 | |
| OE5DRO-10 | 2026-09-05 23:58:49 | 47.74892 | 12.70849 | 101° | 40km/h | 19345m | 4.2m/s | -56.8°C | 4.6% | 64.6hPa | 2.6V | 00:00:00 | 00:00:00 | 00:00:00 | |
| OE5MMP-10 | 2026-09-05 23:58:46 | 47.74898 | 12.70807 | 108° | 37km/h | 19331m | 4.0m/s | -57.1°C | 4.6% | 64.8hPa | 2.5V | 00:00:00 | 01:29:19 | 00:00:00 | |
| PETON7-10 | 2026-09-05 23:58:43 | 47.74906 | 12.70769 | 105° | 42km/h | 19318m | 4.5m/s | -57.2°C | 4.6% | 64.9hPa | 2.6V | 00:00:00 | 00:00:00 | 00:00:00 | |
| OE5WHR-10 | 2026-09-05 23:58:41 | 47.74911 | 12.70742 | 105° | 42km/h | 19310m | 4.2m/s | -57.3°C | 4.6% | 65.0hPa | 2.6V | 00:00:00 | 01:29:14 | 00:00:00 | |
| OE5FHM-15 | 2026-09-05 23:58:37 | 47.74918 | 12.70689 | 98° | 46km/h | 19291m | 4.1m/s | -57.3°C | 4.7% | 65.2hPa | 2.6V | 00:00:00 | 01:29:10 | 00:00:00 | |
| OE5MMP-10 | 2026-09-05 23:58:36 | 47.74919 | 12.70673 | 98° | 44km/h | 19287m | 3.4m/s | -57.3°C | 4.7% | 65.3hPa | 2.6V | 00:00:00 | 01:29:09 | 00:00:00 | |
| DG1MFX-10 | 2026-09-05 23:58:35 | 47.74919 | 12.70673 | 99° | 42km/h | 19287m | 3.5m/s | -57.3°C | 1.6% | 65.3hPa | 2.6V | 00:00:00 | 00:00:00 | 00:00:00 | |
| BAUMI2-15 | 2026-09-05 23:58:31 | 47.74930 | 12.70591 | 99° | 44km/h | 19266m | 4.7m/s | -57.5°C | 4.8% | 65.5hPa | 2.6V | 00:00:00 | 01:29:04 | 00:00:00 | |
| OE5HKT-10 | 2026-09-05 23:58:30 | 47.74932 | 12.70573 | 96° | 46km/h | 19262m | 3.7m/s | -57.6°C | 4.9% | 65.5hPa | 2.6V | 00:00:00 | 01:29:03 | 00:00:00 | |
| PETON7-10 | 2026-09-05 23:58:28 | 47.74933 | 12.70540 | 95° | 46km/h | 19254m | 4.6m/s | -57.8°C | 4.9% | 65.6hPa | 2.6V | 00:00:00 | 00:00:00 | 00:00:00 | |
| OE5MMP-10 | 2026-09-05 23:58:26 | 47.74936 | 12.70511 | 102° | 46km/h | 19246m | 3.5m/s | -57.8°C | 4.9% | 65.6hPa | 2.6V | 00:00:00 | 01:28:59 | 00:00:00 | |
| OE5DXL-15 | 2026-09-05 23:58:22 | 47.74945 | 12.70449 | 100° | 47km/h | 19229m | 4.2m/s | -57.9°C | 5.0% | 65.9hPa | 2.6V | 00:00:00 | 00:00:00 | 00:00:00 | |
| DB0UT-7 | 2026-09-05 23:58:21 | 47.74947 | 12.70431 | 96° | 55km/h | 19224m | 4.8m/s | -57.9°C | 4.9% | 65.9hPa | 2.6V | 00:00:00 | 00:00:00 | 08:30:00 | |
| OE5WHR-10 | 2026-09-05 23:58:20 | 47.74948 | 12.70413 | 92° | 47km/h | 19220m | 4.1m/s | -57.9°C | 5.0% | 66.0hPa | 2.5V | 00:00:00 | 00:00:00 | 00:00:00 | |
| BAUMI2-15 | 2026-09-05 23:58:16 | 47.74948 | 12.70337 | 90° | 44km/h | 19202m | 4.4m/s | -58.0°C | 5.0% | 66.2hPa | 2.5V | 00:00:00 | 01:28:49 | 00:00:00 | |
| DG1MFX-10 | 2026-09-05 23:58:15 | 47.74949 | 12.70337 | 90° | 49km/h | 19202m | 4.5m/s | -58.0°C | 1.7% | 66.2hPa | 2.5V | 00:00:00 | 00:00:00 | 00:00:00 | |
| PETON7-10 | 2026-09-05 23:58:13 | 47.74947 | 12.70286 | 90° | 47km/h | 19189m | 4.2m/s | -58.0°C | 5.0% | 66.3hPa | 2.5V | 00:00:00 | 01:28:46 | 00:00:00 | |
| OE5DRO-10 | 2026-09-05 23:58:11 | 47.74948 | 12.70254 | 93° | 49km/h | 19180m | 3.4m/s | -58.0°C | 5.0% | 66.4hPa | 2.5V | 00:00:00 | 00:00:00 | 00:00:00 | |
| OE5HKT-10 | 2026-09-05 23:58:09 | 47.74949 | 12.70220 | 93° | 49km/h | 19172m | 4.7m/s | -58.0°C | 5.0% | 66.5hPa | 2.5V | 00:00:00 | 00:00:00 | 00:00:00 | |
| OE5FHM-15 | 2026-09-05 23:58:07 | 47.74951 | 12.70185 | 96° | 47km/h | 19163m | 4.0m/s | -58.0°C | 5.0% | 66.6hPa | 2.5V | 00:00:00 | 01:28:40 | 00:00:00 | |
| OE5MMP-10 | 2026-09-05 23:58:06 | 47.74952 | 12.70167 | 99° | 49km/h | 19159m | 5.3m/s | -58.0°C | 5.0% | 66.6hPa | 2.5V | 00:00:00 | 01:28:39 | 00:00:00 | |
| BAUMI2-15 | 2026-09-05 23:58:01 | 47.74957 | 12.70072 | 87° | 49km/h | 19137m | 4.2m/s | -57.9°C | 5.0% | 66.8hPa | 2.5V | 00:00:00 | 01:28:34 | 00:00:00 | |
| OE5WHR-10 | 2026-09-05 23:57:59 | 47.74955 | 12.70034 | 86° | 46km/h | 19127m | 4.1m/s | -57.9°C | 4.9% | 66.9hPa | 2.5V | 00:00:00 | 00:00:00 | 00:00:00 | |
| PETON7-10 | 2026-09-05 23:57:58 | 47.74954 | 12.70016 | 83° | 47km/h | 19123m | 4.5m/s | -57.9°C | 4.9% | 67.0hPa | 2.5V | 00:00:00 | 00:00:00 | 08:30:00 | |
| OE5MMP-10 | 2026-09-05 23:57:56 | 47.74950 | 12.69981 | 82° | 49km/h | 19113m | 4.0m/s | -57.8°C | 5.0% | 67.1hPa | 2.5V | 00:00:00 | 01:28:29 | 00:00:00 | |
| DG1MFX-10 | 2026-09-05 23:57:55 | 47.74950 | 12.69981 | 82° | 46km/h | 19113m | 4.1m/s | -57.8°C | 1.7% | 67.1hPa | 2.5V | 00:00:00 | 00:00:00 | 00:00:00 | |
| DO7DH-14 | 2026-09-05 23:57:54 | 47.74948 | 12.69946 | 90° | 51km/h | 19105m | 4.8m/s | 0°C | 0% | 0hPa | 2.5V | 00:00:00 | 01:28:27 | 00:00:00 | |
| OE5DXL-15 | 2026-09-05 23:57:52 | 47.74949 | 12.69910 | 94° | 44km/h | 19097m | 4.6m/s | -57.7°C | 4.8% | 67.3hPa | 2.5V | 00:00:00 | 00:00:00 | 00:00:00 | |
| BAUMI2-15 | 2026-09-05 23:57:51 | 47.74949 | 12.69891 | 92° | 49km/h | 19092m | 4.8m/s | -57.7°C | 4.9% | 67.3hPa | 2.5V | 00:00:00 | 01:28:24 | 00:00:00 | |
| OE5HKT-10 | 2026-09-05 23:57:48 | 47.74951 | 12.69834 | 94° | 42km/h | 19078m | 4.8m/s | -57.7°C | 4.9% | 67.4hPa | 2.5V | 00:00:00 | 00:00:00 | 00:00:00 | |
| OE5MMP-10 | 2026-09-05 23:57:46 | 47.74952 | 12.69799 | 89° | 42km/h | 19069m | 5.5m/s | -57.8°C | 4.9% | 67.6hPa | 2.5V | 00:00:00 | 01:28:19 | 08:30:00 | |
| PETON7-10 | 2026-09-05 23:57:43 | 47.74948 | 12.69752 | 81° | 42km/h | 19055m | 5.0m/s | -57.7°C | 4.9% | 67.7hPa | 2.6V | 00:00:00 | 00:00:00 | 00:00:00 | |
| BAUMI2-15 | 2026-09-05 23:57:41 | 47.74945 | 12.69722 | 84° | 44km/h | 19046m | 4.0m/s | -57.8°C | 4.9% | 67.8hPa | 2.6V | 00:00:00 | 01:28:14 | 00:00:00 | |
| OE5WHR-10 | 2026-09-05 23:57:38 | 47.74943 | 12.69674 | 92° | 44km/h | 19033m | 4.2m/s | -57.8°C | 5.0% | 67.9hPa | 2.6V | 00:00:00 | 01:28:11 | 00:00:00 | |
| OE5FHM-15 | 2026-09-05 23:57:37 | 47.74944 | 12.69657 | 96° | 42km/h | 19028m | 5.3m/s | -57.8°C | 5.0% | 68.0hPa | 2.6V | 00:00:00 | 01:28:10 | 00:00:00 | |
| OE5MMP-10 | 2026-09-05 23:57:36 | 47.74945 | 12.69640 | 98° | 40km/h | 19023m | 3.9m/s | -57.9°C | 5.0% | 68.1hPa | 2.5V | 00:00:00 | 01:28:09 | 00:00:00 | |
| DG1MFX-10 | 2026-09-05 23:57:34 | 47.74947 | 12.69622 | 98° | 47km/h | 19019m | 5.0m/s | -57.9°C | 1.7% | 68.1hPa | 2.5V | 00:00:00 | 00:00:00 | 00:00:00 | |
| OE5DRO-10 | 2026-09-05 23:57:33 | 47.74949 | 12.69588 | 93° | 42km/h | 19010m | 4.1m/s | -57.8°C | 5.0% | 68.2hPa | 2.5V | 00:00:00 | 00:00:00 | 00:00:00 | |
| BAUMI2-15 | 2026-09-05 23:57:31 | 47.74949 | 12.69558 | 90° | 35km/h | 19001m | 4.6m/s | -57.7°C | 5.0% | 68.3hPa | 2.5V | 00:00:00 | 01:28:04 | 00:00:00 | |
| PETON7-10 | 2026-09-05 23:57:28 | 47.74945 | 12.69519 | 75° | 42km/h | 18986m | 4.0m/s | -57.6°C | 5.0% | 68.5hPa | 2.5V | 00:00:00 | 01:28:01 | 00:00:00 | |
| OE5HKT-10 | 2026-09-05 23:57:27 | 47.74943 | 12.69506 | 77° | 42km/h | 18982m | 4.9m/s | -57.5°C | 5.0% | 68.5hPa | 2.5V | 00:00:00 | 01:28:00 | 00:00:00 | |
| OE5MMP-10 | 2026-09-05 23:57:26 | 47.74941 | 12.69493 | 81° | 46km/h | 18977m | 4.6m/s | -57.5°C | 5.0% | 68.6hPa | 2.5V | 00:00:00 | 01:27:59 | 00:00:00 | |
| OE5DXL-15 | 2026-09-05 23:57:22 | 47.74938 | 12.69427 | 91° | 40km/h | 18959m | 3.9m/s | -57.4°C | 4.9% | 68.7hPa | 2.5V | 00:00:00 | 00:00:00 | 00:00:00 | |
| OE5WHR-10 | 2026-09-05 23:57:17 | 47.74938 | 12.69337 | 84° | 38km/h | 18937m | 4.5m/s | -57.3°C | 4.8% | 69.0hPa | 2.5V | 00:00:00 | 00:00:00 | 00:00:00 | |
| OE5DRO-10 | 2026-09-05 23:57:14 | 47.74934 | 12.69293 | 84° | 38km/h | 18924m | 4.9m/s | -57.3°C | 4.7% | 69.1hPa | 2.5V | 00:00:00 | 00:00:00 | 00:00:00 | |
| OE8JPQ-2 | 2026-09-05 23:57:12 | 47.74932 | 12.69266 | 87° | 38km/h | 18915m | 5.1m/s | -57.3°C | 4.7% | 69.2hPa | 2.5V | 00:00:00 | 00:00:00 | 00:00:00 | |
| OE5FHM-15 | 2026-09-05 23:57:07 | 47.74931 | 12.69191 | 89° | 35km/h | 18892m | 3.5m/s | -57.2°C | 4.7% | 69.5hPa | 2.5V | 00:00:00 | 01:27:40 | 00:00:00 | |
| OE5HKT-10 | 2026-09-05 23:57:06 | 47.74930 | 12.69176 | 88° | 37km/h | 18887m | 5.6m/s | -57.2°C | 4.8% | 69.6hPa | 2.5V | 00:00:00 | 00:00:00 | 08:30:00 | |
| DG1MFX-10 | 2026-09-05 23:56:55 | 47.74936 | 12.69023 | 95° | 40km/h | 18839m | 4.9m/s | -57.6°C | 1.6% | 70.1hPa | 2.5V | 00:00:00 | 00:00:00 | 00:00:00 | |
| PETON7-10 | 2026-09-05 23:56:54 | 47.74936 | 12.69008 | 95° | 35km/h | 18834m | 4.6m/s | -57.5°C | 4.9% | 70.1hPa | 2.5V | 00:00:00 | 00:00:00 | 00:00:00 | |
| OE8JPQ-2 | 2026-09-05 23:56:52 | 47.74938 | 12.68975 | 95° | 31km/h | 18824m | 4.2m/s | -57.5°C | 5.0% | 70.3hPa | 2.5V | 00:00:00 | 01:27:25 | 00:00:00 | |
| OE5MMP-10 | 2026-09-05 23:56:46 | 47.74943 | 12.68899 | 81° | 29km/h | 18798m | 5.2m/s | -57.2°C | 4.9% | 70.5hPa | 2.5V | 00:00:00 | 01:27:19 | 00:00:00 | |
| OE5HKT-10 | 2026-09-05 23:56:45 | 47.74941 | 12.68890 | 75° | 29km/h | 18793m | 4.3m/s | -57.2°C | 4.9% | 70.6hPa | 2.6V | 00:00:00 | 00:00:00 | 00:00:00 | |
| PETON7-10 | 2026-09-05 23:56:39 | 47.74934 | 12.68820 | 80° | 27km/h | 18766m | 5.7m/s | 0°C | 0% | 0hPa | 2.6V | 00:00:00 | 01:27:12 | 00:00:00 | |
| OE5FHM-15 | 2026-09-05 23:56:37 | 47.74930 | 12.68800 | 66° | 29km/h | 18754m | 5.2m/s | -56.8°C | 4.8% | 71.0hPa | 2.6V | 00:00:00 | 01:27:10 | 00:00:00 | |
| OE5MMP-10 | 2026-09-05 23:56:36 | 47.74927 | 12.68792 | 64° | 27km/h | 18749m | 6.0m/s | -56.8°C | 4.7% | 71.1hPa | 2.6V | 00:00:00 | 01:27:09 | 00:00:00 | |
| OE5WHR-10 | 2026-09-05 23:56:35 | 47.74924 | 12.68783 | 67° | 29km/h | 18743m | 5.5m/s | -56.7°C | 4.7% | 71.2hPa | 2.6V | 00:00:00 | 01:27:08 | 00:00:00 | |
| DG1MFX-10 | 2026-09-05 23:56:34 | 47.74922 | 12.68775 | 68° | 26km/h | 18738m | 3.9m/s | -56.8°C | 1.6% | 71.3hPa | 2.6V | 00:00:00 | 00:00:00 | 00:00:00 | |
| OE8JPQ-2 | 2026-09-05 23:56:32 | 47.74916 | 12.68757 | 64° | 29km/h | 18728m | 5.3m/s | -56.7°C | 4.7% | 71.3hPa | 2.6V | 00:00:00 | 00:00:00 | 00:00:00 | |
| OE5MMP-10 | 2026-09-05 23:56:26 | 47.74904 | 12.68697 | 76° | 31km/h | 18700m | 4.9m/s | -56.8°C | 4.6% | 71.6hPa | 2.5V | 00:00:00 | 01:26:59 | 00:00:00 | |
| PETON7-10 | 2026-09-05 23:56:24 | 47.74900 | 12.68673 | 77° | 29km/h | 18692m | 4.9m/s | 0°C | 0% | 0hPa | 2.5V | 00:00:00 | 00:00:00 | 00:00:00 | |
| OE5DXL-15 | 2026-09-05 23:56:23 | 47.74896 | 12.68649 | 75° | 29km/h | 18682m | 4.1m/s | -56.8°C | 4.6% | 71.9hPa | 2.5V | 00:00:00 | 00:00:00 | 00:00:00 | |
| OE5HKT-10 | 2026-09-05 23:56:19 | 47.74888 | 12.68616 | 67° | 31km/h | 18669m | 3.6m/s | -56.6°C | 4.6% | 72.0hPa | 2.5V | 00:00:00 | 01:26:52 | 00:00:00 | |
| OE5DRO-10 | 2026-09-05 23:56:17 | 47.74882 | 12.68595 | 73° | 29km/h | 18660m | 3.8m/s | -56.6°C | 4.6% | 72.1hPa | 2.5V | 00:00:00 | 00:00:00 | 00:00:00 | |
| OE5MMP-10 | 2026-09-05 23:56:16 | 47.74880 | 12.68584 | 74° | 27km/h | 18657m | 4.1m/s | -56.6°C | 4.6% | 72.1hPa | 2.5V | 00:00:00 | 01:26:49 | 08:30:00 | |
| OE5WHR-10 | 2026-09-05 23:56:14 | 47.74876 | 12.68563 | 79° | 27km/h | 18648m | 3.7m/s | -56.5°C | 4.6% | 72.2hPa | 2.6V | 00:00:00 | 00:00:00 | 08:30:00 | |
| DG1MFX-10 | 2026-09-05 23:56:13 | 47.74876 | 12.68563 | 79° | 29km/h | 18648m | 3.7m/s | -56.6°C | 1.6% | 72.3hPa | 2.5V | 00:00:00 | 00:00:00 | 00:00:00 | |
| OE8JPQ-2 | 2026-09-05 23:56:12 | 47.74874 | 12.68542 | 86° | 27km/h | 18639m | 3.9m/s | -56.6°C | 4.6% | 72.3hPa | 2.5V | 00:00:00 | 00:00:00 | 00:00:00 | |
| PETON7-10 | 2026-09-05 23:56:09 | 47.74869 | 12.68513 | 64° | 29km/h | 18626m | 3.7m/s | 0°C | 0% | 0hPa | 2.5V | 00:00:00 | 00:00:00 | 00:00:00 | |
| OE5FHM-15 | 2026-09-05 23:56:07 | 47.74863 | 12.68495 | 59° | 26km/h | 18618m | 4.9m/s | -57.0°C | 4.7% | 72.6hPa | 2.5V | 00:00:00 | 01:26:40 | 08:30:00 | |
| OE5MMP-10 | 2026-09-05 23:56:06 | 47.74859 | 12.68486 | 60° | 31km/h | 18613m | 4.4m/s | -57.1°C | 4.7% | 72.7hPa | 2.6V | 00:00:00 | 01:26:39 | 00:00:00 | |
| OE5HKT-10 | 2026-09-05 23:55:58 | 47.74829 | 12.68401 | 74° | 22km/h | 18579m | 4.6m/s | -57.0°C | 4.8% | 73.1hPa | 2.6V | 00:00:00 | 00:00:00 | 00:00:00 | |
| OE5MMP-10 | 2026-09-05 23:55:56 | 47.74826 | 12.68382 | 77° | 22km/h | 18570m | 4.2m/s | -57.0°C | 4.8% | 73.1hPa | 2.5V | 00:00:00 | 01:26:29 | 00:00:00 | |
| PETON7-10 | 2026-09-05 23:55:54 | 47.74824 | 12.68367 | 88° | 22km/h | 18560m | 4.5m/s | 0°C | 0% | 0hPa | 2.5V | 00:00:00 | 01:26:27 | 00:00:00 | |
| OE5WHR-10 | 2026-09-05 23:55:53 | 47.74824 | 12.68360 | 88° | 22km/h | 18555m | 4.8m/s | -57.0°C | 4.7% | 73.3hPa | 2.5V | 00:00:00 | 00:00:00 | 00:00:00 | |
| OE8JPQ-2 | 2026-09-05 23:55:52 | 47.74823 | 12.68353 | 83° | 22km/h | 18550m | 5.3m/s | -57.0°C | 4.8% | 73.4hPa | 2.5V | 00:00:00 | 01:26:25 | 00:00:00 | |
| OE5MMP-10 | 2026-09-05 23:55:46 | 47.74821 | 12.68303 | 94° | 20km/h | 18521m | 5.7m/s | -56.8°C | 4.8% | 73.7hPa | 2.5V | 00:00:00 | 01:26:19 | 00:00:00 | |
| PETON7-10 | 2026-09-05 23:55:39 | 47.74823 | 12.68246 | 85° | 18km/h | 18488m | 4.1m/s | 0°C | 0% | 0hPa | 2.5V | 00:00:00 | 00:00:00 | 00:00:00 | |
| OE5HKT-10 | 2026-09-05 23:55:37 | 47.74823 | 12.68233 | 95° | 33km/h | 18479m | 4.2m/s | -56.9°C | 4.8% | 74.2hPa | 2.5V | 00:00:00 | 00:00:00 | 00:00:00 | |
| OE5MMP-10 | 2026-09-05 23:55:36 | 47.74823 | 12.68227 | 95° | 27km/h | 18475m | 3.3m/s | -56.9°C | 4.8% | 74.3hPa | 2.5V | 00:00:00 | 01:26:09 | 00:00:00 | |
| OE5WHR-10 | 2026-09-05 23:55:32 | 47.74825 | 12.68188 | 102° | 29km/h | 18457m | 5.2m/s | -56.8°C | 4.7% | 74.5hPa | 2.5V | 00:00:00 | 01:26:05 | 00:00:00 | |
| DG1MFX-10 | 2026-09-05 23:55:31 | 47.74825 | 12.68188 | 103° | 33km/h | 18457m | 5.2m/s | -56.8°C | 1.6% | 74.5hPa | 2.5V | 00:00:00 | 00:00:00 | 00:00:00 | |
| OE5MMP-10 | 2026-09-05 23:55:26 | 47.74838 | 12.68124 | 106° | 26km/h | 18429m | 4.5m/s | -56.6°C | 4.6% | 74.8hPa | 2.5V | 00:00:00 | 01:25:59 | 00:00:00 | |
| OE5DXL-15 | 2026-09-05 23:55:22 | 47.74840 | 12.68094 | 97° | 31km/h | 18411m | 4.7m/s | -56.6°C | 4.6% | 75.0hPa | 2.5V | 00:00:00 | 00:00:00 | 00:00:00 | |
| OE5MMP-10 | 2026-09-05 23:55:16 | 47.74855 | 12.68030 | 114° | 29km/h | 18385m | 5.2m/s | -56.7°C | 4.7% | 75.3hPa | 2.5V | 00:00:00 | 01:25:49 | 00:00:00 | |
| OE8JPQ-2 | 2026-09-05 23:55:12 | 47.74867 | 12.67980 | 98° | 29km/h | 18367m | 4.7m/s | -56.6°C | 4.7% | 75.5hPa | 2.5V | 00:00:00 | 00:00:00 | 00:00:00 | |
| OE5WHR-10 | 2026-09-05 23:55:11 | 47.74867 | 12.67970 | 95° | 31km/h | 18363m | 3.2m/s | -56.6°C | 4.7% | 75.5hPa | 2.5V | 00:00:00 | 00:00:00 | 00:00:00 | |
| OE5FHM-15 | 2026-09-05 23:55:07 | 47.74873 | 12.67940 | 120° | 37km/h | 18345m | 4.6m/s | -56.7°C | 4.7% | 75.8hPa | 2.5V | 00:00:00 | 01:25:40 | 00:00:00 | |
| OE5MMP-10 | 2026-09-05 23:55:06 | 47.74877 | 12.67932 | 122° | 31km/h | 18341m | 4.2m/s | -56.8°C | 4.7% | 75.9hPa | 2.5V | 00:00:00 | 01:25:39 | 00:00:00 | |
| BAUMI2-15 | 2026-09-05 23:55:01 | 47.74897 | 12.67888 | 122° | 35km/h | 18315m | 5.5m/s | -57.1°C | 4.8% | 76.1hPa | 2.5V | 00:00:00 | 01:25:34 | 00:00:00 | |
| OE5MMP-10 | 2026-09-05 23:54:56 | 47.74918 | 12.67831 | 124° | 38km/h | 18292m | 3.5m/s | -56.9°C | 4.9% | 76.4hPa | 2.5V | 00:00:00 | 01:25:29 | 00:00:00 | |
| OE8JPQ-2 | 2026-09-05 23:54:52 | 47.74941 | 12.67785 | 133° | 38km/h | 18273m | 5.4m/s | -56.8°C | 4.8% | 76.7hPa | 2.5V | 00:00:00 | 01:25:25 | 00:00:00 | |
| BAUMI2-15 | 2026-09-05 23:54:51 | 47.74948 | 12.67775 | 136° | 38km/h | 18268m | 4.4m/s | -56.8°C | 4.8% | 76.7hPa | 2.5V | 00:00:00 | 01:25:24 | 00:00:00 | |
| OE5WHR-10 | 2026-09-05 23:54:50 | 47.74955 | 12.67765 | 137° | 38km/h | 18263m | 5.0m/s | -56.7°C | 4.8% | 76.8hPa | 2.6V | 00:00:00 | 00:00:00 | 00:00:00 | |
| OE5MMP-10 | 2026-09-05 23:54:46 | 47.74984 | 12.67725 | 140° | 38km/h | 18245m | 4.8m/s | -56.6°C | 4.8% | 77.0hPa | 2.6V | 00:00:00 | 01:25:19 | 08:30:00 | |
| OE5DRO-10 | 2026-09-05 23:54:42 | 47.75012 | 12.67684 | 134° | 38km/h | 18226m | 5.0m/s | -56.4°C | 4.7% | 77.2hPa | 2.6V | 00:00:00 | 00:00:00 | 00:00:00 | |
| BAUMI2-15 | 2026-09-05 23:54:41 | 47.75019 | 12.67673 | 136° | 38km/h | 18222m | 5.1m/s | -56.4°C | 4.7% | 77.3hPa | 2.6V | 00:00:00 | 01:25:14 | 00:00:00 | |
| OE5FHM-15 | 2026-09-05 23:54:37 | 47.75047 | 12.67633 | 136° | 38km/h | 18204m | 4.1m/s | -56.4°C | 4.6% | 77.5hPa | 2.6V | 00:00:00 | 01:25:10 | 00:00:00 | |
| OE5MMP-10 | 2026-09-05 23:54:36 | 47.75054 | 12.67624 | 138° | 37km/h | 18200m | 4.2m/s | -56.4°C | 4.6% | 77.5hPa | 2.6V | 00:00:00 | 01:25:09 | 00:00:00 | |
| OE8JPQ-2 | 2026-09-05 23:54:32 | 47.75081 | 12.67594 | 145° | 38km/h | 18182m | 4.0m/s | -56.3°C | 4.5% | 77.8hPa | 2.6V | 00:00:00 | 00:00:00 | 08:30:00 | |
| BAUMI2-15 | 2026-09-05 23:54:31 | 47.75088 | 12.67586 | 147° | 40km/h | 18178m | 3.6m/s | -56.3°C | 4.5% | 77.8hPa | 2.6V | 00:00:00 | 01:25:04 | 00:00:00 | |
| DG1MFX-10 | 2026-09-05 23:54:30 | 47.75088 | 12.67586 | 147° | 37km/h | 18178m | 3.7m/s | -56.3°C | 1.6% | 77.8hPa | 2.6V | 00:00:00 | 00:00:00 | 00:00:00 | |
| OE5MMP-10 | 2026-09-05 23:54:26 | 47.75132 | 12.67547 | 145° | 38km/h | 18155m | 3.2m/s | -56.4°C | 4.5% | 78.1hPa | 2.6V | 00:00:00 | 01:24:59 | 00:00:00 | |
| OE5DRO-10 | 2026-09-05 23:54:23 | 47.75156 | 12.67520 | 145° | 40km/h | 18142m | 4.2m/s | -56.6°C | 4.7% | 78.2hPa | 2.6V | 00:00:00 | 00:00:00 | 00:00:00 | |
| OE5DXL-15 | 2026-09-05 23:54:22 | 47.75164 | 12.67512 | 142° | 42km/h | 18138m | 4.5m/s | -56.8°C | 4.7% | 78.3hPa | 2.6V | 00:00:00 | 00:00:00 | 00:00:00 | |
| BAUMI2-15 | 2026-09-05 23:54:21 | 47.75171 | 12.67503 | 140° | 35km/h | 18133m | 4.4m/s | -56.8°C | 4.8% | 78.4hPa | 2.6V | 00:00:00 | 01:24:54 | 00:00:00 | |
| BAUMI2-15 | 2026-09-05 23:54:16 | 47.75208 | 12.67466 | 152° | 38km/h | 18112m | 4.7m/s | -57.1°C | 4.8% | 78.6hPa | 2.6V | 00:00:00 | 01:24:49 | 00:00:00 | |
| OE8JPQ-2 | 2026-09-05 23:54:12 | 47.75242 | 12.67439 | 154° | 44km/h | 18095m | 3.9m/s | -57.1°C | 4.8% | 78.8hPa | 2.6V | 00:00:00 | 00:00:00 | 00:00:00 | |
| OE5HKT-10 | 2026-09-05 23:54:11 | 47.75251 | 12.67432 | 151° | 44km/h | 18091m | 4.5m/s | -57.1°C | 4.7% | 78.9hPa | 2.6V | 00:00:00 | 01:24:44 | 00:00:00 | |
| DG1MFX-10 | 2026-09-05 23:54:09 | 47.75259 | 12.67424 | 148° | 42km/h | 18086m | 4.6m/s | -57.2°C | 1.7% | 79.0hPa | 2.6V | 00:00:00 | 00:00:00 | 00:00:00 | |
| OE5WHR-10 | 2026-09-05 23:54:08 | 47.75277 | 12.67405 | 146° | 46km/h | 18078m | 4.8m/s | -57.1°C | 4.6% | 79.1hPa | 2.6V | 00:00:00 | 00:00:00 | 00:00:00 | |
| OE5FHM-15 | 2026-09-05 23:54:07 | 47.75287 | 12.67396 | 146° | 46km/h | 18073m | 4.4m/s | -57.2°C | 4.6% | 79.1hPa | 2.6V | 00:00:00 | 01:24:40 | 00:00:00 | |
| OE5MMP-10 | 2026-09-05 23:54:06 | 47.75296 | 12.67386 | 145° | 44km/h | 18069m | 4.6m/s | -57.3°C | 4.6% | 79.2hPa | 2.6V | 00:00:00 | 01:24:39 | 00:00:00 | |
| OE5DRO-10 | 2026-09-05 23:54:04 | 47.75314 | 12.67365 | 140° | 46km/h | 18060m | 3.1m/s | -57.4°C | 4.7% | 79.3hPa | 2.6V | 00:00:00 | 00:00:00 | 08:30:00 | |
| BAUMI2-15 | 2026-09-05 23:54:01 | 47.75338 | 12.67334 | 139° | 44km/h | 18048m | 2.9m/s | -57.3°C | 4.7% | 79.4hPa | 2.6V | 00:00:00 | 01:24:34 | 00:00:00 | |
| OE5MMP-10 | 2026-09-05 23:53:56 | 47.75377 | 12.67275 | 132° | 46km/h | 18026m | 4.8m/s | -57.8°C | 4.8% | 79.7hPa | 2.6V | 00:00:00 | 01:24:29 | 00:00:00 | |
| OE8JPQ-2 | 2026-09-05 23:53:52 | 47.75406 | 12.67221 | 126° | 49km/h | 18010m | 3.4m/s | -58.1°C | 5.0% | 79.9hPa | 2.6V | 00:00:00 | 01:24:25 | 00:00:00 | |
| BAUMI2-15 | 2026-09-05 23:53:51 | 47.75413 | 12.67206 | 126° | 46km/h | 18006m | 3.6m/s | -58.2°C | 5.0% | 80.0hPa | 2.6V | 00:00:00 | 01:24:24 | 08:30:00 | |
| OE5HKT-10 | 2026-09-05 23:53:50 | 47.75420 | 12.67192 | 125° | 51km/h | 18002m | 4.6m/s | -58.3°C | 5.0% | 80.0hPa | 2.5V | 00:00:00 | 00:00:00 | 00:00:00 | |
| DG1MFX-10 | 2026-09-05 23:53:48 | 47.75426 | 12.67179 | 127° | 44km/h | 17998m | 3.5m/s | -58.4°C | 1.8% | 80.2hPa | 2.6V | 00:00:00 | 00:00:00 | 00:00:00 | |
| OE5WHR-10 | 2026-09-05 23:53:47 | 47.75440 | 12.67152 | 128° | 53km/h | 17991m | 4.6m/s | -58.5°C | 5.0% | 80.2hPa | 2.6V | 00:00:00 | 00:00:00 | 00:00:00 | |
| OE5MMP-10 | 2026-09-05 23:53:46 | 47.75447 | 12.67138 | 129° | 49km/h | 17986m | 3.6m/s | -58.5°C | 5.0% | 80.2hPa | 2.6V | 00:00:00 | 01:24:19 | 00:00:00 | |
| OE5DRO-10 | 2026-09-05 23:53:45 | 47.75455 | 12.67125 | 130° | 53km/h | 17983m | 3.2m/s | -58.6°C | 5.0% | 80.3hPa | 2.6V | 00:00:00 | 00:00:00 | 00:00:00 | |
| BAUMI2-15 | 2026-09-05 23:53:41 | 47.75486 | 12.67072 | 132° | 53km/h | 17967m | 4.7m/s | -58.8°C | 5.1% | 80.5hPa | 2.6V | 00:00:00 | 01:24:14 | 00:00:00 | |
| OE5FHM-15 | 2026-09-05 23:53:37 | 47.75521 | 12.67012 | 130° | 57km/h | 17950m | 3.4m/s | -58.9°C | 5.2% | 80.7hPa | 2.6V | 00:00:00 | 01:24:10 | 00:00:00 | |
| OE5MMP-10 | 2026-09-05 23:53:36 | 47.75530 | 12.66996 | 129° | 57km/h | 17946m | 4.9m/s | -59.0°C | 5.2% | 80.7hPa | 2.6V | 00:00:00 | 01:24:09 | 00:00:00 | |
| OE8JPQ-2 | 2026-09-05 23:53:31 | 47.75569 | 12.66911 | 121° | 57km/h | 17925m | 3.8m/s | -59.2°C | 5.3% | 81.0hPa | 2.6V | 00:00:00 | 00:00:00 | 00:00:00 | |
| OE5HKT-10 | 2026-09-05 23:53:29 | 47.75583 | 12.66874 | 121° | 58km/h | 17916m | 3.9m/s | -59.2°C | 5.3% | 81.1hPa | 2.5V | 00:00:00 | 00:00:00 | 00:00:00 | |
| DG1MFX-10 | 2026-09-05 23:53:28 | 47.75583 | 12.66874 | 121° | 58km/h | 17916m | 4.0m/s | -59.3°C | 1.9% | 81.2hPa | 2.5V | 00:00:00 | 00:00:00 | 00:00:00 | |
| OE5MMP-10 | 2026-09-05 23:53:26 | 47.75606 | 12.66820 | 123° | 57km/h | 17903m | 3.9m/s | -59.3°C | 5.3% | 81.3hPa | 2.5V | 00:00:00 | 01:23:59 | 00:00:00 | |
| OE5DXL-15 | 2026-09-05 23:53:22 | 47.75636 | 12.66746 | 119° | 60km/h | 17886m | 4.7m/s | -59.5°C | 5.4% | 81.5hPa | 2.5V | 00:00:00 | 00:00:00 | 00:00:00 | |
| OE5MMP-10 | 2026-09-05 23:53:16 | 47.75670 | 12.66632 | 113° | 60km/h | 17860m | 5.0m/s | -59.8°C | 5.5% | 81.8hPa | 2.5V | 00:00:00 | 01:23:49 | 08:30:00 | |
| OE8JPQ-2 | 2026-09-05 23:53:09 | 47.75710 | 12.66488 | 107° | 62km/h | 17828m | 5.4m/s | -59.8°C | 5.6% | 82.3hPa | 2.7V | 00:00:00 | 00:00:00 | 00:00:00 | |
| DG1MFX-10 | 2026-09-05 23:53:08 | 47.75714 | 12.66464 | 105° | 66km/h | 17823m | 4.3m/s | -59.8°C | 2.0% | 82.4hPa | 2.7V | 00:00:00 | 00:00:00 | 00:00:00 | |
| OE5FHM-15 | 2026-09-05 23:53:07 | 47.75718 | 12.66441 | 103° | 62km/h | 17819m | 3.5m/s | -59.8°C | 5.6% | 82.4hPa | 2.7V | 00:00:00 | 01:23:40 | 00:00:00 | |
| OE5MMP-10 | 2026-09-05 23:53:06 | 47.75722 | 12.66417 | 102° | 64km/h | 17815m | 5.1m/s | -59.7°C | 5.5% | 82.5hPa | 2.6V | 00:00:00 | 01:23:39 | 00:00:00 | |
| OE5WHR-10 | 2026-09-05 23:53:05 | 47.75725 | 12.66393 | 103° | 62km/h | 17810m | 4.8m/s | -59.7°C | 5.6% | 82.5hPa | 2.6V | 00:00:00 | 00:00:00 | 08:30:00 | |
| OE5MMP-10 | 2026-09-05 23:52:56 | 47.75766 | 12.66190 | 104° | 62km/h | 17768m | 4.8m/s | -59.3°C | 5.5% | 83.1hPa | 2.6V | 00:00:00 | 01:23:29 | 00:00:00 | |
| OE5DXL-15 | 2026-09-05 23:52:52 | 47.75780 | 12.66099 | 104° | 58km/h | 17749m | 4.5m/s | -59.2°C | 5.5% | 83.3hPa | 2.6V | 00:00:00 | 00:00:00 | 00:00:00 | |
| OE8JPQ-2 | 2026-09-05 23:52:49 | 47.75791 | 12.66032 | 104° | 62km/h | 17735m | 4.1m/s | -59.1°C | 5.5% | 83.5hPa | 2.6V | 00:00:00 | 01:23:22 | 00:00:00 | |
| OE5DRO-10 | 2026-09-05 23:52:48 | 47.75795 | 12.66008 | 104° | 60km/h | 17731m | 3.7m/s | -59.0°C | 5.4% | 83.6hPa | 2.6V | 00:00:00 | 00:00:00 | 00:00:00 | |
| OE5HKT-10 | 2026-09-05 23:52:47 | 47.75799 | 12.65986 | 104° | 58km/h | 17727m | 5.5m/s | -59.0°C | 5.5% | 83.6hPa | 2.6V | 00:00:00 | 00:00:00 | 08:30:00 | |
| OE5MMP-10 | 2026-09-05 23:52:46 | 47.75802 | 12.65964 | 104° | 60km/h | 17722m | 4.4m/s | -59.0°C | 5.5% | 83.7hPa | 2.7V | 00:00:00 | 01:23:19 | 00:00:00 | |
| OE5WHR-10 | 2026-09-05 23:52:43 | 47.75812 | 12.65898 | 101° | 58km/h | 17707m | 5.6m/s | -58.9°C | 5.4% | 83.9hPa | 2.6V | 00:00:00 | 00:00:00 | 00:00:00 | |
| OE5FHM-15 | 2026-09-05 23:52:37 | 47.75830 | 12.65765 | 101° | 57km/h | 17677m | 4.5m/s | -58.7°C | 5.4% | 84.3hPa | 2.6V | 00:00:00 | 01:23:10 | 00:00:00 | |
| OE5MMP-10 | 2026-09-05 23:52:36 | 47.75832 | 12.65744 | 102° | 58km/h | 17672m | 4.2m/s | -58.7°C | 5.3% | 84.3hPa | 2.6V | 00:00:00 | 01:23:09 | 00:00:00 | |
| OE5DRO-10 | 2026-09-05 23:52:29 | 47.75853 | 12.65595 | 101° | 57km/h | 17636m | 4.6m/s | -58.3°C | 5.2% | 84.8hPa | 2.6V | 00:00:00 | 00:00:00 | 00:00:00 | |
| OE5MMP-10 | 2026-09-05 23:52:26 | 47.75859 | 12.65530 | 94° | 55km/h | 17620m | 3.7m/s | -58.2°C | 5.2% | 85.0hPa | 2.6V | 00:00:00 | 01:22:59 | 00:00:00 | |
| OE5WHR-10 | 2026-09-05 23:52:22 | 47.75866 | 12.65451 | 105° | 55km/h | 17601m | 4.3m/s | -58.1°C | 5.2% | 85.3hPa | 2.6V | 00:00:00 | 01:22:55 | 00:00:00 | |
| OE5MMP-10 | 2026-09-05 23:52:16 | 47.75880 | 12.65325 | 98° | 55km/h | 17571m | 5.2m/s | -57.9°C | 5.1% | 85.7hPa | 2.6V | 00:00:00 | 01:22:49 | 00:00:00 | |
| OE5DRO-10 | 2026-09-05 23:52:10 | 47.75893 | 12.65193 | 99° | 55km/h | 17540m | 6.3m/s | -57.9°C | 5.1% | 86.2hPa | 2.6V | 00:00:00 | 00:00:00 | 00:00:00 | |
| OE5FHM-15 | 2026-09-05 23:52:07 | 47.75899 | 12.65142 | 102° | 57km/h | 17526m | 5.0m/s | -57.9°C | 5.1% | 86.4hPa | 2.7V | 00:00:00 | 01:22:40 | 00:00:00 | |
| OE5MMP-10 | 2026-09-05 23:52:06 | 47.75902 | 12.65124 | 103° | 57km/h | 17521m | 5.5m/s | -57.9°C | 5.0% | 86.4hPa | 2.7V | 00:00:00 | 01:22:39 | 00:00:00 | |
| OE5HKT-10 | 2026-09-05 23:52:05 | 47.75905 | 12.65104 | 102° | 57km/h | 17515m | 5.3m/s | 0°C | 0% | 0hPa | 2.7V | 00:00:00 | 01:22:38 | 00:00:00 | |
| OE5WHR-10 | 2026-09-05 23:52:01 | 47.75918 | 12.65022 | 110° | 57km/h | 17494m | 5.6m/s | -57.8°C | 5.0% | 86.8hPa | 2.7V | 00:00:00 | 00:00:00 | 00:00:00 | |
| OE5MMP-10 | 2026-09-05 23:51:56 | 47.75948 | 12.64923 | 112° | 57km/h | 17469m | 4.5m/s | -57.6°C | 5.0% | 87.1hPa | 2.7V | 00:00:00 | 01:22:29 | 00:00:00 | |
| OE5DXL-15 | 2026-09-05 23:51:52 | 47.75965 | 12.64837 | 104° | 60km/h | 17449m | 5.2m/s | -57.5°C | 5.0% | 87.4hPa | 2.7V | 00:00:00 | 00:00:00 | 00:00:00 | |
| OE5DRO-10 | 2026-09-05 23:51:51 | 47.75969 | 12.64816 | 105° | 58km/h | 17445m | 4.2m/s | -57.5°C | 5.0% | 87.5hPa | 2.7V | 00:00:00 | 00:00:00 | 00:00:00 | |
| DO7DH-14 | 2026-09-05 23:51:50 | 47.75973 | 12.64795 | 106° | 58km/h | 17440m | 5.3m/s | 0°C | 0% | 0hPa | 2.7V | 00:00:00 | 01:22:23 | 00:00:00 | |
| OE5MMP-10 | 2026-09-05 23:51:46 | 47.75990 | 12.64720 | 113° | 60km/h | 17419m | 4.2m/s | -57.5°C | 5.0% | 87.8hPa | 2.7V | 00:00:00 | 01:22:19 | 08:30:00 | |
| OE5HKT-10 | 2026-09-05 23:51:44 | 47.76001 | 12.64681 | 113° | 58km/h | 17410m | 5.4m/s | 0°C | 0% | 0hPa | 2.6V | 00:00:00 | 00:00:00 | 00:00:00 | |
| OE8JPQ-2 | 2026-09-05 23:51:42 | 47.76012 | 12.64640 | 110° | 62km/h | 17400m | 5.7m/s | -57.6°C | 4.9% | 88.1hPa | 2.6V | 00:00:00 | 01:22:15 | 00:00:00 | |
| OE5WHR-10 | 2026-09-05 23:51:40 | 47.76021 | 12.64596 | 106° | 62km/h | 17390m | 4.2m/s | -57.6°C | 4.9% | 88.3hPa | 2.6V | 00:00:00 | 00:00:00 | 00:00:00 | |
| OE5FHM-15 | 2026-09-05 23:51:37 | 47.76032 | 12.64529 | 105° | 60km/h | 17376m | 4.0m/s | -57.7°C | 4.9% | 88.4hPa | 2.6V | 00:00:00 | 01:22:10 | 08:30:00 | |
| OE5MMP-10 | 2026-09-05 23:51:36 | 47.76036 | 12.64507 | 106° | 60km/h | 17371m | 5.5m/s | -57.7°C | 4.9% | 88.5hPa | 2.6V | 00:00:00 | 01:22:09 | 00:00:00 | |
| OE5DRO-10 | 2026-09-05 23:51:32 | 47.76058 | 12.64422 | 118° | 62km/h | 17352m | 5.0m/s | -57.7°C | 4.9% | 88.8hPa | 2.6V | 00:00:00 | 00:00:00 | 00:00:00 | |
| OE5MMP-10 | 2026-09-05 23:51:26 | 47.76103 | 12.64302 | 114° | 64km/h | 17323m | 4.6m/s | -58.0°C | 5.2% | 89.2hPa | 2.6V | 00:00:00 | 01:21:59 | 00:00:00 | |
| DG1MFX-10 | 2026-09-05 23:51:23 | 47.76114 | 12.64255 | 106° | 68km/h | 17313m | 4.2m/s | -58.1°C | 1.9% | 89.4hPa | 2.6V | 00:00:00 | 00:00:00 | 00:00:00 | |
| OE5DXL-15 | 2026-09-05 23:51:22 | 47.76122 | 12.64207 | 105° | 62km/h | 17303m | 4.6m/s | -58.0°C | 5.3% | 89.4hPa | 2.6V | 00:00:00 | 00:00:00 | 00:00:00 | |
| BAUMI2-15 | 2026-09-05 23:51:21 | 47.76126 | 12.64184 | 108° | 64km/h | 17299m | 3.7m/s | -58.0°C | 5.2% | 89.5hPa | 2.6V | 00:00:00 | 01:21:54 | 00:00:00 | |
| PG1ADW-2 | 2026-09-05 23:51:20 | 47.76131 | 12.64162 | 111° | 62km/h | 17295m | 4.1m/s | -58.0°C | 5.2% | 89.6hPa | 2.6V | 00:00:00 | 00:00:00 | 00:00:00 | |
| OE5WHR-10 | 2026-09-05 23:51:19 | 47.76137 | 12.64141 | 113° | 62km/h | 17291m | 5.1m/s | -58.0°C | 5.1% | 89.6hPa | 2.6V | 00:00:00 | 01:21:52 | 00:00:00 | |
| OE5MMP-10 | 2026-09-05 23:51:16 | 47.76157 | 12.64075 | 115° | 62km/h | 17277m | 4.7m/s | -58.0°C | 5.1% | 89.8hPa | 2.6V | 00:00:00 | 01:21:49 | 00:00:00 | |
| OE5DRO-10 | 2026-09-05 23:51:13 | 47.76175 | 12.64012 | 111° | 62km/h | 17264m | 4.3m/s | -57.9°C | 5.1% | 90.0hPa | 2.7V | 00:00:00 | 00:00:00 | 08:30:00 | |
| BAUMI2-15 | 2026-09-05 23:51:11 | 47.76184 | 12.63968 | 107° | 62km/h | 17254m | 4.0m/s | -57.9°C | 5.2% | 90.2hPa | 2.6V | 00:00:00 | 01:21:44 | 00:00:00 | |
| DG1MFX-10 | 2026-09-05 23:51:03 | 47.76217 | 12.63809 | 110° | 62km/h | 17222m | 5.2m/s | -57.8°C | 1.9% | 90.7hPa | 2.6V | 00:00:00 | 00:00:00 | 00:00:00 | |
| BAUMI2-15 | 2026-09-05 23:51:01 | 47.76230 | 12.63745 | 104° | 62km/h | 17208m | 4.6m/s | -57.6°C | 5.1% | 90.8hPa | 2.6V | 00:00:00 | 01:21:34 | 00:00:00 | |
| OE8JPQ-2 | 2026-09-05 23:51:00 | 47.76233 | 12.63723 | 103° | 60km/h | 17203m | 5.4m/s | -57.6°C | 5.2% | 90.9hPa | 2.6V | 00:00:00 | 00:00:00 | 00:00:00 | |
| OE5WHR-10 | 2026-09-05 23:50:58 | 47.76239 | 12.63677 | 101° | 60km/h | 17194m | 3.7m/s | -57.5°C | 5.1% | 91.0hPa | 2.6V | 00:00:00 | 00:00:00 | 00:00:00 | |
| OE5MMP-10 | 2026-09-05 23:50:56 | 47.76245 | 12.63632 | 103° | 60km/h | 17185m | 4.4m/s | -57.4°C | 5.2% | 91.1hPa | 2.6V | 00:00:00 | 01:21:29 | 00:00:00 | |
| OE5DRO-10 | 2026-09-05 23:50:54 | 47.76252 | 12.63588 | 104° | 60km/h | 17176m | 5.2m/s | -57.4°C | 5.1% | 91.3hPa | 2.6V | 00:00:00 | 00:00:00 | 00:00:00 | |
| OE5DXL-15 | 2026-09-05 23:50:52 | 47.76259 | 12.63543 | 103° | 58km/h | 17167m | 4.0m/s | -57.3°C | 5.0% | 91.4hPa | 2.6V | 00:00:00 | 00:00:00 | 00:00:00 | |
| BAUMI2-15 | 2026-09-05 23:50:51 | 47.76262 | 12.63521 | 103° | 58km/h | 17163m | 4.5m/s | -57.2°C | 5.0% | 91.5hPa | 2.7V | 00:00:00 | 01:21:24 | 00:00:00 | |
| OE5MMP-10 | 2026-09-05 23:50:46 | 47.76271 | 12.63412 | 94° | 60km/h | 17138m | 3.9m/s | -57.0°C | 4.9% | 91.8hPa | 2.6V | 00:00:00 | 01:21:19 | 00:00:00 | |
| DG1MFX-10 | 2026-09-05 23:50:43 | 47.76274 | 12.63369 | 95° | 58km/h | 17129m | 3.9m/s | -57.0°C | 1.8% | 92.0hPa | 2.6V | 00:00:00 | 00:00:00 | 00:00:00 | |
| OE5FHM-15 | 2026-09-05 23:50:42 | 47.76276 | 12.63325 | 97° | 58km/h | 17120m | 5.2m/s | -56.9°C | 4.8% | 92.1hPa | 2.6V | 00:00:00 | 01:21:15 | 00:00:00 | |
| BAUMI2-15 | 2026-09-05 23:50:41 | 47.76278 | 12.63301 | 99° | 60km/h | 17115m | 3.8m/s | -57.0°C | 4.8% | 92.2hPa | 2.6V | 00:00:00 | 01:21:14 | 00:00:00 | |
| OE8JPQ-2 | 2026-09-05 23:50:40 | 47.76281 | 12.63279 | 101° | 58km/h | 17111m | 5.0m/s | -57.0°C | 4.8% | 92.2hPa | 2.6V | 00:00:00 | 01:21:13 | 00:00:00 | |
| PG1ADW-2 | 2026-09-05 23:50:39 | 47.76284 | 12.63257 | 104° | 58km/h | 17106m | 5.1m/s | -57.1°C | 4.9% | 92.3hPa | 2.6V | 00:00:00 | 00:00:00 | 00:00:00 | |
| OE5WHR-10 | 2026-09-05 23:50:37 | 47.76292 | 12.63214 | 107° | 58km/h | 17097m | 5.0m/s | -57.1°C | 4.9% | 92.4hPa | 2.6V | 00:00:00 | 00:00:00 | 00:00:00 | |
| OE5MMP-10 | 2026-09-05 23:50:36 | 47.76296 | 12.63192 | 107° | 58km/h | 17091m | 4.7m/s | -57.1°C | 4.9% | 92.5hPa | 2.6V | 00:00:00 | 01:21:09 | 00:00:00 | |
| OE5DRO-10 | 2026-09-05 23:50:35 | 47.76300 | 12.63171 | 107° | 58km/h | 17087m | 3.8m/s | -57.1°C | 4.9% | 92.6hPa | 2.6V | 00:00:00 | 00:00:00 | 00:00:00 | |
| BAUMI2-15 | 2026-09-05 23:50:31 | 47.76315 | 12.63087 | 103° | 58km/h | 17069m | 4.5m/s | -57.0°C | 4.8% | 92.9hPa | 2.6V | 00:00:00 | 01:21:04 | 00:00:00 | |
| OE5MMP-10 | 2026-09-05 23:50:26 | 47.76332 | 12.62979 | 106° | 58km/h | 17047m | 3.9m/s | -57.1°C | 4.8% | 93.2hPa | 2.6V | 00:00:00 | 01:20:59 | 00:00:00 | |
| OE5DXL-15 | 2026-09-05 23:50:22 | 47.76349 | 12.62893 | 108° | 58km/h | 17028m | 5.2m/s | -57.3°C | 4.8% | 93.4hPa | 2.6V | 00:00:00 | 00:00:00 | 00:00:00 | |
| BAUMI2-15 | 2026-09-05 23:50:21 | 47.76353 | 12.62873 | 108° | 57km/h | 17023m | 4.2m/s | -57.3°C | 4.8% | 93.5hPa | 2.6V | 00:00:00 | 01:20:54 | 08:30:00 | |
| OE8JPQ-2 | 2026-09-05 23:50:20 | 47.76357 | 12.62853 | 107° | 58km/h | 17018m | 5.5m/s | -57.3°C | 4.8% | 93.6hPa | 2.6V | 00:00:00 | 00:00:00 | 00:00:00 | |
| S52SK | 2026-09-05 23:50:19 | 47.76357 | 12.62853 | 107° | 57km/h | 17018m | 5.5m/s | -57.4°C | 0% | 0hPa | 2.6V | 00:00:00 | 00:00:00 | 00:00:00 | |
| PG1ADW-2 | 2026-09-05 23:50:18 | 47.76365 | 12.62812 | 106° | 58km/h | 17008m | 4.1m/s | -57.3°C | 4.9% | 93.8hPa | 2.6V | 00:00:00 | 01:20:51 | 00:00:00 | |
| S52SK | 2026-09-05 23:50:14 | 47.76376 | 12.62751 | 104° | 57km/h | 16994m | 5.5m/s | -57.4°C | 0% | 0hPa | 2.6V | 00:00:00 | 00:00:00 | 00:00:00 | |
| OE5FHM-15 | 2026-09-05 23:50:12 | 47.76386 | 12.62685 | 104° | 57km/h | 16980m | 5.3m/s | -57.4°C | 4.9% | 94.2hPa | 2.6V | 00:00:00 | 01:20:45 | 00:00:00 | |
| BAUMI2-15 | 2026-09-05 23:50:11 | 47.76390 | 12.62664 | 106° | 60km/h | 16975m | 4.3m/s | -57.6°C | 5.0% | 94.3hPa | 2.6V | 00:00:00 | 01:20:44 | 00:00:00 | |
| OE5MMP-10 | 2026-09-05 23:50:07 | 47.76408 | 12.62554 | 103° | 58km/h | 16952m | 4.9m/s | -58.0°C | 5.2% | 94.6hPa | 2.6V | 00:00:00 | 01:20:39 | 00:00:00 | |
| DG1MFX-10 | 2026-09-05 23:50:02 | 47.76416 | 12.62490 | 100° | 60km/h | 16939m | 3.7m/s | -58.0°C | 1.9% | 94.8hPa | 2.6V | 00:00:00 | 00:00:00 | 00:00:00 | |
| BAUMI2-15 | 2026-09-05 23:50:01 | 47.76421 | 12.62445 | 102° | 60km/h | 16930m | 5.0m/s | -57.8°C | 5.1% | 94.9hPa | 2.6V | 00:00:00 | 01:20:34 | 00:00:00 | |
| OE8JPQ-2 | 2026-09-05 23:50:00 | 47.76424 | 12.62423 | 103° | 53km/h | 16925m | 4.5m/s | -57.8°C | 5.0% | 95.0hPa | 2.6V | 00:00:00 | 00:00:00 | 00:00:00 | |
| PG1ADW-2 | 2026-09-05 23:49:58 | 47.76430 | 12.62379 | 101° | 53km/h | 16916m | 4.6m/s | -57.8°C | 5.1% | 95.2hPa | 2.6V | 00:00:00 | 00:00:00 | 00:00:00 | |
| OE5DRO-10 | 2026-09-05 23:49:57 | 47.76432 | 12.62357 | 102° | 57km/h | 16912m | 3.5m/s | -57.8°C | 5.1% | 95.2hPa | 2.7V | 00:00:00 | 00:00:00 | 00:00:00 | |
| OE5HKT-10 | 2026-09-05 23:49:56 | 47.76436 | 12.62336 | 103° | 53km/h | 16908m | 5.2m/s | 0°C | 0% | 0hPa | 2.7V | 00:00:00 | 00:00:00 | 00:00:00 | |
| OE5WHR-10 | 2026-09-05 23:49:55 | 47.76439 | 12.62316 | 105° | 53km/h | 16903m | 4.2m/s | -57.7°C | 5.0% | 95.3hPa | 2.7V | 00:00:00 | 00:00:00 | 08:30:00 | |
| DB0UT-7 | 2026-09-05 23:49:53 | 47.76445 | 12.62276 | 104° | 60km/h | 16894m | 5.4m/s | -57.7°C | 5.0% | 95.5hPa | 2.6V | 00:00:00 | 01:20:26 | 00:00:00 | |
| OE5DXL-15 | 2026-09-05 23:49:52 | 47.76449 | 12.62256 | 103° | 53km/h | 16889m | 4.0m/s | -57.7°C | 5.0% | 95.6hPa | 2.6V | 00:00:00 | 00:00:00 | 00:00:00 | |
| BAUMI2-15 | 2026-09-05 23:49:51 | 47.76451 | 12.62237 | 104° | 53km/h | 16885m | 4.4m/s | -57.8°C | 5.1% | 95.6hPa | 2.6V | 00:00:00 | 01:20:24 | 00:00:00 | |
| OE5MMP-10 | 2026-09-05 23:49:46 | 47.76469 | 12.62143 | 108° | 51km/h | 16862m | 4.3m/s | -57.8°C | 5.1% | 96.0hPa | 2.6V | 00:00:00 | 01:20:19 | 00:00:00 | |
| OE5FHM-15 | 2026-09-05 23:49:42 | 47.76487 | 12.62071 | 110° | 55km/h | 16844m | 4.4m/s | -57.7°C | 5.1% | 96.2hPa | 2.6V | 00:00:00 | 01:20:15 | 00:00:00 | |
| BAUMI2-15 | 2026-09-05 23:49:41 | 47.76491 | 12.62053 | 109° | 51km/h | 16839m | 4.0m/s | -57.7°C | 5.0% | 96.3hPa | 2.7V | 00:00:00 | 01:20:14 | 00:00:00 | |
| OE8JPQ-2 | 2026-09-05 23:49:39 | 47.76499 | 12.62018 | 110° | 55km/h | 16830m | 3.8m/s | -57.7°C | 5.0% | 96.4hPa | 2.7V | 00:00:00 | 01:20:12 | 00:00:00 | |
| PG1ADW-2 | 2026-09-05 23:49:38 | 47.76503 | 12.61999 | 109° | 55km/h | 16826m | 3.9m/s | -57.6°C | 5.0% | 96.5hPa | 2.7V | 00:00:00 | 00:00:00 | 00:00:00 | |
| OE5MMP-10 | 2026-09-05 23:49:36 | 47.76511 | 12.61961 | 105° | 53km/h | 16816m | 4.2m/s | -57.6°C | 4.9% | 96.6hPa | 2.7V | 00:00:00 | 01:20:09 | 00:00:00 | |
| OE5HKT-10 | 2026-09-05 23:49:35 | 47.76514 | 12.61942 | 105° | 57km/h | 16812m | 4.3m/s | 0°C | 0% | 0hPa | 2.7V | 00:00:00 | 01:20:08 | 00:00:00 | |
| OE5WHR-10 | 2026-09-05 23:49:34 | 47.76518 | 12.61922 | 107° | 57km/h | 16808m | 4.8m/s | -57.7°C | 5.0% | 96.8hPa | 2.7V | 00:00:00 | 00:00:00 | 00:00:00 | |
| BAUMI2-15 | 2026-09-05 23:49:31 | 47.76530 | 12.61865 | 106° | 53km/h | 16794m | 4.7m/s | -57.8°C | 5.0% | 97.0hPa | 2.7V | 00:00:00 | 01:20:04 | 00:00:00 | |
| OE5MMP-10 | 2026-09-05 23:49:26 | 47.76547 | 12.61768 | 102° | 58km/h | 16774m | 4.2m/s | -57.9°C | 5.2% | 97.3hPa | 2.7V | 00:00:00 | 01:19:59 | 00:00:00 | |
| OE5DXL-15 | 2026-09-05 23:49:22 | 47.76554 | 12.61685 | 99° | 55km/h | 16757m | 4.6m/s | -57.9°C | 5.2% | 97.5hPa | 2.7V | 00:00:00 | 00:00:00 | 00:00:00 | |
| DG1MFX-10 | 2026-09-05 23:49:21 | 47.76554 | 12.61685 | 100° | 58km/h | 16757m | 4.7m/s | -57.9°C | 1.9% | 97.6hPa | 2.6V | 00:00:00 | 00:00:00 | 00:00:00 | |
| OE8JPQ-2 | 2026-09-05 23:49:19 | 47.76564 | 12.61620 | 104° | 57km/h | 16744m | 4.3m/s | -57.8°C | 5.1% | 97.8hPa | 2.6V | 00:00:00 | 00:00:00 | 00:00:00 | |
| PG1ADW-2 | 2026-09-05 23:49:18 | 47.76568 | 12.61598 | 104° | 55km/h | 16740m | 4.4m/s | -57.8°C | 5.0% | 97.8hPa | 2.7V | 00:00:00 | 00:00:00 | 00:00:00 | |
| OE5MMP-10 | 2026-09-05 23:49:16 | 47.76574 | 12.61554 | 104° | 55km/h | 16731m | 4.5m/s | -57.8°C | 5.0% | 98.0hPa | 2.7V | 00:00:00 | 01:19:49 | 00:00:00 | |
| OE5HKT-10 | 2026-09-05 23:49:14 | 47.76582 | 12.61510 | 105° | 57km/h | 16723m | 3.4m/s | 0°C | 0% | 0hPa | 2.7V | 00:00:00 | 00:00:00 | 00:00:00 | |
| OE5WHR-10 | 2026-09-05 23:49:13 | 47.76585 | 12.61489 | 105° | 53km/h | 16719m | 4.1m/s | -57.8°C | 5.1% | 98.2hPa | 2.7V | 00:00:00 | 01:19:46 | 00:00:00 | |
| OE5FHM-15 | 2026-09-05 23:49:12 | 47.76589 | 12.61469 | 104° | 55km/h | 16715m | 4.3m/s | -57.8°C | 5.1% | 98.2hPa | 2.7V | 00:00:00 | 01:19:45 | 00:00:00 | |
| OE5MMP-10 | 2026-09-05 23:49:06 | 47.76614 | 12.61356 | 110° | 53km/h | 16689m | 3.7m/s | -57.9°C | 5.2% | 98.6hPa | 2.7V | 00:00:00 | 01:19:39 | 00:00:00 | |
| DG1MFX-10 | 2026-09-05 23:49:00 | 47.76638 | 12.61257 | 110° | 53km/h | 16669m | 4.4m/s | -58.0°C | 1.9% | 99.0hPa | 2.7V | 00:00:00 | 00:00:00 | 00:00:00 | |
| OE8JPQ-2 | 2026-09-05 23:48:59 | 47.76647 | 12.61221 | 113° | 57km/h | 16662m | 4.3m/s | -57.9°C | 5.1% | 99.0hPa | 2.7V | 00:00:00 | 00:00:00 | 00:00:00 | |
| PG1ADW-2 | 2026-09-05 23:48:58 | 47.76652 | 12.61205 | 115° | 58km/h | 16658m | 3.7m/s | -57.9°C | 5.1% | 99.1hPa | 2.7V | 00:00:00 | 01:19:31 | 00:00:00 | |
| OE5MMP-10 | 2026-09-05 23:48:56 | 47.76663 | 12.61171 | 116° | 57km/h | 16650m | 4.1m/s | -57.9°C | 5.1% | 99.2hPa | 2.7V | 00:00:00 | 01:19:29 | 00:00:00 | |
| OE5WHR-10 | 2026-09-05 23:48:52 | 47.76684 | 12.61095 | 114° | 60km/h | 16634m | 4.8m/s | -57.8°C | 5.1% | 99.5hPa | 2.7V | 00:00:00 | 00:00:00 | 00:00:00 | |
| OE5MMP-10 | 2026-09-05 23:48:46 | 47.76719 | 12.60975 | 114° | 62km/h | 16609m | 5.1m/s | -57.8°C | 5.1% | 99.9hPa | 2.7V | 00:00:00 | 01:19:19 | 08:30:00 | |
| OE5FHM-15 | 2026-09-05 23:48:42 | 47.76744 | 12.60890 | 114° | 62km/h | 16592m | 3.4m/s | -57.8°C | 5.1% | 100.2hPa | 2.7V | 00:00:00 | 01:19:15 | 00:00:00 | |
| OE5DRO-10 | 2026-09-05 23:48:40 | 47.76757 | 12.60847 | 116° | 62km/h | 16584m | 4.5m/s | -57.8°C | 5.1% | 100.3hPa | 2.7V | 00:00:00 | 00:00:00 | 00:00:00 | |
| OE8JPQ-2 | 2026-09-05 23:48:39 | 47.76764 | 12.60826 | 117° | 62km/h | 16580m | 3.4m/s | -57.8°C | 5.1% | 100.3hPa | 2.7V | 00:00:00 | 01:19:12 | 00:00:00 | |
| PG1ADW-2 | 2026-09-05 23:48:38 | 47.76771 | 12.60805 | 117° | 62km/h | 16576m | 4.8m/s | -57.8°C | 5.1% | 100.4hPa | 2.7V | 00:00:00 | 00:00:00 | 00:00:00 | |
| OE5MMP-10 | 2026-09-05 23:48:36 | 47.76785 | 12.60763 | 118° | 60km/h | 16568m | 3.6m/s | -57.7°C | 5.1% | 100.5hPa | 2.7V | 00:00:00 | 01:19:09 | 00:00:00 | |
| DB0UT-7 | 2026-09-05 23:48:32 | 47.76813 | 12.60681 | 116° | 62km/h | 16552m | 3.4m/s | -57.6°C | 5.1% | 100.8hPa | 2.7V | 00:00:00 | 00:00:00 | 00:00:00 | |
| OE5WHR-10 | 2026-09-05 23:48:31 | 47.76820 | 12.60660 | 116° | 62km/h | 16549m | 2.8m/s | -57.6°C | 5.1% | 100.9hPa | 2.7V | 00:00:00 | 00:00:00 | 00:00:00 | |
| OE5MMP-10 | 2026-09-05 23:48:26 | 47.76855 | 12.60562 | 119° | 66km/h | 16528m | 3.8m/s | -57.5°C | 5.1% | 101.2hPa | 2.7V | 00:00:00 | 01:18:59 | 00:00:00 | |
| OE5DXL-15 | 2026-09-05 23:48:22 | 47.76892 | 12.60480 | 127° | 62km/h | 16512m | 3.9m/s | -57.5°C | 5.1% | 101.4hPa | 2.7V | 00:00:00 | 00:00:00 | 00:00:00 | |
| OE5DRO-10 | 2026-09-05 23:48:21 | 47.76901 | 12.60459 | 125° | 62km/h | 16508m | 5.1m/s | -57.4°C | 5.0% | 101.5hPa | 2.7V | 00:00:00 | 00:00:00 | 00:00:00 | |
| OE8JPQ-2 | 2026-09-05 23:48:19 | 47.76920 | 12.60418 | 123° | 60km/h | 16500m | 3.6m/s | -57.4°C | 5.0% | 101.6hPa | 2.7V | 00:00:00 | 00:00:00 | 08:30:00 | |
| PG1ADW-2 | 2026-09-05 23:48:18 | 47.76928 | 12.60397 | 123° | 60km/h | 16495m | 5.0m/s | -57.4°C | 5.0% | 101.7hPa | 2.6V | 00:00:00 | 00:00:00 | 00:00:00 | |
| OE5MMP-10 | 2026-09-05 23:48:16 | 47.76944 | 12.60358 | 119° | 60km/h | 16486m | 4.4m/s | -57.4°C | 5.0% | 101.9hPa | 2.6V | 00:00:00 | 01:18:49 | 00:00:00 | |
| OE5FHM-15 | 2026-09-05 23:48:12 | 47.76971 | 12.60283 | 121° | 62km/h | 16470m | 4.0m/s | -57.4°C | 5.1% | 102.1hPa | 2.6V | 00:00:00 | 01:18:45 | 00:00:00 | |
| OE5WHR-10 | 2026-09-05 23:48:10 | 47.76986 | 12.60246 | 124° | 62km/h | 16461m | 4.8m/s | -57.4°C | 5.0% | 102.3hPa | 2.7V | 00:00:00 | 01:18:43 | 00:00:00 | |
| OE5MMP-10 | 2026-09-05 23:48:06 | 47.77029 | 12.60172 | 135° | 62km/h | 16444m | 3.0m/s | -57.4°C | 5.0% | 102.6hPa | 2.7V | 00:00:00 | 01:18:39 | 00:00:00 | |
| DB0UT-7 | 2026-09-05 23:48:02 | 47.77071 | 12.60100 | 126° | 62km/h | 16428m | 4.6m/s | -57.4°C | 5.0% | 102.8hPa | 2.7V | 00:00:00 | 01:18:35 | 00:00:00 | |
| OE8JPQ-2 | 2026-09-05 23:47:59 | 47.77095 | 12.60043 | 119° | 66km/h | 16417m | 4.9m/s | -57.4°C | 5.0% | 103.0hPa | 2.7V | 00:00:00 | 00:00:00 | 00:00:00 | |
| PG1ADW-2 | 2026-09-05 23:47:58 | 47.77102 | 12.60023 | 118° | 68km/h | 16413m | 3.7m/s | -57.4°C | 5.0% | 103.0hPa | 2.7V | 00:00:00 | 00:00:00 | 08:30:00 | |
| OE5MMP-10 | 2026-09-05 23:47:56 | 47.77117 | 12.59982 | 121° | 66km/h | 16404m | 4.6m/s | -57.4°C | 5.0% | 103.2hPa | 2.6V | 00:00:00 | 01:18:29 | 00:00:00 | |
| OE5WHR-10 | 2026-09-05 23:47:49 | 47.77185 | 12.59848 | 130° | 68km/h | 16375m | 3.1m/s | -57.3°C | 5.0% | 103.6hPa | 2.6V | 00:00:00 | 00:00:00 | 00:00:00 | |
| OE5MMP-10 | 2026-09-05 23:47:46 | 47.77215 | 12.59784 | 121° | 69km/h | 16363m | 3.8m/s | -57.3°C | 5.0% | 103.9hPa | 2.7V | 00:00:00 | 01:18:19 | 00:00:00 | |
| OE5DRO-10 | 2026-09-05 23:47:43 | 47.77241 | 12.59715 | 119° | 66km/h | 16351m | 3.9m/s | -57.2°C | 5.0% | 104.0hPa | 2.7V | 00:00:00 | 00:00:00 | 00:00:00 | |
| OE5FHM-15 | 2026-09-05 23:47:42 | 47.77249 | 12.59692 | 119° | 64km/h | 16347m | 4.6m/s | -57.2°C | 5.0% | 104.1hPa | 2.7V | 00:00:00 | 01:18:15 | 00:00:00 | |
| OE8JPQ-2 | 2026-09-05 23:47:39 | 47.77277 | 12.59624 | 124° | 64km/h | 16335m | 4.2m/s | -57.2°C | 5.1% | 104.3hPa | 2.7V | 00:00:00 | 01:18:12 | 00:00:00 | |
| PG1ADW-2 | 2026-09-05 23:47:38 | 47.77286 | 12.59604 | 126° | 66km/h | 16331m | 3.5m/s | -57.2°C | 5.1% | 104.4hPa | 2.7V | 00:00:00 | 01:18:11 | 00:00:00 | |
| OE5MMP-10 | 2026-09-05 23:47:36 | 47.77306 | 12.59564 | 127° | 66km/h | 16322m | 4.2m/s | -57.3°C | 5.1% | 104.5hPa | 2.7V | 00:00:00 | 01:18:09 | 00:00:00 | |
| OE5WHR-10 | 2026-09-05 23:47:28 | 47.77381 | 12.59401 | 123° | 64km/h | 16290m | 4.5m/s | -57.1°C | 5.0% | 105.1hPa | 2.7V | 00:00:00 | 00:00:00 | 00:00:00 | |
| OE5MMP-10 | 2026-09-05 23:47:26 | 47.77399 | 12.59361 | 124° | 64km/h | 16282m | 4.8m/s | -57.0°C | 5.0% | 105.2hPa | 2.7V | 00:00:00 | 01:17:59 | 00:00:00 | |
| OE5DRO-10 | 2026-09-05 23:47:24 | 47.77417 | 12.59321 | 123° | 64km/h | 16274m | 4.2m/s | -57.0°C | 5.0% | 105.3hPa | 2.7V | 00:00:00 | 00:00:00 | 00:00:00 | |
| OE5DXL-15 | 2026-09-05 23:47:22 | 47.77433 | 12.59281 | 121° | 64km/h | 16265m | 4.1m/s | -57.0°C | 5.0% | 105.5hPa | 2.7V | 00:00:00 | 00:00:00 | 00:00:00 | |
| OE8JPQ-2 | 2026-09-05 23:47:19 | 47.77457 | 12.59219 | 119° | 64km/h | 16252m | 3.5m/s | -57.0°C | 5.0% | 105.7hPa | 2.7V | 00:00:00 | 00:00:00 | 00:00:00 | |
| PG1ADW-2 | 2026-09-05 23:47:18 | 47.77465 | 12.59197 | 118° | 64km/h | 16248m | 4.9m/s | -57.0°C | 5.0% | 105.8hPa | 2.6V | 00:00:00 | 00:00:00 | 00:00:00 | |
| BAUMI2-15 | 2026-09-05 23:47:17 | 47.77472 | 12.59176 | 117° | 66km/h | 16244m | 3.5m/s | -57.0°C | 5.0% | 105.8hPa | 2.6V | 00:00:00 | 01:17:50 | 00:00:00 | |
| BAUMI2-15 | 2026-09-05 23:47:12 | 47.77515 | 12.59072 | 125° | 60km/h | 16224m | 4.4m/s | -56.9°C | 5.0% | 106.2hPa | 2.6V | 00:00:00 | 01:17:45 | 00:00:00 | |
| BAUMI2-15 | 2026-09-05 23:47:07 | 47.77559 | 12.58978 | 127° | 62km/h | 16204m | 3.7m/s | -56.9°C | 5.0% | 106.5hPa | 2.6V | 00:00:00 | 01:17:40 | 00:00:00 | |
| OE5MMP-10 | 2026-09-05 23:47:06 | 47.77568 | 12.58960 | 127° | 64km/h | 16200m | 4.8m/s | -56.9°C | 5.0% | 106.6hPa | 2.6V | 00:00:00 | 01:17:39 | 00:00:00 | |
| OE5DRO-10 | 2026-09-05 23:47:05 | 47.77577 | 12.58941 | 127° | 66km/h | 16196m | 3.5m/s | -56.9°C | 5.0% | 106.7hPa | 2.6V | 00:00:00 | 00:00:00 | 00:00:00 | |
| BAUMI2-15 | 2026-09-05 23:47:02 | 47.77606 | 12.58885 | 129° | 64km/h | 16184m | 3.8m/s | -56.9°C | 5.1% | 106.8hPa | 2.7V | 00:00:00 | 01:17:35 | 00:00:00 | |
| DG1MFX-10 | 2026-09-05 23:46:59 | 47.77637 | 12.58828 | 128° | 64km/h | 16171m | 3.1m/s | -57.0°C | 2.0% | 107.1hPa | 2.6V | 00:00:00 | 00:00:00 | 00:00:00 | |
| PG1ADW-2 | 2026-09-05 23:46:58 | 47.77646 | 12.58809 | 128° | 64km/h | 16168m | 4.7m/s | -56.9°C | 5.1% | 107.1hPa | 2.6V | 00:00:00 | 00:00:00 | 00:00:00 | |
| BAUMI2-15 | 2026-09-05 23:46:57 | 47.77656 | 12.58790 | 127° | 64km/h | 16163m | 3.9m/s | -56.9°C | 5.1% | 107.2hPa | 2.6V | 00:00:00 | 01:17:30 | 00:00:00 | |
| OE5MMP-10 | 2026-09-05 23:46:56 | 47.77666 | 12.58770 | 125° | 66km/h | 16159m | 3.8m/s | -56.9°C | 5.1% | 107.2hPa | 2.6V | 00:00:00 | 01:17:29 | 00:00:00 | |
| DB0UT-7 | 2026-09-05 23:46:53 | 47.77690 | 12.58708 | 118° | 66km/h | 16147m | 4.7m/s | -56.8°C | 5.0% | 107.5hPa | 2.6V | 00:00:00 | 00:00:00 | 00:00:00 | |
| BAUMI2-15 | 2026-09-05 23:46:52 | 47.77698 | 12.58686 | 118° | 68km/h | 16143m | 4.0m/s | -56.8°C | 5.1% | 107.5hPa | 2.6V | 00:00:00 | 01:17:25 | 00:00:00 | |
| BAUMI2-15 | 2026-09-05 23:46:47 | 47.77741 | 12.58577 | 124° | 64km/h | 16121m | 4.3m/s | -56.9°C | 5.1% | 107.9hPa | 2.6V | 00:00:00 | 01:17:20 | 08:30:00 | |
| OE5MMP-10 | 2026-09-05 23:46:46 | 47.77750 | 12.58556 | 125° | 62km/h | 16117m | 3.4m/s | -56.9°C | 5.1% | 108.0hPa | 2.7V | 00:00:00 | 01:17:19 | 00:00:00 | |
| OE5WHR-10 | 2026-09-05 23:46:45 | 47.77760 | 12.58536 | 126° | 66km/h | 16112m | 5.1m/s | -57.0°C | 5.1% | 108.1hPa | 2.7V | 00:00:00 | 00:00:00 | 08:30:00 | |
| OE5HKT-10 | 2026-09-05 23:46:43 | 47.77778 | 12.58499 | 125° | 120km/h | 16104m | 4.0m/s | 0°C | 0% | 0hPa | 2.6V | 00:00:00 | 00:00:00 | 00:00:00 | |
| BAUMI2-15 | 2026-09-05 23:46:42 | 47.77786 | 12.58480 | 124° | 62km/h | 16099m | 4.8m/s | -56.9°C | 5.0% | 108.3hPa | 2.6V | 00:00:00 | 01:17:15 | 00:00:00 | |
| PG1ADW-2 | 2026-09-05 23:46:38 | 47.77819 | 12.58401 | 123° | 69km/h | 16082m | 4.6m/s | -56.9°C | 5.1% | 108.6hPa | 2.6V | 00:00:00 | 00:00:00 | 00:00:00 | |
| BAUMI2-15 | 2026-09-05 23:46:37 | 47.77828 | 12.58381 | 123° | 68km/h | 16079m | 3.1m/s | -56.9°C | 5.1% | 108.6hPa | 2.6V | 00:00:00 | 01:17:10 | 00:00:00 | |
| OE5MMP-10 | 2026-09-05 23:46:36 | 47.77836 | 12.58360 | 123° | 68km/h | 16075m | 4.7m/s | -56.9°C | 5.1% | 108.7hPa | 2.6V | 00:00:00 | 01:17:09 | 00:00:00 | |
| BAUMI2-15 | 2026-09-05 23:46:32 | 47.77874 | 12.58273 | 125° | 68km/h | 16055m | 4.9m/s | -57.0°C | 5.1% | 109.0hPa | 2.6V | 00:00:00 | 01:17:05 | 00:00:00 | |
| OE5FHM-15 | 2026-09-05 23:46:27 | 47.77923 | 12.58168 | 124° | 78km/h | 16034m | 4.3m/s | -57.3°C | 5.2% | 109.4hPa | 2.6V | 00:00:00 | 01:17:00 | 08:30:00 | |
| OE5MMP-10 | 2026-09-05 23:46:26 | 47.77932 | 12.58146 | 123° | 73km/h | 16029m | 4.9m/s | -57.4°C | 5.3% | 109.5hPa | 2.7V | 00:00:00 | 01:16:59 | 00:00:00 | |
| OE5WHR-10 | 2026-09-05 23:46:24 | 47.77951 | 12.58101 | 121° | 75km/h | 16020m | 5.2m/s | -57.5°C | 5.3% | 109.7hPa | 2.7V | 00:00:00 | 00:00:00 | 00:00:00 | |
| DB0UT-7 | 2026-09-05 23:46:23 | 47.77961 | 12.58077 | 120° | 82km/h | 16015m | 4.1m/s | -57.5°C | 5.4% | 109.7hPa | 2.7V | 00:00:00 | 01:16:56 | 00:00:00 | |
| BAUMI2-15 | 2026-09-05 23:46:22 | 47.77970 | 12.58053 | 120° | 73km/h | 16011m | 3.9m/s | -57.5°C | 5.3% | 109.8hPa | 2.7V | 00:00:00 | 01:16:55 | 00:00:00 | |
| OE8JPQ-2 | 2026-09-05 23:46:19 | 47.77997 | 12.57981 | 119° | 77km/h | 15998m | 4.1m/s | -57.4°C | 5.3% | 110.0hPa | 2.7V | 00:00:00 | 00:00:00 | 00:00:00 | |
| PG1ADW-2 | 2026-09-05 23:46:18 | 47.78006 | 12.57957 | 119° | 77km/h | 15993m | 5.1m/s | -57.5°C | 5.2% | 110.1hPa | 2.6V | 00:00:00 | 01:16:51 | 00:00:00 | |
| BAUMI2-15 | 2026-09-05 23:46:17 | 47.78015 | 12.57932 | 119° | 75km/h | 15989m | 3.8m/s | -57.5°C | 5.2% | 110.2hPa | 2.6V | 00:00:00 | 01:16:50 | 00:00:00 | |
| OE5MMP-10 | 2026-09-05 23:46:16 | 47.78024 | 12.57908 | 119° | 75km/h | 15985m | 4.4m/s | -57.6°C | 5.3% | 110.2hPa | 2.6V | 00:00:00 | 01:16:49 | 00:00:00 | |
| DO3MHA-11 | 2026-09-05 23:46:12 | 47.78062 | 12.57812 | 123° | 77km/h | 15967m | 4.5m/s | -57.8°C | 5.4% | 110.6hPa | 2.7V | 00:00:00 | 01:16:45 | 00:00:00 | |
| S52SK | 2026-09-05 23:46:11 | 47.78062 | 12.57812 | 124° | 77km/h | 15967m | 4.6m/s | -57.9°C | 0% | 0hPa | 2.7V | 00:00:00 | 00:00:00 | 00:00:00 | |
| OE5DRO-10 | 2026-09-05 23:46:08 | 47.78102 | 12.57715 | 120° | 78km/h | 15950m | 2.9m/s | -58.0°C | 5.5% | 110.9hPa | 2.7V | 00:00:00 | 00:00:00 | 00:00:00 | |
| BAUMI2-15 | 2026-09-05 23:46:07 | 47.78111 | 12.57690 | 121° | 78km/h | 15947m | 4.2m/s | -58.0°C | 5.5% | 110.9hPa | 2.7V | 00:00:00 | 01:16:40 | 00:00:00 | |
| OE5MMP-10 | 2026-09-05 23:46:06 | 47.78121 | 12.57665 | 122° | 80km/h | 15942m | 4.7m/s | -58.0°C | 5.4% | 111.1hPa | 2.7V | 00:00:00 | 01:16:39 | 00:00:00 | |
| OE5WHR-10 | 2026-09-05 23:46:03 | 47.78153 | 12.57590 | 124° | 80km/h | 15928m | 3.8m/s | -58.1°C | 5.5% | 111.3hPa | 2.7V | 00:00:00 | 01:16:36 | 00:00:00 | |
| DO3MHA-11 | 2026-09-05 23:46:02 | 47.78164 | 12.57565 | 125° | 91km/h | 15924m | 4.0m/s | -58.2°C | 5.5% | 111.3hPa | 2.7V | 00:00:00 | 01:16:35 | 00:00:00 | |
| OE8JPQ-2 | 2026-09-05 23:45:59 | 47.78202 | 12.57491 | 129° | 78km/h | 15911m | 4.8m/s | -58.3°C | 5.6% | 111.6hPa | 2.6V | 00:00:00 | 00:00:00 | 00:00:00 | |
| PG1ADW-2 | 2026-09-05 23:45:58 | 47.78215 | 12.57467 | 129° | 78km/h | 15907m | 4.2m/s | -58.3°C | 5.6% | 111.6hPa | 2.6V | 00:00:00 | 00:00:00 | 00:00:00 | |
| BAUMI2-15 | 2026-09-05 23:45:57 | 47.78227 | 12.57444 | 130° | 77km/h | 15902m | 4.1m/s | -58.3°C | 5.6% | 111.7hPa | 2.6V | 00:00:00 | 01:16:30 | 00:00:00 | |
| OE5MMP-10 | 2026-09-05 23:45:56 | 47.78240 | 12.57421 | 130° | 78km/h | 15898m | 4.8m/s | -58.4°C | 5.7% | 111.8hPa | 2.6V | 00:00:00 | 01:16:29 | 00:00:00 | |
| OE5DXL-15 | 2026-09-05 23:45:52 | 47.78289 | 12.57333 | 129° | 78km/h | 15880m | 3.4m/s | -58.6°C | 5.7% | 112.1hPa | 2.6V | 00:00:00 | 00:00:00 | 00:00:00 | |
| OE5DRO-10 | 2026-09-05 23:45:49 | 47.78326 | 12.57264 | 128° | 78km/h | 15866m | 4.7m/s | -58.8°C | 5.7% | 112.4hPa | 2.6V | 00:00:00 | 00:00:00 | 00:00:00 | |
| BAUMI2-15 | 2026-09-05 23:45:47 | 47.78351 | 12.57214 | 127° | 82km/h | 15856m | 4.3m/s | -59.0°C | 5.9% | 112.5hPa | 2.6V | 00:00:00 | 01:16:20 | 00:00:00 | |
| OE5MMP-10 | 2026-09-05 23:45:46 | 47.78363 | 12.57189 | 127° | 78km/h | 15852m | 4.2m/s | -59.1°C | 6.0% | 112.6hPa | 2.7V | 00:00:00 | 01:16:19 | 08:30:00 | |
| OE5WHR-10 | 2026-09-05 23:45:42 | 47.78412 | 12.57090 | 127° | 78km/h | 15834m | 4.7m/s | -59.3°C | 6.1% | 112.9hPa | 2.6V | 00:00:00 | 00:00:00 | 00:00:00 | |
| OE5FHM-15 | 2026-09-05 23:45:41 | 47.78423 | 12.57068 | 127° | 80km/h | 15829m | 4.3m/s | -59.4°C | 6.1% | 113.0hPa | 2.6V | 00:00:00 | 01:16:14 | 00:00:00 | |
| OE8JPQ-2 | 2026-09-05 23:45:39 | 47.78446 | 12.57023 | 126° | 78km/h | 15820m | 3.6m/s | -59.5°C | 6.0% | 113.2hPa | 2.6V | 00:00:00 | 01:16:12 | 00:00:00 | |
| PG1ADW-2 | 2026-09-05 23:45:38 | 47.78456 | 12.57000 | 124° | 78km/h | 15816m | 4.7m/s | -59.6°C | 6.1% | 113.3hPa | 2.6V | 00:00:00 | 00:00:00 | 00:00:00 | |
| BAUMI2-15 | 2026-09-05 23:45:37 | 47.78467 | 12.56977 | 122° | 77km/h | 15811m | 4.9m/s | -59.8°C | 6.1% | 113.4hPa | 2.6V | 00:00:00 | 01:16:10 | 00:00:00 | |
| OE5MMP-10 | 2026-09-05 23:45:36 | 47.78476 | 12.56953 | 121° | 78km/h | 15807m | 3.7m/s | -59.8°C | 6.2% | 113.4hPa | 2.6V | 00:00:00 | 01:16:09 | 00:00:00 | |
| OE5DRO-10 | 2026-09-05 23:45:30 | 47.78539 | 12.56806 | 126° | 82km/h | 15780m | 4.0m/s | -60.0°C | 6.4% | 113.9hPa | 2.6V | 00:00:00 | 00:00:00 | 00:00:00 | |
| BAUMI2-15 | 2026-09-05 23:45:27 | 47.78577 | 12.56734 | 128° | 80km/h | 15767m | 3.7m/s | -60.1°C | 6.5% | 114.1hPa | 2.6V | 00:00:00 | 01:16:00 | 00:00:00 | |
| OE5MMP-10 | 2026-09-05 23:45:26 | 47.78589 | 12.56710 | 126° | 82km/h | 15762m | 5.1m/s | -60.1°C | 6.5% | 114.2hPa | 2.6V | 00:00:00 | 01:15:59 | 00:00:00 | |
| OE5DXL-15 | 2026-09-05 23:45:22 | 47.78635 | 12.56610 | 125° | 86km/h | 15744m | 3.8m/s | -60.1°C | 6.5% | 114.6hPa | 2.6V | 00:00:00 | 00:00:00 | 00:00:00 | |
| OE5WHR-10 | 2026-09-05 23:45:21 | 47.78646 | 12.56585 | 124° | 86km/h | 15740m | 5.0m/s | -60.1°C | 6.5% | 114.6hPa | 2.6V | 00:00:00 | 00:00:00 | 00:00:00 | |
| OE8JPQ-2 | 2026-09-05 23:45:19 | 47.78670 | 12.56534 | 126° | 86km/h | 15731m | 4.3m/s | -60.0°C | 6.5% | 114.8hPa | 2.6V | 00:00:00 | 00:00:00 | 08:30:00 | |
| PG1ADW-2 | 2026-09-05 23:45:18 | 47.78682 | 12.56507 | 127° | 86km/h | 15726m | 4.8m/s | -60.0°C | 6.5% | 114.9hPa | 2.6V | 00:00:00 | 00:00:00 | 00:00:00 | |
| DG1MFX-10 | 2026-09-05 23:45:17 | 47.78696 | 12.56481 | 129° | 89km/h | 15722m | 3.6m/s | -60.1°C | 3.0% | 115.0hPa | 2.6V | 00:00:00 | 00:00:00 | 00:00:00 | |
| OE5MMP-10 | 2026-09-05 23:45:16 | 47.78710 | 12.56455 | 129° | 84km/h | 15719m | 3.8m/s | -60.1°C | 6.5% | 115.0hPa | 2.6V | 00:00:00 | 01:15:49 | 00:00:00 | |
| OE5FHM-15 | 2026-09-05 23:45:11 | 47.78775 | 12.56330 | 127° | 86km/h | 15696m | 4.2m/s | -60.1°C | 6.7% | 115.5hPa | 2.7V | 00:00:00 | 01:15:44 | 00:00:00 | |
| DB0UT-7 | 2026-09-05 23:45:07 | 47.78825 | 12.56227 | 126° | 88km/h | 15678m | 3.9m/s | -60.2°C | 6.8% | 115.8hPa | 2.7V | 00:00:00 | 00:00:00 | 00:00:00 | |
| OE5MMP-10 | 2026-09-05 23:45:06 | 47.78838 | 12.56201 | 126° | 88km/h | 15674m | 5.1m/s | -60.2°C | 6.8% | 115.9hPa | 2.6V | 00:00:00 | 01:15:39 | 00:00:00 | |
| OE5WHR-10 | 2026-09-05 23:45:00 | 47.78912 | 12.56036 | 124° | 88km/h | 15646m | 4.8m/s | -60.3°C | 6.7% | 116.4hPa | 2.6V | 00:00:00 | 01:15:33 | 00:00:00 | |
| OE8JPQ-2 | 2026-09-05 23:44:59 | 47.78924 | 12.56009 | 125° | 88km/h | 15642m | 3.6m/s | -60.3°C | 6.7% | 116.5hPa | 2.6V | 00:00:00 | 00:00:00 | 00:00:00 | |
| PG1ADW-2 | 2026-09-05 23:44:58 | 47.78937 | 12.55982 | 126° | 88km/h | 15638m | 5.2m/s | -60.4°C | 6.7% | 116.5hPa | 2.6V | 00:00:00 | 01:15:31 | 08:30:00 | |
| OE5MMP-10 | 2026-09-05 23:44:56 | 47.78962 | 12.55933 | 129° | 86km/h | 15628m | 4.1m/s | -60.4°C | 6.7% | 116.7hPa | 2.6V | 00:00:00 | 01:15:29 | 00:00:00 | |
| DG1MFX-10 | 2026-09-05 23:44:55 | 47.78962 | 12.55933 | 129° | 82km/h | 15628m | 4.2m/s | -60.5°C | 3.2% | 116.7hPa | 2.6V | 00:00:00 | 00:00:00 | 00:00:00 | |
| OE5DXL-15 | 2026-09-05 23:44:52 | 47.79013 | 12.55831 | 125° | 91km/h | 15610m | 4.5m/s | -60.6°C | 6.9% | 117.1hPa | 2.6V | 00:00:00 | 00:00:00 | 00:00:00 | |
| OE5MMP-10 | 2026-09-05 23:44:46 | 47.79084 | 12.55662 | 124° | 89km/h | 15583m | 3.3m/s | -60.7°C | 7.1% | 117.6hPa | 2.6V | 00:00:00 | 01:15:19 | 00:00:00 | |
| OE5FHM-15 | 2026-09-05 23:44:41 | 47.79151 | 12.55530 | 127° | 95km/h | 15562m | 3.9m/s | -61.0°C | 7.5% | 118.0hPa | 2.7V | 00:00:00 | 01:15:14 | 00:00:00 | |
| OE5WHR-10 | 2026-09-05 23:44:39 | 47.79176 | 12.55475 | 124° | 93km/h | 15553m | 4.7m/s | -61.2°C | 7.6% | 118.1hPa | 2.6V | 00:00:00 | 00:00:00 | 00:00:00 | |
| PG1ADW-2 | 2026-09-05 23:44:38 | 47.79189 | 12.55447 | 124° | 93km/h | 15549m | 3.9m/s | -61.2°C | 7.7% | 118.2hPa | 2.6V | 00:00:00 | 00:00:00 | 00:00:00 | |
| DB0UT-7 | 2026-09-05 23:44:37 | 47.79201 | 12.55419 | 124° | 95km/h | 15544m | 5.1m/s | -61.2°C | 7.5% | 118.3hPa | 2.6V | 00:00:00 | 01:15:10 | 00:00:00 | |
| OE5MMP-10 | 2026-09-05 23:44:36 | 47.79214 | 12.55391 | 125° | 91km/h | 15540m | 4.2m/s | -61.2°C | 7.6% | 118.4hPa | 2.6V | 00:00:00 | 01:15:09 | 00:00:00 | |
| DG1MFX-10 | 2026-09-05 23:44:35 | 47.79214 | 12.55391 | 125° | 89km/h | 15540m | 4.3m/s | -61.3°C | 3.7% | 118.4hPa | 2.6V | 00:00:00 | 00:00:00 | 00:00:00 | |
| OE5DRO-10 | 2026-09-05 23:44:33 | 47.79254 | 12.55306 | 127° | 95km/h | 15526m | 4.2m/s | -61.3°C | 7.5% | 118.6hPa | 2.6V | 00:00:00 | 00:00:00 | 00:00:00 | |
| OE5MMP-10 | 2026-09-05 23:44:26 | 47.79344 | 12.55108 | 118° | 99km/h | 15496m | 4.5m/s | -61.4°C | 7.8% | 119.2hPa | 2.6V | 00:00:00 | 01:14:59 | 00:00:00 | |
| OE5DXL-15 | 2026-09-05 23:44:22 | 47.79391 | 12.54978 | 120° | 100km/h | 15480m | 3.8m/s | -61.5°C | 8.0% | 119.5hPa | 2.6V | 00:00:00 | 00:00:00 | 00:00:00 | |
| OE8JPQ-2 | 2026-09-05 23:44:19 | 47.79429 | 12.54900 | 122° | 100km/h | 15468m | 3.8m/s | -61.5°C | 8.0% | 119.8hPa | 2.6V | 00:00:00 | 00:00:00 | 00:00:00 | |
| PG1ADW-2 | 2026-09-05 23:44:18 | 47.79442 | 12.54852 | 123° | 100km/h | 15464m | 4.6m/s | -61.5°C | 8.0% | 119.9hPa | 2.7V | 00:00:00 | 00:00:00 | 00:00:00 | |
| OE5MMP-10 | 2026-09-05 23:44:16 | 47.79469 | 12.54788 | 122° | 100km/h | 15456m | 4.9m/s | -61.5°C | 8.1% | 120.0hPa | 2.7V | 00:00:00 | 01:14:49 | 08:30:00 | |
| DG1MFX-10 | 2026-09-05 23:44:15 | 47.79469 | 12.54788 | 123° | 100km/h | 15456m | 4.9m/s | -61.5°C | 4.1% | 120.1hPa | 2.6V | 00:00:00 | 00:00:00 | 00:00:00 | |
| OE5DRO-10 | 2026-09-05 23:44:14 | 47.79495 | 12.54724 | 122° | 100km/h | 15448m | 3.7m/s | -61.5°C | 8.1% | 120.2hPa | 2.6V | 00:00:00 | 00:00:00 | 00:00:00 | |
| OE5FHM-15 | 2026-09-05 23:44:11 | 47.79537 | 12.54628 | 123° | 99km/h | 15436m | 4.0m/s | -61.5°C | 8.1% | 120.4hPa | 2.7V | 00:00:00 | 01:14:44 | 00:00:00 | |
| DO3MHA-11 | 2026-09-05 23:44:09 | 47.79564 | 12.54565 | 123° | 108km/h | 15428m | 3.9m/s | -61.6°C | 8.3% | 120.6hPa | 2.7V | 00:00:00 | 01:14:42 | 00:00:00 | |
| OE5MMP-10 | 2026-09-05 23:44:06 | 47.79605 | 12.54472 | 125° | 100km/h | 15416m | 3.5m/s | -61.7°C | 8.4% | 120.8hPa | 2.7V | 00:00:00 | 01:14:39 | 00:00:00 | |
| OE8JPQ-2 | 2026-09-05 23:43:59 | 47.79701 | 12.54249 | 121° | 99km/h | 15388m | 4.4m/s | -61.8°C | 8.6% | 121.3hPa | 2.7V | 00:00:00 | 00:00:00 | 00:00:00 | |
| PG1ADW-2 | 2026-09-05 23:43:58 | 47.79714 | 12.54216 | 122° | 99km/h | 15384m | 3.2m/s | -61.8°C | 8.6% | 121.5hPa | 2.7V | 00:00:00 | 00:00:00 | 00:00:00 | |
| OE5WHR-10 | 2026-09-05 23:43:57 | 47.79728 | 12.54184 | 123° | 99km/h | 15380m | 4.3m/s | -61.8°C | 8.6% | 121.5hPa | 2.7V | 00:00:00 | 01:14:30 | 00:00:00 | |
| OE5MMP-10 | 2026-09-05 23:43:56 | 47.79742 | 12.54151 | 124° | 97km/h | 15376m | 3.8m/s | -61.8°C | 8.5% | 121.6hPa | 2.7V | 00:00:00 | 01:14:29 | 00:00:00 | |
| OE5DRO-10 | 2026-09-05 23:43:55 | 47.79756 | 12.54121 | 125° | 97km/h | 15372m | 3.2m/s | -61.8°C | 8.5% | 121.6hPa | 2.7V | 00:00:00 | 00:00:00 | 00:00:00 | |
| DG1MFX-10 | 2026-09-05 23:43:54 | 47.79756 | 12.54121 | 125° | 97km/h | 15372m | 3.3m/s | -61.8°C | 4.5% | 121.7hPa | 2.7V | 00:00:00 | 00:00:00 | 00:00:00 | |
| OE5DXL-15 | 2026-09-05 23:43:52 | 47.79795 | 12.54032 | 123° | 99km/h | 15360m | 3.4m/s | -61.9°C | 8.6% | 121.9hPa | 2.7V | 00:00:00 | 00:00:00 | 00:00:00 | |
| OE5MMP-10 | 2026-09-05 23:43:46 | 47.79875 | 12.53848 | 121° | 99km/h | 15338m | 3.7m/s | -62.2°C | 8.7% | 122.3hPa | 2.7V | 00:00:00 | 01:14:19 | 00:00:00 | |
| OE8JPQ-2 | 2026-09-05 23:43:39 | 47.79964 | 12.53622 | 122° | 99km/h | 15309m | 4.7m/s | -62.6°C | 9.0% | 122.9hPa | 2.7V | 00:00:00 | 01:14:12 | 00:00:00 | |
| PG1ADW-2 | 2026-09-05 23:43:38 | 47.79976 | 12.53591 | 122° | 99km/h | 15305m | 3.4m/s | -62.6°C | 9.1% | 123.0hPa | 2.7V | 00:00:00 | 01:14:11 | 00:00:00 | |
| OE5WHR-10 | 2026-09-05 23:43:36 | 47.80002 | 12.53529 | 121° | 97km/h | 15296m | 3.5m/s | -62.8°C | 9.3% | 123.2hPa | 2.7V | 00:00:00 | 00:00:00 | 08:30:00 | |
| OE5FHM-15 | 2026-09-05 23:43:34 | 47.80028 | 12.53464 | 121° | 104km/h | 15289m | 4.1m/s | -62.9°C | 9.4% | 123.3hPa | 2.7V | 00:00:00 | 01:14:07 | 00:00:00 | |
| DG1MFX-10 | 2026-09-05 23:43:33 | 47.80028 | 12.53464 | 122° | 102km/h | 15289m | 4.1m/s | -62.9°C | 5.1% | 123.3hPa | 2.7V | 00:00:00 | 00:00:00 | 00:00:00 | |
| OE5MMP-10 | 2026-09-05 23:43:26 | 47.80119 | 12.53198 | 116° | 95km/h | 15260m | 3.8m/s | -63.2°C | 10.0% | 123.9hPa | 2.7V | 00:00:00 | 01:13:59 | 00:00:00 | |
| OE5DXL-15 | 2026-09-05 23:43:22 | 47.80162 | 12.53067 | 118° | 100km/h | 15245m | 4.0m/s | -63.3°C | 10.2% | 124.2hPa | 2.7V | 00:00:00 | 00:00:00 | 08:30:00 | |
| OE8JPQ-2 | 2026-09-05 23:43:19 | 47.80195 | 12.52972 | 120° | 99km/h | 15232m | 3.5m/s | 0°C | 0% | 0hPa | 2.6V | 00:00:00 | 00:00:00 | 00:00:00 | |
| PG1ADW-2 | 2026-09-05 23:43:18 | 47.80207 | 12.52942 | 121° | 99km/h | 15228m | 4.9m/s | -63.3°C | 10.2% | 124.5hPa | 2.6V | 00:00:00 | 00:00:00 | 00:00:00 | |
| OE5DRO-10 | 2026-09-05 23:43:17 | 47.80220 | 12.52912 | 123° | 99km/h | 15224m | 4.0m/s | -63.3°C | 10.3% | 124.6hPa | 2.6V | 00:00:00 | 00:00:00 | 00:00:00 | |
| OE5MMP-10 | 2026-09-05 23:43:16 | 47.80232 | 12.52882 | 124° | 95km/h | 15220m | 2.2m/s | -63.3°C | 10.3% | 124.7hPa | 2.6V | 00:00:00 | 01:13:49 | 00:00:00 | |
| OE5WHR-10 | 2026-09-05 23:43:15 | 47.80246 | 12.52853 | 124° | 100km/h | 15217m | 4.4m/s | -63.2°C | 10.2% | 124.7hPa | 2.6V | 00:00:00 | 00:00:00 | 00:00:00 | |
| DG1MFX-10 | 2026-09-05 23:43:13 | 47.80258 | 12.52822 | 123° | 97km/h | 15213m | 3.8m/s | -63.3°C | 5.7% | 124.9hPa | 2.6V | 00:00:00 | 00:00:00 | 00:00:00 | |
| BAUMI2-15 | 2026-09-05 23:43:12 | 47.80283 | 12.52760 | 120° | 95km/h | 15206m | 3.8m/s | -63.3°C | 10.2% | 125.0hPa | 2.6V | 00:00:00 | 01:13:45 | 00:00:00 | |
| BAUMI2-15 | 2026-09-05 23:43:07 | 47.80345 | 12.52606 | 123° | 102km/h | 15187m | 4.0m/s | -63.5°C | 10.8% | 125.4hPa | 2.6V | 00:00:00 | 01:13:40 | 00:00:00 | |
| OE5MMP-10 | 2026-09-05 23:43:06 | 47.80359 | 12.52574 | 124° | 104km/h | 15183m | 4.8m/s | -63.5°C | 10.8% | 125.4hPa | 2.6V | 00:00:00 | 01:13:39 | 00:00:00 | |
| BAUMI2-15 | 2026-09-05 23:43:02 | 47.80418 | 12.52446 | 126° | 106km/h | 15167m | 3.4m/s | -63.5°C | 10.8% | 125.8hPa | 2.6V | 00:00:00 | 01:13:35 | 00:00:00 | |
| OE8JPQ-2 | 2026-09-05 23:42:59 | 47.80466 | 12.52350 | 127° | 104km/h | 15155m | 3.5m/s | -63.5°C | 10.7% | 126.0hPa | 2.6V | 00:00:00 | 00:00:00 | 00:00:00 | |
| OE5FHM-15 | 2026-09-05 23:42:58 | 47.80482 | 12.52318 | 127° | 102km/h | 15150m | 4.7m/s | -63.5°C | 10.7% | 126.1hPa | 2.6V | 00:00:00 | 01:13:31 | 00:00:00 | |
| BAUMI2-15 | 2026-09-05 23:42:57 | 47.80498 | 12.52286 | 126° | 104km/h | 15146m | 3.1m/s | -63.4°C | 10.7% | 126.2hPa | 2.6V | 00:00:00 | 01:13:30 | 00:00:00 | |
| OE5MMP-10 | 2026-09-05 23:42:56 | 47.80513 | 12.52253 | 126° | 102km/h | 15143m | 3.7m/s | -63.4°C | 10.7% | 126.3hPa | 2.6V | 00:00:00 | 01:13:29 | 00:00:00 | |
| OE5WHR-10 | 2026-09-05 23:42:54 | 47.80543 | 12.52190 | 124° | 102km/h | 15135m | 3.1m/s | -63.4°C | 10.8% | 126.4hPa | 2.6V | 00:00:00 | 01:13:27 | 00:00:00 | |
| DG1MFX-10 | 2026-09-05 23:42:53 | 47.80543 | 12.52190 | 125° | 102km/h | 15135m | 3.2m/s | -63.4°C | 6.1% | 126.5hPa | 2.6V | 00:00:00 | 00:00:00 | 00:00:00 | |
| OE5DXL-15 | 2026-09-05 23:42:52 | 47.80571 | 12.52125 | 122° | 102km/h | 15128m | 3.5m/s | -63.4°C | 10.9% | 126.6hPa | 2.6V | 00:00:00 | 00:00:00 | 00:00:00 | |
| S52SK | 2026-09-05 23:42:48 | 47.80611 | 12.52026 | 122° | 102km/h | 15116m | 3.6m/s | -63.3°C | 0% | 0hPa | 2.6V | 00:00:00 | 00:00:00 | 00:00:00 | |
| BAUMI2-15 | 2026-09-05 23:42:47 | 47.80638 | 12.51960 | 123° | 102km/h | 15108m | 3.5m/s | -63.3°C | 11.2% | 127.0hPa | 2.6V | 00:00:00 | 01:13:20 | 00:00:00 | |
| OE5MMP-10 | 2026-09-05 23:42:46 | 47.80653 | 12.51928 | 125° | 102km/h | 15105m | 2.9m/s | -63.3°C | 11.2% | 127.0hPa | 2.7V | 00:00:00 | 01:13:19 | 08:30:00 | |
| BAUMI2-15 | 2026-09-05 23:42:42 | 47.80713 | 12.51803 | 126° | 104km/h | 15090m | 4.2m/s | -63.3°C | 11.2% | 127.4hPa | 2.6V | 00:00:00 | 01:13:15 | 00:00:00 | |
| OE8JPQ-2 | 2026-09-05 23:42:39 | 47.80757 | 12.51707 | 124° | 100km/h | 15078m | 4.0m/s | -63.3°C | 11.0% | 127.6hPa | 2.6V | 00:00:00 | 01:13:12 | 00:00:00 | |
| PG1ADW-2 | 2026-09-05 23:42:38 | 47.80771 | 12.51674 | 122° | 100km/h | 15073m | 4.4m/s | -63.3°C | 11.0% | 127.7hPa | 2.6V | 00:00:00 | 00:00:00 | 00:00:00 | |
| BAUMI2-15 | 2026-09-05 23:42:37 | 47.80785 | 12.51641 | 122° | 102km/h | 15069m | 4.5m/s | -63.3°C | 11.0% | 127.8hPa | 2.6V | 00:00:00 | 01:13:10 | 00:00:00 | |
| OE5MMP-10 | 2026-09-05 23:42:36 | 47.80798 | 12.51607 | 121° | 102km/h | 15065m | 3.8m/s | -63.3°C | 11.0% | 127.9hPa | 2.6V | 00:00:00 | 01:13:09 | 00:00:00 | |
| OE5WHR-10 | 2026-09-05 23:42:33 | 47.80839 | 12.51509 | 123° | 99km/h | 15052m | 4.3m/s | -63.3°C | 11.0% | 128.1hPa | 2.6V | 00:00:00 | 00:00:00 | 00:00:00 | |
| BAUMI2-15 | 2026-09-05 23:42:32 | 47.80853 | 12.51477 | 124° | 102km/h | 15047m | 4.5m/s | -63.3°C | 11.1% | 128.2hPa | 2.7V | 00:00:00 | 01:13:05 | 08:30:00 | |
| BAUMI2-15 | 2026-09-05 23:42:27 | 47.80929 | 12.51324 | 127° | 97km/h | 15028m | 4.3m/s | -63.2°C | 11.7% | 128.6hPa | 2.7V | 00:00:00 | 01:13:00 | 00:00:00 | |
| OE5MMP-10 | 2026-09-05 23:42:26 | 47.80943 | 12.51294 | 126° | 99km/h | 15024m | 3.1m/s | -63.3°C | 11.7% | 128.7hPa | 2.7V | 00:00:00 | 01:12:59 | 00:00:00 | |
| BAUMI2-15 | 2026-09-05 23:42:22 | 47.80997 | 12.51175 | 124° | 100km/h | 15009m | 4.0m/s | -63.5°C | 11.9% | 129.0hPa | 2.7V | 00:00:00 | 01:12:55 | 00:00:00 | |
| OE5DRO-10 | 2026-09-05 23:42:20 | 47.81025 | 12.51114 | 126° | 99km/h | 15001m | 3.3m/s | -63.5°C | 12.0% | 129.2hPa | 2.7V | 00:00:00 | 00:00:00 | 08:30:00 | |
| OE8JPQ-2 | 2026-09-05 23:42:19 | 47.81040 | 12.51083 | 127° | 97km/h | 14998m | 3.4m/s | -63.4°C | 11.9% | 129.3hPa | 2.7V | 00:00:00 | 00:00:00 | 08:30:00 | |
| BAUMI2-15 | 2026-09-05 23:42:17 | 47.81070 | 12.51023 | 128° | 99km/h | 14990m | 3.0m/s | -63.4°C | 11.8% | 129.5hPa | 2.6V | 00:00:00 | 01:12:50 | 00:00:00 | |
| OE5MMP-10 | 2026-09-05 23:42:16 | 47.81086 | 12.50993 | 128° | 99km/h | 14986m | 3.4m/s | -63.4°C | 11.8% | 129.5hPa | 2.6V | 00:00:00 | 01:12:49 | 00:00:00 | |
| OE5WHR-10 | 2026-09-05 23:42:12 | 47.81146 | 12.50875 | 127° | 93km/h | 14970m | 3.3m/s | -63.3°C | 12.0% | 129.9hPa | 2.6V | 00:00:00 | 00:00:00 | 00:00:00 | |
| BAUMI2-15 | 2026-09-05 23:42:07 | 47.81211 | 12.50721 | 121° | 95km/h | 14950m | 4.6m/s | -63.4°C | 12.3% | 130.3hPa | 2.6V | 00:00:00 | 01:12:40 | 00:00:00 | |
| OE5MMP-10 | 2026-09-05 23:42:06 | 47.81223 | 12.50690 | 122° | 93km/h | 14946m | 3.1m/s | -63.4°C | 12.4% | 130.4hPa | 2.6V | 00:00:00 | 01:12:39 | 00:00:00 | |
| BAUMI2-15 | 2026-09-05 23:42:02 | 47.81275 | 12.50569 | 123° | 93km/h | 14929m | 4.6m/s | -63.4°C | 12.5% | 130.7hPa | 2.6V | 00:00:00 | 01:12:35 | 00:00:00 | |
| OE5DRO-10 | 2026-09-05 23:42:01 | 47.81288 | 12.50539 | 123° | 91km/h | 14925m | 4.3m/s | -63.4°C | 12.6% | 130.8hPa | 2.7V | 00:00:00 | 00:00:00 | 00:00:00 | |
| OE8JPQ-2 | 2026-09-05 23:41:59 | 47.81313 | 12.50481 | 123° | 91km/h | 14915m | 5.0m/s | -63.4°C | 12.7% | 131.0hPa | 2.7V | 00:00:00 | 00:00:00 | 00:00:00 | |
| BAUMI2-15 | 2026-09-05 23:41:57 | 47.81338 | 12.50423 | 123° | 91km/h | 14907m | 4.7m/s | -63.4°C | 12.9% | 131.2hPa | 2.7V | 00:00:00 | 01:12:30 | 00:00:00 | |
| OE5MMP-10 | 2026-09-05 23:41:56 | 47.81349 | 12.50395 | 122° | 91km/h | 14902m | 4.3m/s | -63.4°C | 13.0% | 131.4hPa | 2.7V | 00:00:00 | 01:12:29 | 00:00:00 | |
| BAUMI2-15 | 2026-09-05 23:41:52 | 47.81398 | 12.50278 | 122° | 91km/h | 14885m | 5.1m/s | -63.4°C | 13.2% | 131.7hPa | 2.7V | 00:00:00 | 01:12:25 | 00:00:00 | |
| OE5WHR-10 | 2026-09-05 23:41:51 | 47.81410 | 12.50249 | 122° | 89km/h | 14880m | 3.8m/s | -63.4°C | 13.3% | 131.8hPa | 2.7V | 00:00:00 | 01:12:24 | 00:00:00 | |
| OE5FHM-15 | 2026-09-05 23:41:48 | 47.81446 | 12.50160 | 121° | 89km/h | 14867m | 3.9m/s | -63.4°C | 13.5% | 132.1hPa | 2.7V | 00:00:00 | 01:12:21 | 00:00:00 | |
| BAUMI2-15 | 2026-09-05 23:41:47 | 47.81458 | 12.50130 | 120° | 93km/h | 14862m | 5.0m/s | -63.4°C | 13.6% | 132.1hPa | 2.7V | 00:00:00 | 01:12:20 | 08:30:00 | |
| OE5MMP-10 | 2026-09-05 23:41:46 | 47.81469 | 12.50100 | 120° | 89km/h | 14858m | 3.4m/s | -63.4°C | 13.8% | 132.3hPa | 2.7V | 00:00:00 | 01:12:19 | 00:00:00 | |
| BAUMI2-15 | 2026-09-05 23:41:42 | 47.81516 | 12.49979 | 120° | 89km/h | 14842m | 4.7m/s | -63.5°C | 14.0% | 132.6hPa | 2.6V | 00:00:00 | 01:12:15 | 00:00:00 | |
| OE8JPQ-2 | 2026-09-05 23:41:39 | 47.81548 | 12.49890 | 118° | 89km/h | 14828m | 5.0m/s | -63.4°C | 14.3% | 132.9hPa | 2.6V | 00:00:00 | 01:12:12 | 00:00:00 | |
| BAUMI2-15 | 2026-09-05 23:41:37 | 47.81568 | 12.49832 | 117° | 88km/h | 14818m | 5.1m/s | -63.4°C | 14.5% | 133.1hPa | 2.6V | 00:00:00 | 01:12:10 | 00:00:00 | |
| OE5MMP-10 | 2026-09-05 23:41:36 | 47.81578 | 12.49803 | 118° | 89km/h | 14814m | 3.9m/s | -63.4°C | 14.6% | 133.2hPa | 2.6V | 00:00:00 | 01:12:09 | 00:00:00 | |
| BAUMI2-15 | 2026-09-05 23:41:32 | 47.81619 | 12.49684 | 118° | 91km/h | 14797m | 4.7m/s | -63.4°C | 15.0% | 133.6hPa | 2.6V | 00:00:00 | 01:12:05 | 00:00:00 | |
| OE5WHR-10 | 2026-09-05 23:41:30 | 47.81640 | 12.49624 | 119° | 89km/h | 14788m | 4.4m/s | -63.5°C | 15.3% | 133.8hPa | 2.7V | 00:00:00 | 00:00:00 | 00:00:00 | |
| BAUMI2-15 | 2026-09-05 23:41:27 | 47.81673 | 12.49535 | 120° | 93km/h | 14774m | 5.3m/s | -63.5°C | 15.9% | 134.0hPa | 2.7V | 00:00:00 | 01:12:00 | 00:00:00 | |
| OE5MMP-10 | 2026-09-05 23:41:26 | 47.81684 | 12.49506 | 120° | 89km/h | 14770m | 3.5m/s | -63.6°C | 16.3% | 134.2hPa | 2.7V | 00:00:00 | 01:11:59 | 00:00:00 | |
| OE5DRO-10 | 2026-09-05 23:41:23 | 47.81716 | 12.49421 | 120° | 88km/h | 14757m | 3.5m/s | -63.6°C | 16.6% | 134.4hPa | 2.7V | 00:00:00 | 00:00:00 | 00:00:00 | |
| OE5DXL-15 | 2026-09-05 23:41:22 | 47.81728 | 12.49392 | 121° | 88km/h | 14753m | 4.4m/s | -63.6°C | 16.8% | 134.5hPa | 2.7V | 00:00:00 | 00:00:00 | 00:00:00 | |
| OE5FHM-15 | 2026-09-05 23:41:18 | 47.81775 | 12.49276 | 121° | 88km/h | 14735m | 3.7m/s | -63.7°C | 18.0% | 134.9hPa | 2.7V | 00:00:00 | 01:11:51 | 08:30:00 | |
| OE5MMP-10 | 2026-09-05 23:41:16 | 47.81798 | 12.49219 | 122° | 88km/h | 14726m | 5.3m/s | -63.7°C | 18.3% | 135.1hPa | 2.6V | 00:00:00 | 01:11:49 | 08:30:00 | |
| DB0UT-7 | 2026-09-05 23:41:12 | 47.81843 | 12.49107 | 121° | 108km/h | 14709m | 4.0m/s | -63.9°C | 19.0% | 135.5hPa | 2.6V | 00:00:00 | 01:11:45 | 00:00:00 | |
| DG1MFX-10 | 2026-09-05 23:41:10 | 47.81854 | 12.49079 | 122° | 88km/h | 14704m | 5.1m/s | -64.0°C | 13.5% | 135.7hPa | 2.6V | 00:00:00 | 00:00:00 | 00:00:00 | |
| OE5WHR-10 | 2026-09-05 23:41:09 | 47.81878 | 12.49022 | 123° | 89km/h | 14696m | 4.1m/s | -64.0°C | 19.6% | 135.8hPa | 2.6V | 00:00:00 | 00:00:00 | 00:00:00 | |
| OE5MMP-10 | 2026-09-05 23:41:06 | 47.81913 | 12.48938 | 123° | 88km/h | 14683m | 4.3m/s | -64.0°C | 20.0% | 136.1hPa | 2.6V | 00:00:00 | 01:11:39 | 00:00:00 | |
| OE5DRO-10 | 2026-09-05 23:41:04 | 47.81939 | 12.48883 | 126° | 89km/h | 14674m | 3.7m/s | -64.0°C | 20.6% | 136.3hPa | 2.6V | 00:00:00 | 00:00:00 | 00:00:00 | |
| OE8JPQ-2 | 2026-09-05 23:40:59 | 47.82007 | 12.48751 | 130° | 89km/h | 14652m | 4.5m/s | -64.1°C | 21.5% | 136.8hPa | 2.6V | 00:00:00 | 00:00:00 | 00:00:00 | |
| S52SK | 2026-09-05 23:40:58 | 47.82021 | 12.48727 | 130° | 86km/h | 14647m | 5.2m/s | -64.1°C | 0% | 0hPa | 2.6V | 00:00:00 | 00:00:00 | 00:00:00 | |
| OE5MMP-10 | 2026-09-05 23:40:56 | 47.82047 | 12.48676 | 128° | 91km/h | 14639m | 3.7m/s | -64.1°C | 22.4% | 137.0hPa | 2.6V | 00:00:00 | 01:11:29 | 00:00:00 | |
| OE5DXL-15 | 2026-09-05 23:40:52 | 47.82103 | 12.48570 | 128° | 95km/h | 14622m | 4.5m/s | -64.4°C | 24.5% | 137.5hPa | 2.6V | 00:00:00 | 00:00:00 | 00:00:00 | |
| DG1MFX-10 | 2026-09-05 23:40:50 | 47.82117 | 12.48543 | 130° | 91km/h | 14618m | 3.4m/s | -64.5°C | 18.4% | 137.6hPa | 2.6V | 00:00:00 | 00:00:00 | 00:00:00 | |
| OE5WHR-10 | 2026-09-05 23:40:48 | 47.82163 | 12.48464 | 133° | 95km/h | 14605m | 3.6m/s | -64.5°C | 25.4% | 137.8hPa | 2.6V | 00:00:00 | 01:11:21 | 00:00:00 | |
| S52SK | 2026-09-05 23:40:47 | 47.82164 | 12.48464 | 134° | 93km/h | 14605m | 3.6m/s | 0°C | 0% | 0hPa | 2.6V | 00:00:00 | 00:00:00 | 00:00:00 | |
| OE5MMP-10 | 2026-09-05 23:40:46 | 47.82195 | 12.48413 | 132° | 91km/h | 14597m | 4.4m/s | -64.6°C | 25.7% | 138.0hPa | 2.6V | 00:00:00 | 01:11:19 | 00:00:00 | |
| OE5DRO-10 | 2026-09-05 23:40:45 | 47.82210 | 12.48387 | 132° | 95km/h | 14592m | 3.9m/s | -64.6°C | 25.8% | 138.1hPa | 2.6V | 00:00:00 | 00:00:00 | 00:00:00 | |
| OE8JPQ-2 | 2026-09-05 23:40:39 | 47.82302 | 12.48237 | 133° | 99km/h | 14566m | 4.0m/s | 0°C | 0% | 0hPa | 2.6V | 00:00:00 | 01:11:12 | 00:00:00 | |
| OE5MMP-10 | 2026-09-05 23:40:36 | 47.82350 | 12.48161 | 134° | 100km/h | 14551m | 5.2m/s | -64.7°C | 27.5% | 139.0hPa | 2.6V | 00:00:00 | 01:11:09 | 00:00:00 | |
| DG1MFX-10 | 2026-09-05 23:40:29 | 47.82455 | 12.48001 | 133° | 100km/h | 14525m | 5.0m/s | -64.8°C | 22.4% | 139.7hPa | 2.6V | 00:00:00 | 00:00:00 | 00:00:00 | |
| OE5WHR-10 | 2026-09-05 23:40:27 | 47.82504 | 12.47912 | 128° | 108km/h | 14512m | 5.0m/s | -64.8°C | 30.2% | 139.9hPa | 2.6V | 00:00:00 | 00:00:00 | 08:30:00 | |
| OE5MMP-10 | 2026-09-05 23:40:26 | 47.82520 | 12.47882 | 128° | 104km/h | 14507m | 3.5m/s | -64.8°C | 30.4% | 140.0hPa | 2.6V | 00:00:00 | 01:10:59 | 00:00:00 | |
| OE5DXL-15 | 2026-09-05 23:40:22 | 47.82583 | 12.47762 | 130° | 113km/h | 14490m | 3.5m/s | -64.9°C | 30.6% | 140.4hPa | 2.6V | 00:00:00 | 00:00:00 | 00:00:00 | |
| OE8JPQ-2 | 2026-09-05 23:40:19 | 47.82634 | 12.47673 | 131° | 111km/h | 14476m | 4.5m/s | 0°C | 0% | 0hPa | 2.6V | 00:00:00 | 00:00:00 | 00:00:00 | |
| OE5FHM-15 | 2026-09-05 23:40:18 | 47.82651 | 12.47642 | 130° | 115km/h | 14472m | 3.7m/s | -64.9°C | 31.5% | 140.9hPa | 2.6V | 00:00:00 | 01:10:51 | 00:00:00 | |
| OE5MMP-10 | 2026-09-05 23:40:16 | 47.82686 | 12.47578 | 128° | 110km/h | 14462m | 4.7m/s | -64.9°C | 31.8% | 141.1hPa | 2.6V | 00:00:00 | 01:10:49 | 00:00:00 | |
| DG1MFX-10 | 2026-09-05 23:40:09 | 47.82803 | 12.47348 | 127° | 111km/h | 14431m | 3.4m/s | -65.4°C | 26.1% | 141.8hPa | 2.6V | 00:00:00 | 00:00:00 | 00:00:00 | |
| OE5DRO-10 | 2026-09-05 23:40:07 | 47.82836 | 12.47280 | 126° | 119km/h | 14422m | 4.7m/s | -65.6°C | 34.3% | 142.0hPa | 2.6V | 00:00:00 | 00:00:00 | 00:00:00 | |
| OE5WHR-10 | 2026-09-05 23:40:06 | 47.82852 | 12.47245 | 124° | 119km/h | 14418m | 3.8m/s | -65.7°C | 34.9% | 142.1hPa | 2.6V | 00:00:00 | 00:00:00 | 00:00:00 | |
| OE8JPQ-2 | 2026-09-05 23:39:59 | 47.82956 | 12.46981 | 123° | 120km/h | 14388m | 3.6m/s | 0°C | 0% | 0hPa | 2.6V | 00:00:00 | 00:00:00 | 00:00:00 | |
| OE5MMP-10 | 2026-09-05 23:39:56 | 47.83003 | 12.46870 | 121° | 120km/h | 14376m | 4.8m/s | -66.0°C | 36.8% | 143.1hPa | 2.6V | 00:00:00 | 01:10:29 | 00:00:00 | |
| OE5DXL-15 | 2026-09-05 23:39:52 | 47.83060 | 12.46711 | 116° | 119km/h | 14359m | 4.0m/s | -66.1°C | 37.0% | 143.5hPa | 2.6V | 00:00:00 | 00:00:00 | 00:00:00 | |
| OE5FHM-15 | 2026-09-05 23:39:48 | 47.83114 | 12.46546 | 117° | 119km/h | 14344m | 3.9m/s | -66.1°C | 37.3% | 143.8hPa | 2.6V | 00:00:00 | 01:10:21 | 00:00:00 | |
| OE5MMP-10 | 2026-09-05 23:39:46 | 47.83141 | 12.46464 | 117° | 119km/h | 14336m | 3.5m/s | -66.2°C | 37.8% | 144.0hPa | 2.6V | 00:00:00 | 01:10:19 | 08:30:00 | |
| OE5WHR-10 | 2026-09-05 23:39:45 | 47.83155 | 12.46423 | 118° | 119km/h | 14332m | 4.0m/s | -66.2°C | 38.2% | 144.1hPa | 2.6V | 00:00:00 | 01:10:18 | 00:00:00 | |
| OE8JPQ-2 | 2026-09-05 23:39:39 | 47.83240 | 12.46184 | 119° | 117km/h | 14308m | 3.5m/s | 0°C | 0% | 0hPa | 2.6V | 00:00:00 | 01:10:12 | 00:00:00 | |
| OE5MMP-10 | 2026-09-05 23:39:36 | 47.83281 | 12.46067 | 117° | 117km/h | 14295m | 3.7m/s | -66.5°C | 42.0% | 145.0hPa | 2.6V | 00:00:00 | 01:10:09 | 00:00:00 | |
| DB0UT-7 | 2026-09-05 23:39:29 | 47.83373 | 12.45793 | 117° | 115km/h | 14266m | 3.5m/s | -66.6°C | 42.4% | 145.7hPa | 2.6V | 00:00:00 | 01:10:02 | 00:00:00 | |
| DG1MFX-10 | 2026-09-05 23:39:27 | 47.83386 | 12.45753 | 118° | 119km/h | 14263m | 2.8m/s | -66.7°C | 33.3% | 145.8hPa | 2.6V | 00:00:00 | 00:00:00 | 00:00:00 | |
| OE5MMP-10 | 2026-09-05 23:39:26 | 47.83412 | 12.45673 | 116° | 117km/h | 14256m | 3.1m/s | -66.6°C | 42.1% | 145.9hPa | 2.6V | 00:00:00 | 01:09:59 | 00:00:00 | |
| OE5WHR-10 | 2026-09-05 23:39:24 | 47.83438 | 12.45594 | 117° | 117km/h | 14249m | 4.4m/s | -66.6°C | 42.2% | 146.1hPa | 2.6V | 00:00:00 | 00:00:00 | 00:00:00 | |
| BAUMI2-15 | 2026-09-05 23:39:23 | 47.83482 | 12.45477 | 121° | 117km/h | 14237m | 5.1m/s | -66.5°C | 42.5% | 146.3hPa | 2.6V | 00:00:00 | 01:09:54 | 00:00:00 | |
| OE5MMP-10 | 2026-09-05 23:39:22 | 47.83561 | 12.45292 | 125° | 115km/h | 14216m | 3.2m/s | -66.4°C | 44.1% | 146.9hPa | 2.6V | 00:00:00 | 01:09:49 | 00:00:00 | |
| BAUMI2-15 | 2026-09-05 23:39:21 | 47.83642 | 12.45114 | 125° | 115km/h | 14195m | 3.9m/s | -66.2°C | 43.8% | 147.4hPa | 2.7V | 00:00:00 | 01:09:44 | 00:00:00 | |
| S52SK | 2026-09-05 23:39:20 | 47.83642 | 12.45114 | 125° | 115km/h | 14195m | 4.0m/s | 0°C | 0% | 0hPa | 2.7V | 00:00:00 | 00:00:00 | 00:00:00 | |
| OE5DRO-10 | 2026-09-05 23:39:19 | 47.83658 | 12.45078 | 124° | 117km/h | 14191m | 5.6m/s | -66.2°C | 43.7% | 147.5hPa | 2.7V | 00:00:00 | 00:00:00 | 00:00:00 | |
| OE5MMP-10 | 2026-09-05 23:39:06 | 47.83723 | 12.44933 | 126° | 117km/h | 14173m | 3.6m/s | -66.1°C | 44.6% | 147.9hPa | 2.7V | 00:00:00 | 01:09:39 | 00:00:00 | |
| OE5WHR-10 | 2026-09-05 23:39:03 | 47.83776 | 12.44826 | 127° | 115km/h | 14160m | 3.4m/s | -66.0°C | 44.6% | 148.2hPa | 2.7V | 00:00:00 | 00:00:00 | 00:00:00 | |
| BAUMI2-15 | 2026-09-05 23:39:01 | 47.83812 | 12.44756 | 128° | 117km/h | 14152m | 4.0m/s | -66.0°C | 44.7% | 148.4hPa | 2.7V | 00:00:00 | 01:09:34 | 08:30:00 | |
| PG1ADW-2 | 2026-09-05 23:38:58 | 47.83864 | 12.44651 | 126° | 115km/h | 14139m | 3.3m/s | -66.0°C | 44.4% | 148.7hPa | 2.6V | 00:00:00 | 00:00:00 | 00:00:00 | |
| OE5MMP-10 | 2026-09-05 23:38:56 | 47.83898 | 12.44579 | 126° | 115km/h | 14131m | 3.8m/s | -66.1°C | 44.6% | 149.0hPa | 2.6V | 00:00:00 | 01:09:29 | 00:00:00 | |
| OE5DXL-15 | 2026-09-05 23:38:52 | 47.83966 | 12.44438 | 127° | 113km/h | 14115m | 4.3m/s | -66.2°C | 45.7% | 149.4hPa | 2.6V | 00:00:00 | 00:00:00 | 08:30:00 | |
| OE5DRO-10 | 2026-09-05 23:38:51 | 47.83984 | 12.44403 | 127° | 113km/h | 14110m | 4.1m/s | -66.2°C | 46.1% | 149.4hPa | 2.6V | 00:00:00 | 00:00:00 | 00:00:00 | |
| OE5FHM-15 | 2026-09-05 23:38:48 | 47.84038 | 12.44300 | 129° | 113km/h | 14099m | 3.9m/s | -66.2°C | 46.4% | 149.8hPa | 2.6V | 00:00:00 | 01:09:21 | 00:00:00 | |
| BAUMI2-15 | 2026-09-05 23:38:46 | 47.84074 | 12.44234 | 131° | 113km/h | 14091m | 4.6m/s | -66.2°C | 46.4% | 150.0hPa | 2.6V | 00:00:00 | 01:09:19 | 00:00:00 | |
| DG1MFX-10 | 2026-09-05 23:38:45 | 47.84074 | 12.44234 | 131° | 115km/h | 14091m | 4.6m/s | -66.3°C | 37.5% | 150.0hPa | 2.6V | 00:00:00 | 00:00:00 | 00:00:00 | |
| OE5WHR-10 | 2026-09-05 23:38:42 | 47.84148 | 12.44103 | 129° | 113km/h | 14075m | 3.8m/s | -66.4°C | 47.7% | 150.3hPa | 2.6V | 00:00:00 | 01:09:15 | 00:00:00 | |
| BAUMI2-15 | 2026-09-05 23:38:41 | 47.84166 | 12.44070 | 129° | 113km/h | 14071m | 4.7m/s | -66.4°C | 48.0% | 150.4hPa | 2.6V | 00:00:00 | 01:09:14 | 00:00:00 | |
| PG1ADW-2 | 2026-09-05 23:38:38 | 47.84218 | 12.43969 | 127° | 111km/h | 14059m | 4.2m/s | -66.4°C | 49.3% | 150.8hPa | 2.6V | 00:00:00 | 01:09:11 | 00:00:00 | |
| OE5MMP-10 | 2026-09-05 23:38:36 | 47.84251 | 12.43901 | 127° | 111km/h | 14051m | 4.6m/s | -66.4°C | 48.8% | 150.9hPa | 2.6V | 00:00:00 | 01:09:09 | 00:00:00 | |
| OE5DRO-10 | 2026-09-05 23:38:33 | 47.84321 | 12.43771 | 131° | 113km/h | 14035m | 3.7m/s | -66.6°C | 48.8% | 151.3hPa | 2.6V | 00:00:00 | 00:00:00 | 00:00:00 | |
| BAUMI2-15 | 2026-09-05 23:38:31 | 47.84340 | 12.43740 | 131° | 111km/h | 14031m | 4.8m/s | -66.7°C | 49.6% | 151.4hPa | 2.7V | 00:00:00 | 01:09:04 | 00:00:00 | |
| OE5MMP-10 | 2026-09-05 23:38:26 | 47.84427 | 12.43575 | 126° | 115km/h | 14012m | 3.9m/s | -66.8°C | 50.6% | 151.9hPa | 2.6V | 00:00:00 | 01:08:59 | 00:00:00 | |
| DG1MFX-10 | 2026-09-05 23:38:25 | 47.84444 | 12.43539 | 126° | 117km/h | 14008m | 4.2m/s | -66.9°C | 41.0% | 152.1hPa | 2.6V | 00:00:00 | 00:00:00 | 00:00:00 | |
| OE5DXL-15 | 2026-09-05 23:38:22 | 47.84493 | 12.43432 | 126° | 120km/h | 13996m | 3.0m/s | -66.9°C | 51.1% | 152.3hPa | 2.6V | 00:00:00 | 00:00:00 | 00:00:00 | |
| OE5WHR-10 | 2026-09-05 23:38:21 | 47.84510 | 12.43397 | 126° | 119km/h | 13992m | 4.1m/s | -66.8°C | 51.3% | 152.4hPa | 2.6V | 00:00:00 | 00:00:00 | 00:00:00 | |
| DB0UT-7 | 2026-09-05 23:38:19 | 47.84545 | 12.43329 | 128° | 120km/h | 13984m | 4.0m/s | -66.8°C | 51.8% | 152.6hPa | 2.6V | 00:00:00 | 00:00:00 | 00:00:00 | |
| OE5FHM-15 | 2026-09-05 23:38:18 | 47.84562 | 12.43296 | 129° | 122km/h | 13980m | 4.2m/s | -66.8°C | 52.2% | 152.7hPa | 2.6V | 00:00:00 | 01:08:51 | 00:00:00 | |
| OE5MMP-10 | 2026-09-05 23:38:16 | 47.84599 | 12.43230 | 130° | 120km/h | 13972m | 4.1m/s | -66.7°C | 53.0% | 152.9hPa | 2.7V | 00:00:00 | 01:08:49 | 08:30:00 | |
| OE5DRO-10 | 2026-09-05 23:38:13 | 47.84654 | 12.43126 | 127° | 122km/h | 13961m | 4.4m/s | -66.6°C | 53.3% | 153.2hPa | 2.7V | 00:00:00 | 00:00:00 | 00:00:00 | |
| BAUMI2-15 | 2026-09-05 23:38:11 | 47.84690 | 12.43052 | 126° | 122km/h | 13954m | 3.9m/s | -66.6°C | 52.6% | 153.4hPa | 2.7V | 00:00:00 | 01:08:44 | 00:00:00 | |
| DO3MHA-11 | 2026-09-05 23:38:10 | 47.84708 | 12.43014 | 126° | 126km/h | 13950m | 4.0m/s | -66.6°C | 52.8% | 153.5hPa | 2.7V | 00:00:00 | 01:08:43 | 00:00:00 | |
| BAUMI2-15 | 2026-09-05 23:38:06 | 47.84782 | 12.42868 | 128° | 119km/h | 13935m | 3.3m/s | -66.5°C | 51.4% | 153.8hPa | 2.7V | 00:00:00 | 01:08:39 | 00:00:00 | |
| DG1MFX-10 | 2026-09-05 23:38:03 | 47.84819 | 12.42798 | 129° | 119km/h | 13928m | 4.4m/s | -66.5°C | 42.1% | 154.1hPa | 2.7V | 00:00:00 | 00:00:00 | 00:00:00 | |
| BAUMI2-15 | 2026-09-05 23:38:01 | 47.84876 | 12.42693 | 131° | 124km/h | 13915m | 3.8m/s | -66.3°C | 52.7% | 154.4hPa | 2.7V | 00:00:00 | 01:08:34 | 00:00:00 | |
| OE5WHR-10 | 2026-09-05 23:38:00 | 47.84895 | 12.42659 | 131° | 128km/h | 13912m | 2.9m/s | -66.3°C | 53.0% | 154.5hPa | 2.7V | 00:00:00 | 00:00:00 | 00:00:00 | |
| PG1ADW-2 | 2026-09-05 23:37:58 | 47.84936 | 12.42588 | 130° | 128km/h | 13904m | 4.0m/s | -66.2°C | 53.9% | 154.7hPa | 2.7V | 00:00:00 | 00:00:00 | 00:00:00 | |
| OE5MMP-10 | 2026-09-05 23:37:56 | 47.84977 | 12.42512 | 130° | 126km/h | 13895m | 5.3m/s | -66.2°C | 54.5% | 154.9hPa | 2.7V | 00:00:00 | 01:08:29 | 00:00:00 | |
| OE5DRO-10 | 2026-09-05 23:37:54 | 47.85019 | 12.42436 | 129° | 128km/h | 13887m | 2.9m/s | -66.3°C | 56.3% | 155.1hPa | 2.7V | 00:00:00 | 00:00:00 | 00:00:00 | |
| OE5DXL-15 | 2026-09-05 23:37:52 | 47.85059 | 12.42360 | 127° | 130km/h | 13878m | 4.3m/s | -66.3°C | 55.8% | 155.3hPa | 2.7V | 00:00:00 | 00:00:00 | 00:00:00 | |
| BAUMI2-15 | 2026-09-05 23:37:51 | 47.85078 | 12.42322 | 127° | 124km/h | 13874m | 3.4m/s | -66.3°C | 55.1% | 155.4hPa | 2.7V | 00:00:00 | 01:08:24 | 00:00:00 | |
| DB0UT-7 | 2026-09-05 23:37:49 | 47.85116 | 12.42249 | 131° | 133km/h | 13866m | 4.6m/s | -66.3°C | 53.3% | 155.7hPa | 2.7V | 00:00:00 | 01:08:22 | 00:00:00 | |
| OE5FHM-15 | 2026-09-05 23:37:48 | 47.85137 | 12.42214 | 133° | 130km/h | 13861m | 4.3m/s | -66.3°C | 53.2% | 155.7hPa | 2.6V | 00:00:00 | 01:08:21 | 00:00:00 | |
| OE5MMP-10 | 2026-09-05 23:37:46 | 47.85179 | 12.42145 | 133° | 130km/h | 13852m | 5.9m/s | -66.3°C | 53.5% | 155.9hPa | 2.6V | 00:00:00 | 01:08:19 | 00:00:00 | |
| DG1MFX-10 | 2026-09-05 23:37:42 | 47.85243 | 12.42034 | 130° | 131km/h | 13838m | 4.4m/s | -66.4°C | 45.6% | 156.4hPa | 2.6V | 00:00:00 | 00:00:00 | 00:00:00 | |
| BAUMI2-15 | 2026-09-05 23:37:41 | 47.85284 | 12.41955 | 128° | 128km/h | 13829m | 3.3m/s | -66.3°C | 55.7% | 156.6hPa | 2.6V | 00:00:00 | 01:08:14 | 00:00:00 | |
| OE5WHR-10 | 2026-09-05 23:37:39 | 47.85324 | 12.41876 | 126° | 130km/h | 13821m | 4.6m/s | -66.4°C | 56.4% | 156.8hPa | 2.6V | 00:00:00 | 01:08:12 | 00:00:00 | |
| PG1ADW-2 | 2026-09-05 23:37:38 | 47.85342 | 12.41837 | 126° | 130km/h | 13817m | 3.2m/s | -66.4°C | 56.5% | 156.8hPa | 2.6V | 00:00:00 | 00:00:00 | 00:00:00 | |
| OE5MMP-10 | 2026-09-05 23:37:36 | 47.85378 | 12.41760 | 125° | 130km/h | 13810m | 4.6m/s | -66.4°C | 56.2% | 157.1hPa | 2.7V | 00:00:00 | 01:08:09 | 00:00:00 | |
| OE5DRO-10 | 2026-09-05 23:37:35 | 47.85397 | 12.41721 | 125° | 131km/h | 13806m | 3.2m/s | -66.3°C | 56.4% | 157.2hPa | 2.7V | 00:00:00 | 00:00:00 | 00:00:00 | |
| BAUMI2-15 | 2026-09-05 23:37:31 | 47.85473 | 12.41565 | 126° | 130km/h | 13791m | 4.2m/s | -66.2°C | 56.2% | 157.6hPa | 2.6V | 00:00:00 | 01:08:04 | 08:30:00 | |
| OE5MMP-10 | 2026-09-05 23:37:26 | 47.85568 | 12.41365 | 126° | 135km/h | 13771m | 3.9m/s | -66.2°C | 55.9% | 158.1hPa | 2.6V | 00:00:00 | 01:07:59 | 00:00:00 | |
| OE5DXL-15 | 2026-09-05 23:37:22 | 47.85645 | 12.41199 | 124° | 139km/h | 13754m | 4.9m/s | -66.1°C | 55.5% | 158.6hPa | 2.6V | 00:00:00 | 00:00:00 | 00:00:00 | |
| DG1MFX-10 | 2026-09-05 23:37:21 | 47.85645 | 12.41199 | 125° | 135km/h | 13754m | 5.0m/s | -66.1°C | 45.9% | 158.6hPa | 2.7V | 00:00:00 | 00:00:00 | 00:00:00 | |
| OE5WHR-10 | 2026-09-05 23:37:18 | 47.85717 | 12.41028 | 121° | 139km/h | 13737m | 3.4m/s | -66.3°C | 56.6% | 159.0hPa | 2.7V | 00:00:00 | 00:00:00 | 08:30:00 | |
| OE5MMP-10 | 2026-09-05 23:37:16 | 47.85752 | 12.40942 | 122° | 137km/h | 13729m | 3.8m/s | -66.4°C | 56.8% | 159.3hPa | 2.6V | 00:00:00 | 01:07:49 | 00:00:00 | |
| OE5MMP-10 | 2026-09-05 23:37:06 | 47.85943 | 12.40508 | 122° | 141km/h | 13687m | 3.8m/s | -66.5°C | 57.2% | 160.3hPa | 2.7V | 00:00:00 | 01:07:39 | 00:00:00 | |
| DG1MFX-10 | 2026-09-05 23:37:00 | 47.86037 | 12.40283 | 123° | 142km/h | 13665m | 4.2m/s | -66.6°C | 48.3% | 161.0hPa | 2.7V | 00:00:00 | 00:00:00 | 00:00:00 | |
| PG1ADW-2 | 2026-09-05 23:36:58 | 47.86094 | 12.40147 | 122° | 144km/h | 13651m | 4.8m/s | -66.5°C | 57.9% | 161.2hPa | 2.7V | 00:00:00 | 00:00:00 | 00:00:00 | |
| OE5WHR-10 | 2026-09-05 23:36:57 | 47.86112 | 12.40102 | 121° | 144km/h | 13647m | 4.4m/s | -66.4°C | 58.0% | 161.4hPa | 2.7V | 00:00:00 | 00:00:00 | 00:00:00 | |
| OE5MMP-10 | 2026-09-05 23:36:56 | 47.86131 | 12.40056 | 121° | 144km/h | 13642m | 4.8m/s | -66.4°C | 58.1% | 161.5hPa | 2.7V | 00:00:00 | 01:07:29 | 00:00:00 | |
| OE5DXL-15 | 2026-09-05 23:36:52 | 47.86204 | 12.39869 | 121° | 144km/h | 13625m | 4.0m/s | -66.4°C | 57.8% | 161.9hPa | 2.7V | 00:00:00 | 00:00:00 | 00:00:00 | |
| OE5FHM-15 | 2026-09-05 23:36:48 | 47.86277 | 12.39681 | 120° | 144km/h | 13607m | 5.3m/s | -66.4°C | 58.5% | 162.4hPa | 2.7V | 00:00:00 | 01:07:21 | 08:30:00 | |
| DB0UT-7 | 2026-09-05 23:36:47 | 47.86295 | 12.39634 | 120° | 144km/h | 13602m | 4.2m/s | -66.4°C | 58.5% | 162.5hPa | 2.7V | 00:00:00 | 00:00:00 | 00:00:00 | |
| OE5MMP-10 | 2026-09-05 23:36:46 | 47.86313 | 12.39587 | 120° | 146km/h | 13598m | 4.2m/s | -66.4°C | 58.2% | 162.6hPa | 2.7V | 00:00:00 | 01:07:19 | 08:30:00 | |
| DG1MFX-10 | 2026-09-05 23:36:40 | 47.86406 | 12.39349 | 123° | 144km/h | 13577m | 3.8m/s | -66.3°C | 47.0% | 163.3hPa | 2.6V | 00:00:00 | 00:00:00 | 00:00:00 | |
| PG1ADW-2 | 2026-09-05 23:36:39 | 47.86465 | 12.39211 | 123° | 144km/h | 13563m | 5.0m/s | -66.2°C | 56.1% | 163.6hPa | 2.6V | 00:00:00 | 00:00:00 | 08:30:00 | |
| OE5MMP-10 | 2026-09-05 23:36:36 | 47.86504 | 12.39121 | 124° | 142km/h | 13554m | 4.1m/s | -66.1°C | 55.8% | 163.8hPa | 2.7V | 00:00:00 | 01:07:09 | 00:00:00 | |
| OE5MMP-10 | 2026-09-05 23:36:26 | 47.86696 | 12.38664 | 121° | 146km/h | 13510m | 3.8m/s | -65.9°C | 57.6% | 165.1hPa | 2.7V | 00:00:00 | 01:06:59 | 00:00:00 | |
| OE5DXL-15 | 2026-09-05 23:36:22 | 47.86772 | 12.38475 | 121° | 146km/h | 13492m | 4.7m/s | -65.8°C | 57.4% | 165.5hPa | 2.7V | 00:00:00 | 00:00:00 | 00:00:00 | |
| OE5DRO-10 | 2026-09-05 23:36:19 | 47.86829 | 12.38334 | 121° | 146km/h | 13479m | 4.5m/s | -65.7°C | 56.9% | 165.9hPa | 2.7V | 00:00:00 | 00:00:00 | 00:00:00 | |
| OE5FHM-15 | 2026-09-05 23:36:18 | 47.86847 | 12.38286 | 121° | 144km/h | 13474m | 5.5m/s | -65.7°C | 56.5% | 166.0hPa | 2.7V | 00:00:00 | 01:06:51 | 00:00:00 | |
| DB0UT-7 | 2026-09-05 23:36:17 | 47.86865 | 12.38240 | 121° | 142km/h | 13469m | 3.9m/s | -65.6°C | 56.3% | 166.1hPa | 2.7V | 00:00:00 | 01:06:50 | 00:00:00 | |
| OE5MMP-10 | 2026-09-05 23:36:16 | 47.86884 | 12.38193 | 121° | 144km/h | 13465m | 4.7m/s | -65.6°C | 55.3% | 166.3hPa | 2.7V | 00:00:00 | 01:06:49 | 00:00:00 | |
| OE5WHR-10 | 2026-09-05 23:36:15 | 47.86902 | 12.38147 | 122° | 146km/h | 13460m | 4.7m/s | -65.6°C | 55.3% | 166.4hPa | 2.6V | 00:00:00 | 00:00:00 | 00:00:00 | |
| OE5MMP-10 | 2026-09-05 23:36:06 | 47.87069 | 12.37723 | 119° | 146km/h | 13419m | 4.8m/s | -65.3°C | 54.6% | 167.5hPa | 2.7V | 00:00:00 | 01:06:39 | 00:00:00 | |
| OE5DRO-10 | 2026-09-05 23:36:00 | 47.87175 | 12.37433 | 119° | 144km/h | 13390m | 4.2m/s | -65.2°C | 54.4% | 168.3hPa | 2.7V | 00:00:00 | 00:00:00 | 00:00:00 | |
| DO3MHA-11 | 2026-09-05 23:35:59 | 47.87193 | 12.37385 | 119° | 144km/h | 13386m | 5.6m/s | -65.2°C | 54.4% | 168.4hPa | 2.7V | 00:00:00 | 01:06:32 | 00:00:00 | |
| PG1ADW-2 | 2026-09-05 23:35:58 | 47.87211 | 12.37337 | 120° | 144km/h | 13381m | 3.6m/s | -65.1°C | 54.6% | 168.6hPa | 2.7V | 00:00:00 | 01:06:31 | 00:00:00 | |
| OE5MMP-10 | 2026-09-05 23:35:56 | 47.87247 | 12.37242 | 121° | 144km/h | 13372m | 4.2m/s | -65.1°C | 54.7% | 168.8hPa | 2.7V | 00:00:00 | 01:06:29 | 00:00:00 | |
| OE5WHR-10 | 2026-09-05 23:35:54 | 47.87284 | 12.37148 | 120° | 144km/h | 13362m | 5.1m/s | -65.0°C | 54.9% | 169.1hPa | 2.7V | 00:00:00 | 00:00:00 | 00:00:00 | |
| S52SK | 2026-09-05 23:35:52 | 47.87302 | 12.37101 | 121° | 142km/h | 13358m | 3.6m/s | 0°C | 0% | 0hPa | 2.7V | 00:00:00 | 00:00:00 | 00:00:00 | |
| OE5FHM-15 | 2026-09-05 23:35:48 | 47.87393 | 12.36868 | 119° | 144km/h | 13337m | 4.9m/s | -64.8°C | 52.3% | 169.8hPa | 2.7V | 00:00:00 | 01:06:21 | 00:00:00 | |
| DO3MHA-11 | 2026-09-05 23:35:46 | 47.87427 | 12.36773 | 119° | 139km/h | 13327m | 4.0m/s | -64.8°C | 51.9% | 170.1hPa | 2.7V | 00:00:00 | 01:06:19 | 00:00:00 | |
| OE5DRO-10 | 2026-09-05 23:35:41 | 47.87519 | 12.36539 | 121° | 144km/h | 13303m | 4.4m/s | -64.7°C | 51.7% | 170.7hPa | 2.7V | 00:00:00 | 00:00:00 | 00:00:00 | |
| PG1ADW-2 | 2026-09-05 23:35:38 | 47.87574 | 12.36397 | 120° | 142km/h | 13289m | 4.3m/s | -64.6°C | 52.4% | 171.1hPa | 2.7V | 00:00:00 | 00:00:00 | 00:00:00 | |
| OE5MMP-10 | 2026-09-05 23:35:36 | 47.87611 | 12.36302 | 120° | 142km/h | 13280m | 3.6m/s | -64.5°C | 53.4% | 171.3hPa | 2.7V | 00:00:00 | 01:06:09 | 00:00:00 | |
| OE5WHR-10 | 2026-09-05 23:35:33 | 47.87665 | 12.36161 | 120° | 144km/h | 13267m | 3.8m/s | -64.5°C | 53.1% | 171.7hPa | 2.7V | 00:00:00 | 01:06:06 | 00:00:00 | |
| OE5MMP-10 | 2026-09-05 23:35:26 | 47.87792 | 12.35838 | 121° | 142km/h | 13235m | 4.1m/s | -64.3°C | 51.5% | 172.6hPa | 2.7V | 00:00:00 | 01:05:59 | 00:00:00 | |
| OE5DXL-15 | 2026-09-05 23:35:22 | 47.87867 | 12.35653 | 122° | 142km/h | 13216m | 5.1m/s | -64.2°C | 51.1% | 173.2hPa | 2.7V | 00:00:00 | 00:00:00 | 00:00:00 | |
| BAUMI2-15 | 2026-09-05 23:35:20 | 47.87905 | 12.35562 | 121° | 142km/h | 13207m | 4.7m/s | -64.1°C | 50.7% | 173.4hPa | 2.7V | 00:00:00 | 01:05:53 | 00:00:00 | |
| OE5FHM-15 | 2026-09-05 23:35:18 | 47.87941 | 12.35469 | 121° | 142km/h | 13198m | 4.9m/s | -64.1°C | 50.8% | 173.7hPa | 2.7V | 00:00:00 | 01:05:51 | 00:00:00 | |
| DG1MFX-10 | 2026-09-05 23:35:17 | 47.87941 | 12.35469 | 121° | 142km/h | 13198m | 5.0m/s | -64.2°C | 42.1% | 173.8hPa | 2.7V | 00:00:00 | 00:00:00 | 00:00:00 | |
| OE5MMP-10 | 2026-09-05 23:35:16 | 47.87977 | 12.35377 | 120° | 142km/h | 13189m | 3.6m/s | -64.1°C | 50.6% | 174.0hPa | 2.7V | 00:00:00 | 01:05:49 | 08:30:00 | |
| BAUMI2-15 | 2026-09-05 23:35:15 | 47.87995 | 12.35330 | 120° | 144km/h | 13184m | 5.1m/s | -64.1°C | 50.5% | 174.1hPa | 2.7V | 00:00:00 | 01:05:48 | 00:00:00 | |
| OE5WHR-10 | 2026-09-05 23:35:10 | 47.88084 | 12.35094 | 120° | 142km/h | 13160m | 4.4m/s | -64.0°C | 50.8% | 174.8hPa | 2.6V | 00:00:00 | 00:00:00 | 00:00:00 | |
| OE5MMP-10 | 2026-09-05 23:35:06 | 47.88155 | 12.34910 | 120° | 144km/h | 13141m | 5.3m/s | -63.9°C | 50.9% | 175.3hPa | 2.7V | 00:00:00 | 01:05:39 | 00:00:00 | |
| BAUMI2-15 | 2026-09-05 23:35:05 | 47.88173 | 12.34864 | 120° | 142km/h | 13137m | 4.3m/s | -63.8°C | 51.4% | 175.5hPa | 2.7V | 00:00:00 | 01:05:38 | 00:00:00 | |
| BAUMI2-15 | 2026-09-05 23:35:00 | 47.88264 | 12.34632 | 123° | 144km/h | 13115m | 4.1m/s | -63.7°C | 52.0% | 176.1hPa | 2.7V | 00:00:00 | 01:05:33 | 00:00:00 | |
| OE5MMP-10 | 2026-09-05 23:34:56 | 47.88341 | 12.34446 | 121° | 139km/h | 13099m | 3.9m/s | -63.7°C | 51.8% | 176.6hPa | 2.7V | 00:00:00 | 01:05:29 | 00:00:00 | |
| BAUMI2-15 | 2026-09-05 23:34:55 | 47.88360 | 12.34401 | 122° | 137km/h | 13094m | 5.2m/s | -63.7°C | 51.8% | 176.7hPa | 2.7V | 00:00:00 | 01:05:28 | 00:00:00 | |
| OE5DXL-15 | 2026-09-05 23:34:52 | 47.88413 | 12.34268 | 121° | 144km/h | 13080m | 4.6m/s | -63.6°C | 52.3% | 177.1hPa | 2.7V | 00:00:00 | 00:00:00 | 00:00:00 | |
| DB0UT-7 | 2026-09-05 23:34:51 | 47.88431 | 12.34224 | 120° | 144km/h | 13076m | 3.9m/s | -63.6°C | 52.4% | 177.2hPa | 2.7V | 00:00:00 | 00:00:00 | 08:30:00 | |
| BAUMI2-15 | 2026-09-05 23:34:50 | 47.88448 | 12.34179 | 121° | 139km/h | 13072m | 5.0m/s | -63.6°C | 53.0% | 177.3hPa | 2.7V | 00:00:00 | 01:05:23 | 00:00:00 | |
| OE5WHR-10 | 2026-09-05 23:34:49 | 47.88466 | 12.34134 | 121° | 141km/h | 13067m | 4.0m/s | -63.7°C | 53.6% | 177.5hPa | 2.7V | 00:00:00 | 00:00:00 | 00:00:00 | |
| OE5FHM-15 | 2026-09-05 23:34:48 | 47.88484 | 12.34089 | 121° | 144km/h | 13063m | 3.6m/s | -63.6°C | 53.5% | 177.6hPa | 2.7V | 00:00:00 | 01:05:21 | 00:00:00 | |
| OE5MMP-10 | 2026-09-05 23:34:46 | 47.88520 | 12.33999 | 122° | 142km/h | 13055m | 3.5m/s | -63.6°C | 53.2% | 177.8hPa | 2.7V | 00:00:00 | 01:05:19 | 00:00:00 | |
| BAUMI2-15 | 2026-09-05 23:34:45 | 47.88539 | 12.33953 | 122° | 142km/h | 13051m | 4.3m/s | -63.6°C | 52.6% | 177.9hPa | 2.7V | 00:00:00 | 01:05:18 | 08:30:00 | |
| OE5DRO-10 | 2026-09-05 23:34:44 | 47.88558 | 12.33908 | 123° | 146km/h | 13046m | 5.2m/s | -63.5°C | 52.8% | 178.1hPa | 2.7V | 00:00:00 | 00:00:00 | 00:00:00 | |
| BAUMI2-15 | 2026-09-05 23:34:40 | 47.88636 | 12.33729 | 123° | 144km/h | 13029m | 4.0m/s | -63.5°C | 52.9% | 178.5hPa | 2.7V | 00:00:00 | 01:05:13 | 00:00:00 | |
| PG1ADW-2 | 2026-09-05 23:34:38 | 47.88675 | 12.33640 | 123° | 146km/h | 13020m | 4.2m/s | -63.4°C | 53.0% | 178.8hPa | 2.7V | 00:00:00 | 01:05:11 | 00:00:00 | |
| OE5MMP-10 | 2026-09-05 23:34:36 | 47.88714 | 12.33547 | 122° | 150km/h | 13012m | 4.8m/s | -63.4°C | 52.2% | 179.0hPa | 2.7V | 00:00:00 | 01:05:09 | 00:00:00 | |
| BAUMI2-15 | 2026-09-05 23:34:35 | 47.88734 | 12.33500 | 122° | 150km/h | 13007m | 4.3m/s | -63.4°C | 52.2% | 179.2hPa | 2.7V | 00:00:00 | 01:05:08 | 00:00:00 | |
| BAUMI2-15 | 2026-09-05 23:34:30 | 47.88835 | 12.33263 | 124° | 148km/h | 12985m | 4.3m/s | -63.2°C | 51.8% | 179.8hPa | 2.7V | 00:00:00 | 01:05:03 | 00:00:00 | |
| OE5MMP-10 | 2026-09-05 23:34:26 | 47.88918 | 12.33077 | 123° | 142km/h | 12967m | 5.4m/s | -63.1°C | 52.1% | 180.4hPa | 2.7V | 00:00:00 | 01:04:59 | 00:00:00 | |
| BAUMI2-15 | 2026-09-05 23:34:25 | 47.88938 | 12.33031 | 122° | 142km/h | 12962m | 4.3m/s | -63.1°C | 52.1% | 180.5hPa | 2.7V | 00:00:00 | 01:04:58 | 00:00:00 | |
| OE5DXL-15 | 2026-09-05 23:34:22 | 47.88994 | 12.32895 | 122° | 142km/h | 12948m | 5.1m/s | -63.0°C | 52.4% | 180.9hPa | 2.7V | 00:00:00 | 00:00:00 | 08:30:00 | |
| DB0UT-7 | 2026-09-05 23:34:21 | 47.89013 | 12.32849 | 121° | 141km/h | 12943m | 4.6m/s | -63.0°C | 53.0% | 181.1hPa | 2.7V | 00:00:00 | 01:04:54 | 00:00:00 | |
| BAUMI2-15 | 2026-09-05 23:34:20 | 47.89031 | 12.32803 | 122° | 144km/h | 12939m | 3.5m/s | -62.9°C | 52.9% | 181.2hPa | 2.7V | 00:00:00 | 01:04:53 | 00:00:00 | |
| OE5FHM-15 | 2026-09-05 23:34:18 | 47.89070 | 12.32712 | 124° | 142km/h | 12931m | 4.0m/s | -62.9°C | 52.8% | 181.4hPa | 2.7V | 00:00:00 | 01:04:51 | 00:00:00 | |
| OE5MMP-10 | 2026-09-05 23:34:16 | 47.89111 | 12.32621 | 124° | 146km/h | 12922m | 4.2m/s | -62.8°C | 52.7% | 181.7hPa | 2.7V | 00:00:00 | 01:04:49 | 00:00:00 | |
| BAUMI2-15 | 2026-09-05 23:34:15 | 47.89131 | 12.32574 | 123° | 148km/h | 12918m | 3.7m/s | -62.8°C | 52.7% | 181.8hPa | 2.7V | 00:00:00 | 01:04:48 | 00:00:00 | |
| BAUMI2-15 | 2026-09-05 23:34:10 | 47.89231 | 12.32338 | 120° | 141km/h | 12897m | 3.1m/s | -62.7°C | 53.8% | 182.5hPa | 2.7V | 00:00:00 | 01:04:43 | 00:00:00 | |
| OE5MMP-10 | 2026-09-05 23:34:06 | 47.89303 | 12.32156 | 122° | 142km/h | 12881m | 4.8m/s | -62.6°C | 53.3% | 182.8hPa | 2.7V | 00:00:00 | 01:04:39 | 00:00:00 | |
| BAUMI2-15 | 2026-09-05 23:34:05 | 47.89322 | 12.32110 | 122° | 146km/h | 12877m | 4.7m/s | -62.6°C | 53.4% | 183.0hPa | 2.7V | 00:00:00 | 01:04:38 | 00:00:00 | |
| BAUMI2-15 | 2026-09-05 23:34:00 | 47.89423 | 12.31880 | 124° | 137km/h | 12856m | 5.0m/s | -62.4°C | 53.0% | 183.7hPa | 2.7V | 00:00:00 | 01:04:33 | 08:30:00 | |
| PG1ADW-2 | 2026-09-05 23:33:58 | 47.89461 | 12.31792 | 124° | 139km/h | 12847m | 4.7m/s | -62.4°C | 52.6% | 183.9hPa | 2.7V | 00:00:00 | 00:00:00 | 00:00:00 | |
| OE5MMP-10 | 2026-09-05 23:33:56 | 47.89499 | 12.31707 | 124° | 141km/h | 12838m | 4.1m/s | -62.3°C | 52.4% | 184.2hPa | 2.7V | 00:00:00 | 01:04:29 | 00:00:00 | |
| BAUMI2-15 | 2026-09-05 23:33:55 | 47.89517 | 12.31664 | 123° | 139km/h | 12834m | 4.7m/s | -62.3°C | 52.7% | 184.3hPa | 2.7V | 00:00:00 | 01:04:28 | 00:00:00 | |
| DG1MFX-10 | 2026-09-05 23:33:54 | 47.89517 | 12.31664 | 124° | 135km/h | 12834m | 4.7m/s | -62.3°C | 44.4% | 184.4hPa | 2.7V | 00:00:00 | 00:00:00 | 00:00:00 | |
| OE5DXL-15 | 2026-09-05 23:33:52 | 47.89573 | 12.31533 | 123° | 141km/h | 12821m | 4.0m/s | -62.2°C | 52.1% | 184.7hPa | 2.7V | 00:00:00 | 01:04:25 | 00:00:00 | |
| OE5WHR-10 | 2026-09-05 23:33:50 | 47.89610 | 12.31443 | 122° | 139km/h | 12812m | 4.0m/s | -62.1°C | 52.0% | 185.0hPa | 2.7V | 00:00:00 | 01:04:23 | 00:00:00 | |
| OE5FHM-15 | 2026-09-05 23:33:48 | 47.89649 | 12.31350 | 122° | 141km/h | 12804m | 4.7m/s | -62.1°C | 52.2% | 185.2hPa | 2.7V | 00:00:00 | 01:04:21 | 00:00:00 | |
| OE5DRO-10 | 2026-09-05 23:33:47 | 47.89668 | 12.31305 | 123° | 141km/h | 12800m | 4.3m/s | -62.0°C | 52.5% | 185.3hPa | 2.7V | 00:00:00 | 00:00:00 | 08:30:00 | |
| OE5MMP-10 | 2026-09-05 23:33:46 | 47.89687 | 12.31260 | 124° | 139km/h | 12796m | 3.9m/s | -62.0°C | 52.6% | 185.4hPa | 2.7V | 00:00:00 | 01:04:19 | 08:30:00 | |
| BAUMI2-15 | 2026-09-05 23:33:45 | 47.89707 | 12.31217 | 125° | 142km/h | 12792m | 4.5m/s | -62.0°C | 52.5% | 185.6hPa | 2.7V | 00:00:00 | 01:04:18 | 00:00:00 | |
| BAUMI2-15 | 2026-09-05 23:33:40 | 47.89809 | 12.30999 | 125° | 137km/h | 12770m | 3.7m/s | -61.8°C | 53.2% | 186.3hPa | 2.7V | 00:00:00 | 01:04:13 | 00:00:00 | |
| PG1ADW-2 | 2026-09-05 23:33:38 | 47.89848 | 12.30914 | 124° | 139km/h | 12761m | 4.0m/s | -61.8°C | 53.0% | 186.5hPa | 2.7V | 00:00:00 | 00:00:00 | 08:30:00 | |
| OE5MMP-10 | 2026-09-05 23:33:36 | 47.89886 | 12.30828 | 124° | 141km/h | 12752m | 4.1m/s | -61.7°C | 53.3% | 186.7hPa | 2.7V | 00:00:00 | 01:04:09 | 00:00:00 | |
| BAUMI2-15 | 2026-09-05 23:33:35 | 47.89906 | 12.30785 | 124° | 142km/h | 12748m | 4.4m/s | -61.7°C | 53.0% | 186.9hPa | 2.7V | 00:00:00 | 01:04:08 | 00:00:00 | |
| DG1MFX-10 | 2026-09-05 23:33:34 | 47.89906 | 12.30785 | 125° | 139km/h | 12748m | 4.5m/s | -61.7°C | 44.9% | 187.0hPa | 2.7V | 00:00:00 | 00:00:00 | 00:00:00 | |
| BAUMI2-15 | 2026-09-05 23:33:30 | 47.90008 | 12.30564 | 125° | 141km/h | 12727m | 4.9m/s | -61.5°C | 52.4% | 187.5hPa | 2.7V | 00:00:00 | 01:04:03 | 00:00:00 | |
| OE5DRO-10 | 2026-09-05 23:33:28 | 47.90049 | 12.30476 | 125° | 139km/h | 12718m | 4.7m/s | -61.5°C | 52.0% | 187.8hPa | 2.7V | 00:00:00 | 00:00:00 | 00:00:00 | |
| OE5MMP-10 | 2026-09-05 23:33:26 | 47.90087 | 12.30390 | 124° | 139km/h | 12710m | 3.8m/s | -61.4°C | 52.7% | 188.0hPa | 2.7V | 00:00:00 | 01:03:59 | 00:00:00 | |
| OE5DXL-15 | 2026-09-05 23:33:22 | 47.90165 | 12.30220 | 126° | 141km/h | 12694m | 4.1m/s | -61.3°C | 54.1% | 188.5hPa | 2.7V | 00:00:00 | 00:00:00 | 00:00:00 | |
| OE5FHM-15 | 2026-09-05 23:33:18 | 47.90249 | 12.30048 | 126° | 139km/h | 12678m | 4.8m/s | -61.2°C | 55.0% | 189.0hPa | 2.7V | 00:00:00 | 01:03:51 | 00:00:00 | |
| OE5MMP-10 | 2026-09-05 23:33:16 | 47.90290 | 12.29960 | 125° | 139km/h | 12670m | 3.7m/s | -61.2°C | 55.2% | 189.3hPa | 2.7V | 00:00:00 | 01:03:49 | 00:00:00 | |
| DG1MFX-10 | 2026-09-05 23:33:13 | 47.90330 | 12.29873 | 125° | 139km/h | 12662m | 3.1m/s | -61.2°C | 47.6% | 189.6hPa | 2.7V | 00:00:00 | 00:00:00 | 00:00:00 | |
| DB0UT-7 | 2026-09-05 23:33:11 | 47.90390 | 12.29745 | 126° | 139km/h | 12650m | 3.9m/s | -61.0°C | 55.9% | 189.9hPa | 2.7V | 00:00:00 | 00:00:00 | 00:00:00 | |
| OE5DRO-10 | 2026-09-05 23:33:09 | 47.90430 | 12.29660 | 126° | 139km/h | 12642m | 3.8m/s | -60.9°C | 56.3% | 190.1hPa | 2.7V | 00:00:00 | 00:00:00 | 00:00:00 | |
| OE5MMP-10 | 2026-09-05 23:33:06 | 47.90493 | 12.29536 | 127° | 141km/h | 12631m | 3.6m/s | -60.9°C | 57.9% | 190.5hPa | 2.7V | 00:00:00 | 01:03:39 | 00:00:00 | |
| OE5MMP-10 | 2026-09-05 23:32:56 | 47.90702 | 12.29106 | 128° | 139km/h | 12590m | 4.2m/s | -60.6°C | 59.1% | 191.7hPa | 2.7V | 00:00:00 | 01:03:29 | 00:00:00 | |
| DG1MFX-10 | 2026-09-05 23:32:53 | 47.90744 | 12.29024 | 128° | 137km/h | 12582m | 5.0m/s | -60.6°C | 50.4% | 192.1hPa | 2.7V | 00:00:00 | 00:00:00 | 00:00:00 | |
| OE5DXL-15 | 2026-09-05 23:32:52 | 47.90786 | 12.28942 | 128° | 139km/h | 12573m | 5.0m/s | -60.5°C | 58.1% | 192.3hPa | 2.7V | 00:00:00 | 00:00:00 | 00:00:00 | |
| OE5DRO-10 | 2026-09-05 23:32:50 | 47.90827 | 12.28859 | 127° | 139km/h | 12565m | 4.5m/s | -60.4°C | 57.2% | 192.5hPa | 2.7V | 00:00:00 | 00:00:00 | 00:00:00 | |
| OE5FHM-15 | 2026-09-05 23:32:48 | 47.90869 | 12.28774 | 126° | 139km/h | 12557m | 4.0m/s | -60.4°C | 57.4% | 192.8hPa | 2.7V | 00:00:00 | 01:03:21 | 00:00:00 | |
| OE5MMP-10 | 2026-09-05 23:32:46 | 47.90911 | 12.28689 | 128° | 139km/h | 12548m | 3.4m/s | -60.3°C | 58.1% | 193.1hPa | 2.7V | 00:00:00 | 01:03:19 | 00:00:00 | |
| DB0UT-7 | 2026-09-05 23:32:39 | 47.91062 | 12.28399 | 128° | 139km/h | 12519m | 4.5m/s | -60.1°C | 57.4% | 193.9hPa | 2.7V | 00:00:00 | 01:03:12 | 00:00:00 | |
| OE5MMP-10 | 2026-09-05 23:32:36 | 47.91125 | 12.28275 | 128° | 137km/h | 12507m | 3.5m/s | -60.0°C | 57.6% | 194.3hPa | 2.7V | 00:00:00 | 01:03:09 | 00:00:00 | |
| DG1MFX-10 | 2026-09-05 23:32:32 | 47.91190 | 12.28150 | 130° | 141km/h | 12494m | 4.6m/s | -60.0°C | 50.0% | 194.8hPa | 2.7V | 00:00:00 | 00:00:00 | 00:00:00 | |
| OE5DRO-10 | 2026-09-05 23:32:31 | 47.91235 | 12.28069 | 130° | 137km/h | 12486m | 3.2m/s | -59.9°C | 57.9% | 195.0hPa | 2.7V | 00:00:00 | 00:00:00 | 00:00:00 | |
| OE5MMP-10 | 2026-09-05 23:32:26 | 47.91340 | 12.27870 | 128° | 139km/h | 12467m | 3.6m/s | -59.7°C | 56.6% | 195.6hPa | 2.7V | 00:00:00 | 01:02:59 | 00:00:00 | |
| OE5DXL-15 | 2026-09-05 23:32:22 | 47.91423 | 12.27703 | 128° | 137km/h | 12450m | 4.6m/s | -59.6°C | 56.9% | 196.1hPa | 2.7V | 00:00:00 | 00:00:00 | 00:00:00 | |
| OE5HKT-10 | 2026-09-05 23:32:19 | 47.91490 | 12.27580 | 130° | 119km/h | 12438m | 4.4m/s | 0°C | 0% | 0hPa | 2.7V | 00:00:00 | 01:02:52 | 00:00:00 | |
| OE5FHM-15 | 2026-09-05 23:32:18 | 47.91512 | 12.27540 | 130° | 137km/h | 12434m | 3.7m/s | -59.4°C | 55.9% | 196.6hPa | 2.7V | 00:00:00 | 01:02:51 | 08:30:00 | |
| OE5MMP-10 | 2026-09-05 23:32:16 | 47.91556 | 12.27461 | 131° | 137km/h | 12425m | 4.9m/s | -59.4°C | 55.7% | 196.9hPa | 2.7V | 00:00:00 | 01:02:49 | 08:30:00 | |
| OE5DRO-10 | 2026-09-05 23:32:12 | 47.91647 | 12.27304 | 130° | 137km/h | 12410m | 3.9m/s | -59.2°C | 55.5% | 197.4hPa | 2.7V | 00:00:00 | 00:00:00 | 00:00:00 | |
| DG1MFX-10 | 2026-09-05 23:32:11 | 47.91647 | 12.27304 | 130° | 135km/h | 12410m | 4.0m/s | -59.3°C | 47.9% | 197.5hPa | 2.7V | 00:00:00 | 00:00:00 | 00:00:00 | |
| OE5MMP-10 | 2026-09-05 23:32:06 | 47.91776 | 12.27060 | 128° | 137km/h | 12385m | 4.1m/s | -59.0°C | 54.3% | 198.1hPa | 2.7V | 00:00:00 | 01:02:39 | 00:00:00 | |
| OE5WHR-10 | 2026-09-05 23:32:01 | 47.91885 | 12.26863 | 132° | 137km/h | 12363m | 3.5m/s | -58.8°C | 53.5% | 198.8hPa | 2.7V | 00:00:00 | 00:00:00 | 08:30:00 | |
| OE5MMP-10 | 2026-09-05 23:31:56 | 47.91999 | 12.26670 | 130° | 137km/h | 12344m | 4.4m/s | -58.6°C | 54.4% | 199.5hPa | 2.7V | 00:00:00 | 01:02:29 | 00:00:00 | |
| OE5DRO-10 | 2026-09-05 23:31:53 | 47.92063 | 12.26547 | 127° | 137km/h | 12332m | 4.6m/s | -58.5°C | 54.1% | 199.9hPa | 2.7V | 00:00:00 | 00:00:00 | 00:00:00 | |
| OE5DXL-15 | 2026-09-05 23:31:52 | 47.92084 | 12.26505 | 127° | 137km/h | 12327m | 3.9m/s | -58.5°C | 53.9% | 200.0hPa | 2.7V | 00:00:00 | 00:00:00 | 00:00:00 | |
| DG1MFX-10 | 2026-09-05 23:31:50 | 47.92105 | 12.26464 | 128° | 137km/h | 12323m | 4.7m/s | -58.5°C | 46.2% | 200.2hPa | 2.7V | 00:00:00 | 00:00:00 | 00:00:00 | |
| OE5FHM-15 | 2026-09-05 23:31:48 | 47.92170 | 12.26343 | 132° | 139km/h | 12310m | 4.0m/s | -58.3°C | 52.1% | 200.5hPa | 2.7V | 00:00:00 | 01:02:21 | 00:00:00 | |
| OE5MMP-10 | 2026-09-05 23:31:46 | 47.92216 | 12.26267 | 133° | 135km/h | 12302m | 4.8m/s | -58.2°C | 51.5% | 200.8hPa | 2.7V | 00:00:00 | 01:02:19 | 00:00:00 | |
| OE5WHR-10 | 2026-09-05 23:31:40 | 47.92347 | 12.26036 | 129° | 137km/h | 12276m | 5.6m/s | -58.0°C | 51.2% | 201.6hPa | 2.7V | 00:00:00 | 00:00:00 | 00:00:00 | |
| OE5MMP-10 | 2026-09-05 23:31:36 | 47.92431 | 12.25872 | 128° | 137km/h | 12257m | 3.9m/s | -57.9°C | 51.1% | 202.2hPa | 2.7V | 00:00:00 | 01:02:09 | 00:00:00 | |
| DG1MFX-10 | 2026-09-05 23:31:29 | 47.92559 | 12.25626 | 129° | 135km/h | 12231m | 4.8m/s | -57.7°C | 43.7% | 203.1hPa | 2.7V | 00:00:00 | 00:00:00 | 00:00:00 | |
| OE5MMP-10 | 2026-09-05 23:31:26 | 47.92641 | 12.25465 | 128° | 139km/h | 12214m | 4.9m/s | -57.5°C | 50.0% | 203.6hPa | 2.7V | 00:00:00 | 01:01:59 | 00:00:00 | |
| OE5DXL-15 | 2026-09-05 23:31:22 | 47.92723 | 12.25299 | 125° | 133km/h | 12196m | 3.0m/s | -57.4°C | 49.7% | 204.2hPa | 2.7V | 00:00:00 | 00:00:00 | 00:00:00 | |
| BAUMI2-15 | 2026-09-05 23:31:21 | 47.92743 | 12.25255 | 125° | 141km/h | 12192m | 5.1m/s | -57.4°C | 49.5% | 204.3hPa | 2.7V | 00:00:00 | 01:01:54 | 00:00:00 | |
| OE5MMP-10 | 2026-09-05 23:31:16 | 47.92846 | 12.25041 | 126° | 133km/h | 12170m | 3.6m/s | -57.2°C | 50.5% | 205.0hPa | 2.7V | 00:00:00 | 01:01:49 | 00:00:00 | |
| OE5FHM-15 | 2026-09-05 23:31:15 | 47.92865 | 12.25001 | 127° | 133km/h | 12166m | 4.2m/s | -57.2°C | 50.1% | 205.1hPa | 2.7V | 00:00:00 | 01:01:48 | 00:00:00 | |
| BAUMI2-15 | 2026-09-05 23:31:11 | 47.92944 | 12.24843 | 126° | 133km/h | 12148m | 3.9m/s | -57.0°C | 50.0% | 205.7hPa | 2.7V | 00:00:00 | 01:01:44 | 08:30:00 | |
| DG1MFX-10 | 2026-09-05 23:31:09 | 47.92964 | 12.24802 | 126° | 133km/h | 12144m | 4.0m/s | -57.0°C | 42.7% | 205.9hPa | 2.7V | 00:00:00 | 00:00:00 | 00:00:00 | |
| OE5MMP-10 | 2026-09-05 23:31:06 | 47.93043 | 12.24637 | 126° | 131km/h | 12127m | 3.8m/s | -56.8°C | 48.6% | 206.4hPa | 2.7V | 00:00:00 | 01:01:39 | 00:00:00 | |
| OE5WHR-10 | 2026-09-05 23:31:04 | 47.93083 | 12.24555 | 127° | 131km/h | 12118m | 4.3m/s | -56.8°C | 48.9% | 206.7hPa | 2.7V | 00:00:00 | 01:01:37 | 00:00:00 | |
| BAUMI2-15 | 2026-09-05 23:31:01 | 47.93141 | 12.24436 | 126° | 130km/h | 12105m | 3.6m/s | -56.6°C | 48.3% | 207.1hPa | 2.7V | 00:00:00 | 01:01:34 | 00:00:00 | |
| OE5MMP-10 | 2026-09-05 23:30:56 | 47.93238 | 12.24239 | 127° | 131km/h | 12083m | 4.1m/s | -56.5°C | 47.7% | 207.9hPa | 2.7V | 00:00:00 | 01:01:29 | 00:00:00 | |
| OE5DXL-15 | 2026-09-05 23:30:52 | 47.93317 | 12.24082 | 126° | 130km/h | 12065m | 4.1m/s | -56.3°C | 47.4% | 208.4hPa | 2.7V | 00:00:00 | 00:00:00 | 00:00:00 | |
| BAUMI2-15 | 2026-09-05 23:30:51 | 47.93336 | 12.24041 | 126° | 131km/h | 12061m | 3.2m/s | -56.3°C | 47.2% | 208.6hPa | 2.7V | 00:00:00 | 01:01:24 | 00:00:00 | |
| PG1ADW-2 | 2026-09-05 23:30:50 | 47.93356 | 12.24001 | 126° | 130km/h | 12057m | 4.8m/s | -56.3°C | 46.9% | 208.7hPa | 2.7V | 00:00:00 | 00:00:00 | 00:00:00 | |
| DG1MFX-10 | 2026-09-05 23:30:48 | 47.93376 | 12.23960 | 127° | 133km/h | 12053m | 4.0m/s | -56.3°C | 40.5% | 209.0hPa | 2.7V | 00:00:00 | 00:00:00 | 00:00:00 | |
| OE5MMP-10 | 2026-09-05 23:30:46 | 47.93433 | 12.23839 | 126° | 131km/h | 12040m | 3.8m/s | -56.1°C | 46.6% | 209.2hPa | 2.7V | 00:00:00 | 01:01:19 | 08:30:00 | |
| OE5FHM-15 | 2026-09-05 23:30:45 | 47.93452 | 12.23799 | 126° | 130km/h | 12036m | 4.5m/s | -56.1°C | 46.5% | 209.4hPa | 2.7V | 00:00:00 | 01:01:18 | 00:00:00 | |
| OE5WHR-10 | 2026-09-05 23:30:42 | 47.93511 | 12.23680 | 127° | 128km/h | 12023m | 3.9m/s | -56.0°C | 46.2% | 209.8hPa | 2.7V | 00:00:00 | 00:00:00 | 00:00:00 | |
| BAUMI2-15 | 2026-09-05 23:30:41 | 47.93531 | 12.23640 | 128° | 131km/h | 12019m | 4.9m/s | -55.9°C | 45.9% | 209.9hPa | 2.7V | 00:00:00 | 01:01:14 | 00:00:00 | |
| OE5DRO-10 | 2026-09-05 23:30:37 | 47.93610 | 12.23481 | 126° | 128km/h | 12002m | 4.3m/s | -55.8°C | 45.6% | 210.5hPa | 2.7V | 00:00:00 | 00:00:00 | 00:00:00 | |
| OE5MMP-10 | 2026-09-05 23:30:36 | 47.93629 | 12.23442 | 127° | 126km/h | 11997m | 4.4m/s | -55.8°C | 45.7% | 210.7hPa | 2.7V | 00:00:00 | 01:01:09 | 00:00:00 | |
| BAUMI2-15 | 2026-09-05 23:30:31 | 47.93724 | 12.23251 | 128° | 126km/h | 11976m | 3.9m/s | -55.6°C | 45.5% | 211.4hPa | 2.7V | 00:00:00 | 01:01:04 | 00:00:00 | |
| PG1ADW-2 | 2026-09-05 23:30:29 | 47.93763 | 12.23176 | 129° | 128km/h | 11968m | 4.8m/s | -55.5°C | 45.1% | 211.6hPa | 2.7V | 00:00:00 | 00:00:00 | 00:00:00 | |
| DG1MFX-10 | 2026-09-05 23:30:27 | 47.93783 | 12.23139 | 130° | 126km/h | 11964m | 3.5m/s | -55.5°C | 38.8% | 211.9hPa | 2.7V | 00:00:00 | 00:00:00 | 00:00:00 | |
| OE5MMP-10 | 2026-09-05 23:30:26 | 47.93824 | 12.23064 | 130° | 128km/h | 11955m | 4.0m/s | -55.4°C | 44.6% | 212.1hPa | 2.7V | 00:00:00 | 01:00:59 | 00:00:00 | |
| OE5DXL-15 | 2026-09-05 23:30:22 | 47.93904 | 12.22915 | 128° | 128km/h | 11938m | 5.0m/s | -55.2°C | 44.2% | 212.6hPa | 2.7V | 00:00:00 | 00:00:00 | 00:00:00 | |
| OE5WHR-10 | 2026-09-05 23:30:21 | 47.93924 | 12.22877 | 127° | 128km/h | 11934m | 4.0m/s | -55.2°C | 44.1% | 212.8hPa | 2.7V | 00:00:00 | 00:00:00 | 00:00:00 | |
| OE5DRO-10 | 2026-09-05 23:30:18 | 47.93980 | 12.22759 | 125° | 128km/h | 11920m | 3.9m/s | -55.1°C | 44.4% | 213.2hPa | 2.7V | 00:00:00 | 00:00:00 | 00:00:00 | |
| OE5MMP-10 | 2026-09-05 23:30:17 | 47.94018 | 12.22680 | 127° | 128km/h | 11912m | 3.4m/s | -55.0°C | 44.8% | 213.5hPa | 2.7V | 00:00:00 | 01:00:49 | 00:00:00 | |
| OE5FHM-15 | 2026-09-05 23:30:16 | 47.94038 | 12.22642 | 128° | 124km/h | 11908m | 4.6m/s | -55.0°C | 44.6% | 213.6hPa | 2.7V | 00:00:00 | 01:00:48 | 00:00:00 | |
| DO3MHA-11 | 2026-09-05 23:30:14 | 47.94058 | 12.22604 | 129° | 128km/h | 11904m | 3.8m/s | -55.0°C | 44.8% | 213.8hPa | 2.7V | 00:00:00 | 01:00:47 | 08:30:00 | |
| BAUMI2-15 | 2026-09-05 23:30:11 | 47.94119 | 12.22492 | 130° | 130km/h | 11892m | 3.3m/s | -54.9°C | 44.6% | 214.2hPa | 2.7V | 00:00:00 | 01:00:44 | 00:00:00 | |
| BAUMI2-15 | 2026-09-05 23:30:06 | 47.94221 | 12.22302 | 128° | 128km/h | 11870m | 4.1m/s | -54.7°C | 44.3% | 214.9hPa | 2.7V | 00:00:00 | 01:00:39 | 00:00:00 | |
| PG1ADW-2 | 2026-09-05 23:30:05 | 47.94241 | 12.22264 | 127° | 126km/h | 11866m | 4.7m/s | -54.7°C | 44.4% | 215.1hPa | 2.7V | 00:00:00 | 01:00:38 | 00:00:00 | |
| DO3MHA-11 | 2026-09-05 23:30:04 | 47.94260 | 12.22225 | 127° | 126km/h | 11862m | 3.6m/s | -54.7°C | 44.2% | 215.1hPa | 2.7V | 00:00:00 | 01:00:37 | 00:00:00 | |
| BAUMI2-15 | 2026-09-05 23:30:01 | 47.94319 | 12.22110 | 128° | 128km/h | 11849m | 4.8m/s | -54.6°C | 43.4% | 215.6hPa | 2.7V | 00:00:00 | 01:00:34 | 00:00:00 | |
| OE5DRO-10 | 2026-09-05 23:29:59 | 47.94358 | 12.22034 | 129° | 124km/h | 11840m | 4.1m/s | -54.5°C | 43.4% | 215.9hPa | 2.7V | 00:00:00 | 00:00:00 | 00:00:00 | |
| OE5MMP-10 | 2026-09-05 23:29:56 | 47.94419 | 12.21922 | 129° | 124km/h | 11828m | 4.9m/s | -54.4°C | 43.6% | 216.3hPa | 2.7V | 00:00:00 | 01:00:29 | 00:00:00 | |
| DO3MHA-11 | 2026-09-05 23:29:52 | 47.94497 | 12.21773 | 127° | 122km/h | 11811m | 3.2m/s | -54.3°C | 43.4% | 216.9hPa | 2.7V | 00:00:00 | 01:00:25 | 00:00:00 | |
| BAUMI2-15 | 2026-09-05 23:29:51 | 47.94515 | 12.21735 | 127° | 124km/h | 11808m | 4.6m/s | -54.3°C | 43.1% | 217.0hPa | 2.7V | 00:00:00 | 01:00:24 | 00:00:00 | |
| OE5WHR-10 | 2026-09-05 23:29:50 | 47.94534 | 12.21697 | 127° | 122km/h | 11803m | 3.8m/s | -54.2°C | 43.1% | 217.1hPa | 2.7V | 00:00:00 | 01:00:23 | 00:00:00 | |
| OE5MMP-10 | 2026-09-05 23:29:46 | 47.94612 | 12.21551 | 130° | 124km/h | 11788m | 4.4m/s | -54.1°C | 42.0% | 217.7hPa | 2.7V | 00:00:00 | 01:00:19 | 00:00:00 | |
| DG1MFX-10 | 2026-09-05 23:29:45 | 47.94612 | 12.21551 | 131° | 122km/h | 11788m | 4.4m/s | -54.1°C | 36.4% | 217.7hPa | 2.7V | 00:00:00 | 00:00:00 | 00:00:00 | |
| PG1ADW-2 | 2026-09-05 23:29:44 | 47.94651 | 12.21481 | 130° | 122km/h | 11780m | 3.7m/s | -54.0°C | 42.2% | 218.0hPa | 2.7V | 00:00:00 | 00:00:00 | 00:00:00 | |
| DB0UT-7 | 2026-09-05 23:29:43 | 47.94670 | 12.21446 | 130° | 124km/h | 11776m | 3.7m/s | -54.0°C | 41.9% | 218.1hPa | 2.7V | 00:00:00 | 00:00:00 | 00:00:00 | |
| BAUMI2-15 | 2026-09-05 23:29:41 | 47.94710 | 12.21373 | 129° | 126km/h | 11768m | 4.0m/s | -53.9°C | 41.3% | 218.4hPa | 2.7V | 00:00:00 | 01:00:14 | 08:30:00 | |
| OE5DRO-10 | 2026-09-05 23:29:40 | 47.94729 | 12.21336 | 128° | 124km/h | 11763m | 4.7m/s | -53.9°C | 40.9% | 218.6hPa | 2.7V | 00:00:00 | 00:00:00 | 00:00:00 | |
| OE5MMP-10 | 2026-09-05 23:29:36 | 47.94807 | 12.21183 | 127° | 122km/h | 11746m | 3.7m/s | -53.7°C | 39.5% | 219.1hPa | 2.7V | 00:00:00 | 01:00:09 | 00:00:00 | |
| BAUMI2-15 | 2026-09-05 23:29:31 | 47.94899 | 12.20998 | 127° | 120km/h | 11725m | 3.5m/s | -53.5°C | 38.5% | 219.8hPa | 2.7V | 00:00:00 | 01:00:04 | 00:00:00 | |
| OE5WHR-10 | 2026-09-05 23:29:29 | 47.94935 | 12.20927 | 128° | 122km/h | 11717m | 3.2m/s | -53.4°C | 38.7% | 220.1hPa | 2.7V | 00:00:00 | 00:00:00 | 00:00:00 | |
| BAUMI2-15 | 2026-09-05 23:29:26 | 47.94994 | 12.20818 | 130° | 124km/h | 11706m | 3.4m/s | 0°C | 0% | 0hPa | 2.7V | 00:00:00 | 00:59:59 | 00:00:00 | |
| DG1MFX-10 | 2026-09-05 23:29:24 | 47.95014 | 12.20780 | 131° | 128km/h | 11702m | 4.4m/s | -53.3°C | 32.6% | 220.6hPa | 2.7V | 00:00:00 | 00:00:00 | 00:00:00 | |
| OE5DXL-15 | 2026-09-05 23:29:22 | 47.95075 | 12.20668 | 128° | 122km/h | 11690m | 4.1m/s | -53.2°C | 37.6% | 221.1hPa | 2.7V | 00:00:00 | 00:00:00 | 00:00:00 | |
| OE5DRO-10 | 2026-09-05 23:29:21 | 47.95095 | 12.20630 | 128° | 124km/h | 11686m | 3.2m/s | -53.2°C | 37.5% | 221.2hPa | 2.7V | 00:00:00 | 00:00:00 | 00:00:00 | |
| OE5MMP-10 | 2026-09-05 23:29:16 | 47.95190 | 12.20448 | 129° | 122km/h | 11666m | 3.4m/s | -53.0°C | 36.6% | 221.8hPa | 2.7V | 00:00:00 | 00:59:49 | 08:30:00 | |
| PG1ADW-2 | 2026-09-05 23:29:15 | 47.95209 | 12.20414 | 129° | 122km/h | 11662m | 4.7m/s | -52.9°C | 36.1% | 222.0hPa | 2.7V | 00:00:00 | 00:00:00 | 00:00:00 | |
| DB0UT-7 | 2026-09-05 23:29:13 | 47.95246 | 12.20345 | 130° | 120km/h | 11653m | 4.2m/s | -52.9°C | 35.9% | 222.2hPa | 2.7V | 00:00:00 | 00:59:46 | 00:00:00 | |
| OE5FHM-15 | 2026-09-05 23:29:12 | 47.95265 | 12.20310 | 129° | 122km/h | 11649m | 4.3m/s | -52.8°C | 35.8% | 222.4hPa | 2.7V | 00:00:00 | 00:59:45 | 00:00:00 | |
| OE5WHR-10 | 2026-09-05 23:29:08 | 47.95344 | 12.20163 | 128° | 122km/h | 11632m | 5.2m/s | -52.6°C | 35.0% | 223.0hPa | 2.7V | 00:00:00 | 00:00:00 | 00:00:00 | |
| OE5MMP-10 | 2026-09-05 23:29:06 | 47.95383 | 12.20086 | 127° | 122km/h | 11624m | 4.1m/s | -52.6°C | 35.4% | 223.3hPa | 2.7V | 00:00:00 | 00:59:39 | 00:00:00 | |
| DG1MFX-10 | 2026-09-05 23:29:04 | 47.95403 | 12.20047 | 129° | 128km/h | 11619m | 4.0m/s | -52.6°C | 30.8% | 223.5hPa | 2.7V | 00:00:00 | 00:00:00 | 00:00:00 | |
| OE5DRO-10 | 2026-09-05 23:29:02 | 47.95460 | 12.19937 | 128° | 120km/h | 11608m | 3.8m/s | -52.4°C | 35.5% | 223.9hPa | 2.7V | 00:00:00 | 00:00:00 | 00:00:00 | |
| OE5MMP-10 | 2026-09-05 23:28:56 | 47.95576 | 12.19725 | 130° | 120km/h | 11584m | 4.1m/s | -52.2°C | 35.2% | 224.7hPa | 2.7V | 00:00:00 | 00:59:29 | 00:00:00 | |
| PG1ADW-2 | 2026-09-05 23:28:55 | 47.95595 | 12.19689 | 130° | 120km/h | 11580m | 3.8m/s | -52.2°C | 35.7% | 224.9hPa | 2.7V | 00:00:00 | 00:00:00 | 00:00:00 | |
| OE5DXL-15 | 2026-09-05 23:28:52 | 47.95654 | 12.19580 | 128° | 120km/h | 11568m | 3.4m/s | -52.1°C | 36.0% | 225.3hPa | 2.7V | 00:00:00 | 00:00:00 | 00:00:00 | |
| OE5WHR-10 | 2026-09-05 23:28:47 | 47.95747 | 12.19403 | 128° | 120km/h | 11547m | 3.7m/s | -51.9°C | 37.3% | 226.0hPa | 2.7V | 00:00:00 | 00:59:20 | 00:00:00 | |
| OE5MMP-10 | 2026-09-05 23:28:46 | 47.95766 | 12.19367 | 129° | 120km/h | 11543m | 4.8m/s | -51.9°C | 37.4% | 226.1hPa | 2.7V | 00:00:00 | 00:59:19 | 00:00:00 | |
| OE5DRO-10 | 2026-09-05 23:28:43 | 47.95825 | 12.19261 | 130° | 122km/h | 11531m | 4.6m/s | -51.8°C | 38.4% | 226.5hPa | 2.7V | 00:00:00 | 00:00:00 | 00:00:00 | |
| OE5FHM-15 | 2026-09-05 23:28:42 | 47.95844 | 12.19225 | 129° | 122km/h | 11528m | 3.3m/s | -51.7°C | 38.9% | 226.7hPa | 2.7V | 00:00:00 | 00:59:15 | 00:00:00 | |
| OE5MMP-10 | 2026-09-05 23:28:36 | 47.95955 | 12.19010 | 128° | 122km/h | 11502m | 4.1m/s | -51.5°C | 41.1% | 227.6hPa | 2.7V | 00:00:00 | 00:59:09 | 00:00:00 | |
| PG1ADW-2 | 2026-09-05 23:28:35 | 47.95973 | 12.18975 | 128° | 122km/h | 11498m | 3.8m/s | -51.5°C | 41.2% | 227.7hPa | 2.7V | 00:00:00 | 00:59:08 | 08:30:00 | |
| OE5MMP-10 | 2026-09-05 23:28:26 | 47.96145 | 12.18648 | 129° | 120km/h | 11461m | 3.5m/s | -51.3°C | 42.7% | 229.0hPa | 2.7V | 00:00:00 | 00:58:59 | 00:00:00 | |
| DO3MHA-11 | 2026-09-05 23:28:24 | 47.96182 | 12.18575 | 127° | 120km/h | 11453m | 3.3m/s | -51.2°C | 43.0% | 229.3hPa | 2.7V | 00:00:00 | 00:58:57 | 00:00:00 | |
| OE5DXL-15 | 2026-09-05 23:28:22 | 47.96218 | 12.18502 | 126° | 120km/h | 11445m | 4.1m/s | -51.1°C | 43.5% | 229.6hPa | 2.7V | 00:00:00 | 00:00:00 | 00:00:00 | |
| OE5MMP-10 | 2026-09-05 23:28:16 | 47.96326 | 12.18279 | 127° | 122km/h | 11421m | 3.8m/s | -51.0°C | 43.8% | 230.4hPa | 2.7V | 00:00:00 | 00:58:49 | 00:00:00 | |
| PG1ADW-2 | 2026-09-05 23:28:15 | 47.96344 | 12.18242 | 127° | 120km/h | 11418m | 4.0m/s | -50.9°C | 44.0% | 230.6hPa | 2.7V | 00:00:00 | 00:00:00 | 00:00:00 | |
| DO3MHA-11 | 2026-09-05 23:28:14 | 47.96363 | 12.18205 | 128° | 120km/h | 11414m | 3.8m/s | -50.9°C | 44.0% | 230.7hPa | 2.7V | 00:00:00 | 00:58:47 | 00:00:00 | |
| OE5FHM-15 | 2026-09-05 23:28:09 | 47.96455 | 12.18024 | 126° | 119km/h | 11393m | 4.0m/s | -50.8°C | 43.9% | 231.4hPa | 2.7V | 00:00:00 | 00:58:42 | 00:00:00 | |
| OE5MMP-10 | 2026-09-05 23:28:06 | 47.96506 | 12.17910 | 124° | 120km/h | 11381m | 3.8m/s | -50.7°C | 43.3% | 231.9hPa | 2.7V | 00:00:00 | 00:58:39 | 00:00:00 | |
| OE5DRO-10 | 2026-09-05 23:28:05 | 47.96523 | 12.17872 | 124° | 120km/h | 11377m | 4.8m/s | -50.6°C | 43.1% | 232.0hPa | 2.7V | 00:00:00 | 00:00:00 | 08:30:00 | |
| DO3MHA-11 | 2026-09-05 23:28:04 | 47.96540 | 12.17834 | 125° | 120km/h | 11372m | 3.7m/s | -50.6°C | 43.0% | 232.1hPa | 2.7V | 00:00:00 | 00:58:37 | 00:00:00 | |
| DG1MFX-10 | 2026-09-05 23:28:01 | 47.96575 | 12.17760 | 128° | 120km/h | 11364m | 3.8m/s | -50.6°C | 37.7% | 232.5hPa | 2.7V | 00:00:00 | 00:00:00 | 00:00:00 | |
| DB0UT-7 | 2026-09-05 23:28:00 | 47.96612 | 12.17687 | 128° | 119km/h | 11356m | 3.9m/s | -50.4°C | 42.8% | 232.7hPa | 2.7V | 00:00:00 | 00:00:00 | 00:00:00 | |
| OE5MMP-10 | 2026-09-05 23:27:56 | 47.96684 | 12.17542 | 124° | 120km/h | 11340m | 4.3m/s | -50.3°C | 43.1% | 233.4hPa | 2.7V | 00:00:00 | 00:58:29 | 00:00:00 | |
| PG1ADW-2 | 2026-09-05 23:27:55 | 47.96701 | 12.17503 | 123° | 119km/h | 11336m | 3.3m/s | -50.3°C | 43.2% | 233.5hPa | 2.7V | 00:00:00 | 00:00:00 | 00:00:00 | |
| DO3MHA-11 | 2026-09-05 23:27:54 | 47.96717 | 12.17465 | 122° | 120km/h | 11333m | 3.4m/s | -50.2°C | 43.0% | 233.6hPa | 2.7V | 00:00:00 | 00:58:27 | 00:00:00 | |
| OE5MMP-10 | 2026-09-05 23:27:46 | 47.96848 | 12.17160 | 124° | 119km/h | 11302m | 4.4m/s | -50.0°C | 43.4% | 234.7hPa | 2.7V | 00:00:00 | 00:58:19 | 08:30:00 | |
| DO3MHA-11 | 2026-09-05 23:27:44 | 47.96882 | 12.17084 | 125° | 122km/h | 11293m | 3.2m/s | -50.0°C | 43.8% | 235.0hPa | 2.7V | 00:00:00 | 00:58:17 | 00:00:00 | |
| DG1MFX-10 | 2026-09-05 23:27:41 | 47.96916 | 12.17009 | 125° | 119km/h | 11285m | 4.1m/s | -50.0°C | 39.0% | 235.3hPa | 2.7V | 00:00:00 | 00:00:00 | 00:00:00 | |
| OE5MMP-10 | 2026-09-05 23:27:36 | 47.97018 | 12.16792 | 126° | 119km/h | 11260m | 4.2m/s | -49.8°C | 43.5% | 236.2hPa | 2.7V | 00:00:00 | 00:58:09 | 00:00:00 | |
| OE5FHM-15 | 2026-09-05 23:27:35 | 47.97036 | 12.16756 | 126° | 115km/h | 11255m | 4.8m/s | -49.7°C | 43.3% | 236.3hPa | 2.7V | 00:00:00 | 00:58:08 | 00:00:00 | |
| OE5WHR-10 | 2026-09-05 23:27:31 | 47.97102 | 12.16611 | 124° | 117km/h | 11239m | 3.7m/s | -49.6°C | 42.7% | 236.9hPa | 2.7V | 00:00:00 | 00:00:00 | 00:00:00 | |
| DB0UT-7 | 2026-09-05 23:27:30 | 47.97119 | 12.16573 | 124° | 115km/h | 11235m | 4.2m/s | -49.5°C | 42.6% | 237.1hPa | 2.7V | 00:00:00 | 00:58:03 | 08:30:00 | |
| DO3MHA-11 | 2026-09-05 23:27:29 | 47.97136 | 12.16536 | 125° | 117km/h | 11231m | 3.8m/s | -49.5°C | 42.7% | 237.2hPa | 2.7V | 00:00:00 | 00:58:02 | 00:00:00 | |
| OE5DRO-10 | 2026-09-05 23:27:27 | 47.97170 | 12.16462 | 125° | 115km/h | 11222m | 3.7m/s | -49.4°C | 42.7% | 237.5hPa | 2.7V | 00:00:00 | 00:00:00 | 00:00:00 | |
| OE5MMP-10 | 2026-09-05 23:27:26 | 47.97188 | 12.16426 | 127° | 115km/h | 11219m | 3.6m/s | -49.4°C | 42.5% | 237.7hPa | 2.7V | 00:00:00 | 00:57:59 | 00:00:00 | |
| OE5DXL-15 | 2026-09-05 23:27:22 | 47.97258 | 12.16290 | 128° | 115km/h | 11202m | 3.3m/s | -49.2°C | 42.4% | 238.2hPa | 2.7V | 00:00:00 | 00:00:00 | 00:00:00 | |
| DG1MFX-10 | 2026-09-05 23:27:21 | 47.97275 | 12.16257 | 128° | 111km/h | 11199m | 3.8m/s | -49.2°C | 37.4% | 238.5hPa | 2.7V | 00:00:00 | 00:00:00 | 00:00:00 | |
| BAUMI2-15 | 2026-09-05 23:27:20 | 47.97292 | 12.16223 | 127° | 115km/h | 11195m | 4.4m/s | 0°C | 0% | 0hPa | 2.7V | 00:00:00 | 00:57:53 | 00:00:00 | |
| OE5MMP-10 | 2026-09-05 23:27:16 | 47.97361 | 12.16082 | 126° | 115km/h | 11179m | 3.2m/s | -49.0°C | 41.7% | 239.1hPa | 2.7V | 00:00:00 | 00:57:49 | 00:00:00 | |
| PG1ADW-2 | 2026-09-05 23:27:15 | 47.97378 | 12.16047 | 126° | 115km/h | 11175m | 4.9m/s | -49.0°C | 41.4% | 239.2hPa | 2.7V | 00:00:00 | 00:57:48 | 00:00:00 | |
| BAUMI2-15 | 2026-09-05 23:27:13 | 47.97413 | 12.15975 | 127° | 115km/h | 11168m | 3.2m/s | 0°C | 0% | 0hPa | 2.7V | 00:00:00 | 00:57:46 | 00:00:00 | |
| OE5WHR-10 | 2026-09-05 23:27:10 | 47.97464 | 12.15870 | 127° | 115km/h | 11156m | 3.6m/s | -48.8°C | 40.9% | 240.0hPa | 2.7V | 00:00:00 | 00:57:43 | 00:00:00 | |
| DO3MHA-11 | 2026-09-05 23:27:09 | 47.97481 | 12.15836 | 128° | 111km/h | 11152m | 4.1m/s | -48.7°C | 40.9% | 240.1hPa | 2.7V | 00:00:00 | 00:57:42 | 00:00:00 | |
| BAUMI2-15 | 2026-09-05 23:27:08 | 47.97499 | 12.15801 | 128° | 113km/h | 11149m | 3.0m/s | 0°C | 0% | 0hPa | 2.7V | 00:00:00 | 00:57:41 | 00:00:00 | |
| OE5MMP-10 | 2026-09-05 23:27:06 | 47.97534 | 12.15732 | 126° | 113km/h | 11141m | 4.0m/s | -48.6°C | 40.2% | 240.5hPa | 2.7V | 00:00:00 | 00:57:39 | 00:00:00 | |
| OE5FHM-15 | 2026-09-05 23:27:05 | 47.97551 | 12.15696 | 125° | 113km/h | 11138m | 3.2m/s | -48.6°C | 39.9% | 240.6hPa | 2.7V | 00:00:00 | 00:57:38 | 08:30:00 | |
| BAUMI2-15 | 2026-09-05 23:27:02 | 47.97601 | 12.15593 | 128° | 111km/h | 11126m | 4.2m/s | 0°C | 0% | 0hPa | 2.7V | 00:00:00 | 00:57:35 | 00:00:00 | |
| BAUMI2-15 | 2026-09-05 23:26:57 | 47.97686 | 12.15424 | 128° | 117km/h | 11104m | 4.0m/s | 0°C | 0% | 0hPa | 2.7V | 00:00:00 | 00:57:30 | 00:00:00 | |
| OE5MMP-10 | 2026-09-05 23:26:56 | 47.97703 | 12.15390 | 127° | 117km/h | 11100m | 4.8m/s | -48.3°C | 38.8% | 242.0hPa | 2.7V | 00:00:00 | 00:57:29 | 00:00:00 | |
| PG1ADW-2 | 2026-09-05 23:26:55 | 47.97721 | 12.15354 | 126° | 115km/h | 11096m | 3.6m/s | -48.3°C | 38.9% | 242.1hPa | 2.7V | 00:00:00 | 00:00:00 | 00:00:00 | |
| BAUMI2-15 | 2026-09-05 23:26:52 | 47.97774 | 12.15247 | 128° | 119km/h | 11084m | 3.1m/s | 0°C | 0% | 0hPa | 2.7V | 00:00:00 | 00:57:25 | 08:30:00 | |
| OE5WHR-10 | 2026-09-05 23:26:49 | 47.97827 | 12.15138 | 125° | 115km/h | 11073m | 3.5m/s | -48.0°C | 39.2% | 243.0hPa | 2.7V | 00:00:00 | 00:00:00 | 00:00:00 | |
| BAUMI2-15 | 2026-09-05 23:26:47 | 47.97861 | 12.15067 | 127° | 115km/h | 11065m | 4.0m/s | 0°C | 0% | 0hPa | 2.7V | 00:00:00 | 00:57:20 | 00:00:00 | |
| OE5MMP-10 | 2026-09-05 23:26:46 | 47.97878 | 12.15032 | 127° | 113km/h | 11061m | 3.4m/s | -47.9°C | 39.3% | 243.4hPa | 2.7V | 00:00:00 | 00:57:19 | 00:00:00 | |
| BAUMI2-15 | 2026-09-05 23:26:42 | 47.97946 | 12.14893 | 126° | 111km/h | 11046m | 4.6m/s | 0°C | 0% | 0hPa | 2.7V | 00:00:00 | 00:57:15 | 00:00:00 | |
| BAUMI2-15 | 2026-09-05 23:26:37 | 47.98028 | 12.14723 | 128° | 119km/h | 11025m | 3.9m/s | 0°C | 0% | 0hPa | 2.7V | 00:00:00 | 00:57:10 | 00:00:00 | |
| OE5MMP-10 | 2026-09-05 23:26:36 | 47.98045 | 12.14689 | 129° | 117km/h | 11022m | 3.2m/s | -47.6°C | 38.2% | 244.9hPa | 2.7V | 00:00:00 | 00:57:09 | 00:00:00 | |
| PG1ADW-2 | 2026-09-05 23:26:35 | 47.98064 | 12.14655 | 129° | 115km/h | 11018m | 4.7m/s | -47.5°C | 38.0% | 245.1hPa | 2.7V | 00:00:00 | 00:00:00 | 00:00:00 | |
| BAUMI2-15 | 2026-09-05 23:26:31 | 47.98139 | 12.14513 | 129° | 120km/h | 11002m | 3.8m/s | 0°C | 0% | 0hPa | 2.7V | 00:00:00 | 00:57:04 | 00:00:00 | |
| OE5DRO-10 | 2026-09-05 23:26:30 | 47.98157 | 12.14478 | 128° | 113km/h | 10998m | 4.0m/s | -47.4°C | 37.6% | 245.8hPa | 2.7V | 00:00:00 | 00:00:00 | 00:00:00 | |
| OE5WHR-10 | 2026-09-05 23:26:28 | 47.98192 | 12.14408 | 127° | 113km/h | 10990m | 3.5m/s | -47.3°C | 37.5% | 246.1hPa | 2.7V | 00:00:00 | 00:00:00 | 00:00:00 | |
| OE5MMP-10 | 2026-09-05 23:26:26 | 47.98225 | 12.14341 | 127° | 113km/h | 10981m | 3.9m/s | -47.2°C | 37.1% | 246.4hPa | 2.7V | 00:00:00 | 00:56:59 | 00:00:00 | |
| OE5DXL-15 | 2026-09-05 23:26:22 | 47.98290 | 12.14208 | 127° | 113km/h | 10966m | 4.4m/s | -47.1°C | 36.5% | 247.0hPa | 2.7V | 00:00:00 | 00:00:00 | 00:00:00 | |
| BAUMI2-15 | 2026-09-05 23:26:21 | 47.98308 | 12.14174 | 128° | 115km/h | 10962m | 3.7m/s | 0°C | 0% | 0hPa | 2.7V | 00:00:00 | 00:56:54 | 00:00:00 | |
| DB0UT-7 | 2026-09-05 23:26:18 | 47.98361 | 12.14070 | 127° | 113km/h | 10951m | 3.3m/s | -46.9°C | 36.3% | 247.6hPa | 2.7V | 00:00:00 | 00:00:00 | 00:00:00 | |
| OE5MMP-10 | 2026-09-05 23:26:16 | 47.98397 | 12.14000 | 128° | 113km/h | 10943m | 4.4m/s | -46.9°C | 36.1% | 247.9hPa | 2.7V | 00:00:00 | 00:56:49 | 08:30:00 | |
| PG1ADW-2 | 2026-09-05 23:26:15 | 47.98414 | 12.13966 | 127° | 113km/h | 10939m | 3.4m/s | -46.8°C | 36.3% | 248.1hPa | 2.7V | 00:00:00 | 00:00:00 | 00:00:00 | |
| DG1MFX-10 | 2026-09-05 23:26:14 | 47.98414 | 12.13966 | 128° | 115km/h | 10939m | 3.5m/s | -46.9°C | 32.2% | 248.2hPa | 2.7V | 00:00:00 | 00:00:00 | 00:00:00 | |
| BAUMI2-15 | 2026-09-05 23:26:11 | 47.98481 | 12.13827 | 126° | 111km/h | 10923m | 4.3m/s | 0°C | 0% | 0hPa | 2.7V | 00:00:00 | 00:56:44 | 00:00:00 | |
| OE5WHR-10 | 2026-09-05 23:26:07 | 47.98548 | 12.13691 | 127° | 113km/h | 10905m | 4.8m/s | -46.5°C | 34.7% | 249.2hPa | 2.7V | 00:00:00 | 00:56:40 | 00:00:00 | |
| OE5MMP-10 | 2026-09-05 23:26:06 | 47.98565 | 12.13657 | 128° | 113km/h | 10901m | 3.7m/s | -46.5°C | 34.8% | 249.4hPa | 2.7V | 00:00:00 | 00:56:39 | 00:00:00 | |
| BAUMI2-15 | 2026-09-05 23:26:01 | 47.98653 | 12.13486 | 128° | 113km/h | 10880m | 3.2m/s | 0°C | 0% | 0hPa | 2.7V | 00:00:00 | 00:56:34 | 00:00:00 | |
| OE5MMP-10 | 2026-09-05 23:25:56 | 47.98735 | 12.13317 | 127° | 113km/h | 10859m | 3.8m/s | -46.1°C | 33.9% | 251.0hPa | 2.7V | 00:00:00 | 00:56:29 | 00:00:00 | |
| PG1ADW-2 | 2026-09-05 23:25:55 | 47.98752 | 12.13283 | 127° | 113km/h | 10856m | 4.0m/s | -46.1°C | 33.6% | 251.1hPa | 2.7V | 00:00:00 | 00:56:28 | 00:00:00 | |
| DG1MFX-10 | 2026-09-05 23:25:53 | 47.98769 | 12.13249 | 127° | 113km/h | 10851m | 4.7m/s | -46.1°C | 29.9% | 251.3hPa | 2.7V | 00:00:00 | 00:00:00 | 00:00:00 | |
| OE5DXL-15 | 2026-09-05 23:25:52 | 47.98802 | 12.13179 | 127° | 111km/h | 10844m | 4.2m/s | -45.9°C | 33.4% | 251.5hPa | 2.7V | 00:00:00 | 00:00:00 | 00:00:00 | |
| BAUMI2-15 | 2026-09-05 23:25:50 | 47.98838 | 12.13109 | 128° | 111km/h | 10836m | 3.1m/s | 0°C | 0% | 0hPa | 2.7V | 00:00:00 | 00:56:23 | 00:00:00 | |
| DB0UT-7 | 2026-09-05 23:25:48 | 47.98872 | 12.13040 | 127° | 106km/h | 10828m | 4.0m/s | -45.8°C | 33.1% | 252.2hPa | 2.7V | 00:00:00 | 00:56:21 | 00:00:00 | |
| OE5MMP-10 | 2026-09-05 23:25:46 | 47.98905 | 12.12974 | 127° | 111km/h | 10819m | 3.4m/s | -45.7°C | 32.9% | 252.5hPa | 2.7V | 00:00:00 | 00:56:19 | 00:00:00 | |
| BAUMI2-15 | 2026-09-05 23:25:44 | 47.98938 | 12.12908 | 127° | 111km/h | 10811m | 4.8m/s | 0°C | 0% | 0hPa | 2.7V | 00:00:00 | 00:56:17 | 00:00:00 | |
| OE5MMP-10 | 2026-09-05 23:25:36 | 47.99076 | 12.12638 | 126° | 111km/h | 10778m | 4.9m/s | -45.4°C | 32.7% | 254.0hPa | 2.7V | 00:00:00 | 00:56:09 | 00:00:00 | |
| PG1ADW-2 | 2026-09-05 23:25:35 | 47.99092 | 12.12604 | 125° | 110km/h | 10774m | 3.9m/s | -45.4°C | 32.7% | 254.3hPa | 2.7V | 00:00:00 | 00:00:00 | 08:30:00 | |
| BAUMI2-15 | 2026-09-05 23:25:34 | 47.99108 | 12.12569 | 125° | 110km/h | 10769m | 4.5m/s | 0°C | 0% | 0hPa | 2.7V | 00:00:00 | 00:56:07 | 00:00:00 | |
| OE5DRO-10 | 2026-09-05 23:25:33 | 47.99124 | 12.12535 | 125° | 110km/h | 10765m | 4.2m/s | -45.3°C | 32.8% | 254.5hPa | 2.7V | 00:00:00 | 00:00:00 | 00:00:00 | |
| OE5MMP-10 | 2026-09-05 23:25:26 | 47.99239 | 12.12299 | 128° | 110km/h | 10736m | 3.9m/s | -45.1°C | 33.2% | 255.7hPa | 2.7V | 00:00:00 | 00:55:59 | 00:00:00 | |
| OE5WHR-10 | 2026-09-05 23:25:25 | 47.99255 | 12.12266 | 128° | 110km/h | 10732m | 3.6m/s | -45.1°C | 33.1% | 255.8hPa | 2.7V | 00:00:00 | 00:00:00 | 00:00:00 | |
| OE5DXL-15 | 2026-09-05 23:25:22 | 47.99306 | 12.12166 | 127° | 110km/h | 10720m | 4.2m/s | -45.0°C | 33.2% | 256.2hPa | 2.7V | 00:00:00 | 00:00:00 | 08:30:00 | |
| OE5MMP-10 | 2026-09-05 23:25:16 | 47.99399 | 12.11963 | 124° | 111km/h | 10695m | 3.7m/s | -44.8°C | 34.1% | 257.2hPa | 2.7V | 00:00:00 | 00:55:49 | 00:00:00 | |
| PG1ADW-2 | 2026-09-05 23:25:15 | 47.99415 | 12.11929 | 124° | 110km/h | 10691m | 4.8m/s | -44.8°C | 34.0% | 257.4hPa | 2.7V | 00:00:00 | 00:00:00 | 00:00:00 | |
| OE5DRO-10 | 2026-09-05 23:25:14 | 47.99430 | 12.11895 | 125° | 110km/h | 10686m | 3.6m/s | -44.8°C | 34.4% | 257.6hPa | 2.7V | 00:00:00 | 00:00:00 | 08:30:00 | |
| DG1MFX-10 | 2026-09-05 23:25:13 | 47.99430 | 12.11895 | 125° | 111km/h | 10686m | 3.6m/s | -44.8°C | 30.8% | 257.6hPa | 2.7V | 00:00:00 | 00:00:00 | 00:00:00 | |
| OE5MMP-10 | 2026-09-05 23:25:06 | 47.99560 | 12.11620 | 124° | 108km/h | 10656m | 4.1m/s | -44.5°C | 34.2% | 258.8hPa | 2.7V | 00:00:00 | 00:55:39 | 00:00:00 | |
| OE5WHR-10 | 2026-09-05 23:25:04 | 47.99589 | 12.11553 | 123° | 106km/h | 10648m | 4.2m/s | -44.5°C | 34.4% | 259.1hPa | 2.7V | 00:00:00 | 00:55:37 | 00:00:00 | |
| OE5FHM-15 | 2026-09-05 23:24:56 | 47.99706 | 12.11276 | 123° | 106km/h | 10614m | 4.8m/s | 0°C | 0% | 0hPa | 2.7V | 00:00:00 | 00:55:29 | 00:00:00 | |
| PG1ADW-2 | 2026-09-05 23:24:55 | 47.99721 | 12.11241 | 123° | 106km/h | 10610m | 3.5m/s | -44.2°C | 34.5% | 260.6hPa | 2.7V | 00:00:00 | 00:00:00 | 00:00:00 | |
| OE5DXL-15 | 2026-09-05 23:24:52 | 47.99766 | 12.11140 | 125° | 106km/h | 10598m | 4.6m/s | -44.1°C | 34.5% | 261.0hPa | 2.7V | 00:00:00 | 00:00:00 | 00:00:00 | |
| OE5MMP-10 | 2026-09-05 23:24:46 | 47.99854 | 12.10947 | 123° | 108km/h | 10574m | 4.0m/s | -43.9°C | 34.5% | 261.9hPa | 2.7V | 00:00:00 | 00:55:19 | 08:30:00 | |
| OE5WHR-10 | 2026-09-05 23:24:43 | 47.99897 | 12.10845 | 123° | 106km/h | 10561m | 3.1m/s | -43.8°C | 34.6% | 262.4hPa | 2.7V | 00:00:00 | 00:00:00 | 08:30:00 | |
| DB0UT-7 | 2026-09-05 23:24:38 | 47.99972 | 12.10675 | 124° | 108km/h | 10541m | 4.7m/s | -43.6°C | 33.9% | 263.2hPa | 2.7V | 00:00:00 | 00:00:00 | 00:00:00 | |
| OE5MMP-10 | 2026-09-05 23:24:36 | 48.00002 | 12.10607 | 124° | 104km/h | 10532m | 4.7m/s | -43.5°C | 33.9% | 263.5hPa | 2.7V | 00:00:00 | 00:55:09 | 00:00:00 | |
| PG1ADW-2 | 2026-09-05 23:24:35 | 48.00017 | 12.10574 | 124° | 106km/h | 10528m | 3.9m/s | -43.5°C | 34.1% | 263.7hPa | 2.7V | 00:00:00 | 00:55:08 | 00:00:00 | |
| DG1MFX-10 | 2026-09-05 23:24:32 | 48.00047 | 12.10507 | 124° | 106km/h | 10520m | 4.6m/s | -43.5°C | 30.4% | 264.0hPa | 2.7V | 00:00:00 | 00:00:00 | 00:00:00 | |
| OE5MMP-10 | 2026-09-05 23:24:26 | 48.00147 | 12.10277 | 124° | 108km/h | 10492m | 3.8m/s | -43.2°C | 32.2% | 265.1hPa | 2.7V | 00:00:00 | 00:54:59 | 00:00:00 | |
| OE5WHR-10 | 2026-09-05 23:24:22 | 48.00206 | 12.10145 | 124° | 110km/h | 10476m | 3.8m/s | -43.1°C | 31.3% | 265.7hPa | 2.7V | 00:00:00 | 00:00:00 | 00:00:00 | |
| OE5DRO-10 | 2026-09-05 23:24:17 | 48.00284 | 12.09970 | 124° | 108km/h | 10456m | 3.6m/s | -42.9°C | 29.7% | 266.5hPa | 2.7V | 00:00:00 | 00:00:00 | 00:00:00 | |
| OE5MMP-10 | 2026-09-05 23:24:16 | 48.00300 | 12.09936 | 125° | 108km/h | 10453m | 4.7m/s | -42.8°C | 29.2% | 266.7hPa | 2.7V | 00:00:00 | 00:54:49 | 00:00:00 | |
| PG1ADW-2 | 2026-09-05 23:24:15 | 48.00315 | 12.09903 | 125° | 108km/h | 10448m | 3.5m/s | -42.8°C | 29.1% | 266.8hPa | 2.7V | 00:00:00 | 00:00:00 | 00:00:00 | |
| DG1MFX-10 | 2026-09-05 23:24:12 | 48.00345 | 12.09837 | 125° | 104km/h | 10440m | 4.0m/s | -42.8°C | 25.2% | 267.2hPa | 2.7V | 00:00:00 | 00:00:00 | 00:00:00 | |
| DB0UT-7 | 2026-09-05 23:24:08 | 48.00423 | 12.09669 | 125° | 108km/h | 10421m | 4.3m/s | -42.5°C | 26.8% | 267.9hPa | 2.7V | 00:00:00 | 00:54:41 | 00:00:00 | |
| OE5MMP-10 | 2026-09-05 23:24:06 | 48.00454 | 12.09600 | 124° | 106km/h | 10414m | 3.5m/s | -42.5°C | 26.8% | 268.2hPa | 2.7V | 00:00:00 | 00:54:39 | 00:00:00 | |
| DL6DJ-15 | 2026-09-05 23:24:02 | 48.00529 | 12.09433 | 123° | 102km/h | 10395m | 3.6m/s | -42.4°C | 23.4% | 269.0hPa | 2.7V | 00:00:00 | 00:00:00 | 00:00:00 | |
| OE5WHR-10 | 2026-09-05 23:24:01 | 48.00529 | 12.09433 | 124° | 106km/h | 10395m | 3.5m/s | -42.3°C | 26.4% | 269.0hPa | 2.7V | 00:00:00 | 00:54:34 | 00:00:00 | |
| OE5DRO-10 | 2026-09-05 23:23:58 | 48.00575 | 12.09336 | 126° | 106km/h | 10384m | 4.3m/s | -42.2°C | 26.2% | 269.4hPa | 2.7V | 00:00:00 | 00:00:00 | 00:00:00 | |
| OE5MMP-10 | 2026-09-05 23:23:56 | 48.00606 | 12.09269 | 126° | 106km/h | 10376m | 4.1m/s | -42.2°C | 26.4% | 269.7hPa | 2.7V | 00:00:00 | 00:54:29 | 00:00:00 | |
| PG1ADW-2 | 2026-09-05 23:23:55 | 48.00622 | 12.09235 | 126° | 108km/h | 10372m | 3.4m/s | -42.1°C | 26.6% | 269.9hPa | 2.7V | 00:00:00 | 00:00:00 | 00:00:00 | |
| OE5FHM-15 | 2026-09-05 23:23:52 | 48.00668 | 12.09134 | 123° | 106km/h | 10361m | 3.4m/s | 0°C | 0% | 0hPa | 2.7V | 00:00:00 | 00:54:25 | 00:00:00 | |
| OE5HKT-10 | 2026-09-05 23:23:49 | 48.00712 | 12.09033 | 123° | 104km/h | 10349m | 4.5m/s | 0°C | 0% | 0hPa | 2.7V | 00:00:00 | 00:00:00 | 00:00:00 | |
| OE5MMP-10 | 2026-09-05 23:23:46 | 48.00754 | 12.08935 | 125° | 108km/h | 10337m | 3.4m/s | -41.8°C | 27.7% | 271.3hPa | 2.7V | 00:00:00 | 00:54:19 | 00:00:00 | |
| OE5WHR-10 | 2026-09-05 23:23:40 | 48.00849 | 12.08739 | 127° | 108km/h | 10315m | 3.7m/s | -41.6°C | 28.7% | 272.2hPa | 2.7V | 00:00:00 | 00:00:00 | 00:00:00 | |
| OE5DRO-10 | 2026-09-05 23:23:39 | 48.00866 | 12.08706 | 126° | 108km/h | 10311m | 4.5m/s | -41.6°C | 28.7% | 272.4hPa | 2.7V | 00:00:00 | 00:00:00 | 00:00:00 | |
| OE5MMP-10 | 2026-09-05 23:23:36 | 48.00914 | 12.08603 | 125° | 106km/h | 10299m | 4.3m/s | -41.5°C | 29.3% | 272.8hPa | 2.7V | 00:00:00 | 00:54:09 | 00:00:00 | |
| PG1ADW-2 | 2026-09-05 23:23:35 | 48.00929 | 12.08569 | 124° | 108km/h | 10295m | 3.4m/s | -41.5°C | 29.5% | 272.9hPa | 2.7V | 00:00:00 | 00:00:00 | 00:00:00 | |
| DL6DJ-15 | 2026-09-05 23:23:31 | 48.01002 | 12.08404 | 123° | 102km/h | 10275m | 3.8m/s | -41.4°C | 27.1% | 273.8hPa | 2.7V | 00:00:00 | 00:00:00 | 00:00:00 | |
| OE5MMP-10 | 2026-09-05 23:23:26 | 48.01063 | 12.08269 | 126° | 108km/h | 10260m | 3.4m/s | -41.2°C | 29.9% | 274.4hPa | 2.7V | 00:00:00 | 00:53:59 | 00:00:00 | |
| OE5DXL-15 | 2026-09-05 23:23:22 | 48.01126 | 12.08131 | 124° | 108km/h | 10246m | 3.7m/s | -41.1°C | 28.6% | 275.0hPa | 2.7V | 00:00:00 | 00:00:00 | 00:00:00 | |
| OE5FHM-15 | 2026-09-05 23:23:21 | 48.01141 | 12.08097 | 125° | 110km/h | 10242m | 4.3m/s | 0°C | 0% | 0hPa | 2.7V | 00:00:00 | 00:53:54 | 00:00:00 | |
| OE5DRO-10 | 2026-09-05 23:23:20 | 48.01156 | 12.08064 | 125° | 108km/h | 10238m | 3.3m/s | -41.0°C | 28.3% | 275.2hPa | 2.7V | 00:00:00 | 00:00:00 | 00:00:00 | |
| OE5WHR-10 | 2026-09-05 23:23:19 | 48.01172 | 12.08032 | 125° | 108km/h | 10235m | 4.4m/s | -41.0°C | 28.1% | 275.4hPa | 2.7V | 00:00:00 | 00:00:00 | 00:00:00 | |
| OE5MMP-10 | 2026-09-05 23:23:16 | 48.01217 | 12.07935 | 126° | 108km/h | 10222m | 3.6m/s | -40.8°C | 28.1% | 275.9hPa | 2.7V | 00:00:00 | 00:53:49 | 08:30:00 | |
| PG1ADW-2 | 2026-09-05 23:23:15 | 48.01232 | 12.07903 | 126° | 110km/h | 10219m | 3.7m/s | -40.8°C | 28.0% | 276.0hPa | 2.7V | 00:00:00 | 00:53:48 | 00:00:00 | |
| DG1MFX-10 | 2026-09-05 23:23:10 | 48.01296 | 12.07769 | 126° | 110km/h | 10204m | 3.1m/s | -40.7°C | 25.3% | 276.7hPa | 2.7V | 00:00:00 | 00:00:00 | 00:00:00 | |
| OE5MMP-10 | 2026-09-05 23:23:06 | 48.01374 | 12.07600 | 125° | 110km/h | 10185m | 3.2m/s | -40.5°C | 29.0% | 277.4hPa | 2.7V | 00:00:00 | 00:53:39 | 00:00:00 | |
| DL6DJ-15 | 2026-09-05 23:23:00 | 48.01482 | 12.07364 | 124° | 108km/h | 10158m | 2.8m/s | -40.4°C | 25.8% | 278.6hPa | 2.7V | 00:00:00 | 00:00:00 | 00:00:00 | |
| OE5WHR-10 | 2026-09-05 23:22:58 | 48.01497 | 12.07330 | 126° | 108km/h | 10155m | 4.3m/s | -40.3°C | 28.5% | 278.6hPa | 2.7V | 00:00:00 | 00:53:31 | 00:00:00 | |
| OE5MMP-10 | 2026-09-05 23:22:56 | 48.01530 | 12.07262 | 127° | 106km/h | 10148m | 3.2m/s | -40.3°C | 28.4% | 278.9hPa | 2.7V | 00:00:00 | 00:53:29 | 00:00:00 | |
| PG1ADW-2 | 2026-09-05 23:22:55 | 48.01547 | 12.07230 | 127° | 106km/h | 10144m | 4.1m/s | -40.2°C | 28.2% | 279.1hPa | 2.7V | 00:00:00 | 00:00:00 | 00:00:00 | |
| DO3MHA-11 | 2026-09-05 23:22:54 | 48.01563 | 12.07197 | 127° | 106km/h | 10141m | 3.0m/s | -40.2°C | 27.8% | 279.2hPa | 2.7V | 00:00:00 | 00:53:27 | 00:00:00 | |
| DB0UT-7 | 2026-09-05 23:22:53 | 48.01578 | 12.07165 | 126° | 108km/h | 10137m | 4.0m/s | -40.2°C | 27.4% | 279.3hPa | 2.7V | 00:00:00 | 00:00:00 | 00:00:00 | |
| OE5DXL-15 | 2026-09-05 23:22:52 | 48.01594 | 12.07132 | 126° | 108km/h | 10133m | 3.5m/s | -40.2°C | 27.0% | 279.5hPa | 2.7V | 00:00:00 | 00:00:00 | 00:00:00 | |
| DG1MFX-10 | 2026-09-05 23:22:50 | 48.01609 | 12.07100 | 126° | 106km/h | 10129m | 4.0m/s | -40.2°C | 23.9% | 279.7hPa | 2.7V | 00:00:00 | 00:00:00 | 00:00:00 | |
| OE5MMP-10 | 2026-09-05 23:22:46 | 48.01686 | 12.06935 | 126° | 108km/h | 10111m | 4.4m/s | -40.0°C | 25.8% | 280.4hPa | 2.7V | 00:00:00 | 00:53:19 | 00:00:00 | |
| DO3MHA-11 | 2026-09-05 23:22:44 | 48.01718 | 12.06869 | 126° | 108km/h | 10104m | 1.4m/s | -39.9°C | 26.0% | 280.7hPa | 2.7V | 00:00:00 | 00:53:17 | 00:00:00 | |
| OE5DRO-10 | 2026-09-05 23:22:42 | 48.01748 | 12.06803 | 124° | 108km/h | 10097m | 4.4m/s | -39.9°C | 25.4% | 281.0hPa | 2.7V | 00:00:00 | 00:00:00 | 00:00:00 | |
| OE5WHR-10 | 2026-09-05 23:22:37 | 48.01821 | 12.06633 | 124° | 110km/h | 10079m | 3.8m/s | -39.7°C | 25.2% | 281.8hPa | 2.7V | 00:00:00 | 00:00:00 | 00:00:00 | |
| OE5MMP-10 | 2026-09-05 23:22:36 | 48.01836 | 12.06599 | 125° | 110km/h | 10075m | 2.8m/s | -39.7°C | 25.1% | 281.9hPa | 2.7V | 00:00:00 | 00:53:09 | 00:00:00 | |
| PG1ADW-2 | 2026-09-05 23:22:35 | 48.01852 | 12.06565 | 126° | 110km/h | 10072m | 3.9m/s | -39.7°C | 24.9% | 282.0hPa | 2.7V | 00:00:00 | 00:00:00 | 08:30:00 | |
| DO3MHA-11 | 2026-09-05 23:22:34 | 48.01868 | 12.06532 | 126° | 110km/h | 10068m | 3.9m/s | -39.6°C | 24.9% | 282.2hPa | 2.7V | 00:00:00 | 00:53:07 | 00:00:00 | |
| DG1MFX-10 | 2026-09-05 23:22:29 | 48.01934 | 12.06398 | 128° | 110km/h | 10053m | 4.1m/s | -39.5°C | 22.7% | 282.9hPa | 2.7V | 00:00:00 | 00:00:00 | 00:00:00 | |
| BAUMI2-15 | 2026-09-05 23:22:28 | 48.01967 | 12.06332 | 127° | 108km/h | 10046m | 4.0m/s | 0°C | 0% | 0hPa | 2.7V | 00:00:00 | 00:53:01 | 00:00:00 | |
| OE5MMP-10 | 2026-09-05 23:22:26 | 48.01999 | 12.06265 | 125° | 110km/h | 10039m | 2.9m/s | -39.4°C | 25.1% | 283.3hPa | 2.7V | 00:00:00 | 00:52:59 | 00:00:00 | |
| DO3MHA-11 | 2026-09-05 23:22:24 | 48.02029 | 12.06198 | 124° | 110km/h | 10031m | 2.8m/s | -39.3°C | 24.9% | 283.7hPa | 2.7V | 00:00:00 | 00:52:57 | 00:00:00 | |
| DB0UT-7 | 2026-09-05 23:22:23 | 48.02043 | 12.06164 | 123° | 110km/h | 10028m | 3.9m/s | -39.3°C | 24.8% | 283.8hPa | 2.7V | 00:00:00 | 00:52:56 | 00:00:00 | |
| OE5DXL-15 | 2026-09-05 23:22:22 | 48.02058 | 12.06129 | 123° | 110km/h | 10024m | 3.8m/s | -39.2°C | 24.6% | 284.0hPa | 2.7V | 00:00:00 | 00:00:00 | 00:00:00 | |
| OE5MMP-10 | 2026-09-05 23:22:16 | 48.02153 | 12.05923 | 127° | 110km/h | 10002m | 4.2m/s | -39.0°C | 23.4% | 284.9hPa | 2.7V | 00:00:00 | 00:52:49 | 00:00:00 | |
| PG1ADW-2 | 2026-09-05 23:22:15 | 48.02169 | 12.05890 | 127° | 110km/h | 9998m | 3.5m/s | -39.0°C | 23.2% | 285.1hPa | 2.7V | 00:00:00 | 00:00:00 | 00:00:00 | |
| DO3MHA-11 | 2026-09-05 23:22:14 | 48.02186 | 12.05857 | 127° | 110km/h | 9994m | 3.6m/s | -38.9°C | 23.1% | 285.2hPa | 2.7V | 00:00:00 | 00:52:47 | 00:00:00 | |
| BAUMI2-15 | 2026-09-05 23:22:10 | 48.02250 | 12.05724 | 126° | 108km/h | 9981m | 3.0m/s | 0°C | 0% | 0hPa | 2.7V | 00:00:00 | 00:52:43 | 00:00:00 | |
| DG1MFX-10 | 2026-09-05 23:22:08 | 48.02266 | 12.05691 | 126° | 108km/h | 9977m | 4.4m/s | -38.8°C | 19.3% | 286.0hPa | 2.7V | 00:00:00 | 00:00:00 | 00:00:00 | |
| OE5MMP-10 | 2026-09-05 23:22:06 | 48.02312 | 12.05588 | 124° | 110km/h | 9966m | 4.4m/s | -38.6°C | 20.9% | 286.4hPa | 2.7V | 00:00:00 | 00:52:39 | 00:00:00 | |
| DO3MHA-11 | 2026-09-05 23:22:04 | 48.02343 | 12.05520 | 124° | 110km/h | 9958m | 3.9m/s | -38.6°C | 21.0% | 286.7hPa | 2.7V | 00:00:00 | 00:52:37 | 00:00:00 | |
| DL6DJ-15 | 2026-09-05 23:21:57 | 48.02453 | 12.05279 | 124° | 110km/h | 9933m | 3.5m/s | -38.4°C | 17.9% | 287.9hPa | 2.7V | 00:00:00 | 00:00:00 | 00:00:00 | |
| OE5MMP-10 | 2026-09-05 23:21:56 | 48.02469 | 12.05245 | 126° | 110km/h | 9929m | 4.6m/s | -38.3°C | 20.1% | 288.0hPa | 2.7V | 00:00:00 | 00:52:29 | 00:00:00 | |
| OE5WHR-10 | 2026-09-05 23:21:55 | 48.02485 | 12.05211 | 126° | 110km/h | 9925m | 3.3m/s | -38.2°C | 20.2% | 288.1hPa | 2.7V | 00:00:00 | 00:52:28 | 00:00:00 | |
| DO3MHA-11 | 2026-09-05 23:21:54 | 48.02501 | 12.05177 | 126° | 110km/h | 9921m | 3.9m/s | -38.2°C | 20.2% | 288.2hPa | 2.7V | 00:00:00 | 00:52:27 | 08:30:00 | |
| OE5DXL-15 | 2026-09-05 23:21:52 | 48.02532 | 12.05111 | 124° | 110km/h | 9913m | 3.3m/s | -38.1°C | 20.1% | 288.6hPa | 2.7V | 00:00:00 | 00:00:00 | 00:00:00 | |
| DG1MFX-10 | 2026-09-05 23:21:48 | 48.02578 | 12.05010 | 126° | 108km/h | 9901m | 3.9m/s | -38.1°C | 17.4% | 289.2hPa | 2.7V | 00:00:00 | 00:00:00 | 00:00:00 | |
| OE5MMP-10 | 2026-09-05 23:21:46 | 48.02625 | 12.04907 | 125° | 110km/h | 9889m | 4.9m/s | -37.9°C | 19.4% | 289.7hPa | 2.7V | 00:00:00 | 00:52:19 | 08:30:00 | |
| OE5FHM-15 | 2026-09-05 23:21:38 | 48.02750 | 12.04631 | 125° | 108km/h | 9856m | 5.1m/s | 0°C | 0% | 0hPa | 2.7V | 00:00:00 | 00:52:11 | 00:00:00 | |
| DO3MHA-11 | 2026-09-05 23:21:36 | 48.02781 | 12.04564 | 125° | 111km/h | 9847m | 4.3m/s | -37.5°C | 18.8% | 291.4hPa | 2.7V | 00:00:00 | 00:52:09 | 00:00:00 | |
| PG1ADW-2 | 2026-09-05 23:21:35 | 48.02797 | 12.04530 | 126° | 110km/h | 9844m | 3.4m/s | -37.4°C | 18.8% | 291.5hPa | 2.7V | 00:00:00 | 00:00:00 | 00:00:00 | |
| OE5WHR-10 | 2026-09-05 23:21:34 | 48.02813 | 12.04497 | 126° | 110km/h | 9840m | 3.0m/s | -37.4°C | 18.7% | 291.6hPa | 2.7V | 00:00:00 | 00:00:00 | 08:30:00 | |
| DG1MFX-10 | 2026-09-05 23:21:27 | 48.02908 | 12.04289 | 124° | 113km/h | 9817m | 4.0m/s | -37.2°C | 16.1% | 292.7hPa | 2.7V | 00:00:00 | 00:00:00 | 00:00:00 | |
| DO3MHA-11 | 2026-09-05 23:21:26 | 48.02938 | 12.04219 | 123° | 110km/h | 9810m | 2.5m/s | -37.1°C | 18.1% | 293.0hPa | 2.7V | 00:00:00 | 00:51:59 | 00:00:00 | |
| OE5DXL-15 | 2026-09-05 23:21:22 | 48.03001 | 12.04080 | 125° | 110km/h | 9796m | 3.9m/s | -37.0°C | 17.8% | 293.6hPa | 2.7V | 00:00:00 | 00:00:00 | 00:00:00 | |
| OE5MMP-10 | 2026-09-05 23:21:16 | 48.03098 | 12.03882 | 126° | 110km/h | 9774m | 4.3m/s | -36.8°C | 17.4% | 294.5hPa | 2.7V | 00:00:00 | 00:51:49 | 00:00:00 | |
| PG1ADW-2 | 2026-09-05 23:21:15 | 48.03113 | 12.03850 | 125° | 110km/h | 9770m | 3.3m/s | -36.7°C | 17.5% | 294.6hPa | 2.7V | 00:00:00 | 00:00:00 | 00:00:00 | |
| OE5WHR-10 | 2026-09-05 23:21:13 | 48.03143 | 12.03784 | 124° | 110km/h | 9763m | 3.6m/s | -36.7°C | 17.5% | 294.9hPa | 2.7V | 00:00:00 | 00:00:00 | 00:00:00 | |
| OE5DRO-10 | 2026-09-05 23:21:07 | 48.03236 | 12.03575 | 127° | 110km/h | 9742m | 4.5m/s | -36.5°C | 17.1% | 295.9hPa | 2.7V | 00:00:00 | 00:00:00 | 00:00:00 | |
| DO3MHA-11 | 2026-09-05 23:21:06 | 48.03254 | 12.03540 | 128° | 110km/h | 9737m | 3.5m/s | -36.4°C | 17.1% | 296.1hPa | 2.7V | 00:00:00 | 00:51:39 | 00:00:00 | |
| DF3TZ-5 | 2026-09-05 23:21:03 | 48.03322 | 12.03408 | 126° | 106km/h | 9723m | 3.8m/s | -36.3°C | -1.0% | -1.0hPa | 2.7V | 00:00:00 | 00:00:00 | 00:00:00 | |
| DO3MHA-11 | 2026-09-05 23:20:56 | 48.03417 | 12.03207 | 123° | 110km/h | 9701m | 3.9m/s | -36.1°C | 16.6% | 297.6hPa | 2.7V | 00:00:00 | 00:51:29 | 00:00:00 | |
| PG1ADW-2 | 2026-09-05 23:20:55 | 48.03432 | 12.03171 | 124° | 110km/h | 9697m | 3.7m/s | -36.1°C | 16.6% | 297.7hPa | 2.7V | 00:00:00 | 00:00:00 | 00:00:00 | |
| OE5WHR-10 | 2026-09-05 23:20:52 | 48.03479 | 12.03069 | 125° | 110km/h | 9686m | 3.8m/s | -36.0°C | 16.5% | 298.3hPa | 2.7V | 00:00:00 | 00:51:25 | 00:00:00 | |
| DG1MFX-10 | 2026-09-05 23:20:46 | 48.03559 | 12.02905 | 128° | 111km/h | 9667m | 3.4m/s | -35.8°C | 14.4% | 299.1hPa | 2.7V | 00:00:00 | 00:00:00 | 00:00:00 | |
| DB0UT-7 | 2026-09-05 23:20:45 | 48.03594 | 12.02837 | 128° | 106km/h | 9659m | 3.2m/s | -35.7°C | 16.3% | 299.5hPa | 2.7V | 00:00:00 | 00:51:18 | 00:00:00 | |
| DO3MHA-11 | 2026-09-05 23:20:36 | 48.03737 | 12.02538 | 123° | 111km/h | 9628m | 4.1m/s | -35.5°C | 16.7% | 300.7hPa | 2.7V | 00:00:00 | 00:51:09 | 00:00:00 | |
| PG1ADW-2 | 2026-09-05 23:20:35 | 48.03752 | 12.02504 | 125° | 110km/h | 9624m | 2.9m/s | -35.5°C | 16.9% | 300.9hPa | 2.7V | 00:00:00 | 00:51:08 | 00:00:00 | |
| DF3TZ-5 | 2026-09-05 23:20:32 | 48.03818 | 12.02370 | 127° | 111km/h | 9611m | 4.2m/s | -35.5°C | -1.0% | -1.0hPa | 2.7V | 00:00:00 | 00:00:00 | 00:00:00 | |
| OE5WHR-10 | 2026-09-05 23:20:31 | 48.03818 | 12.02370 | 128° | 110km/h | 9611m | 4.2m/s | -35.4°C | 16.8% | 301.5hPa | 2.7V | 00:00:00 | 00:00:00 | 00:00:00 | |
| OE5DRO-10 | 2026-09-05 23:20:29 | 48.03852 | 12.02301 | 126° | 108km/h | 9604m | 2.4m/s | -35.4°C | 16.9% | 301.8hPa | 2.7V | 00:00:00 | 00:00:00 | 00:00:00 | |
| DO3MHA-11 | 2026-09-05 23:20:26 | 48.03901 | 12.02196 | 124° | 108km/h | 9595m | 3.0m/s | -35.3°C | 16.8% | 302.2hPa | 2.7V | 00:00:00 | 00:50:59 | 00:00:00 | |
| DG1MFX-10 | 2026-09-05 23:20:25 | 48.03901 | 12.02196 | 124° | 110km/h | 9595m | 3.1m/s | -35.3°C | 15.0% | 302.3hPa | 2.7V | 00:00:00 | 00:00:00 | 00:00:00 | |
| DL6DJ-15 | 2026-09-05 23:20:24 | 48.03931 | 12.02127 | 122° | 106km/h | 9588m | 3.8m/s | -35.3°C | 15.0% | 302.5hPa | 2.7V | 00:00:00 | 00:00:00 | 00:00:00 | |
| OE5DXL-15 | 2026-09-05 23:20:22 | 48.03961 | 12.02060 | 125° | 106km/h | 9581m | 3.7m/s | -35.2°C | 16.9% | 302.8hPa | 2.7V | 00:00:00 | 00:00:00 | 00:00:00 | |
| DO3MHA-11 | 2026-09-05 23:20:16 | 48.04056 | 12.01865 | 126° | 108km/h | 9560m | 3.0m/s | -35.0°C | 17.1% | 303.7hPa | 2.7V | 00:00:00 | 00:50:49 | 08:30:00 | |
| PG1ADW-2 | 2026-09-05 23:20:15 | 48.04072 | 12.01832 | 126° | 106km/h | 9557m | 3.3m/s | -35.0°C | 17.0% | 303.8hPa | 2.7V | 00:00:00 | 00:00:00 | 00:00:00 | |
| OE5WHR-10 | 2026-09-05 23:20:10 | 48.04153 | 12.01669 | 127° | 106km/h | 9540m | 3.6m/s | -34.8°C | 16.9% | 304.6hPa | 2.7V | 00:00:00 | 00:00:00 | 00:00:00 | |
| DO3MHA-11 | 2026-09-05 23:20:06 | 48.04217 | 12.01538 | 127° | 104km/h | 9527m | 2.9m/s | -34.7°C | 16.9% | 305.2hPa | 2.7V | 00:00:00 | 00:50:39 | 00:00:00 | |
| DG1MFX-10 | 2026-09-05 23:20:05 | 48.04217 | 12.01538 | 127° | 108km/h | 9527m | 3.0m/s | -34.7°C | 15.1% | 305.3hPa | 2.7V | 00:00:00 | 00:00:00 | 00:00:00 | |
| DF3TZ-5 | 2026-09-05 23:20:01 | 48.04295 | 12.01378 | 127° | 102km/h | 9509m | 3.3m/s | -34.6°C | -1.0% | -1.0hPa | 2.7V | 00:00:00 | 00:00:00 | 00:00:00 | |
| DL6DJ-15 | 2026-09-05 23:19:53 | 48.04426 | 12.01133 | 128° | 106km/h | 9479m | 3.4m/s | -34.3°C | 15.0% | 307.3hPa | 2.7V | 00:00:00 | 00:00:00 | 00:00:00 | |
| OE5DXL-15 | 2026-09-05 23:19:52 | 48.04443 | 12.01101 | 129° | 106km/h | 9476m | 3.2m/s | -34.2°C | 16.7% | 307.4hPa | 2.7V | 00:00:00 | 00:00:00 | 00:00:00 | |
| OE5DRO-10 | 2026-09-05 23:19:51 | 48.04459 | 12.01069 | 127° | 106km/h | 9472m | 4.2m/s | -34.2°C | 16.6% | 307.6hPa | 2.7V | 00:00:00 | 00:00:00 | 00:00:00 | |
| OE5WHR-10 | 2026-09-05 23:19:49 | 48.04490 | 12.01003 | 124° | 106km/h | 9465m | 3.5m/s | -34.1°C | 16.5% | 307.9hPa | 2.7V | 00:00:00 | 00:50:22 | 00:00:00 | |
| DG1MFX-10 | 2026-09-05 23:19:44 | 48.04551 | 12.00873 | 127° | 104km/h | 9451m | 3.0m/s | -34.1°C | 14.8% | 308.5hPa | 2.7V | 00:00:00 | 00:00:00 | 00:00:00 | |
| OE5FHM-15 | 2026-09-05 23:19:38 | 48.04669 | 12.00653 | 130° | 106km/h | 9426m | 4.2m/s | 0°C | 0% | 0hPa | 2.7V | 00:00:00 | 00:50:11 | 00:00:00 | |
| OE5MMP-10 | 2026-09-05 23:19:36 | 48.04703 | 12.00589 | 127° | 106km/h | 9419m | 4.1m/s | -33.7°C | 16.3% | 309.8hPa | 2.7V | 00:00:00 | 00:50:09 | 00:00:00 | |
| PG1ADW-2 | 2026-09-05 23:19:35 | 48.04718 | 12.00557 | 127° | 106km/h | 9415m | 3.0m/s | -33.7°C | 16.3% | 310.0hPa | 2.7V | 00:00:00 | 00:00:00 | 08:30:00 | |
| OE5DRO-10 | 2026-09-05 23:19:32 | 48.04765 | 12.00461 | 127° | 106km/h | 9404m | 3.8m/s | -33.6°C | 16.2% | 310.5hPa | 2.9V | 00:00:00 | 00:00:00 | 08:30:00 | |
| OE5MMP-10 | 2026-09-05 23:19:26 | 48.04864 | 12.00269 | 127° | 108km/h | 9384m | 3.7m/s | -33.5°C | 16.5% | 311.4hPa | 2.7V | 00:00:00 | 00:49:59 | 00:00:00 | |
| DG1MFX-10 | 2026-09-05 23:19:23 | 48.04897 | 12.00204 | 128° | 108km/h | 9378m | 2.5m/s | -33.5°C | 14.7% | 311.7hPa | 2.7V | 00:00:00 | 00:00:00 | 00:00:00 | |
| OE5DXL-15 | 2026-09-05 23:19:22 | 48.04931 | 12.00139 | 129° | 106km/h | 9371m | 3.5m/s | -33.3°C | 16.3% | 312.0hPa | 2.7V | 00:00:00 | 00:00:00 | 00:00:00 | |
| OE5MMP-10 | 2026-09-05 23:19:16 | 48.05030 | 11.99951 | 125° | 104km/h | 9350m | 3.5m/s | -33.2°C | 16.4% | 312.9hPa | 2.7V | 00:00:00 | 00:49:49 | 00:00:00 | |
| PG1ADW-2 | 2026-09-05 23:19:15 | 48.05045 | 11.99919 | 125° | 106km/h | 9346m | 4.0m/s | -33.1°C | 16.5% | 313.1hPa | 2.7V | 00:00:00 | 00:49:48 | 00:00:00 | |
| OE5DRO-10 | 2026-09-05 23:19:13 | 48.05073 | 11.99855 | 123° | 106km/h | 9340m | 3.6m/s | -33.1°C | 16.8% | 313.4hPa | 2.7V | 00:00:00 | 00:00:00 | 00:00:00 | |
| OE5MMP-10 | 2026-09-05 23:19:06 | 48.05178 | 11.99629 | 127° | 108km/h | 9317m | 3.2m/s | -32.9°C | 17.4% | 314.5hPa | 2.7V | 00:00:00 | 00:49:39 | 00:00:00 | |
| DG1MFX-10 | 2026-09-05 23:19:02 | 48.05227 | 11.99532 | 129° | 106km/h | 9306m | 2.9m/s | -32.9°C | 15.7% | 315.0hPa | 2.7V | 00:00:00 | 00:00:00 | 00:00:00 | |
| DL6DJ-15 | 2026-09-05 23:18:51 | 48.05421 | 11.99142 | 126° | 106km/h | 9262m | 2.9m/s | -32.5°C | 15.3% | 316.9hPa | 2.7V | 00:00:00 | 00:00:00 | 00:00:00 | |
| OE5MMP-10 | 2026-09-05 23:18:46 | 48.05501 | 11.98982 | 127° | 106km/h | 9245m | 3.1m/s | -32.4°C | 17.7% | 317.6hPa | 2.7V | 00:00:00 | 00:49:19 | 08:30:00 | |
| DG1MFX-10 | 2026-09-05 23:18:42 | 48.05549 | 11.98885 | 128° | 108km/h | 9235m | 3.3m/s | -32.4°C | 16.8% | 318.1hPa | 2.9V | 00:00:00 | 00:00:00 | 00:00:00 | |
| OE5MMP-10 | 2026-09-05 23:18:36 | 48.05659 | 11.98660 | 128° | 104km/h | 9210m | 3.4m/s | -32.2°C | 19.9% | 319.2hPa | 2.9V | 00:00:00 | 00:49:09 | 00:00:00 | |
| PG1ADW-2 | 2026-09-05 23:18:35 | 48.05675 | 11.98628 | 127° | 102km/h | 9207m | 2.4m/s | -32.2°C | 20.1% | 319.4hPa | 2.9V | 00:00:00 | 00:00:00 | 00:00:00 | |
| OE5WHR-10 | 2026-09-05 23:18:32 | 48.05735 | 11.98499 | 124° | 102km/h | 9194m | 3.2m/s | -32.1°C | 21.6% | 320.0hPa | 2.7V | 00:00:00 | 00:00:00 | 00:00:00 | |
| OE5MMP-10 | 2026-09-05 23:18:26 | 48.05811 | 11.98342 | 127° | 100km/h | 9177m | 3.5m/s | -32.0°C | 22.7% | 320.7hPa | 2.9V | 00:00:00 | 00:48:59 | 00:00:00 | |
| OE5DXL-15 | 2026-09-05 23:18:22 | 48.05869 | 11.98220 | 125° | 102km/h | 9161m | 4.2m/s | -32.0°C | 24.0% | 321.3hPa | 2.9V | 00:00:00 | 00:00:00 | 00:00:00 | |
| DG1MFX-10 | 2026-09-05 23:18:21 | 48.05869 | 11.98220 | 126° | 97km/h | 9161m | 4.3m/s | -32.0°C | 22.1% | 321.4hPa | 2.9V | 00:00:00 | 00:00:00 | 00:00:00 | |
| DL6DJ-15 | 2026-09-05 23:18:20 | 48.05897 | 11.98159 | 124° | 99km/h | 9154m | 3.4m/s | -32.0°C | 22.7% | 321.8hPa | 2.9V | 00:00:00 | 00:00:00 | 00:00:00 | |
| OE5MMP-10 | 2026-09-05 23:18:16 | 48.05953 | 11.98029 | 123° | 106km/h | 9141m | 3.5m/s | -31.9°C | 24.7% | 322.4hPa | 2.9V | 00:00:00 | 00:48:49 | 00:00:00 | |
| PG1ADW-2 | 2026-09-05 23:18:15 | 48.05967 | 11.97995 | 123° | 102km/h | 9138m | 2.8m/s | -31.8°C | 24.6% | 322.5hPa | 2.9V | 00:00:00 | 00:00:00 | 00:00:00 | |
| OE5WHR-10 | 2026-09-05 23:18:10 | 48.06040 | 11.97826 | 126° | 100km/h | 9120m | 3.5m/s | -31.7°C | 24.7% | 323.2hPa | 2.9V | 00:00:00 | 00:00:00 | 00:00:00 | |
| OE5MMP-10 | 2026-09-05 23:18:06 | 48.06100 | 11.97699 | 123° | 99km/h | 9107m | 3.3m/s | -31.6°C | 24.7% | 323.9hPa | 2.9V | 00:00:00 | 00:48:39 | 00:00:00 | |
| DG1MFX-10 | 2026-09-05 23:18:00 | 48.06169 | 11.97542 | 125° | 97km/h | 9090m | 4.0m/s | -31.5°C | 23.3% | 324.7hPa | 2.9V | 00:00:00 | 00:00:00 | 00:00:00 | |
| OE5MMP-10 | 2026-09-05 23:17:56 | 48.06240 | 11.97390 | 126° | 102km/h | 9073m | 3.2m/s | -31.3°C | 25.5% | 325.4hPa | 2.9V | 00:00:00 | 00:48:29 | 00:00:00 | |
| PG1ADW-2 | 2026-09-05 23:17:55 | 48.06254 | 11.97359 | 125° | 102km/h | 9069m | 4.0m/s | -31.3°C | 25.5% | 325.7hPa | 2.9V | 00:00:00 | 00:48:28 | 00:00:00 | |
| OE5DXL-15 | 2026-09-05 23:17:52 | 48.06298 | 11.97266 | 125° | 102km/h | 9059m | 3.4m/s | -31.2°C | 25.5% | 326.1hPa | 2.9V | 00:00:00 | 00:00:00 | 00:00:00 | |
| OE5WHR-10 | 2026-09-05 23:17:49 | 48.06341 | 11.97169 | 123° | 102km/h | 9048m | 3.5m/s | -31.1°C | 25.2% | 326.5hPa | 2.9V | 00:00:00 | 00:48:22 | 00:00:00 | |
| OE5MMP-10 | 2026-09-05 23:17:46 | 48.06383 | 11.97070 | 123° | 102km/h | 9037m | 4.1m/s | -31.0°C | 25.1% | 327.1hPa | 2.9V | 00:00:00 | 00:48:19 | 00:00:00 | |
| DB0UT-7 | 2026-09-05 23:17:44 | 48.06412 | 11.97005 | 125° | 102km/h | 9030m | 4.0m/s | -31.0°C | 25.1% | 327.4hPa | 2.9V | 00:00:00 | 00:00:00 | 08:30:00 | |
| DG1MFX-10 | 2026-09-05 23:17:39 | 48.06474 | 11.96884 | 129° | 102km/h | 9016m | 3.9m/s | -30.9°C | 23.2% | 328.1hPa | 2.9V | 00:00:00 | 00:00:00 | 00:00:00 | |
| OE5DRO-10 | 2026-09-05 23:17:38 | 48.06506 | 11.96822 | 127° | 102km/h | 9009m | 3.3m/s | -30.8°C | 25.1% | 328.4hPa | 2.9V | 00:00:00 | 00:00:00 | 00:00:00 | |
| OE5MMP-10 | 2026-09-05 23:17:36 | 48.06537 | 11.96759 | 126° | 102km/h | 9003m | 2.9m/s | -30.7°C | 24.7% | 328.6hPa | 2.9V | 00:00:00 | 00:48:09 | 00:00:00 | |
| PG1ADW-2 | 2026-09-05 23:17:35 | 48.06552 | 11.96728 | 125° | 100km/h | 8999m | 3.4m/s | -30.7°C | 24.1% | 328.9hPa | 2.9V | 00:00:00 | 00:00:00 | 00:00:00 | |
| OE5WHR-10 | 2026-09-05 23:17:28 | 48.06657 | 11.96504 | 127° | 100km/h | 8976m | 3.0m/s | -30.5°C | 22.2% | 329.9hPa | 2.9V | 00:00:00 | 00:00:00 | 08:30:00 | |
| OE5MMP-10 | 2026-09-05 23:17:26 | 48.06688 | 11.96445 | 129° | 100km/h | 8969m | 3.0m/s | -30.5°C | 22.2% | 330.3hPa | 2.7V | 00:00:00 | 00:47:59 | 00:00:00 | |
| DL6DJ-15 | 2026-09-05 23:17:22 | 48.06820 | 11.96169 | 125° | 99km/h | 8937m | 4.3m/s | -30.2°C | 19.4% | 331.8hPa | 2.7V | 00:00:00 | 00:00:00 | 00:00:00 | |
| PG1ADW-2 | 2026-09-05 23:17:21 | 48.06851 | 11.96109 | 128° | 102km/h | 8930m | 3.5m/s | -30.1°C | 21.1% | 332.1hPa | 2.7V | 00:00:00 | 00:00:00 | 00:00:00 | |
| DB0UT-7 | 2026-09-05 23:17:20 | 48.06866 | 11.96079 | 128° | 99km/h | 8926m | 3.7m/s | -30.1°C | 21.0% | 332.2hPa | 2.7V | 00:00:00 | 00:47:47 | 00:00:00 | |
| OE5MMP-10 | 2026-09-05 23:17:16 | 48.06989 | 11.95832 | 127° | 102km/h | 8897m | 2.9m/s | -29.8°C | 19.8% | 333.6hPa | 2.7V | 00:00:00 | 00:47:39 | 00:00:00 | |
| DL6DJ-15 | 2026-09-05 23:16:47 | 48.07297 | 11.95208 | 124° | 100km/h | 8823m | 3.6m/s | -29.5°C | 23.3% | 337.1hPa | 2.7V | 00:00:00 | 00:00:00 | 00:00:00 | |
| OE5MMP-10 | 2026-09-05 23:16:46 | 48.07297 | 11.95208 | 125° | 102km/h | 8823m | 3.6m/s | -29.5°C | 25.0% | 337.1hPa | 2.7V | 00:00:00 | 00:47:19 | 00:00:00 | |
| OE5WHR-10 | 2026-09-05 23:16:45 | 48.07312 | 11.95176 | 125° | 102km/h | 8819m | 4.5m/s | -29.5°C | 25.3% | 337.2hPa | 2.9V | 00:00:00 | 00:47:18 | 00:00:00 | |
| OE5DRO-10 | 2026-09-05 23:16:41 | 48.07370 | 11.95047 | 124° | 102km/h | 8804m | 2.5m/s | -29.4°C | 26.7% | 338.0hPa | 2.9V | 00:00:00 | 00:00:00 | 08:30:00 | |
| DG1MFX-10 | 2026-09-05 23:16:37 | 48.07414 | 11.94949 | 126° | 102km/h | 8793m | 3.2m/s | -29.4°C | 25.7% | 338.6hPa | 2.9V | 00:00:00 | 00:00:00 | 00:00:00 | |
| OE5MMP-10 | 2026-09-05 23:16:36 | 48.07443 | 11.94886 | 124° | 100km/h | 8786m | 3.8m/s | -29.3°C | 27.6% | 338.8hPa | 2.9V | 00:00:00 | 00:47:09 | 00:00:00 | |
| PG1ADW-2 | 2026-09-05 23:16:35 | 48.07457 | 11.94854 | 123° | 100km/h | 8782m | 3.0m/s | -29.3°C | 27.6% | 339.0hPa | 2.9V | 00:00:00 | 00:47:08 | 08:30:00 | |
| OE5MMP-10 | 2026-09-05 23:16:26 | 48.07582 | 11.94565 | 124° | 99km/h | 8751m | 4.0m/s | -29.1°C | 27.6% | 340.4hPa | 2.9V | 00:00:00 | 00:46:59 | 00:00:00 | |
| OE5WHR-10 | 2026-09-05 23:16:24 | 48.07610 | 11.94501 | 123° | 97km/h | 8743m | 3.8m/s | -29.0°C | 27.5% | 340.9hPa | 2.9V | 00:00:00 | 00:00:00 | 00:00:00 | |
| OE5DXL-15 | 2026-09-05 23:16:22 | 48.07638 | 11.94438 | 124° | 97km/h | 8735m | 3.0m/s | -28.9°C | 27.6% | 341.2hPa | 2.7V | 00:00:00 | 00:00:00 | 08:30:00 | |
| DL6DJ-15 | 2026-09-05 23:16:16 | 48.07733 | 11.94223 | 122° | 97km/h | 8709m | 2.9m/s | -28.8°C | 25.9% | 342.6hPa | 2.9V | 00:00:00 | 00:00:00 | 00:00:00 | |
| PG1ADW-2 | 2026-09-05 23:16:15 | 48.07733 | 11.94223 | 123° | 97km/h | 8709m | 2.8m/s | -28.7°C | 27.6% | 342.5hPa | 2.9V | 00:00:00 | 00:00:00 | 00:00:00 | |
| OE5MMP-10 | 2026-09-05 23:16:06 | 48.07849 | 11.93941 | 123° | 97km/h | 8677m | 4.1m/s | -28.5°C | 27.1% | 344.0hPa | 2.9V | 00:00:00 | 00:46:39 | 00:00:00 | |
| OE5WHR-10 | 2026-09-05 23:16:03 | 48.07887 | 11.93850 | 122° | 95km/h | 8665m | 4.0m/s | -28.4°C | 27.3% | 344.7hPa | 2.9V | 00:00:00 | 00:00:00 | 00:00:00 | |
| DL6DJ-15 | 2026-09-05 23:15:45 | 48.08122 | 11.93265 | 120° | 97km/h | 8593m | 3.1m/s | -28.0°C | 30.8% | 348.1hPa | 2.9V | 00:00:00 | 00:00:00 | 00:00:00 | |
| OE5DRO-10 | 2026-09-05 23:15:44 | 48.08121 | 11.93265 | 121° | 97km/h | 8594m | 3.1m/s | -28.0°C | 32.6% | 348.1hPa | 2.9V | 00:00:00 | 00:00:00 | 00:00:00 | |
| OE5WHR-10 | 2026-09-05 23:15:42 | 48.08147 | 11.93203 | 123° | 97km/h | 8586m | 3.3m/s | -27.9°C | 33.3% | 348.5hPa | 2.9V | 00:00:00 | 00:46:15 | 00:00:00 | |
| OE5MMP-10 | 2026-09-05 23:15:36 | 48.08226 | 11.93021 | 124° | 97km/h | 8565m | 3.5m/s | -27.8°C | 34.6% | 349.5hPa | 2.9V | 00:00:00 | 00:46:09 | 00:00:00 | |
| DG1MFX-10 | 2026-09-05 23:15:35 | 48.08226 | 11.93021 | 124° | 95km/h | 8565m | 3.6m/s | -27.9°C | 32.8% | 349.5hPa | 2.9V | 00:00:00 | 00:00:00 | 00:00:00 | |
| PG1ADW-2 | 2026-09-05 23:15:32 | 48.08273 | 11.92898 | 119° | 97km/h | 8550m | 3.9m/s | -27.7°C | 35.3% | 350.2hPa | 2.9V | 00:00:00 | 00:00:00 | 00:00:00 | |
| OE5MMP-10 | 2026-09-05 23:15:26 | 48.08349 | 11.92707 | 125° | 95km/h | 8528m | 3.9m/s | -27.5°C | 36.7% | 351.3hPa | 2.7V | 00:00:00 | 00:45:59 | 00:00:00 | |
| OE5DRO-10 | 2026-09-05 23:15:25 | 48.08362 | 11.92678 | 126° | 95km/h | 8524m | 3.3m/s | -27.5°C | 36.6% | 351.4hPa | 2.7V | 00:00:00 | 00:00:00 | 00:00:00 | |
| OE5DXL-15 | 2026-09-05 23:15:22 | 48.08404 | 11.92592 | 125° | 97km/h | 8513m | 3.1m/s | -27.4°C | 35.8% | 352.0hPa | 2.7V | 00:00:00 | 00:00:00 | 00:00:00 | |
| DO3MHA-11 | 2026-09-05 23:15:21 | 48.08418 | 11.92562 | 125° | 97km/h | 8509m | 4.0m/s | -27.4°C | 35.5% | 352.2hPa | 2.7V | 00:00:00 | 00:45:54 | 00:00:00 | |
| OE5MMP-10 | 2026-09-05 23:15:16 | 48.08484 | 11.92408 | 121° | 97km/h | 8491m | 2.9m/s | -27.2°C | 35.5% | 353.1hPa | 2.7V | 00:00:00 | 00:45:49 | 00:00:00 | |
| DG1MFX-10 | 2026-09-05 23:15:15 | 48.08496 | 11.92376 | 122° | 99km/h | 8487m | 4.2m/s | -27.2°C | 33.7% | 353.4hPa | 2.9V | 00:00:00 | 00:00:00 | 00:00:00 | |
| DL6DJ-15 | 2026-09-05 23:15:13 | 48.08521 | 11.92313 | 121° | 93km/h | 8480m | 3.7m/s | -27.2°C | 33.6% | 353.7hPa | 2.9V | 00:00:00 | 00:00:00 | 00:00:00 | |
| PG1ADW-2 | 2026-09-05 23:15:12 | 48.08534 | 11.92283 | 123° | 95km/h | 8476m | 4.4m/s | -27.1°C | 35.2% | 353.8hPa | 2.9V | 00:00:00 | 00:45:45 | 00:00:00 | |
| OE5DRO-10 | 2026-09-05 23:15:06 | 48.08614 | 11.92103 | 124° | 97km/h | 8452m | 3.5m/s | -26.9°C | 36.0% | 355.0hPa | 2.9V | 00:00:00 | 00:00:00 | 00:00:00 | |
| OE5MMP-10 | 2026-09-05 23:15:04 | 48.08641 | 11.92041 | 123° | 97km/h | 8444m | 4.3m/s | -26.8°C | 36.0% | 355.3hPa | 2.9V | 00:00:00 | 00:45:37 | 00:00:00 | |
| OE5MMP-10 | 2026-09-05 23:14:54 | 48.08773 | 11.91736 | 122° | 99km/h | 8404m | 5.0m/s | -26.5°C | 37.1% | 357.3hPa | 2.9V | 00:00:00 | 00:45:27 | 00:00:00 | |
| OE5DXL-15 | 2026-09-05 23:14:52 | 48.08798 | 11.91675 | 121° | 99km/h | 8396m | 4.2m/s | -26.5°C | 37.4% | 357.8hPa | 2.9V | 00:00:00 | 00:00:00 | 00:00:00 | |
| OE5WHR-10 | 2026-09-05 23:14:51 | 48.08810 | 11.91643 | 121° | 99km/h | 8392m | 4.5m/s | -26.5°C | 37.7% | 358.0hPa | 2.9V | 00:00:00 | 00:00:00 | 00:00:00 | |
| OE5DRO-10 | 2026-09-05 23:14:47 | 48.08862 | 11.91514 | 122° | 99km/h | 8375m | 4.1m/s | -26.3°C | 37.9% | 358.8hPa | 2.9V | 00:00:00 | 00:00:00 | 00:00:00 | |
| OE5MMP-10 | 2026-09-05 23:14:44 | 48.08902 | 11.91419 | 123° | 97km/h | 8363m | 4.8m/s | -26.2°C | 37.1% | 359.3hPa | 2.9V | 00:00:00 | 00:45:17 | 00:00:00 | |
| DL6DJ-15 | 2026-09-05 23:14:42 | 48.08928 | 11.91358 | 123° | 95km/h | 8355m | 4.7m/s | -26.2°C | 35.2% | 359.8hPa | 2.9V | 00:00:00 | 00:00:00 | 00:00:00 | |
| OE5MMP-10 | 2026-09-05 23:14:34 | 48.09041 | 11.91114 | 124° | 97km/h | 8323m | 4.3m/s | -25.9°C | 35.6% | 361.4hPa | 2.9V | 00:00:00 | 00:45:07 | 00:00:00 | |
| OE5WHR-10 | 2026-09-05 23:14:30 | 48.09094 | 11.90987 | 124° | 99km/h | 8307m | 4.3m/s | -25.7°C | 34.8% | 362.1hPa | 2.9V | 00:00:00 | 00:45:03 | 00:00:00 | |
| OE5DRO-10 | 2026-09-05 23:14:28 | 48.09121 | 11.90925 | 124° | 99km/h | 8299m | 4.5m/s | -25.6°C | 34.3% | 362.6hPa | 2.9V | 00:00:00 | 00:00:00 | 00:00:00 | |
| PG1ADW-2 | 2026-09-05 23:14:25 | 48.09162 | 11.90836 | 124° | 99km/h | 8287m | 3.4m/s | -25.5°C | 33.9% | 363.2hPa | 2.9V | 00:00:00 | 00:00:00 | 00:00:00 | |
| OE5MMP-10 | 2026-09-05 23:14:23 | 48.09189 | 11.90774 | 121° | 99km/h | 8279m | 3.8m/s | -25.5°C | 33.3% | 363.6hPa | 2.7V | 00:00:00 | 00:44:56 | 00:00:00 | |
| OE5DXL-15 | 2026-09-05 23:14:22 | 48.09202 | 11.90742 | 121° | 99km/h | 8275m | 3.4m/s | -25.4°C | 32.9% | 363.7hPa | 2.7V | 00:00:00 | 00:00:00 | 00:00:00 | |
| DB0UT-7 | 2026-09-05 23:14:19 | 48.09242 | 11.90648 | 124° | 99km/h | 8264m | 3.9m/s | -25.4°C | 33.4% | 364.3hPa | 2.7V | 00:00:00 | 00:00:00 | 00:00:00 | |
| OE5MMP-10 | 2026-09-05 23:14:13 | 48.09327 | 11.90465 | 125° | 97km/h | 8240m | 2.7m/s | -25.2°C | 36.7% | 365.5hPa | 2.7V | 00:00:00 | 00:44:46 | 08:30:00 | |
| DL6DJ-15 | 2026-09-05 23:14:11 | 48.09356 | 11.90403 | 125° | 99km/h | 8232m | 4.9m/s | -25.2°C | 36.8% | 365.9hPa | 2.9V | 00:00:00 | 00:00:00 | 00:00:00 | |
| OE5WHR-10 | 2026-09-05 23:14:09 | 48.09385 | 11.90342 | 126° | 97km/h | 8224m | 4.4m/s | -25.1°C | 40.3% | 366.3hPa | 2.9V | 00:00:00 | 00:00:00 | 08:30:00 | |
| PG1ADW-2 | 2026-09-05 23:14:05 | 48.09439 | 11.90219 | 124° | 99km/h | 8208m | 3.9m/s | -25.0°C | 40.5% | 367.1hPa | 2.9V | 00:00:00 | 00:00:00 | 00:00:00 | |
| OE5MMP-10 | 2026-09-05 23:14:01 | 48.09494 | 11.90097 | 124° | 99km/h | 8193m | 4.1m/s | -25.0°C | 44.0% | 368.0hPa | 2.9V | 00:00:00 | 00:44:34 | 00:00:00 | |
| DG1MFX-10 | 2026-09-05 23:13:53 | 48.09595 | 11.89889 | 128° | 97km/h | 8166m | 4.2m/s | -24.8°C | 43.0% | 369.4hPa | 2.9V | 00:00:00 | 00:00:00 | 00:00:00 | |
| OE5DXL-15 | 2026-09-05 23:13:52 | 48.09625 | 11.89830 | 127° | 97km/h | 8158m | 4.0m/s | -24.7°C | 44.3% | 369.7hPa | 2.9V | 00:00:00 | 00:00:00 | 00:00:00 | |
| OE5MMP-10 | 2026-09-05 23:13:51 | 48.09640 | 11.89800 | 127° | 99km/h | 8154m | 3.5m/s | -24.7°C | 44.1% | 369.9hPa | 2.9V | 00:00:00 | 00:44:24 | 00:00:00 | |
| OE5DRO-10 | 2026-09-05 23:13:50 | 48.09655 | 11.89769 | 126° | 99km/h | 8150m | 4.5m/s | -24.6°C | 43.6% | 370.0hPa | 2.9V | 00:00:00 | 00:00:00 | 08:30:00 | |
| DB0UT-7 | 2026-09-05 23:13:49 | 48.09670 | 11.89739 | 126° | 100km/h | 8146m | 3.8m/s | -24.6°C | 43.6% | 370.3hPa | 2.7V | 00:00:00 | 00:44:22 | 00:00:00 | |
| OE5WHR-10 | 2026-09-05 23:13:48 | 48.09684 | 11.89709 | 125° | 97km/h | 8142m | 3.7m/s | -24.6°C | 43.2% | 370.4hPa | 2.9V | 00:00:00 | 00:00:00 | 00:00:00 | |
| PG1ADW-2 | 2026-09-05 23:13:45 | 48.09727 | 11.89616 | 126° | 97km/h | 8131m | 4.5m/s | 0°C | 0% | 0hPa | 2.9V | 00:00:00 | 00:44:18 | 00:00:00 | |
| OE5MMP-10 | 2026-09-05 23:13:41 | 48.09787 | 11.89497 | 127° | 97km/h | 8114m | 3.7m/s | -24.3°C | 41.8% | 371.9hPa | 2.9V | 00:00:00 | 00:44:14 | 00:00:00 | |
| DL6DJ-15 | 2026-09-05 23:13:40 | 48.09802 | 11.89469 | 127° | 93km/h | 8110m | 4.6m/s | -24.3°C | 39.8% | 372.2hPa | 2.9V | 00:00:00 | 00:00:00 | 00:00:00 | |
| DG1MFX-10 | 2026-09-05 23:13:32 | 48.09904 | 11.89263 | 128° | 99km/h | 8083m | 3.9m/s | -24.1°C | 39.0% | 373.5hPa | 2.9V | 00:00:00 | 00:00:00 | 00:00:00 | |
| OE5MMP-10 | 2026-09-05 23:13:31 | 48.09933 | 11.89203 | 127° | 95km/h | 8075m | 3.0m/s | -23.9°C | 40.5% | 373.9hPa | 2.9V | 00:00:00 | 00:44:04 | 00:00:00 | |
| OE5WHR-10 | 2026-09-05 23:13:26 | 48.10007 | 11.89056 | 127° | 97km/h | 8056m | 3.1m/s | -23.8°C | 40.0% | 374.9hPa | 2.9V | 00:00:00 | 00:43:59 | 00:00:00 | |
| PG1ADW-2 | 2026-09-05 23:13:25 | 48.10022 | 11.89028 | 128° | 97km/h | 8052m | 4.7m/s | 0°C | 0% | 0hPa | 2.9V | 00:00:00 | 00:00:00 | 08:30:00 | |
| OE5DXL-15 | 2026-09-05 23:13:22 | 48.10064 | 11.88945 | 127° | 99km/h | 8040m | 3.5m/s | -23.6°C | 39.2% | 375.7hPa | 2.9V | 00:00:00 | 00:00:00 | 00:00:00 | |
| OE5MMP-10 | 2026-09-05 23:13:21 | 48.10078 | 11.88917 | 128° | 100km/h | 8037m | 3.8m/s | -23.6°C | 39.1% | 375.9hPa | 2.9V | 00:00:00 | 00:43:54 | 00:00:00 | |
| DF3TZ-5 | 2026-09-05 23:13:18 | 48.10188 | 11.88708 | 128° | 100km/h | 8009m | 3.5m/s | -23.4°C | -1.0% | -1.0hPa | 2.9V | 00:00:00 | 00:00:00 | 00:00:00 | |
| OE5DRO-10 | 2026-09-05 23:13:12 | 48.10219 | 11.88649 | 128° | 99km/h | 8000m | 3.7m/s | -23.3°C | 40.2% | 377.8hPa | 2.9V | 00:00:00 | 00:00:00 | 00:00:00 | |
| OE5MMP-10 | 2026-09-05 23:13:11 | 48.10234 | 11.88619 | 130° | 97km/h | 7997m | 4.0m/s | -23.3°C | 40.1% | 377.9hPa | 2.9V | 00:00:00 | 00:43:44 | 00:00:00 | |
| DL6DJ-15 | 2026-09-05 23:13:09 | 48.10266 | 11.88562 | 128° | 97km/h | 7989m | 3.2m/s | -23.3°C | 38.5% | 378.4hPa | 2.9V | 00:00:00 | 00:00:00 | 00:00:00 | |
| PG1ADW-2 | 2026-09-05 23:13:05 | 48.10322 | 11.88445 | 125° | 99km/h | 7974m | 4.3m/s | 0°C | 0% | 0hPa | 2.9V | 00:00:00 | 00:00:00 | 00:00:00 | |
| DF3TZ-5 | 2026-09-05 23:12:47 | 48.10641 | 11.87813 | 126° | 100km/h | 7893m | 4.1m/s | -22.4°C | -1.0% | -1.0hPa | 2.9V | 00:00:00 | 00:00:00 | 00:00:00 | |
| PG1ADW-2 | 2026-09-05 23:12:44 | 48.10641 | 11.87813 | 127° | 99km/h | 7893m | 4.0m/s | 0°C | 0% | 0hPa | 2.9V | 00:00:00 | 00:00:00 | 00:00:00 | |
| DO3MHA-11 | 2026-09-05 23:12:41 | 48.10688 | 11.87722 | 128° | 100km/h | 7882m | 3.8m/s | -22.2°C | 38.8% | 383.9hPa | 2.9V | 00:00:00 | 00:43:14 | 00:00:00 | |
| OE5WHR-10 | 2026-09-05 23:12:38 | 48.10735 | 11.87632 | 128° | 99km/h | 7870m | 3.3m/s | -22.1°C | 38.8% | 384.5hPa | 2.9V | 00:00:00 | 00:00:00 | 00:00:00 | |
| OE5DRO-10 | 2026-09-05 23:12:34 | 48.10793 | 11.87511 | 127° | 99km/h | 7855m | 4.4m/s | -22.0°C | 39.1% | 385.3hPa | 2.9V | 00:00:00 | 00:00:00 | 00:00:00 | |
| DO3MHA-11 | 2026-09-05 23:12:31 | 48.10839 | 11.87421 | 127° | 100km/h | 7843m | 4.1m/s | -21.9°C | 39.7% | 385.9hPa | 2.9V | 00:00:00 | 00:43:04 | 00:00:00 | |
| NBG1-10 | 2026-09-05 23:12:28 | 48.10884 | 11.87327 | 126° | 93km/h | 7831m | 3.5m/s | 0°C | 0% | 0hPa | 2.9V | 00:00:00 | 00:43:01 | 00:00:00 | |
| OE5MMP-10 | 2026-09-05 23:12:25 | 48.10929 | 11.87232 | 126° | 97km/h | 7821m | 3.9m/s | -21.7°C | 39.5% | 387.1hPa | 2.9V | 00:00:00 | 00:42:58 | 00:00:00 | |
| OE5DXL-15 | 2026-09-05 23:12:22 | 48.10973 | 11.87142 | 127° | 102km/h | 7808m | 4.4m/s | -21.6°C | 39.2% | 387.7hPa | 2.9V | 00:00:00 | 00:00:00 | 00:00:00 | |
| DO3MHA-11 | 2026-09-05 23:12:21 | 48.10987 | 11.87114 | 127° | 99km/h | 7804m | 3.6m/s | -21.5°C | 39.1% | 387.9hPa | 2.9V | 00:00:00 | 00:42:54 | 08:30:00 | |
| OE5WHR-10 | 2026-09-05 23:12:17 | 48.11046 | 11.87000 | 127° | 104km/h | 7790m | 4.3m/s | -21.4°C | 38.5% | 388.7hPa | 2.9V | 00:00:00 | 00:42:50 | 00:00:00 | |
| OE5MMP-10 | 2026-09-05 23:12:15 | 48.11076 | 11.86938 | 126° | 102km/h | 7782m | 3.8m/s | -21.3°C | 38.1% | 389.1hPa | 2.9V | 00:00:00 | 00:42:48 | 00:00:00 | |
| PG1ADW-2 | 2026-09-05 23:12:14 | 48.11092 | 11.86905 | 126° | 102km/h | 7778m | 4.2m/s | 0°C | 0% | 0hPa | 2.9V | 00:00:00 | 00:42:47 | 00:00:00 | |
| DO3MHA-11 | 2026-09-05 23:12:11 | 48.11138 | 11.86808 | 127° | 104km/h | 7767m | 2.8m/s | -21.2°C | 37.9% | 390.0hPa | 2.9V | 00:00:00 | 00:42:44 | 00:00:00 | |
| DL6DJ-15 | 2026-09-05 23:12:07 | 48.11202 | 11.86684 | 127° | 100km/h | 7753m | 4.7m/s | -21.1°C | 36.2% | 390.7hPa | 2.9V | 00:00:00 | 00:00:00 | 00:00:00 | |
| DB0UT-7 | 2026-09-05 23:12:06 | 48.11217 | 11.86653 | 126° | 104km/h | 7748m | 3.8m/s | 0°C | 0% | 0hPa | 2.9V | 00:00:00 | 00:42:39 | 00:00:00 | |
| OE5MMP-10 | 2026-09-05 23:12:03 | 48.11262 | 11.86565 | 130° | 104km/h | 7737m | 4.3m/s | -20.9°C | 36.7% | 391.6hPa | 2.9V | 00:00:00 | 00:42:36 | 00:00:00 | |
| DF3TZ-5 | 2026-09-05 23:11:45 | 48.11574 | 11.85981 | 127° | 104km/h | 7660m | 4.4m/s | 0°C | -1.0% | -1.0hPa | 2.7V | 00:00:00 | 00:00:00 | 00:00:00 | |
| OE5MMP-10 | 2026-09-05 23:11:41 | 48.11625 | 11.85886 | 129° | 106km/h | 7648m | 4.4m/s | -20.1°C | 34.1% | 396.2hPa | 2.7V | 00:00:00 | 00:42:14 | 00:00:00 | |
| OE5DRO-10 | 2026-09-05 23:11:37 | 48.11691 | 11.85760 | 130° | 106km/h | 7632m | 4.3m/s | -20.0°C | 34.0% | 397.1hPa | 2.7V | 00:00:00 | 00:00:00 | 00:00:00 | |
| DL6DJ-15 | 2026-09-05 23:11:36 | 48.11708 | 11.85729 | 129° | 104km/h | 7628m | 3.6m/s | -20.0°C | 32.9% | 397.5hPa | 2.7V | 00:00:00 | 00:00:00 | 00:00:00 | |
| OE5WHR-10 | 2026-09-05 23:11:35 | 48.11724 | 11.85699 | 129° | 106km/h | 7624m | 4.2m/s | -19.9°C | 34.2% | 397.6hPa | 2.7V | 00:00:00 | 00:00:00 | 00:00:00 | |
| OE5MMP-10 | 2026-09-05 23:11:31 | 48.11790 | 11.85575 | 129° | 104km/h | 7608m | 4.5m/s | -19.7°C | 33.8% | 398.4hPa | 2.7V | 00:00:00 | 00:42:04 | 00:00:00 | |
| DO3MHA-11 | 2026-09-05 23:11:30 | 48.11806 | 11.85544 | 128° | 106km/h | 7604m | 3.8m/s | -19.7°C | 33.8% | 398.7hPa | 2.7V | 00:00:00 | 00:42:03 | 00:00:00 | |
| OE5DXL-15 | 2026-09-05 23:11:22 | 48.11938 | 11.85296 | 129° | 106km/h | 7572m | 3.8m/s | -19.4°C | 33.3% | 400.3hPa | 2.7V | 00:00:00 | 00:00:00 | 00:00:00 | |
| OE5MMP-10 | 2026-09-05 23:11:21 | 48.11955 | 11.85265 | 129° | 106km/h | 7569m | 4.0m/s | -19.3°C | 33.3% | 400.6hPa | 2.7V | 00:00:00 | 00:41:54 | 00:00:00 | |
| DO3MHA-11 | 2026-09-05 23:11:20 | 48.11971 | 11.85234 | 129° | 106km/h | 7565m | 4.0m/s | -19.3°C | 33.2% | 400.8hPa | 2.7V | 00:00:00 | 00:41:53 | 00:00:00 | |
| OE5DRO-10 | 2026-09-05 23:11:18 | 48.12005 | 11.85170 | 129° | 106km/h | 7557m | 3.4m/s | -19.2°C | 33.3% | 401.2hPa | 2.9V | 00:00:00 | 00:00:00 | 00:00:00 | |
| PG1ADW-2 | 2026-09-05 23:11:16 | 48.12038 | 11.85106 | 127° | 106km/h | 7549m | 3.7m/s | 0°C | 0% | 0hPa | 2.9V | 00:00:00 | 00:00:00 | 00:00:00 | |
| OE5WHR-10 | 2026-09-05 23:11:14 | 48.12070 | 11.85041 | 128° | 106km/h | 7542m | 4.4m/s | -19.1°C | 33.1% | 402.1hPa | 2.9V | 00:00:00 | 00:41:47 | 00:00:00 | |
| DF3TZ-5 | 2026-09-05 23:11:13 | 48.12103 | 11.84978 | 128° | 104km/h | 7534m | 4.9m/s | 0°C | -1.0% | -1.0hPa | 2.9V | 00:00:00 | 00:00:00 | 00:00:00 | |
| OE5MMP-10 | 2026-09-05 23:11:11 | 48.12119 | 11.84947 | 129° | 106km/h | 7530m | 3.7m/s | -19.0°C | 33.6% | 402.7hPa | 2.9V | 00:00:00 | 00:41:44 | 00:00:00 | |
| DG1MFX-10 | 2026-09-05 23:11:10 | 48.12119 | 11.84947 | 129° | 106km/h | 7530m | 3.7m/s | -19.0°C | 32.5% | 402.8hPa | 2.9V | 00:00:00 | 00:00:00 | 00:00:00 | |
| DO3MHA-11 | 2026-09-05 23:11:08 | 48.12170 | 11.84852 | 129° | 106km/h | 7517m | 3.5m/s | -18.9°C | 33.6% | 403.3hPa | 2.9V | 00:00:00 | 00:41:41 | 00:00:00 | |
| DL6DJ-15 | 2026-09-05 23:11:05 | 48.12236 | 11.84725 | 127° | 106km/h | 7502m | 4.5m/s | -18.8°C | 32.5% | 404.2hPa | 2.9V | 00:00:00 | 00:00:00 | 00:00:00 | |
| DB0ND-19 | 2026-09-05 23:10:46 | 48.12524 | 11.84167 | 129° | 100km/h | 7430m | 4.1m/s | 0°C | -1.0% | -1.0hPa | 2.9V | 00:00:00 | 00:00:00 | 00:00:00 | |
| OE5MMP-10 | 2026-09-05 23:10:41 | 48.12607 | 11.84012 | 129° | 106km/h | 7410m | 4.4m/s | -18.0°C | 33.8% | 409.2hPa | 2.9V | 00:00:00 | 00:41:14 | 00:00:00 | |
| OE5DRO-10 | 2026-09-05 23:10:40 | 48.12624 | 11.83980 | 128° | 106km/h | 7406m | 4.6m/s | -18.0°C | 33.9% | 409.3hPa | 2.9V | 00:00:00 | 00:00:00 | 00:00:00 | |
| DO3MHA-11 | 2026-09-05 23:10:37 | 48.12672 | 11.83885 | 129° | 106km/h | 7395m | 4.1m/s | -17.9°C | 34.4% | 409.9hPa | 2.9V | 00:00:00 | 00:41:10 | 00:00:00 | |
| DL6DJ-15 | 2026-09-05 23:10:34 | 48.12738 | 11.83761 | 128° | 106km/h | 7378m | 3.9m/s | -17.8°C | 33.0% | 410.9hPa | 2.9V | 00:00:00 | 00:00:00 | 00:00:00 | |
| OE5WHR-10 | 2026-09-05 23:10:32 | 48.12755 | 11.83730 | 130° | 106km/h | 7374m | 4.8m/s | -17.7°C | 33.8% | 411.1hPa | 2.9V | 00:00:00 | 00:00:00 | 00:00:00 | |
| DG1MFX-10 | 2026-09-05 23:10:28 | 48.12807 | 11.83635 | 130° | 106km/h | 7361m | 3.1m/s | -17.7°C | 32.8% | 411.8hPa | 2.9V | 00:00:00 | 00:00:00 | 00:00:00 | |
| DO3MHA-11 | 2026-09-05 23:10:27 | 48.12841 | 11.83574 | 131° | 108km/h | 7353m | 4.2m/s | -17.6°C | 33.5% | 412.2hPa | 2.9V | 00:00:00 | 00:41:00 | 00:00:00 | |
| DB0UT-7 | 2026-09-05 23:10:25 | 48.12875 | 11.83513 | 130° | 108km/h | 7345m | 3.7m/s | 0°C | 0% | 0hPa | 2.9V | 00:00:00 | 00:40:58 | 00:00:00 | |
| OE5MMP-10 | 2026-09-05 23:10:24 | 48.12892 | 11.83482 | 130° | 108km/h | 7340m | 4.8m/s | -17.4°C | 33.1% | 412.9hPa | 2.9V | 00:00:00 | 00:40:57 | 00:00:00 | |
| OE5DXL-15 | 2026-09-05 23:10:22 | 48.12928 | 11.83418 | 131° | 106km/h | 7332m | 3.9m/s | -17.4°C | 32.9% | 413.3hPa | 2.9V | 00:00:00 | 00:00:00 | 00:00:00 | |
| OE5DRO-10 | 2026-09-05 23:10:21 | 48.12946 | 11.83386 | 130° | 106km/h | 7328m | 4.4m/s | -17.3°C | 32.7% | 413.6hPa | 2.9V | 00:00:00 | 00:00:00 | 00:00:00 | |
| DO3MHA-11 | 2026-09-05 23:10:17 | 48.13016 | 11.83261 | 132° | 106km/h | 7313m | 3.6m/s | -17.2°C | 33.4% | 414.5hPa | 2.9V | 00:00:00 | 00:40:50 | 08:30:00 | |
| DB0ND-19 | 2026-09-05 23:10:15 | 48.13068 | 11.83170 | 130° | 104km/h | 7300m | 4.2m/s | 0°C | -1.0% | -1.0hPa | 2.7V | 00:00:00 | 00:00:00 | 00:00:00 | |
| OE5MMP-10 | 2026-09-05 23:10:14 | 48.13068 | 11.83170 | 131° | 104km/h | 7301m | 4.1m/s | -17.2°C | 33.9% | 415.0hPa | 2.7V | 00:00:00 | 00:40:47 | 00:00:00 | |
| PG1ADW-2 | 2026-09-05 23:10:09 | 48.13155 | 11.83020 | 132° | 99km/h | 7278m | 4.3m/s | 0°C | 0% | 0hPa | 2.7V | 00:00:00 | 00:40:42 | 00:00:00 | |
| DG1MFX-10 | 2026-09-05 23:10:07 | 48.13173 | 11.82990 | 133° | 104km/h | 7274m | 3.8m/s | -17.0°C | 32.3% | 416.7hPa | 2.7V | 00:00:00 | 00:00:00 | 00:00:00 | |
| OE5MMP-10 | 2026-09-05 23:10:04 | 48.13243 | 11.82874 | 131° | 106km/h | 7258m | 3.9m/s | -16.8°C | 32.5% | 417.5hPa | 2.7V | 00:00:00 | 00:40:37 | 00:00:00 | |
| DL6DJ-15 | 2026-09-05 23:10:03 | 48.13277 | 11.82815 | 131° | 102km/h | 7250m | 4.9m/s | -16.8°C | 31.0% | 418.0hPa | 2.7V | 00:00:00 | 00:00:00 | 00:00:00 | |
| OE5DRO-10 | 2026-09-05 23:10:02 | 48.13277 | 11.82815 | 132° | 104km/h | 7250m | 4.8m/s | -16.7°C | 32.0% | 418.0hPa | 2.7V | 00:00:00 | 00:00:00 | 00:00:00 | |
| DO3MHA-11 | 2026-09-05 23:09:54 | 48.13422 | 11.82577 | 133° | 104km/h | 7217m | 4.0m/s | -16.4°C | 31.2% | 419.9hPa | 2.9V | 00:00:00 | 00:40:27 | 00:00:00 | |
| OE5DXL-15 | 2026-09-05 23:09:52 | 48.13457 | 11.82519 | 132° | 102km/h | 7209m | 3.8m/s | -16.4°C | 30.9% | 420.2hPa | 2.9V | 00:00:00 | 00:00:00 | 00:00:00 | |
| OE5WHR-10 | 2026-09-05 23:09:49 | 48.13508 | 11.82432 | 132° | 100km/h | 7198m | 4.5m/s | -16.3°C | 30.6% | 420.9hPa | 2.9V | 00:00:00 | 00:40:22 | 00:00:00 | |
| DG1MFX-10 | 2026-09-05 23:09:47 | 48.13526 | 11.82402 | 132° | 104km/h | 7194m | 3.5m/s | -16.3°C | 29.7% | 421.1hPa | 2.9V | 00:00:00 | 00:00:00 | 00:00:00 | |
| DO3MHA-11 | 2026-09-05 23:09:44 | 48.13594 | 11.82284 | 131° | 106km/h | 7177m | 4.4m/s | -16.1°C | 30.8% | 422.0hPa | 2.9V | 00:00:00 | 00:40:17 | 00:00:00 | |
| OE5DRO-10 | 2026-09-05 23:09:43 | 48.13611 | 11.82253 | 131° | 102km/h | 7173m | 3.9m/s | -16.1°C | 30.8% | 422.1hPa | 2.9V | 00:00:00 | 00:00:00 | 00:00:00 | |
| DO3MHA-11 | 2026-09-05 23:09:34 | 48.13772 | 11.81981 | 132° | 99km/h | 7136m | 3.4m/s | -15.9°C | 31.6% | 424.3hPa | 2.9V | 00:00:00 | 00:40:07 | 00:00:00 | |
| DL6DJ-15 | 2026-09-05 23:09:32 | 48.13823 | 11.81895 | 130° | 99km/h | 7124m | 4.8m/s | -15.8°C | 30.5% | 425.0hPa | 2.9V | 00:00:00 | 00:00:00 | 00:00:00 | |
| DG1MFX-10 | 2026-09-05 23:09:27 | 48.13872 | 11.81810 | 132° | 97km/h | 7111m | 5.4m/s | -15.7°C | 30.3% | 425.8hPa | 2.9V | 00:00:00 | 00:00:00 | 00:00:00 | |
| DB0UT-7 | 2026-09-05 23:09:26 | 48.13905 | 11.81757 | 135° | 97km/h | 7102m | 4.4m/s | 0°C | 0% | 0hPa | 2.9V | 00:00:00 | 00:00:00 | 00:00:00 | |
| DO3MHA-11 | 2026-09-05 23:09:24 | 48.13939 | 11.81705 | 135° | 97km/h | 7093m | 3.4m/s | -15.5°C | 31.3% | 426.8hPa | 2.9V | 00:00:00 | 00:39:57 | 00:00:00 | |
| OE5MMP-10 | 2026-09-05 23:09:22 | 48.13974 | 11.81653 | 136° | 97km/h | 7084m | 4.1m/s | 0°C | 0% | 0hPa | 2.9V | 00:00:00 | 00:39:55 | 00:00:00 | |
| OE5WHR-10 | 2026-09-05 23:09:20 | 48.14008 | 11.81601 | 134° | 97km/h | 7076m | 3.0m/s | -15.4°C | 31.4% | 427.7hPa | 2.9V | 00:00:00 | 00:00:00 | 00:00:00 | |
| DO3MHA-11 | 2026-09-05 23:09:14 | 48.14109 | 11.81442 | 133° | 97km/h | 7052m | 4.2m/s | -15.3°C | 31.4% | 429.0hPa | 2.9V | 00:00:00 | 00:39:47 | 00:00:00 | |
| OE5MMP-10 | 2026-09-05 23:09:12 | 48.14142 | 11.81388 | 133° | 99km/h | 7044m | 3.5m/s | 0°C | 0% | 0hPa | 2.9V | 00:00:00 | 00:39:45 | 00:00:00 | |
| DG1MFX-10 | 2026-09-05 23:09:06 | 48.14230 | 11.81254 | 138° | 99km/h | 7024m | 3.5m/s | -15.1°C | 30.3% | 430.8hPa | 2.9V | 00:00:00 | 00:00:00 | 00:00:00 | |
| OE5DRO-10 | 2026-09-05 23:09:05 | 48.14266 | 11.81204 | 137° | 97km/h | 7016m | 4.1m/s | -15.0°C | 31.5% | 431.2hPa | 2.9V | 00:00:00 | 00:00:00 | 00:00:00 | |
| DO3MHA-11 | 2026-09-05 23:09:02 | 48.14318 | 11.81128 | 136° | 97km/h | 7005m | 4.4m/s | -14.9°C | 31.9% | 431.8hPa | 2.7V | 00:00:00 | 00:39:35 | 00:00:00 | |
| DL6DJ-15 | 2026-09-05 23:09:00 | 48.14352 | 11.81075 | 133° | 97km/h | 6997m | 4.6m/s | -14.9°C | 31.3% | 432.1hPa | 2.9V | 00:00:00 | 00:00:00 | 00:00:00 | |
| OE5WHR-10 | 2026-09-05 23:08:59 | 48.14369 | 11.81049 | 134° | 95km/h | 6993m | 3.3m/s | -14.8°C | 32.4% | 432.5hPa | 2.9V | 00:00:00 | 00:00:00 | 00:00:00 | |
| DB0UT-7 | 2026-09-05 23:08:56 | 48.14422 | 11.80970 | 137° | 95km/h | 6981m | 3.5m/s | 0°C | 0% | 0hPa | 2.9V | 00:00:00 | 00:39:29 | 00:00:00 | |
| OE5DXL-15 | 2026-09-05 23:08:52 | 48.14494 | 11.80871 | 137° | 91km/h | 6965m | 4.8m/s | -14.6°C | 31.9% | 434.1hPa | 2.9V | 00:00:00 | 00:00:00 | 00:00:00 | |
| OE5DRO-10 | 2026-09-05 23:08:46 | 48.14595 | 11.80719 | 135° | 91km/h | 6940m | 3.0m/s | -14.5°C | 31.9% | 435.4hPa | 2.9V | 00:00:00 | 00:00:00 | 00:00:00 | |
| DO3MHA-11 | 2026-09-05 23:08:42 | 48.14664 | 11.80620 | 137° | 89km/h | 6924m | 4.1m/s | -14.4°C | 31.8% | 436.3hPa | 2.9V | 00:00:00 | 00:39:15 | 00:00:00 | |
| DL6DJ-15 | 2026-09-05 23:08:29 | 48.14879 | 11.80312 | 139° | 93km/h | 6871m | 3.8m/s | -14.0°C | 30.7% | 439.5hPa | 2.9V | 00:00:00 | 00:00:00 | 00:00:00 | |
| OE5DRO-10 | 2026-09-05 23:08:27 | 48.14914 | 11.80266 | 139° | 91km/h | 6863m | 4.3m/s | -13.9°C | 31.4% | 439.9hPa | 2.9V | 00:00:00 | 00:00:00 | 00:00:00 | |
| DG1MFX-10 | 2026-09-05 23:08:25 | 48.14931 | 11.80243 | 139° | 91km/h | 6860m | 3.7m/s | -13.9°C | 30.6% | 440.2hPa | 2.9V | 00:00:00 | 00:00:00 | 00:00:00 | |
| OE5DXL-15 | 2026-09-05 23:08:22 | 48.14999 | 11.80150 | 138° | 93km/h | 6842m | 3.6m/s | -13.7°C | 31.3% | 441.1hPa | 2.9V | 00:00:00 | 00:00:00 | 00:00:00 | |
| OE5WHR-10 | 2026-09-05 23:08:16 | 48.15102 | 11.80010 | 140° | 93km/h | 6818m | 3.3m/s | -13.5°C | 30.8% | 442.5hPa | 2.9V | 00:00:00 | 00:00:00 | 00:00:00 | |
| OE5DRO-10 | 2026-09-05 23:08:08 | 48.15245 | 11.79832 | 140° | 93km/h | 6787m | 5.1m/s | -13.2°C | 30.1% | 444.4hPa | 2.9V | 00:00:00 | 00:00:00 | 08:30:00 | |
| DG1MFX-10 | 2026-09-05 23:08:05 | 48.15300 | 11.79766 | 142° | 93km/h | 6774m | 4.6m/s | -13.2°C | 29.4% | 445.2hPa | 2.9V | 00:00:00 | 00:00:00 | 00:00:00 | |
| OE5MMP-10 | 2026-09-05 23:08:03 | 48.15336 | 11.79722 | 141° | 95km/h | 6767m | 3.4m/s | 0°C | 0% | 0hPa | 2.9V | 00:00:00 | 00:38:36 | 00:00:00 | |
| DL6DJ-15 | 2026-09-05 23:07:58 | 48.15429 | 11.79609 | 143° | 93km/h | 6747m | 4.9m/s | -13.0°C | 29.1% | 446.8hPa | 2.9V | 00:00:00 | 00:00:00 | 00:00:00 | |
| OE5WHR-10 | 2026-09-05 23:07:55 | 48.15486 | 11.79546 | 143° | 89km/h | 6734m | 4.1m/s | -12.9°C | 30.8% | 447.4hPa | 2.9V | 00:00:00 | 00:00:00 | 00:00:00 | |
| OE5MMP-10 | 2026-09-05 23:07:53 | 48.15523 | 11.79502 | 141° | 91km/h | 6726m | 4.2m/s | 0°C | 0% | 0hPa | 2.9V | 00:00:00 | 00:38:26 | 00:00:00 | |
| OE5DXL-15 | 2026-09-05 23:07:52 | 48.15541 | 11.79479 | 140° | 89km/h | 6722m | 4.4m/s | -12.8°C | 31.2% | 448.2hPa | 2.9V | 00:00:00 | 00:00:00 | 00:00:00 | |
| OE5DRO-10 | 2026-09-05 23:07:49 | 48.15598 | 11.79412 | 144° | 89km/h | 6709m | 5.4m/s | -12.7°C | 31.0% | 448.9hPa | 2.9V | 00:00:00 | 00:00:00 | 00:00:00 | |
| DG1MFX-10 | 2026-09-05 23:07:44 | 48.15674 | 11.79321 | 141° | 93km/h | 6692m | 3.9m/s | -12.6°C | 30.2% | 450.0hPa | 2.9V | 00:00:00 | 00:00:00 | 00:00:00 | |
| OE5MMP-10 | 2026-09-05 23:07:37 | 48.15811 | 11.79155 | 143° | 88km/h | 6658m | 4.4m/s | 0°C | 0% | 0hPa | 2.9V | 00:00:00 | 00:38:10 | 00:00:00 | |
| OE5DRO-10 | 2026-09-05 23:07:30 | 48.15933 | 11.79015 | 141° | 88km/h | 6627m | 3.6m/s | -12.1°C | 31.7% | 453.9hPa | 2.9V | 00:00:00 | 00:00:00 | 00:00:00 | |
| DL6DJ-15 | 2026-09-05 23:07:27 | 48.15986 | 11.78948 | 138° | 91km/h | 6615m | 3.5m/s | -12.1°C | 31.0% | 454.5hPa | 2.9V | 00:00:00 | 00:00:00 | 00:00:00 | |
| OE3JTB-15 | 2026-09-05 23:07:25 | 48.16020 | 11.78903 | 138° | 84km/h | 6608m | 3.8m/s | 0°C | 0% | 0hPa | 2.9V | 00:00:00 | 00:37:58 | 00:00:00 | |
| DG1MFX-10 | 2026-09-05 23:07:24 | 48.16036 | 11.78881 | 140° | 84km/h | 6604m | 3.8m/s | -12.0°C | 31.6% | 455.2hPa | 2.9V | 00:00:00 | 00:00:00 | 00:00:00 | |
| PG1ADW-2 | 2026-09-05 23:07:23 | 48.16052 | 11.78861 | 141° | 80km/h | 6600m | 3.4m/s | 0°C | 0% | 0hPa | 2.9V | 00:00:00 | 00:00:00 | 00:00:00 | |
| OE5DXL-15 | 2026-09-05 23:07:22 | 48.16069 | 11.78841 | 142° | 84km/h | 6597m | 4.1m/s | -12.0°C | 32.6% | 455.5hPa | 2.9V | 00:00:00 | 00:00:00 | 08:30:00 | |
| OE5MMP-10 | 2026-09-05 23:07:12 | 48.16239 | 11.78630 | 142° | 82km/h | 6558m | 4.2m/s | 0°C | 0% | 0hPa | 2.9V | 00:00:00 | 00:37:45 | 00:00:00 | |
| OE5DRO-10 | 2026-09-05 23:07:11 | 48.16256 | 11.78611 | 143° | 82km/h | 6554m | 3.5m/s | -11.8°C | 33.3% | 458.2hPa | 2.9V | 00:00:00 | 00:00:00 | 00:00:00 | |
| DO3MHA-11 | 2026-09-05 23:07:09 | 48.16289 | 11.78573 | 142° | 82km/h | 6546m | 4.5m/s | -11.7°C | 33.4% | 458.7hPa | 2.7V | 00:00:00 | 00:37:42 | 08:30:00 | |
| DF3TZ-5 | 2026-09-05 23:07:05 | 48.16355 | 11.78493 | 138° | 78km/h | 6529m | 4.4m/s | 0°C | -1.0% | -1.0hPa | 2.9V | 00:00:00 | 00:00:00 | 00:00:00 | |
| DG1MFX-10 | 2026-09-05 23:07:03 | 48.16369 | 11.78472 | 138° | 78km/h | 6525m | 4.3m/s | -11.6°C | 32.8% | 459.8hPa | 2.9V | 00:00:00 | 00:00:00 | 00:00:00 | |
| DO3MHA-11 | 2026-09-05 23:06:59 | 48.16446 | 11.78369 | 138° | 84km/h | 6507m | 3.4m/s | -11.5°C | 34.5% | 460.9hPa | 2.9V | 00:00:00 | 00:37:32 | 00:00:00 | |
| OE5MMP-10 | 2026-09-05 23:06:57 | 48.16477 | 11.78327 | 140° | 77km/h | 6499m | 3.0m/s | 0°C | 0% | 0hPa | 2.9V | 00:00:00 | 00:37:30 | 00:00:00 | |
| OE3JTB-15 | 2026-09-05 23:06:56 | 48.16493 | 11.78306 | 140° | 80km/h | 6496m | 4.2m/s | 0°C | 0% | 0hPa | 2.9V | 00:00:00 | 00:00:00 | 00:00:00 | |
| OE5WHR-10 | 2026-09-05 23:06:55 | 48.16510 | 11.78286 | 142° | 82km/h | 6491m | 4.0m/s | -11.5°C | 35.2% | 461.9hPa | 2.9V | 00:00:00 | 00:37:28 | 00:00:00 | |
| OE5DXL-15 | 2026-09-05 23:06:52 | 48.16560 | 11.78224 | 140° | 80km/h | 6480m | 2.9m/s | -11.4°C | 35.2% | 462.6hPa | 2.9V | 00:00:00 | 00:00:00 | 00:00:00 | |
| DO3MHA-11 | 2026-09-05 23:06:49 | 48.16607 | 11.78164 | 139° | 80km/h | 6468m | 4.0m/s | -11.4°C | 34.6% | 463.3hPa | 2.9V | 00:00:00 | 00:37:22 | 00:00:00 | |
| DG1MFX-10 | 2026-09-05 23:06:43 | 48.16679 | 11.78060 | 137° | 80km/h | 6449m | 3.9m/s | -11.2°C | 33.2% | 464.4hPa | 2.9V | 00:00:00 | 00:00:00 | 00:00:00 | |
| DO3MHA-11 | 2026-09-05 23:06:39 | 48.16754 | 11.77952 | 137° | 78km/h | 6431m | 2.7m/s | -11.0°C | 33.5% | 465.6hPa | 2.9V | 00:00:00 | 00:37:12 | 00:00:00 | |
| OE5WHR-10 | 2026-09-05 23:06:34 | 48.16825 | 11.77845 | 135° | 78km/h | 6412m | 2.8m/s | -10.8°C | 33.0% | 466.7hPa | 2.9V | 00:00:00 | 00:00:00 | 08:30:00 | |
| OE5DRO-10 | 2026-09-05 23:06:33 | 48.16839 | 11.77824 | 135° | 80km/h | 6409m | 3.7m/s | -10.8°C | 32.8% | 466.8hPa | 2.9V | 00:00:00 | 00:00:00 | 00:00:00 | |
| DO3MHA-11 | 2026-09-05 23:06:29 | 48.16893 | 11.77736 | 135° | 80km/h | 6394m | 4.0m/s | -10.7°C | 32.5% | 467.8hPa | 2.9V | 00:00:00 | 00:37:02 | 00:00:00 | |
| OE3JTB-15 | 2026-09-05 23:06:27 | 48.16921 | 11.77693 | 135° | 80km/h | 6387m | 3.6m/s | 0°C | 0% | 0hPa | 2.9V | 00:00:00 | 00:00:00 | 00:00:00 | |
| DL6DJ-15 | 2026-09-05 23:06:25 | 48.16950 | 11.77649 | 133° | 80km/h | 6379m | 3.8m/s | -10.6°C | 31.6% | 468.7hPa | 2.9V | 00:00:00 | 00:00:00 | 00:00:00 | |
| OE5DXL-15 | 2026-09-05 23:06:22 | 48.16993 | 11.77584 | 135° | 80km/h | 6367m | 3.3m/s | -10.5°C | 32.1% | 469.4hPa | 2.9V | 00:00:00 | 00:00:00 | 00:00:00 | |
| DO3MHA-11 | 2026-09-05 23:06:19 | 48.17034 | 11.77518 | 133° | 80km/h | 6356m | 4.0m/s | -10.4°C | 31.7% | 470.0hPa | 2.9V | 00:00:00 | 00:36:52 | 00:00:00 | |
| OE5DRO-10 | 2026-09-05 23:06:14 | 48.17101 | 11.77404 | 131° | 80km/h | 6337m | 4.4m/s | -10.4°C | 31.9% | 471.2hPa | 2.9V | 00:00:00 | 00:00:00 | 00:00:00 | |
| DO3MHA-11 | 2026-09-05 23:06:09 | 48.17166 | 11.77291 | 131° | 80km/h | 6320m | 3.8m/s | -10.3°C | 32.1% | 472.3hPa | 2.9V | 00:00:00 | 00:36:42 | 00:00:00 | |
| OE5WHR-10 | 2026-09-05 23:06:07 | 48.17193 | 11.77247 | 134° | 80km/h | 6313m | 3.5m/s | -10.2°C | 32.0% | 472.6hPa | 2.9V | 00:00:00 | 00:00:00 | 00:00:00 | |
| DG1MFX-10 | 2026-09-05 23:06:01 | 48.17260 | 11.77134 | 132° | 82km/h | 6294m | 4.0m/s | -10.1°C | 31.0% | 473.9hPa | 2.9V | 00:00:00 | 00:00:00 | 00:00:00 | |
| DL6DJ-15 | 2026-09-05 23:05:54 | 48.17367 | 11.76954 | 132° | 78km/h | 6267m | 3.3m/s | -9.9°C | 30.7% | 475.7hPa | 2.9V | 00:00:00 | 00:00:00 | 00:00:00 | |
| OE5DXL-15 | 2026-09-05 23:05:52 | 48.17394 | 11.76910 | 133° | 80km/h | 6261m | 2.5m/s | -9.8°C | 31.5% | 475.9hPa | 2.9V | 00:00:00 | 00:00:00 | 00:00:00 | |
| DO3MHA-11 | 2026-09-05 23:05:49 | 48.17434 | 11.76843 | 131° | 80km/h | 6250m | 3.5m/s | -9.8°C | 32.4% | 476.5hPa | 2.9V | 00:00:00 | 00:36:22 | 00:00:00 | |
| OE5WHR-10 | 2026-09-05 23:05:46 | 48.17472 | 11.76772 | 128° | 80km/h | 6240m | 3.5m/s | -9.8°C | 33.8% | 477.2hPa | 2.9V | 00:00:00 | 00:36:19 | 00:00:00 | |
| DG1MFX-10 | 2026-09-05 23:05:40 | 48.17538 | 11.76654 | 134° | 82km/h | 6223m | 3.4m/s | -9.8°C | 34.2% | 478.3hPa | 2.9V | 00:00:00 | 00:00:00 | 00:00:00 | |
| DO3MHA-11 | 2026-09-05 23:05:39 | 48.17566 | 11.76610 | 136° | 80km/h | 6217m | 3.3m/s | -9.8°C | 35.0% | 478.7hPa | 2.9V | 00:00:00 | 00:36:12 | 08:30:00 | |
| OE5DRO-10 | 2026-09-05 23:05:36 | 48.17608 | 11.76544 | 131° | 80km/h | 6207m | 3.1m/s | -9.8°C | 34.9% | 479.3hPa | 2.9V | 00:00:00 | 00:00:00 | 00:00:00 | |
| DO3MHA-11 | 2026-09-05 23:05:29 | 48.17696 | 11.76379 | 131° | 80km/h | 6185m | 3.5m/s | -9.7°C | 34.0% | 480.7hPa | 2.9V | 00:00:00 | 00:36:02 | 00:00:00 | |
| OE5WHR-10 | 2026-09-05 23:05:25 | 48.17748 | 11.76287 | 131° | 80km/h | 6170m | 2.8m/s | -9.8°C | 34.5% | 481.5hPa | 2.9V | 00:00:00 | 00:00:00 | 00:00:00 | |
| DL6DJ-15 | 2026-09-05 23:05:23 | 48.17775 | 11.76242 | 130° | 78km/h | 6163m | 3.5m/s | -9.8°C | 33.8% | 482.1hPa | 2.7V | 00:00:00 | 00:00:00 | 00:00:00 | |
| OE5DXL-15 | 2026-09-05 23:05:22 | 48.17788 | 11.76219 | 132° | 80km/h | 6160m | 3.8m/s | -9.8°C | 34.3% | 482.2hPa | 2.7V | 00:00:00 | 00:00:00 | 00:00:00 | |
| DO3MHA-11 | 2026-09-05 23:05:19 | 48.17829 | 11.76151 | 131° | 78km/h | 6150m | 3.7m/s | -9.9°C | 35.6% | 482.8hPa | 2.7V | 00:00:00 | 00:35:52 | 00:00:00 | |
| OE5DRO-10 | 2026-09-05 23:05:17 | 48.17854 | 11.76104 | 129° | 80km/h | 6143m | 3.4m/s | -9.9°C | 35.9% | 483.2hPa | 2.7V | 00:00:00 | 00:00:00 | 08:30:00 | |
| DO3MHA-11 | 2026-09-05 23:05:09 | 48.17956 | 11.75918 | 131° | 82km/h | 6114m | 3.9m/s | -10.0°C | 36.3% | 485.0hPa | 2.9V | 00:00:00 | 00:35:42 | 00:00:00 | |
| OE5WHR-10 | 2026-09-05 23:05:04 | 48.18024 | 11.75797 | 130° | 78km/h | 6097m | 3.4m/s | 0°C | 0% | 0hPa | 2.9V | 00:00:00 | 00:00:00 | 00:00:00 | |
| DO3MHA-11 | 2026-09-05 23:04:59 | 48.18082 | 11.75676 | 125° | 80km/h | 6079m | 3.9m/s | -9.7°C | 35.8% | 487.3hPa | 2.9V | 00:00:00 | 00:35:32 | 00:00:00 | |
| OE5DRO-10 | 2026-09-05 23:04:58 | 48.18093 | 11.75651 | 125° | 80km/h | 6075m | 2.9m/s | -9.7°C | 35.8% | 487.5hPa | 2.9V | 00:00:00 | 00:00:00 | 00:00:00 | |
| OE5DXL-15 | 2026-09-05 23:04:52 | 48.18164 | 11.75502 | 126° | 80km/h | 6056m | 4.2m/s | -9.6°C | 35.7% | 488.7hPa | 2.9V | 00:00:00 | 00:00:00 | 00:00:00 | |
| DO3MHA-11 | 2026-09-05 23:04:49 | 48.18199 | 11.75427 | 125° | 78km/h | 6045m | 4.3m/s | -9.5°C | 35.9% | 489.4hPa | 2.9V | 00:00:00 | 00:35:22 | 00:00:00 | |
| DO3MHA-11 | 2026-09-05 23:04:39 | 48.18306 | 11.75175 | 124° | 80km/h | 6013m | 3.9m/s | -9.4°C | 36.8% | 491.5hPa | 2.9V | 00:00:00 | 00:35:12 | 00:00:00 | |
| DG1MFX-10 | 2026-09-05 23:04:38 | 48.18306 | 11.75175 | 125° | 78km/h | 6013m | 3.9m/s | -9.4°C | 36.2% | 491.6hPa | 2.9V | 00:00:00 | 00:00:00 | 00:00:00 | |
| DO3MHA-11 | 2026-09-05 23:04:29 | 48.18416 | 11.74916 | 122° | 80km/h | 5980m | 4.1m/s | -9.4°C | 33.7% | 493.6hPa | 2.9V | 00:00:00 | 00:35:02 | 00:00:00 | |
| OE5WHR-10 | 2026-09-05 23:04:27 | 48.18438 | 11.74864 | 124° | 80km/h | 5972m | 4.5m/s | 0°C | 0% | 0hPa | 2.9V | 00:00:00 | 00:35:00 | 00:00:00 | |
| OE5DXL-15 | 2026-09-05 23:04:22 | 48.18495 | 11.74736 | 121° | 80km/h | 5955m | 4.1m/s | -9.2°C | 31.5% | 495.2hPa | 2.9V | 00:00:00 | 00:00:00 | 00:00:00 | |
| DL6DJ-15 | 2026-09-05 23:04:21 | 48.18515 | 11.74683 | 120° | 80km/h | 5947m | 3.9m/s | -9.2°C | 30.6% | 495.8hPa | 2.9V | 00:00:00 | 00:00:00 | 00:00:00 | |
| OE5DRO-10 | 2026-09-05 23:04:20 | 48.18515 | 11.74683 | 121° | 80km/h | 5947m | 3.9m/s | -9.2°C | 31.2% | 495.8hPa | 2.9V | 00:00:00 | 00:00:00 | 00:00:00 | |
| DO3MHA-11 | 2026-09-05 23:04:19 | 48.18525 | 11.74656 | 121° | 80km/h | 5944m | 2.8m/s | -9.1°C | 31.0% | 495.9hPa | 2.9V | 00:00:00 | 00:34:52 | 00:00:00 | |
| DG1MFX-10 | 2026-09-05 23:04:17 | 48.18536 | 11.74630 | 123° | 82km/h | 5941m | 3.4m/s | -9.2°C | 30.0% | 496.1hPa | 2.9V | 00:00:00 | 00:00:00 | 00:00:00 | |
| DO3MHA-11 | 2026-09-05 23:04:09 | 48.18627 | 11.74392 | 121° | 80km/h | 5913m | 3.2m/s | -9.0°C | 22.7% | 498.0hPa | 2.9V | 00:00:00 | 00:34:42 | 08:30:00 | |
| DF3TZ-5 | 2026-09-05 23:03:59 | 48.18746 | 11.74072 | 119° | 78km/h | 5869m | 3.1m/s | 0°C | -1.0% | -1.0hPa | 2.9V | 00:00:00 | 00:00:00 | 00:00:00 | |
| DL6DJ-15 | 2026-09-05 23:03:50 | 48.18817 | 11.73859 | 114° | 80km/h | 5842m | 3.4m/s | -8.7°C | 8.3% | 502.4hPa | 2.9V | 00:00:00 | 00:00:00 | 00:00:00 | |
| DO3MHA-11 | 2026-09-05 23:03:49 | 48.18817 | 11.73859 | 115° | 78km/h | 5842m | 3.3m/s | -8.6°C | 8.6% | 502.4hPa | 2.9V | 00:00:00 | 00:34:22 | 00:00:00 | |
| OE5WHR-10 | 2026-09-05 23:03:44 | 48.18858 | 11.73722 | 116° | 71km/h | 5824m | 3.4m/s | 0°C | 0% | 0hPa | 2.9V | 00:00:00 | 00:00:00 | 00:00:00 | |
| OE3JTB-15 | 2026-09-05 23:03:42 | 48.18875 | 11.73669 | 116° | 68km/h | 5817m | 3.5m/s | 0°C | 0% | 0hPa | 2.9V | 00:00:00 | 00:00:00 | 00:00:00 | |
| DO3MHA-11 | 2026-09-05 23:03:39 | 48.18902 | 11.73593 | 118° | 75km/h | 5805m | 4.4m/s | -8.4°C | 5.5% | 504.9hPa | 2.9V | 00:00:00 | 00:34:12 | 00:00:00 | |
| DG1MFX-10 | 2026-09-05 23:03:37 | 48.18919 | 11.73541 | 115° | 75km/h | 5798m | 3.0m/s | -8.5°C | 5.1% | 505.4hPa | 2.7V | 00:00:00 | 00:00:00 | 00:00:00 | |
| DO3MHA-11 | 2026-09-05 23:03:29 | 48.18977 | 11.73336 | 113° | 73km/h | 5769m | 2.7m/s | -8.4°C | 3.7% | 507.3hPa | 2.7V | 00:00:00 | 00:34:02 | 00:00:00 | |
| OE5DRO-10 | 2026-09-05 23:03:23 | 48.19027 | 11.73186 | 119° | 71km/h | 5747m | 3.4m/s | -8.2°C | 3.7% | 508.7hPa | 2.7V | 00:00:00 | 00:00:00 | 00:00:00 | |
| OE5DXL-15 | 2026-09-05 23:03:22 | 48.19035 | 11.73162 | 118° | 71km/h | 5743m | 4.8m/s | -8.2°C | 3.8% | 509.0hPa | 2.9V | 00:00:00 | 00:00:00 | 00:00:00 | |
| DL6DJ-15 | 2026-09-05 23:03:19 | 48.19066 | 11.73067 | 115° | 69km/h | 5727m | 3.0m/s | -8.2°C | 3.6% | 510.1hPa | 2.9V | 00:00:00 | 00:00:00 | 00:00:00 | |
| DG1MFX-10 | 2026-09-05 23:03:17 | 48.19074 | 11.73043 | 117° | 71km/h | 5724m | 3.9m/s | -8.2°C | 3.5% | 510.2hPa | 2.9V | 00:00:00 | 00:00:00 | 00:00:00 | |
| DO3MHA-11 | 2026-09-05 23:03:09 | 48.19140 | 11.72847 | 118° | 71km/h | 5696m | 4.3m/s | -8.0°C | 3.6% | 512.0hPa | 2.9V | 00:00:00 | 00:33:42 | 00:00:00 | |
| OE5DRO-10 | 2026-09-05 23:03:04 | 48.19181 | 11.72729 | 116° | 71km/h | 5677m | 4.6m/s | -7.9°C | 3.5% | 513.3hPa | 2.9V | 00:00:00 | 00:00:00 | 00:00:00 | |
| DL6DJ-15 | 2026-09-05 23:02:48 | 48.19317 | 11.72321 | 117° | 68km/h | 5618m | 4.8m/s | -7.6°C | 4.4% | 517.3hPa | 2.9V | 00:00:00 | 00:00:00 | 00:00:00 | |
| OE5DRO-10 | 2026-09-05 23:02:45 | 48.19333 | 11.72274 | 117° | 69km/h | 5610m | 3.3m/s | -7.5°C | 4.7% | 517.8hPa | 2.9V | 00:00:00 | 00:00:00 | 00:00:00 | |
| DO3MHA-11 | 2026-09-05 23:02:39 | 48.19383 | 11.72127 | 117° | 68km/h | 5587m | 4.2m/s | -7.4°C | 4.8% | 519.3hPa | 2.9V | 00:00:00 | 00:33:12 | 08:30:00 | |
| DG1MFX-10 | 2026-09-05 23:02:36 | 48.19407 | 11.72056 | 118° | 68km/h | 5576m | 3.2m/s | -7.3°C | 4.7% | 520.1hPa | 2.9V | 00:00:00 | 00:00:00 | 00:00:00 | |
| OE5WHR-10 | 2026-09-05 23:02:32 | 48.19442 | 11.71966 | 123° | 68km/h | 5561m | 5.0m/s | 0°C | 0% | 0hPa | 2.9V | 00:00:00 | 00:33:05 | 00:00:00 | |
| DO3MHA-11 | 2026-09-05 23:02:29 | 48.19468 | 11.71904 | 123° | 66km/h | 5549m | 2.9m/s | -7.1°C | 5.0% | 521.8hPa | 2.9V | 00:00:00 | 00:33:02 | 00:00:00 | |
| OE5DRO-10 | 2026-09-05 23:02:26 | 48.19492 | 11.71841 | 116° | 68km/h | 5539m | 4.6m/s | -7.1°C | 4.9% | 522.6hPa | 2.9V | 00:00:00 | 00:00:00 | 08:30:00 | |
| OE3JTB-15 | 2026-09-05 23:02:24 | 48.19505 | 11.71799 | 117° | 64km/h | 5530m | 3.8m/s | 0°C | 0% | 0hPa | 2.9V | 00:00:00 | 00:32:57 | 00:00:00 | |
| OE5DXL-15 | 2026-09-05 23:02:22 | 48.19519 | 11.71756 | 115° | 69km/h | 5524m | 4.5m/s | -7.0°C | 4.8% | 523.5hPa | 2.9V | 00:00:00 | 00:00:00 | 00:00:00 | |
| DO3MHA-11 | 2026-09-05 23:02:19 | 48.19545 | 11.71684 | 122° | 68km/h | 5513m | 4.4m/s | -7.0°C | 4.7% | 524.2hPa | 2.9V | 00:00:00 | 00:32:52 | 00:00:00 | |
| DL6DJ-15 | 2026-09-05 23:02:17 | 48.19577 | 11.71616 | 127° | 69km/h | 5501m | 4.4m/s | -7.0°C | 4.8% | 525.1hPa | 2.9V | 00:00:00 | 00:00:00 | 00:00:00 | |
| DG1MFX-10 | 2026-09-05 23:02:14 | 48.19587 | 11.71595 | 126° | 66km/h | 5497m | 3.8m/s | -7.0°C | 4.9% | 525.4hPa | 2.9V | 00:00:00 | 00:00:00 | 00:00:00 | |
| DO3MHA-11 | 2026-09-05 23:02:09 | 48.19640 | 11.71472 | 126° | 69km/h | 5468m | 3.6m/s | -6.8°C | 5.3% | 527.3hPa | 2.9V | 00:00:00 | 00:32:42 | 00:00:00 | |
| OE5DRO-10 | 2026-09-05 23:02:07 | 48.19659 | 11.71428 | 122° | 68km/h | 5458m | 5.7m/s | -6.7°C | 5.4% | 528.0hPa | 2.9V | 00:00:00 | 00:00:00 | 00:00:00 | |
| DL6DJ-15 | 2026-09-05 23:01:45 | 48.19867 | 11.70950 | 124° | 68km/h | 5335m | 5.4m/s | -6.3°C | 4.5% | 536.4hPa | 2.9V | 00:00:00 | 00:00:00 | 00:00:00 | |
| OE5WHR-10 | 2026-09-05 23:01:39 | 48.19923 | 11.70815 | 124° | 68km/h | 5308m | 4.5m/s | 0°C | 0% | 0hPa | 2.9V | 00:00:00 | 00:00:00 | 00:00:00 | |
| DG1MFX-10 | 2026-09-05 23:01:34 | 48.19964 | 11.70721 | 127° | 71km/h | 5293m | 4.0m/s | -6.0°C | 4.3% | 539.4hPa | 2.9V | 00:00:00 | 00:00:00 | 00:00:00 | |
| DO3MHA-11 | 2026-09-05 23:01:29 | 48.20022 | 11.70612 | 124° | 68km/h | 5265m | 5.7m/s | -5.9°C | 4.5% | 541.1hPa | 2.9V | 00:00:00 | 00:32:02 | 00:00:00 | |
| OE5DXL-15 | 2026-09-05 23:01:22 | 48.20090 | 11.70466 | 120° | 66km/h | 5234m | 3.8m/s | -5.7°C | 4.5% | 543.5hPa | 2.9V | 00:00:00 | 00:00:00 | 00:00:00 | |
| DO3MHA-11 | 2026-09-05 23:01:19 | 48.20116 | 11.70399 | 124° | 66km/h | 5219m | 3.9m/s | -5.6°C | 4.4% | 544.4hPa | 2.7V | 00:00:00 | 00:31:52 | 00:00:00 | |
| DL6DJ-15 | 2026-09-05 23:01:14 | 48.20164 | 11.70300 | 123° | 66km/h | 5196m | 3.7m/s | -5.5°C | 3.8% | 546.1hPa | 2.7V | 00:00:00 | 00:00:00 | 00:00:00 | |
| DG1MFX-10 | 2026-09-05 23:01:13 | 48.20164 | 11.70300 | 125° | 66km/h | 5196m | 3.7m/s | -5.5°C | 3.8% | 546.1hPa | 2.7V | 00:00:00 | 00:00:00 | 00:00:00 | |
| OE5DRO-10 | 2026-09-05 23:01:10 | 48.20201 | 11.70216 | 126° | 66km/h | 5175m | 4.8m/s | -5.4°C | 3.8% | 547.4hPa | 2.7V | 00:00:00 | 00:00:00 | 00:00:00 | |
| DO3MHA-11 | 2026-09-05 23:01:09 | 48.20211 | 11.70195 | 127° | 68km/h | 5170m | 3.9m/s | -5.4°C | 4.0% | 547.7hPa | 2.7V | 00:00:00 | 00:31:42 | 08:30:00 | |
| OE5DXL-15 | 2026-09-05 23:00:52 | 48.20381 | 11.69852 | 130° | 64km/h | 5106m | 3.6m/s | -5.1°C | 3.8% | 552.3hPa | 2.9V | 00:00:00 | 00:00:00 | 00:00:00 | |
| OE5DRO-10 | 2026-09-05 23:00:51 | 48.20391 | 11.69833 | 129° | 66km/h | 5103m | 2.7m/s | -5.1°C | 3.8% | 552.5hPa | 2.9V | 00:00:00 | 00:00:00 | 00:00:00 | |
| DO3MHA-11 | 2026-09-05 23:00:49 | 48.20412 | 11.69795 | 130° | 64km/h | 5095m | 3.5m/s | -5.1°C | 3.8% | 553.0hPa | 2.9V | 00:00:00 | 00:31:22 | 00:00:00 | |
| DL6DJ-15 | 2026-09-05 23:00:43 | 48.20470 | 11.69675 | 125° | 62km/h | 5072m | 3.9m/s | -5.0°C | 3.8% | 554.7hPa | 2.9V | 00:00:00 | 00:00:00 | 00:00:00 | |
| DO3MHA-11 | 2026-09-05 23:00:39 | 48.20508 | 11.69597 | 127° | 64km/h | 5056m | 4.1m/s | -4.8°C | 3.8% | 555.8hPa | 2.9V | 00:00:00 | 00:31:12 | 00:00:00 | |
| DG1MFX-10 | 2026-09-05 23:00:33 | 48.20560 | 11.69495 | 129° | 62km/h | 5037m | 3.3m/s | -4.8°C | 3.8% | 557.2hPa | 2.9V | 00:00:00 | 00:00:00 | 00:00:00 | |
| OE5DRO-10 | 2026-09-05 23:00:32 | 48.20578 | 11.69457 | 126° | 62km/h | 5030m | 3.7m/s | -4.7°C | 3.9% | 557.7hPa | 2.9V | 00:00:00 | 00:00:00 | 00:00:00 | |
| DO3MHA-11 | 2026-09-05 23:00:29 | 48.20604 | 11.69400 | 124° | 60km/h | 5019m | 3.9m/s | -4.6°C | 3.9% | 558.5hPa | 2.9V | 00:00:00 | 00:31:02 | 00:00:00 | |
| OE5DXL-15 | 2026-09-05 23:00:22 | 48.20658 | 11.69268 | 123° | 62km/h | 4992m | 6.0m/s | -4.3°C | 3.6% | 560.5hPa | 2.9V | 00:00:00 | 00:00:00 | 00:00:00 | |
| OE5DRO-10 | 2026-09-05 23:00:13 | 48.20746 | 11.69083 | 123° | 58km/h | 4954m | 4.2m/s | -4.0°C | 3.4% | 563.3hPa | 2.9V | 00:00:00 | 00:00:00 | 00:00:00 | |
| DL6DJ-15 | 2026-09-05 23:00:12 | 48.20754 | 11.69066 | 123° | 53km/h | 4950m | 4.3m/s | -4.0°C | 3.3% | 563.5hPa | 2.9V | 00:00:00 | 00:00:00 | 00:00:00 | |
| DO3MHA-11 | 2026-09-05 23:00:09 | 48.20777 | 11.69011 | 124° | 60km/h | 4938m | 4.3m/s | -3.8°C | 3.4% | 564.2hPa | 2.9V | 00:00:00 | 00:30:42 | 00:00:00 | |
| DO3MHA-11 | 2026-09-05 22:59:59 | 48.20874 | 11.68840 | 127° | 62km/h | 4898m | 2.9m/s | -3.9°C | 5.3% | 567.1hPa | 2.9V | 00:00:00 | 00:30:32 | 00:00:00 | |
| OE5DRO-10 | 2026-09-05 22:59:54 | 48.20916 | 11.68747 | 131° | 62km/h | 4871m | 4.8m/s | -3.7°C | 4.6% | 569.0hPa | 2.9V | 00:00:00 | 00:00:00 | 00:00:00 | |
| OE5DXL-15 | 2026-09-05 22:59:52 | 48.20938 | 11.68712 | 133° | 58km/h | 4863m | 5.2m/s | -3.7°C | 4.2% | 569.7hPa | 2.9V | 00:00:00 | 00:00:00 | 00:00:00 | |
| DG1MFX-10 | 2026-09-05 22:59:51 | 48.20938 | 11.68712 | 134° | 68km/h | 4863m | 5.2m/s | -3.7°C | 4.1% | 569.7hPa | 2.7V | 00:00:00 | 00:00:00 | 00:00:00 | |
| DO3MHA-11 | 2026-09-05 22:59:49 | 48.20969 | 11.68655 | 127° | 60km/h | 4846m | 4.8m/s | -3.6°C | 3.4% | 571.0hPa | 2.7V | 00:00:00 | 00:30:22 | 00:00:00 | |
| DL6DJ-15 | 2026-09-05 22:59:41 | 48.21053 | 11.68520 | 129° | 57km/h | 4805m | 5.5m/s | -3.8°C | 3.8% | 574.0hPa | 2.7V | 00:00:00 | 00:00:00 | 00:00:00 | |
| DO3MHA-11 | 2026-09-05 22:59:39 | 48.21072 | 11.68489 | 135° | 60km/h | 4794m | 5.5m/s | -3.8°C | 4.1% | 574.7hPa | 2.7V | 00:00:00 | 00:30:12 | 08:30:00 | |
| OE5DRO-10 | 2026-09-05 22:59:35 | 48.21115 | 11.68419 | 129° | 57km/h | 4773m | 4.7m/s | -3.7°C | 4.6% | 576.1hPa | 2.9V | 00:00:00 | 00:00:00 | 08:30:00 | |
| DG1MFX-10 | 2026-09-05 22:59:31 | 48.21145 | 11.68368 | 138° | 58km/h | 4758m | 6.0m/s | -3.7°C | 5.4% | 577.4hPa | 2.9V | 00:00:00 | 00:00:00 | 00:00:00 | |
| DO3MHA-11 | 2026-09-05 22:59:29 | 48.21180 | 11.68329 | 143° | 55km/h | 4740m | 5.7m/s | -3.5°C | 3.7% | 578.6hPa | 2.9V | 00:00:00 | 00:30:02 | 00:00:00 | |
| OE5DXL-15 | 2026-09-05 22:59:22 | 48.21236 | 11.68223 | 124° | 57km/h | 4702m | 4.1m/s | -3.1°C | 2.8% | 581.5hPa | 2.9V | 00:00:00 | 00:00:00 | 00:00:00 | |
| OE3JTB-15 | 2026-09-05 22:59:21 | 48.21245 | 11.68204 | 123° | 58km/h | 4696m | 6.5m/s | 0°C | 0% | 0hPa | 2.9V | 00:00:00 | 00:00:00 | 00:00:00 | |
| DO3MHA-11 | 2026-09-05 22:59:19 | 48.21261 | 11.68166 | 127° | 55km/h | 4684m | 5.3m/s | -3.0°C | 2.4% | 582.8hPa | 2.9V | 00:00:00 | 00:29:52 | 00:00:00 | |
| DL6DJ-15 | 2026-09-05 22:59:10 | 48.21344 | 11.68031 | 128° | 60km/h | 4635m | 5.3m/s | -2.8°C | 2.4% | 586.5hPa | 2.9V | 00:00:00 | 00:00:00 | 00:00:00 | |
| DO3MHA-11 | 2026-09-05 22:59:09 | 48.21353 | 11.68013 | 129° | 58km/h | 4631m | 3.8m/s | -2.7°C | 2.5% | 586.7hPa | 2.9V | 00:00:00 | 00:29:42 | 00:00:00 | |
| DO3MHA-11 | 2026-09-05 22:58:59 | 48.21442 | 11.67842 | 120° | 57km/h | 4578m | 5.9m/s | -2.6°C | 2.8% | 590.7hPa | 2.9V | 00:00:00 | 00:29:32 | 00:00:00 | |
| OE5DRO-10 | 2026-09-05 22:58:57 | 48.21458 | 11.67808 | 129° | 57km/h | 4567m | 4.7m/s | -2.6°C | 3.0% | 591.5hPa | 2.9V | 00:00:00 | 00:00:00 | 00:00:00 | |
| OE5DXL-15 | 2026-09-05 22:58:52 | 48.21503 | 11.67717 | 124° | 58km/h | 4541m | 4.9m/s | -2.5°C | 2.8% | 593.5hPa | 2.9V | 00:00:00 | 00:00:00 | 00:00:00 | |
| DG1MFX-10 | 2026-09-05 22:58:50 | 48.21511 | 11.67699 | 126° | 55km/h | 4535m | 6.0m/s | -2.5°C | 3.1% | 593.9hPa | 2.9V | 00:00:00 | 00:00:00 | 00:00:00 | |
| DO3MHA-11 | 2026-09-05 22:58:49 | 48.21528 | 11.67669 | 138° | 57km/h | 4524m | 5.0m/s | -2.4°C | 3.4% | 594.7hPa | 2.9V | 00:00:00 | 00:29:22 | 00:00:00 | |
| DO3MHA-11 | 2026-09-05 22:58:39 | 48.21615 | 11.67497 | 125° | 60km/h | 4470m | 4.8m/s | -2.3°C | 7.4% | 598.7hPa | 2.9V | 00:00:00 | 00:29:12 | 00:00:00 | |
| OE5DRO-10 | 2026-09-05 22:58:38 | 48.21623 | 11.67480 | 127° | 58km/h | 4465m | 5.8m/s | 0°C | 0% | 0hPa | 2.9V | 00:00:00 | 00:00:00 | 00:00:00 | |
| DG1MFX-10 | 2026-09-05 22:58:30 | 48.21686 | 11.67351 | 129° | 62km/h | 4433m | 3.4m/s | -2.4°C | 9.5% | 601.6hPa | 2.9V | 00:00:00 | 00:00:00 | 00:00:00 | |
| DO3MHA-11 | 2026-09-05 22:58:29 | 48.21705 | 11.67316 | 128° | 58km/h | 4424m | 3.9m/s | -2.4°C | 10.1% | 602.1hPa | 2.9V | 00:00:00 | 00:29:02 | 00:00:00 | |
| OE5DXL-15 | 2026-09-05 22:58:22 | 48.21762 | 11.67191 | 122° | 60km/h | 4400m | 3.5m/s | -2.4°C | 10.4% | 604.0hPa | 2.9V | 00:00:00 | 00:00:00 | 08:30:00 | |
| DO3MHA-11 | 2026-09-05 22:58:19 | 48.21787 | 11.67130 | 123° | 60km/h | 4390m | 4.1m/s | -2.5°C | 10.5% | 604.8hPa | 2.9V | 00:00:00 | 00:28:52 | 00:00:00 | |
| DO3MHA-11 | 2026-09-05 22:58:09 | 48.21871 | 11.66943 | 124° | 58km/h | 4357m | 3.6m/s | -2.3°C | 8.9% | 607.4hPa | 2.9V | 00:00:00 | 00:28:42 | 08:30:00 | |
| DL6DJ-15 | 2026-09-05 22:58:08 | 48.21878 | 11.66925 | 119° | 55km/h | 4353m | 3.3m/s | -2.3°C | 8.9% | 607.8hPa | 2.9V | 00:00:00 | 00:00:00 | 00:00:00 | |
| OE5DRO-10 | 2026-09-05 22:58:00 | 48.21935 | 11.66769 | 121° | 58km/h | 4328m | 3.1m/s | 0°C | 0% | 0hPa | 2.9V | 00:00:00 | 00:00:00 | 00:00:00 | |
| DO3MHA-11 | 2026-09-05 22:57:59 | 48.21943 | 11.66749 | 120° | 62km/h | 4326m | 3.1m/s | -2.2°C | 8.5% | 609.8hPa | 2.9V | 00:00:00 | 00:28:32 | 00:00:00 | |
| OE5DXL-15 | 2026-09-05 22:57:52 | 48.21996 | 11.66606 | 125° | 57km/h | 4303m | 2.9m/s | -2.0°C | 8.2% | 611.5hPa | 2.9V | 00:00:00 | 00:00:00 | 00:00:00 | |
| DO3MHA-11 | 2026-09-05 22:57:49 | 48.22022 | 11.66551 | 125° | 55km/h | 4294m | 2.7m/s | -1.9°C | 8.1% | 612.1hPa | 2.9V | 00:00:00 | 00:28:22 | 00:00:00 | |
| DG1MFX-10 | 2026-09-05 22:57:48 | 48.22022 | 11.66551 | 125° | 57km/h | 4294m | 2.8m/s | -2.0°C | 8.0% | 612.2hPa | 2.9V | 00:00:00 | 00:00:00 | 00:00:00 | |
| OE5DRO-10 | 2026-09-05 22:57:41 | 48.22073 | 11.66412 | 118° | 57km/h | 4269m | 2.7m/s | 0°C | 0% | 0hPa | 2.9V | 00:00:00 | 00:00:00 | 00:00:00 | |
| DO3MHA-11 | 2026-09-05 22:57:39 | 48.22089 | 11.66372 | 122° | 58km/h | 4262m | 4.3m/s | -1.6°C | 7.2% | 614.7hPa | 2.9V | 00:00:00 | 00:28:12 | 00:00:00 | |
| DL6DJ-15 | 2026-09-05 22:57:37 | 48.22115 | 11.66307 | 120° | 62km/h | 4246m | 4.4m/s | -1.6°C | 6.9% | 616.0hPa | 2.9V | 00:00:00 | 00:00:00 | 00:00:00 | |
| DO3MHA-11 | 2026-09-05 22:57:29 | 48.22167 | 11.66188 | 116° | 55km/h | 4213m | 5.1m/s | -1.5°C | 7.9% | 618.4hPa | 2.9V | 00:00:00 | 00:28:02 | 00:00:00 | |
| DG1MFX-10 | 2026-09-05 22:57:27 | 48.22173 | 11.66171 | 117° | 51km/h | 4208m | 5.2m/s | -1.5°C | 7.8% | 618.9hPa | 2.9V | 00:00:00 | 00:00:00 | 00:00:00 | |
| OE5DXL-15 | 2026-09-05 22:57:22 | 48.22218 | 11.66060 | 119° | 57km/h | 4178m | 4.8m/s | -1.3°C | 8.1% | 621.2hPa | 2.9V | 00:00:00 | 00:00:00 | 00:00:00 | |
| DO3MHA-11 | 2026-09-05 22:57:19 | 48.22241 | 11.66010 | 135° | 55km/h | 4161m | 4.9m/s | -1.2°C | 8.3% | 622.4hPa | 2.9V | 00:00:00 | 00:27:52 | 00:00:00 | |
| DO3MHA-11 | 2026-09-05 22:57:09 | 48.22313 | 11.65832 | 119° | 62km/h | 4110m | 4.4m/s | -1.3°C | 10.7% | 626.5hPa | 2.9V | 00:00:00 | 00:27:42 | 00:00:00 | |
| DG1MFX-10 | 2026-09-05 22:57:07 | 48.22321 | 11.65811 | 120° | 64km/h | 4105m | 5.6m/s | -1.4°C | 10.8% | 626.9hPa | 2.9V | 00:00:00 | 00:00:00 | 00:00:00 | |
| DL6DJ-15 | 2026-09-05 22:57:06 | 48.22343 | 11.65752 | 122° | 55km/h | 4091m | 3.8m/s | -1.4°C | 11.4% | 628.0hPa | 2.9V | 00:00:00 | 00:00:00 | 00:00:00 | |
| DO3MHA-11 | 2026-09-05 22:56:59 | 48.22391 | 11.65631 | 115° | 53km/h | 4064m | 5.4m/s | -1.3°C | 13.4% | 630.3hPa | 2.9V | 00:00:00 | 00:27:32 | 00:00:00 | |
| OE5DXL-15 | 2026-09-05 22:56:52 | 48.22429 | 11.65507 | 110° | 55km/h | 4026m | 6.4m/s | -1.1°C | 14.9% | 633.2hPa | 2.9V | 00:00:00 | 00:00:00 | 00:00:00 | |
| DO3MHA-11 | 2026-09-05 22:56:49 | 48.22445 | 11.65449 | 120° | 57km/h | 4008m | 4.2m/s | -1.1°C | 14.4% | 634.5hPa | 2.9V | 00:00:00 | 00:27:22 | 00:00:00 | |
| DG1MFX-10 | 2026-09-05 22:56:47 | 48.22452 | 11.65431 | 122° | 57km/h | 4004m | 4.4m/s | -1.2°C | 14.6% | 635.0hPa | 2.9V | 00:00:00 | 00:00:00 | 00:00:00 | |
| OE5DRO-10 | 2026-09-05 22:56:43 | 48.22483 | 11.65334 | 112° | 55km/h | 3979m | 6.0m/s | 0°C | 0% | 0hPa | 2.9V | 00:00:00 | 00:00:00 | 00:00:00 | |
| DO3MHA-11 | 2026-09-05 22:56:39 | 48.22510 | 11.65257 | 116° | 55km/h | 3959m | 4.6m/s | -1.0°C | 16.5% | 638.7hPa | 2.9V | 00:00:00 | 00:27:12 | 08:30:00 | |
| DL6DJ-15 | 2026-09-05 22:56:35 | 48.22538 | 11.65164 | 120° | 47km/h | 3933m | 5.4m/s | -1.0°C | 16.6% | 640.7hPa | 2.9V | 00:00:00 | 00:00:00 | 00:00:00 | |
| DO3MHA-11 | 2026-09-05 22:56:29 | 48.22566 | 11.65073 | 107° | 53km/h | 3909m | 4.9m/s | -0.8°C | 16.2% | 642.7hPa | 2.9V | 00:00:00 | 00:27:02 | 00:00:00 | |
| DG1MFX-10 | 2026-09-05 22:56:27 | 48.22570 | 11.65054 | 110° | 51km/h | 3903m | 5.8m/s | -0.9°C | 16.6% | 643.1hPa | 2.9V | 00:00:00 | 00:00:00 | 00:00:00 | |
| OE5DRO-10 | 2026-09-05 22:56:23 | 48.22605 | 11.64964 | 120° | 53km/h | 3877m | 6.2m/s | 0°C | 0% | 0hPa | 2.9V | 00:00:00 | 00:00:00 | 00:00:00 | |
| OE5DXL-15 | 2026-09-05 22:56:22 | 48.22611 | 11.64946 | 117° | 51km/h | 3872m | 4.4m/s | -1.0°C | 17.4% | 645.7hPa | 2.9V | 00:00:00 | 00:00:00 | 00:00:00 | |
| DO3MHA-11 | 2026-09-05 22:56:18 | 48.22635 | 11.64878 | 121° | 53km/h | 3851m | 4.1m/s | -1.2°C | 20.9% | 647.3hPa | 2.9V | 00:00:00 | 00:26:51 | 00:00:00 | |
| DO3MHA-11 | 2026-09-05 22:56:08 | 48.22701 | 11.64707 | 115° | 49km/h | 3798m | 5.0m/s | -0.7°C | 20.3% | 651.5hPa | 2.9V | 00:00:00 | 00:26:41 | 00:00:00 | |
| DG1MFX-10 | 2026-09-05 22:56:06 | 48.22705 | 11.64692 | 112° | 42km/h | 3793m | 5.8m/s | -0.7°C | 20.2% | 652.2hPa | 2.9V | 00:00:00 | 00:00:00 | 00:00:00 | |
| DL6DJ-15 | 2026-09-05 22:56:04 | 48.22724 | 11.64631 | 119° | 51km/h | 3775m | 3.8m/s | -0.7°C | 21.2% | 653.5hPa | 2.9V | 00:00:00 | 00:00:00 | 00:00:00 | |
| DO3MHA-11 | 2026-09-05 22:55:58 | 48.22751 | 11.64533 | 103° | 55km/h | 3748m | 4.1m/s | -0.4°C | 20.6% | 655.6hPa | 2.9V | 00:00:00 | 00:26:31 | 00:00:00 | |
| OE5DXL-15 | 2026-09-05 22:55:52 | 48.22782 | 11.64421 | 119° | 51km/h | 3718m | 6.4m/s | -0.1°C | 20.3% | 658.2hPa | 2.9V | 00:00:00 | 00:00:00 | 00:00:00 | |
| DO3MHA-11 | 2026-09-05 22:55:48 | 48.22803 | 11.64342 | 107° | 46km/h | 3696m | 4.6m/s | 0.0°C | 20.1% | 659.9hPa | 2.9V | 00:00:00 | 00:26:21 | 00:00:00 | |
| DG1MFX-10 | 2026-09-05 22:55:45 | 48.22810 | 11.64312 | 113° | 37km/h | 3686m | 4.8m/s | 0.1°C | 19.9% | 660.8hPa | 2.9V | 00:00:00 | 00:00:00 | 00:00:00 | |
| DO3MHA-11 | 2026-09-05 22:55:38 | 48.22847 | 11.64180 | 127° | 53km/h | 3641m | 5.5m/s | 0.4°C | 20.5% | 664.5hPa | 2.9V | 00:00:00 | 00:26:11 | 00:00:00 | |
| DL6DJ-15 | 2026-09-05 22:55:33 | 48.22874 | 11.64078 | 98° | 55km/h | 3605m | 6.2m/s | 0.7°C | 19.6% | 667.4hPa | 2.9V | 00:00:00 | 00:00:00 | 00:00:00 | |
| DO3MHA-11 | 2026-09-05 22:55:28 | 48.22888 | 11.63993 | 111° | 49km/h | 3585m | 5.0m/s | 0.8°C | 20.1% | 669.0hPa | 2.9V | 00:00:00 | 00:26:01 | 00:00:00 | |
| DG1MFX-10 | 2026-09-05 22:55:25 | 48.22898 | 11.63957 | 114° | 51km/h | 3575m | 6.5m/s | 0.9°C | 20.6% | 670.0hPa | 2.9V | 00:00:00 | 00:00:00 | 00:00:00 | |
| OE5DXL-15 | 2026-09-05 22:55:22 | 48.22921 | 11.63886 | 122° | 47km/h | 3552m | 4.4m/s | 0.9°C | 21.4% | 671.8hPa | 2.9V | 00:00:00 | 00:00:00 | 00:00:00 | |
| DO3MHA-11 | 2026-09-05 22:55:18 | 48.22947 | 11.63828 | 123° | 44km/h | 3538m | 4.3m/s | 1.0°C | 21.3% | 673.1hPa | 2.9V | 00:00:00 | 00:25:51 | 00:00:00 | |
| DO3MHA-11 | 2026-09-05 22:55:08 | 48.22988 | 11.63674 | 106° | 49km/h | 3490m | 3.8m/s | 1.2°C | 21.7% | 677.1hPa | 2.9V | 00:00:00 | 00:25:41 | 08:30:00 | |
| DG1MFX-10 | 2026-09-05 22:55:05 | 48.22995 | 11.63636 | 110° | 51km/h | 3481m | 4.4m/s | 1.3°C | 21.7% | 678.0hPa | 2.9V | 00:00:00 | 00:00:00 | 00:00:00 | |
| DL6DJ-15 | 2026-09-05 22:55:01 | 48.23020 | 11.63553 | 117° | 46km/h | 3460m | 4.2m/s | 1.4°C | 21.1% | 679.7hPa | 2.9V | 00:00:00 | 00:00:00 | 00:00:00 | |
| DO3MHA-11 | 2026-09-05 22:54:58 | 48.23035 | 11.63504 | 111° | 46km/h | 3450m | 4.4m/s | 1.4°C | 21.2% | 680.6hPa | 2.9V | 00:00:00 | 00:25:31 | 00:00:00 | |
| OE5DXL-15 | 2026-09-05 22:54:52 | 48.23051 | 11.63395 | 108° | 46km/h | 3429m | 3.9m/s | 1.4°C | 20.4% | 682.2hPa | 2.9V | 00:00:00 | 00:00:00 | 00:00:00 | |
| DO3MHA-11 | 2026-09-05 22:54:48 | 48.23073 | 11.63342 | 133° | 46km/h | 3409m | 6.3m/s | 1.6°C | 18.5% | 684.0hPa | 2.9V | 00:00:00 | 00:25:21 | 00:00:00 | |
| DG1MFX-10 | 2026-09-05 22:54:44 | 48.23092 | 11.63304 | 120° | 42km/h | 3394m | 4.6m/s | 1.8°C | 18.5% | 685.3hPa | 2.9V | 00:00:00 | 00:00:00 | 00:00:00 | |
| DO3MHA-11 | 2026-09-05 22:54:38 | 48.23127 | 11.63184 | 126° | 46km/h | 3356m | 4.9m/s | 2.1°C | 17.1% | 688.5hPa | 2.9V | 00:00:00 | 00:25:11 | 00:00:00 | |
| DL6DJ-15 | 2026-09-05 22:54:30 | 48.23159 | 11.63051 | 96° | 37km/h | 3318m | 4.4m/s | 2.5°C | 16.7% | 691.9hPa | 2.9V | 00:00:00 | 00:00:00 | 00:00:00 | |
| DO3MHA-11 | 2026-09-05 22:54:28 | 48.23163 | 11.63025 | 111° | 47km/h | 3311m | 3.9m/s | 2.5°C | 16.3% | 692.4hPa | 2.9V | 00:00:00 | 00:25:01 | 00:00:00 | |
| DG1MFX-10 | 2026-09-05 22:54:24 | 48.23175 | 11.62983 | 113° | 49km/h | 3296m | 5.4m/s | 2.7°C | 16.2% | 693.7hPa | 2.9V | 00:00:00 | 00:00:00 | 00:00:00 | |
| OE5DXL-15 | 2026-09-05 22:54:22 | 48.23187 | 11.62923 | 105° | 47km/h | 3280m | 6.1m/s | 2.8°C | 16.0% | 695.0hPa | 2.9V | 00:00:00 | 00:00:00 | 00:00:00 | |
| DO3MHA-11 | 2026-09-05 22:54:18 | 48.23204 | 11.62853 | 115° | 42km/h | 3260m | 5.4m/s | 3.0°C | 15.7% | 696.9hPa | 2.9V | 00:00:00 | 00:24:51 | 00:00:00 | |
| DO3MHA-11 | 2026-09-05 22:54:08 | 48.23238 | 11.62703 | 100° | 49km/h | 3210m | 4.5m/s | 3.5°C | 15.4% | 701.0hPa | 2.9V | 00:00:00 | 00:24:41 | 00:00:00 | |
| DG1MFX-10 | 2026-09-05 22:54:03 | 48.23251 | 11.62626 | 113° | 51km/h | 3190m | 5.3m/s | 3.7°C | 15.2% | 702.9hPa | 2.9V | 00:00:00 | 00:00:00 | 00:00:00 | |
| DL6DJ-15 | 2026-09-05 22:53:59 | 48.23264 | 11.62543 | 95° | 49km/h | 3159m | 6.4m/s | 4.0°C | 14.0% | 705.5hPa | 2.9V | 00:00:00 | 00:00:00 | 00:00:00 | |
| DO3MHA-11 | 2026-09-05 22:53:58 | 48.23266 | 11.62524 | 101° | 51km/h | 3153m | 4.6m/s | 4.0°C | 14.0% | 705.9hPa | 2.9V | 00:00:00 | 00:24:31 | 00:00:00 | |
| OE5DXL-15 | 2026-09-05 22:53:52 | 48.23299 | 11.62414 | 117° | 53km/h | 3125m | 3.9m/s | 4.3°C | 12.8% | 708.7hPa | 2.9V | 00:00:00 | 00:00:00 | 08:30:00 | |
| DO3MHA-11 | 2026-09-05 22:53:48 | 48.23318 | 11.62350 | 114° | 60km/h | 3109m | 6.0m/s | 4.5°C | 12.2% | 710.0hPa | 2.9V | 00:00:00 | 00:24:21 | 00:00:00 | |
| DG1MFX-10 | 2026-09-05 22:53:43 | 48.23343 | 11.62278 | 120° | 66km/h | 3086m | 5.1m/s | 4.6°C | 5.5% | 711.9hPa | 2.9V | 00:00:00 | 00:00:00 | 00:00:00 | |
| DO3MHA-11 | 2026-09-05 22:53:38 | 48.23388 | 11.62147 | 117° | 47km/h | 3052m | 7.1m/s | 4.5°C | 3.7% | 714.8hPa | 2.9V | 00:00:00 | 00:24:11 | 08:30:00 | |
| DO3MHA-11 | 2026-09-05 22:53:28 | 48.23425 | 11.61980 | 104° | 51km/h | 2984m | 7.3m/s | 4.5°C | 3.9% | 720.7hPa | 2.9V | 00:00:00 | 00:24:01 | 00:00:00 | |
| OE5DXL-15 | 2026-09-05 22:53:22 | 48.23425 | 11.61858 | 97° | 51km/h | 2950m | 4.2m/s | 4.8°C | 4.3% | 723.8hPa | 2.9V | 00:00:00 | 00:00:00 | 00:00:00 | |
| DO3MHA-11 | 2026-09-05 22:53:18 | 48.23434 | 11.61787 | 97° | 53km/h | 2931m | 5.1m/s | 4.9°C | 5.0% | 725.5hPa | 2.9V | 00:00:00 | 00:23:51 | 00:00:00 | |
| DO3MHA-11 | 2026-09-05 22:53:08 | 48.23435 | 11.61584 | 97° | 49km/h | 2874m | 4.8m/s | 5.5°C | 6.2% | 730.6hPa | 2.9V | 00:00:00 | 00:23:41 | 00:00:00 | |
| DG1MFX-10 | 2026-09-05 22:53:02 | 48.23440 | 11.61496 | 85° | 49km/h | 2844m | 6.9m/s | 5.8°C | 7.0% | 733.4hPa | 2.9V | 00:00:00 | 00:00:00 | 00:00:00 | |
| DL6DJ-15 | 2026-09-05 22:52:57 | 48.23437 | 11.61379 | 94° | 49km/h | 2815m | 4.8m/s | 6.0°C | 7.2% | 736.1hPa | 2.9V | 00:00:00 | 00:00:00 | 00:00:00 | |
| OE5DXL-15 | 2026-09-05 22:52:52 | 48.23443 | 11.61269 | 98° | 57km/h | 2796m | 4.1m/s | 6.1°C | 7.2% | 737.9hPa | 2.9V | 00:00:00 | 00:00:00 | 00:00:00 | |
| DO3MHA-11 | 2026-09-05 22:52:48 | 48.23453 | 11.61182 | 98° | 53km/h | 2779m | 6.3m/s | 6.2°C | 7.1% | 739.4hPa | 2.9V | 00:00:00 | 00:23:21 | 00:00:00 | |
| DG1MFX-10 | 2026-09-05 22:52:41 | 48.23463 | 11.61066 | 102° | 49km/h | 2744m | 3.5m/s | 6.6°C | 6.3% | 742.4hPa | 2.9V | 00:00:00 | 00:00:00 | 00:00:00 | |
| DO3MHA-11 | 2026-09-05 22:52:38 | 48.23466 | 11.60984 | 85° | 57km/h | 2729m | 4.4m/s | 6.6°C | 6.0% | 743.7hPa | 2.9V | 00:00:00 | 00:23:11 | 00:00:00 | |
| DO3MHA-11 | 2026-09-05 22:52:28 | 48.23464 | 11.60770 | 85° | 51km/h | 2675m | 4.9m/s | 7.1°C | 4.1% | 748.8hPa | 2.9V | 00:00:00 | 00:23:01 | 00:00:00 | |
| DL6DJ-15 | 2026-09-05 22:52:26 | 48.23460 | 11.60724 | 81° | 60km/h | 2665m | 5.5m/s | 0°C | -1.0% | 749.9hPa | 2.9V | 00:00:00 | 00:00:00 | 00:00:00 | |
| OE5DXL-15 | 2026-09-05 22:52:22 | 48.23457 | 11.60642 | 94° | 46km/h | 2644m | 4.7m/s | 7.3°C | 3.8% | 751.5hPa | 2.9V | 00:00:00 | 00:00:00 | 00:00:00 | |
| DG1MFX-10 | 2026-09-05 22:52:20 | 48.23458 | 11.60626 | 95° | 42km/h | 2639m | 5.9m/s | 7.4°C | 3.8% | 752.1hPa | 2.9V | 00:00:00 | 00:00:00 | 00:00:00 | |
| DO3MHA-11 | 2026-09-05 22:52:19 | 48.23456 | 11.60580 | 84° | 49km/h | 2626m | 3.6m/s | 7.4°C | 3.7% | 753.4hPa | 2.9V | 00:00:00 | 00:22:51 | 00:00:00 | |
| DO3MHA-11 | 2026-09-05 22:52:08 | 48.23457 | 11.60396 | 92° | 46km/h | 2573m | 5.7m/s | 7.6°C | 4.1% | 758.0hPa | 2.9V | 00:00:00 | 00:22:41 | 08:30:00 | |
| DO3MHA-11 | 2026-09-05 22:51:58 | 48.23473 | 11.60223 | 90° | 42km/h | 2521m | 4.2m/s | 7.5°C | 2.7% | 763.0hPa | 2.9V | 00:00:00 | 00:22:31 | 00:00:00 | |
| DG1MFX-10 | 2026-09-05 22:51:56 | 48.23473 | 11.60207 | 89° | 42km/h | 2517m | 4.0m/s | 7.6°C | 2.7% | 763.3hPa | 2.9V | 00:00:00 | 00:00:00 | 00:00:00 | |
| OE5DXL-15 | 2026-09-05 22:51:52 | 48.23465 | 11.60135 | 85° | 44km/h | 2497m | 4.3m/s | 7.5°C | 3.7% | 765.1hPa | 2.9V | 00:00:00 | 00:00:00 | 00:00:00 | |
| DO3MHA-11 | 2026-09-05 22:51:48 | 48.23470 | 11.60062 | 102° | 44km/h | 2478m | 7.4m/s | 7.0°C | 7.7% | 766.8hPa | 2.9V | 00:00:00 | 00:22:21 | 00:00:00 | |
| DO3MHA-11 | 2026-09-05 22:51:38 | 48.23474 | 11.59898 | 90° | 46km/h | 2421m | 7.3m/s | 5.4°C | 61.9% | 772.2hPa | 2.9V | 00:00:00 | 00:22:11 | 00:00:00 | |
| DG1MFX-10 | 2026-09-05 22:51:36 | 48.23474 | 11.59882 | 89° | 44km/h | 2414m | 6.6m/s | 5.4°C | 69.0% | 773.0hPa | 2.9V | 00:00:00 | 00:00:00 | 00:00:00 | |
| DO3MHA-11 | 2026-09-05 22:51:28 | 48.23477 | 11.59725 | 88° | 46km/h | 2370m | 6.0m/s | 5.6°C | 76.2% | 777.1hPa | 2.9V | 00:00:00 | 00:22:01 | 00:00:00 | |
| OE5DXL-15 | 2026-09-05 22:51:22 | 48.23471 | 11.59630 | 70° | 47km/h | 2338m | 6.1m/s | 0°C | 0% | 0hPa | 2.9V | 00:00:00 | 00:00:00 | 00:00:00 | |
| DO3MHA-11 | 2026-09-05 22:51:18 | 48.23464 | 11.59555 | 91° | 51km/h | 2316m | 5.1m/s | 6.1°C | 73.9% | 782.0hPa | 2.9V | 00:00:00 | 00:21:51 | 00:00:00 | |
| DG1MFX-10 | 2026-09-05 22:51:15 | 48.23466 | 11.59513 | 97° | 51km/h | 2308m | 3.2m/s | 6.2°C | 76.5% | 783.0hPa | 2.9V | 00:00:00 | 00:00:00 | 00:00:00 | |
| DO3MHA-11 | 2026-09-05 22:51:09 | 48.23455 | 11.59365 | 91° | 47km/h | 2274m | 3.6m/s | 6.4°C | 75.1% | 786.2hPa | 2.9V | 00:00:00 | 00:21:41 | 00:00:00 | |
| DO3MHA-11 | 2026-09-05 22:50:58 | 48.23435 | 11.59198 | 71° | 47km/h | 2222m | 4.5m/s | 6.8°C | 84.2% | 791.1hPa | 2.9V | 00:00:00 | 00:21:31 | 00:00:00 | |
| DG1MFX-10 | 2026-09-05 22:50:55 | 48.23429 | 11.59170 | 76° | 40km/h | 2213m | 4.7m/s | 7.0°C | 83.3% | 792.1hPa | 2.9V | 00:00:00 | 00:00:00 | 00:00:00 | |
| OE5DXL-15 | 2026-09-05 22:50:52 | 48.23427 | 11.59099 | 93° | 47km/h | 2195m | 5.4m/s | 0°C | 0% | 0hPa | 2.9V | 00:00:00 | 00:00:00 | 00:00:00 | |
| DO3MHA-11 | 2026-09-05 22:50:48 | 48.23422 | 11.59017 | 76° | 49km/h | 2177m | 3.9m/s | 7.3°C | 81.0% | 795.7hPa | 2.9V | 00:00:00 | 00:21:21 | 00:00:00 | |
| DO3MHA-11 | 2026-09-05 22:50:38 | 48.23420 | 11.58830 | 88° | 44km/h | 2127m | 5.7m/s | 7.7°C | 85.3% | 800.2hPa | 2.9V | 00:00:00 | 00:21:11 | 08:30:00 | |
| DG1MFX-10 | 2026-09-05 22:50:36 | 48.23418 | 11.58798 | 79° | 38km/h | 2117m | 4.3m/s | 7.8°C | 85.5% | 801.5hPa | 2.9V | 00:00:00 | 00:00:00 | 00:00:00 | |
| DO3MHA-11 | 2026-09-05 22:50:28 | 48.23406 | 11.58665 | 98° | 46km/h | 2072m | 6.4m/s | 8.1°C | 78.1% | 805.5hPa | 2.9V | 00:00:00 | 00:21:01 | 00:00:00 | |
| OE5DXL-15 | 2026-09-05 22:50:22 | 48.23406 | 11.58558 | 81° | 40km/h | 2042m | 6.9m/s | 0°C | 0% | 0hPa | 2.9V | 00:00:00 | 00:00:00 | 00:00:00 | |
| DO3MHA-11 | 2026-09-05 22:50:18 | 48.23404 | 11.58497 | 89° | 46km/h | 2016m | 7.7m/s | 8.5°C | 76.5% | 811.2hPa | 2.9V | 00:00:00 | 00:20:51 | 00:00:00 | |
| DG1MFX-10 | 2026-09-05 22:50:14 | 48.23399 | 11.58451 | 79° | 47km/h | 1999m | 4.1m/s | 8.7°C | 75.8% | 812.9hPa | 2.9V | 00:00:00 | 00:00:00 | 00:00:00 | |
| DO3MHA-11 | 2026-09-05 22:50:08 | 48.23384 | 11.58328 | 82° | 47km/h | 1969m | 3.1m/s | 8.9°C | 72.5% | 816.0hPa | 2.9V | 00:00:00 | 00:20:41 | 00:00:00 | |
| DO3MHA-11 | 2026-09-05 22:49:58 | 48.23384 | 11.58150 | 86° | 42km/h | 1922m | 3.9m/s | 9.4°C | 58.5% | 820.5hPa | 2.9V | 00:00:00 | 00:20:31 | 00:00:00 | |
| DG1MFX-10 | 2026-09-05 22:49:55 | 48.23385 | 11.58104 | 98° | 40km/h | 1907m | 6.4m/s | 9.6°C | 58.3% | 822.0hPa | 2.9V | 00:00:00 | 00:00:00 | 00:00:00 | |
| DO3MHA-11 | 2026-09-05 22:49:48 | 48.23391 | 11.57990 | 106° | 44km/h | 1871m | 5.2m/s | 9.7°C | 60.5% | 825.6hPa | 2.9V | 00:00:00 | 00:20:21 | 00:00:00 | |
| OE5DXL-15 | 2026-09-05 22:49:46 | 48.23398 | 11.57964 | 116° | 46km/h | 1861m | 3.5m/s | 0°C | 0% | 0hPa | 2.9V | 00:00:00 | 00:20:19 | 00:00:00 | |
| DO3MHA-11 | 2026-09-05 22:49:38 | 48.23434 | 11.57834 | 103° | 47km/h | 1817m | 4.5m/s | 9.9°C | 59.7% | 831.0hPa | 2.9V | 00:00:00 | 00:20:11 | 00:00:00 | |
| DG1MFX-10 | 2026-09-05 22:49:34 | 48.23438 | 11.57779 | 95° | 40km/h | 1804m | 4.9m/s | 10.0°C | 60.6% | 832.0hPa | 2.9V | 00:00:00 | 00:00:00 | 00:00:00 | |
| DO3MHA-11 | 2026-09-05 22:49:28 | 48.23464 | 11.57663 | 109° | 42km/h | 1768m | 4.5m/s | 10.1°C | 60.2% | 835.6hPa | 2.9V | 00:00:00 | 00:20:01 | 00:00:00 | |
| DO3MHA-11 | 2026-09-05 22:49:18 | 48.23508 | 11.57517 | 115° | 46km/h | 1726m | 3.8m/s | 10.4°C | 53.2% | 840.1hPa | 2.9V | 00:00:00 | 00:19:51 | 00:00:00 | |
| OE5DXL-15 | 2026-09-05 22:49:15 | 48.23519 | 11.57462 | 102° | 44km/h | 1715m | 3.7m/s | 0°C | 0% | 0hPa | 2.9V | 00:00:00 | 00:00:00 | 00:00:00 | |
| DG1MFX-10 | 2026-09-05 22:49:14 | 48.23519 | 11.57462 | 103° | 49km/h | 1715m | 3.7m/s | 10.5°C | 0% | 841.3hPa | 2.9V | 00:00:00 | 00:00:00 | 00:00:00 | |
| DO3MHA-11 | 2026-09-05 22:49:08 | 48.23551 | 11.57359 | 120° | 38km/h | 1675m | 4.9m/s | 10.6°C | 52.9% | 845.3hPa | 2.9V | 00:00:00 | 00:19:41 | 08:30:00 | |
| DO3MHA-11 | 2026-09-05 22:48:58 | 48.23594 | 11.57227 | 115° | 40km/h | 1625m | 5.5m/s | 11.0°C | 53.1% | 850.3hPa | 2.9V | 00:00:00 | 00:19:31 | 00:00:00 | |
| DG1MFX-10 | 2026-09-05 22:48:53 | 48.23613 | 11.57173 | 129° | 38km/h | 1603m | 5.5m/s | 11.1°C | 0% | 852.7hPa | 2.9V | 00:00:00 | 00:00:00 | 00:00:00 | |
| DO3MHA-11 | 2026-09-05 22:48:48 | 48.23644 | 11.57097 | 116° | 29km/h | 1573m | 5.2m/s | 11.4°C | 54.6% | 856.0hPa | 2.9V | 00:00:00 | 00:19:21 | 00:00:00 | |
| DO3MHA-11 | 2026-09-05 22:48:38 | 48.23702 | 11.57022 | 139° | 37km/h | 1517m | 4.4m/s | 11.8°C | 53.9% | 861.6hPa | 2.9V | 00:00:00 | 00:19:11 | 00:00:00 | |
| DG1MFX-10 | 2026-09-05 22:48:32 | 48.23727 | 11.56956 | 105° | 35km/h | 1497m | 4.1m/s | 12.1°C | 0% | 0hPa | 2.9V | 00:00:00 | 00:00:00 | 00:00:00 | |
| DO3MHA-11 | 2026-09-05 22:48:28 | 48.23746 | 11.56906 | 144° | 33km/h | 1472m | 5.7m/s | 12.3°C | 53.0% | 866.0hPa | 2.9V | 00:00:00 | 00:19:01 | 00:00:00 | |
| DO3MHA-11 | 2026-09-05 22:48:18 | 48.23804 | 11.56814 | 125° | 31km/h | 1418m | 4.1m/s | 12.8°C | 51.9% | 871.7hPa | 2.9V | 00:00:00 | 00:18:51 | 00:00:00 | |
| DO3MHA-11 | 2026-09-05 22:48:08 | 48.23849 | 11.56721 | 125° | 29km/h | 1376m | 5.4m/s | 13.1°C | 51.6% | 876.2hPa | 2.9V | 00:00:00 | 00:18:41 | 00:00:00 | |
| DG1MFX-10 | 2026-09-05 22:48:06 | 48.23854 | 11.56710 | 119° | 33km/h | 1370m | 5.6m/s | 0°C | 0% | 0hPa | 2.9V | 00:00:00 | 00:00:00 | 00:00:00 | |
| DO3MHA-11 | 2026-09-05 22:47:58 | 48.23897 | 11.56638 | 122° | 31km/h | 1324m | 3.9m/s | 13.6°C | 49.7% | 881.5hPa | 2.9V | 00:00:00 | 00:18:31 | 00:00:00 | |
| DO3MHA-11 | 2026-09-05 22:47:48 | 48.23951 | 11.56556 | 125° | 29km/h | 1277m | 4.5m/s | 14.1°C | 50.0% | 886.5hPa | 2.9V | 00:00:00 | 00:18:21 | 00:00:00 | |
| DG1MFX-10 | 2026-09-05 22:47:45 | 48.23959 | 11.56543 | 143° | 26km/h | 1267m | 5.9m/s | 0°C | 0% | 0hPa | 2.9V | 00:00:00 | 00:00:00 | 00:00:00 | |
| DO3MHA-11 | 2026-09-05 22:47:38 | 48.23999 | 11.56475 | 125° | 29km/h | 1227m | 4.5m/s | 14.5°C | 47.6% | 891.8hPa | 2.9V | 00:00:00 | 00:18:11 | 08:30:00 | |
| DO3MHA-11 | 2026-09-05 22:47:28 | 48.24052 | 11.56402 | 137° | 26km/h | 1187m | 6.6m/s | 14.9°C | 49.8% | 896.1hPa | 2.9V | 00:00:00 | 00:18:01 | 00:00:00 | |
| DG1MFX-10 | 2026-09-05 22:47:18 | 48.24095 | 11.56351 | 140° | 35km/h | 1139m | 6.3m/s | 0°C | 0% | 0hPa | 2.9V | 00:00:00 | 00:00:00 | 00:00:00 | |
| DO3MHA-11 | 2026-09-05 22:47:18 | 48.24103 | 11.56343 | 149° | 35km/h | 1133m | 5.2m/s | 15.4°C | 49.6% | 901.9hPa | 2.9V | 00:00:00 | 00:17:51 | 00:00:00 | |
| DO3MHA-11 | 2026-09-05 22:47:08 | 48.24161 | 11.56258 | 133° | 31km/h | 1087m | 3.7m/s | 15.8°C | 49.0% | 907.0hPa | 2.9V | 00:00:00 | 00:17:41 | 00:00:00 | |
| DO3MHA-11 | 2026-09-05 22:46:58 | 48.24213 | 11.56179 | 115° | 27km/h | 1047m | 4.3m/s | 16.1°C | 48.3% | 911.3hPa | 0V | 00:00:00 | 00:17:31 | 00:00:00 | |
| DO3MHA-11 | 2026-09-05 22:46:48 | 48.24268 | 11.56117 | 145° | 35km/h | 1005m | 3.3m/s | 0°C | 0% | 0hPa | 0V | 00:00:00 | 00:17:21 | 00:00:00 | |
| DO3MHA-11 | 2026-09-05 22:46:38 | 48.24314 | 11.56016 | 120° | 27km/h | 967m | 5.5m/s | 0°C | 0% | 0hPa | 0V | 00:00:00 | 00:17:11 | 00:00:00 | |
| DO3MHA-11 | 2026-09-05 22:46:28 | 48.24343 | 11.55926 | 80° | 27km/h | 923m | 3.3m/s | 0°C | 0% | 0hPa | 0V | 00:00:00 | 00:17:01 | 00:00:00 | |
| DO3MHA-11 | 2026-09-05 22:46:18 | 48.24392 | 11.55852 | 114° | 29km/h | 877m | 4.5m/s | 0°C | 0% | 0hPa | 0V | 00:00:00 | 00:16:51 | 00:00:00 | |
| DO3MHA-11 | 2026-09-05 22:46:08 | 48.24420 | 11.55759 | 110° | 31km/h | 835m | 4.7m/s | 0°C | 0% | 0hPa | 0V | 00:00:00 | 00:16:41 | 00:00:00 |